<?xml version="1.0" encoding="UTF-8" standalone="no" ?>
<gpx xmlns="http://www.topografix.com/GPX/1/1" xmlns:xsi="http://www.w3.org/2001/XMLSchema-instance" xsi:schemaLocation="http://www.topografix.com/GPX/1/1 http://www.topografix.com/GPX/1/1/gpx.xsd" version="1.1" creator="VisuGPX - https://www.visugpx.com">
  <metadata>
    <name>Angouleme-Gourdon 2v2</name>
  </metadata>
  <trk>
    <name><![CDATA[Angouleme-Gourdon 2v2]]></name>
    <trkseg>
      <trkpt lat="45.18745" lon="0.77211">
        <ele>89.652777164057</ele>
        <time>2021-07-17T14:18:08.000Z</time>
      </trkpt>
      <trkpt lat="45.18748" lon="0.77249">
        <ele>89.744882229382</ele>
        <time>2021-07-17T14:18:08.005Z</time>
      </trkpt>
      <trkpt lat="45.18755" lon="0.77291">
        <ele>89.739857108238</ele>
        <time>2021-07-17T14:18:08.016Z</time>
      </trkpt>
      <trkpt lat="45.18763" lon="0.77317">
        <ele>89.688978311402</ele>
        <time>2021-07-17T14:18:08.032Z</time>
      </trkpt>
      <trkpt lat="45.18774" lon="0.77361">
        <ele>89.607227553092</ele>
        <time>2021-07-17T14:18:08.054Z</time>
      </trkpt>
      <trkpt lat="45.18787" lon="0.77401">
        <ele>89.593854662543</ele>
        <time>2021-07-17T14:18:08.082Z</time>
      </trkpt>
      <trkpt lat="45.18814" lon="0.77468">
        <ele>89.651889499563</ele>
        <time>2021-07-17T14:18:08.121Z</time>
      </trkpt>
      <trkpt lat="45.18836" lon="0.77532">
        <ele>89.879765927955</ele>
        <time>2021-07-17T14:18:08.170Z</time>
      </trkpt>
      <trkpt lat="45.18854" lon="0.77601">
        <ele>89.727810804211</ele>
        <time>2021-07-17T14:18:08.230Z</time>
      </trkpt>
      <trkpt lat="45.18862" lon="0.77648">
        <ele>89.546660570731</ele>
        <time>2021-07-17T14:18:08.297Z</time>
      </trkpt>
      <trkpt lat="45.18865" lon="0.77684">
        <ele>89.50498584491</ele>
        <time>2021-07-17T14:18:08.369Z</time>
      </trkpt>
      <trkpt lat="45.18865" lon="0.77706">
        <ele>89.520592216493</ele>
        <time>2021-07-17T14:18:08.444Z</time>
      </trkpt>
      <trkpt lat="45.18855" lon="0.77767">
        <ele>89.340775428134</ele>
        <time>2021-07-17T14:18:08.528Z</time>
      </trkpt>
      <trkpt lat="45.18849" lon="0.77862">
        <ele>89.299669830562</ele>
        <time>2021-07-17T14:18:08.625Z</time>
      </trkpt>
      <trkpt lat="45.18842" lon="0.77872">
        <ele>89.311212929613</ele>
        <time>2021-07-17T14:18:08.724Z</time>
      </trkpt>
      <trkpt lat="45.18836" lon="0.77873">
        <ele>89.330134347381</ele>
        <time>2021-07-17T14:18:08.824Z</time>
      </trkpt>
      <trkpt lat="45.18754" lon="0.77881">
        <ele>89.381652654228</ele>
        <time>2021-07-17T14:18:08.941Z</time>
      </trkpt>
      <trkpt lat="45.18743" lon="0.77882">
        <ele>89.420175733833</ele>
        <time>2021-07-17T14:18:09.060Z</time>
      </trkpt>
      <trkpt lat="45.18733" lon="0.77878">
        <ele>89.486789875633</ele>
        <time>2021-07-17T14:18:09.181Z</time>
      </trkpt>
      <trkpt lat="45.18727" lon="0.77889">
        <ele>89.553246144162</ele>
        <time>2021-07-17T14:18:09.304Z</time>
      </trkpt>
      <trkpt lat="45.18695" lon="0.77924">
        <ele>89.646012535893</ele>
        <time>2021-07-17T14:18:09.435Z</time>
      </trkpt>
      <trkpt lat="45.18675" lon="0.77948">
        <ele>89.71548040098</ele>
        <time>2021-07-17T14:18:09.571Z</time>
      </trkpt>
      <trkpt lat="45.18643" lon="0.78049">
        <ele>89.877172752502</ele>
        <time>2021-07-17T14:18:09.723Z</time>
      </trkpt>
      <trkpt lat="45.18641" lon="0.7806">
        <ele>89.961237784664</ele>
        <time>2021-07-17T14:18:09.877Z</time>
      </trkpt>
      <trkpt lat="45.18642" lon="0.78077">
        <ele>90.017233750164</ele>
        <time>2021-07-17T14:18:10.033Z</time>
      </trkpt>
      <trkpt lat="45.18646" lon="0.78087">
        <ele>90.036870946986</ele>
        <time>2021-07-17T14:18:10.191Z</time>
      </trkpt>
      <trkpt lat="45.18691" lon="0.7814">
        <ele>89.855598082488</ele>
        <time>2021-07-17T14:18:10.361Z</time>
      </trkpt>
      <trkpt lat="45.18705" lon="0.78161">
        <ele>89.750068085158</ele>
        <time>2021-07-17T14:18:10.535Z</time>
      </trkpt>
      <trkpt lat="45.18709" lon="0.78178">
        <ele>89.675679552884</ele>
        <time>2021-07-17T14:18:10.711Z</time>
      </trkpt>
      <trkpt lat="45.18709" lon="0.78198">
        <ele>89.623948425977</ele>
        <time>2021-07-17T14:18:10.890Z</time>
      </trkpt>
      <trkpt lat="45.18718" lon="0.78215">
        <ele>89.563866649116</ele>
        <time>2021-07-17T14:18:11.072Z</time>
      </trkpt>
      <trkpt lat="45.18786" lon="0.78215">
        <ele>89.396857224033</ele>
        <time>2021-07-17T14:18:11.267Z</time>
      </trkpt>
      <trkpt lat="45.18813" lon="0.78219">
        <ele>89.198658506547</ele>
        <time>2021-07-17T14:18:11.468Z</time>
      </trkpt>
      <trkpt lat="45.18978" lon="0.78213">
        <ele>89.237558415342</ele>
        <time>2021-07-17T14:18:11.702Z</time>
      </trkpt>
      <trkpt lat="45.18973" lon="0.78226">
        <ele>89.102338778412</ele>
        <time>2021-07-17T14:18:11.938Z</time>
      </trkpt>
      <trkpt lat="45.18961" lon="0.7823">
        <ele>88.959620183131</ele>
        <time>2021-07-17T14:18:12.177Z</time>
      </trkpt>
      <trkpt lat="45.18956" lon="0.78236">
        <ele>88.83492364011</ele>
        <time>2021-07-17T14:18:12.417Z</time>
      </trkpt>
      <trkpt lat="45.18953" lon="0.78247">
        <ele>88.709275698971</ele>
        <time>2021-07-17T14:18:12.659Z</time>
      </trkpt>
      <trkpt lat="45.18952" lon="0.7828">
        <ele>88.531931380708</ele>
        <time>2021-07-17T14:18:12.905Z</time>
      </trkpt>
      <trkpt lat="45.18956" lon="0.78388">
        <ele>88.28701373346</ele>
        <time>2021-07-17T14:18:13.167Z</time>
      </trkpt>
      <trkpt lat="45.18959" lon="0.78437">
        <ele>88.207979957913</ele>
        <time>2021-07-17T14:18:13.435Z</time>
      </trkpt>
      <trkpt lat="45.18967" lon="0.78498">
        <ele>88.013186955544</ele>
        <time>2021-07-17T14:18:13.712Z</time>
      </trkpt>
      <trkpt lat="45.18991" lon="0.78669">
        <ele>87.79708246034</ele>
        <time>2021-07-17T14:18:14.014Z</time>
      </trkpt>
      <trkpt lat="45.18995" lon="0.78686">
        <ele>87.651856155548</ele>
        <time>2021-07-17T14:18:14.319Z</time>
      </trkpt>
      <trkpt lat="45.18993" lon="0.78714">
        <ele>87.505804155689</ele>
        <time>2021-07-17T14:18:14.628Z</time>
      </trkpt>
      <trkpt lat="45.19008" lon="0.78834">
        <ele>87.454573268286</ele>
        <time>2021-07-17T14:18:14.954Z</time>
      </trkpt>
      <trkpt lat="45.19019" lon="0.78879">
        <ele>87.343655143102</ele>
        <time>2021-07-17T14:18:15.287Z</time>
      </trkpt>
      <trkpt lat="45.19026" lon="0.78896">
        <ele>87.277733905176</ele>
        <time>2021-07-17T14:18:15.622Z</time>
      </trkpt>
      <trkpt lat="45.19034" lon="0.78925">
        <ele>87.261200561683</ele>
        <time>2021-07-17T14:18:15.962Z</time>
      </trkpt>
      <trkpt lat="45.1904" lon="0.78989">
        <ele>87.210454500049</ele>
        <time>2021-07-17T14:18:16.311Z</time>
      </trkpt>
      <trkpt lat="45.19093" lon="0.79264">
        <ele>87.178067705081</ele>
        <time>2021-07-17T14:18:16.700Z</time>
      </trkpt>
      <trkpt lat="45.19108" lon="0.79323">
        <ele>87.218807670034</ele>
        <time>2021-07-17T14:18:17.098Z</time>
      </trkpt>
      <trkpt lat="45.19131" lon="0.79432">
        <ele>87.301573296988</ele>
        <time>2021-07-17T14:18:17.512Z</time>
      </trkpt>
      <trkpt lat="45.19153" lon="0.7952">
        <ele>87.226605039552</ele>
        <time>2021-07-17T14:18:17.939Z</time>
      </trkpt>
      <trkpt lat="45.19168" lon="0.79593">
        <ele>87.342825100503</ele>
        <time>2021-07-17T14:18:18.377Z</time>
      </trkpt>
      <trkpt lat="45.19209" lon="0.79767">
        <ele>87.53145448556</ele>
        <time>2021-07-17T14:18:18.841Z</time>
      </trkpt>
      <trkpt lat="45.19229" lon="0.79824">
        <ele>87.568743371864</ele>
        <time>2021-07-17T14:18:19.314Z</time>
      </trkpt>
      <trkpt lat="45.19257" lon="0.79864">
        <ele>87.732636687553</ele>
        <time>2021-07-17T14:18:19.795Z</time>
      </trkpt>
      <trkpt lat="45.1927" lon="0.79888">
        <ele>87.926169317382</ele>
        <time>2021-07-17T14:18:20.280Z</time>
      </trkpt>
      <trkpt lat="45.19284" lon="0.79907">
        <ele>88.094844129104</ele>
        <time>2021-07-17T14:18:20.769Z</time>
      </trkpt>
      <trkpt lat="45.19294" lon="0.79927">
        <ele>88.25106200817</ele>
        <time>2021-07-17T14:18:21.262Z</time>
      </trkpt>
      <trkpt lat="45.19297" lon="0.79943">
        <ele>88.365374421722</ele>
        <time>2021-07-17T14:18:21.757Z</time>
      </trkpt>
      <trkpt lat="45.19298" lon="0.79962">
        <ele>88.482975674457</ele>
        <time>2021-07-17T14:18:22.255Z</time>
      </trkpt>
      <trkpt lat="45.19292" lon="0.79976">
        <ele>88.643841126742</ele>
        <time>2021-07-17T14:18:22.755Z</time>
      </trkpt>
      <trkpt lat="45.19286" lon="0.79983">
        <ele>88.783093490704</ele>
        <time>2021-07-17T14:18:23.257Z</time>
      </trkpt>
      <trkpt lat="45.19277" lon="0.79986">
        <ele>88.933344663529</ele>
        <time>2021-07-17T14:18:23.760Z</time>
      </trkpt>
      <trkpt lat="45.19271" lon="0.79995">
        <ele>89.093923599845</ele>
        <time>2021-07-17T14:18:24.265Z</time>
      </trkpt>
      <trkpt lat="45.19267" lon="0.80007">
        <ele>89.248514283559</ele>
        <time>2021-07-17T14:18:24.772Z</time>
      </trkpt>
      <trkpt lat="45.19268" lon="0.80019">
        <ele>89.404261642516</ele>
        <time>2021-07-17T14:18:25.281Z</time>
      </trkpt>
      <trkpt lat="45.19273" lon="0.80029">
        <ele>89.556311364268</ele>
        <time>2021-07-17T14:18:25.791Z</time>
      </trkpt>
      <trkpt lat="45.19284" lon="0.80042">
        <ele>89.70021865708</ele>
        <time>2021-07-17T14:18:26.304Z</time>
      </trkpt>
      <trkpt lat="45.19306" lon="0.80063">
        <ele>89.800594385427</ele>
        <time>2021-07-17T14:18:26.823Z</time>
      </trkpt>
      <trkpt lat="45.19318" lon="0.8007">
        <ele>89.85334857386</ele>
        <time>2021-07-17T14:18:27.344Z</time>
      </trkpt>
      <trkpt lat="45.19339" lon="0.80076">
        <ele>89.867341365046</ele>
        <time>2021-07-17T14:18:27.870Z</time>
      </trkpt>
      <trkpt lat="45.19359" lon="0.80078">
        <ele>89.935627016149</ele>
        <time>2021-07-17T14:18:28.400Z</time>
      </trkpt>
      <trkpt lat="45.19388" lon="0.80074">
        <ele>90.187163311425</ele>
        <time>2021-07-17T14:18:28.935Z</time>
      </trkpt>
      <trkpt lat="45.19438" lon="0.80072">
        <ele>90.545925885775</ele>
        <time>2021-07-17T14:18:29.480Z</time>
      </trkpt>
      <trkpt lat="45.19479" lon="0.80079">
        <ele>90.579080657856</ele>
        <time>2021-07-17T14:18:30.034Z</time>
      </trkpt>
      <trkpt lat="45.19513" lon="0.8008">
        <ele>90.542180896651</ele>
        <time>2021-07-17T14:18:30.594Z</time>
      </trkpt>
      <trkpt lat="45.19549" lon="0.80077">
        <ele>90.704548012351</ele>
        <time>2021-07-17T14:18:31.162Z</time>
      </trkpt>
      <trkpt lat="45.196" lon="0.80063">
        <ele>90.852925217539</ele>
        <time>2021-07-17T14:18:31.740Z</time>
      </trkpt>
      <trkpt lat="45.19661" lon="0.80066">
        <ele>90.89087909818</ele>
        <time>2021-07-17T14:18:32.330Z</time>
      </trkpt>
      <trkpt lat="45.19696" lon="0.80062">
        <ele>91.094963250535</ele>
        <time>2021-07-17T14:18:32.927Z</time>
      </trkpt>
      <trkpt lat="45.19717" lon="0.8005">
        <ele>91.208161519037</ele>
        <time>2021-07-17T14:18:33.529Z</time>
      </trkpt>
      <trkpt lat="45.19732" lon="0.80028">
        <ele>91.295718431083</ele>
        <time>2021-07-17T14:18:34.135Z</time>
      </trkpt>
      <trkpt lat="45.19748" lon="0.79997">
        <ele>91.513552932443</ele>
        <time>2021-07-17T14:18:34.747Z</time>
      </trkpt>
      <trkpt lat="45.19762" lon="0.79978">
        <ele>91.734300392727</ele>
        <time>2021-07-17T14:18:35.362Z</time>
      </trkpt>
      <trkpt lat="45.1978" lon="0.79961">
        <ele>91.986768394171</ele>
        <time>2021-07-17T14:18:35.982Z</time>
      </trkpt>
      <trkpt lat="45.19802" lon="0.79951">
        <ele>92.269349083778</ele>
        <time>2021-07-17T14:18:36.606Z</time>
      </trkpt>
      <trkpt lat="45.19823" lon="0.79947">
        <ele>92.581671191967</ele>
        <time>2021-07-17T14:18:37.235Z</time>
      </trkpt>
      <trkpt lat="45.19853" lon="0.79946">
        <ele>92.859702232639</ele>
        <time>2021-07-17T14:18:37.870Z</time>
      </trkpt>
      <trkpt lat="45.19874" lon="0.79948">
        <ele>92.860825922367</ele>
        <time>2021-07-17T14:18:38.509Z</time>
      </trkpt>
      <trkpt lat="45.19905" lon="0.79956">
        <ele>92.743436841529</ele>
        <time>2021-07-17T14:18:39.154Z</time>
      </trkpt>
      <trkpt lat="45.19925" lon="0.79963">
        <ele>92.711098000909</ele>
        <time>2021-07-17T14:18:39.803Z</time>
      </trkpt>
      <trkpt lat="45.19935" lon="0.79976">
        <ele>92.698719295696</ele>
        <time>2021-07-17T14:18:40.455Z</time>
      </trkpt>
      <trkpt lat="45.19941" lon="0.80028">
        <ele>92.725950369156</ele>
        <time>2021-07-17T14:18:41.114Z</time>
      </trkpt>
      <trkpt lat="45.19955" lon="0.80083">
        <ele>92.693837880866</ele>
        <time>2021-07-17T14:18:41.782Z</time>
      </trkpt>
      <trkpt lat="45.1996" lon="0.80096">
        <ele>92.682584822244</ele>
        <time>2021-07-17T14:18:42.452Z</time>
      </trkpt>
      <trkpt lat="45.19971" lon="0.80111">
        <ele>92.695108624561</ele>
        <time>2021-07-17T14:18:43.125Z</time>
      </trkpt>
      <trkpt lat="45.20001" lon="0.80124">
        <ele>92.707454761861</ele>
        <time>2021-07-17T14:18:43.804Z</time>
      </trkpt>
      <trkpt lat="45.20067" lon="0.80165">
        <ele>92.583697832891</ele>
        <time>2021-07-17T14:18:44.498Z</time>
      </trkpt>
      <trkpt lat="45.20177" lon="0.80251">
        <ele>92.615690505793</ele>
        <time>2021-07-17T14:18:45.217Z</time>
      </trkpt>
      <trkpt lat="45.2024" lon="0.80311">
        <ele>92.53452070482</ele>
        <time>2021-07-17T14:18:45.951Z</time>
      </trkpt>
      <trkpt lat="45.20268" lon="0.80334">
        <ele>92.474647879897</ele>
        <time>2021-07-17T14:18:46.691Z</time>
      </trkpt>
      <trkpt lat="45.20287" lon="0.80353">
        <ele>92.413784706784</ele>
        <time>2021-07-17T14:18:47.436Z</time>
      </trkpt>
      <trkpt lat="45.203" lon="0.80355">
        <ele>92.350151690211</ele>
        <time>2021-07-17T14:18:48.184Z</time>
      </trkpt>
      <trkpt lat="45.20317" lon="0.80331">
        <ele>92.289514987439</ele>
        <time>2021-07-17T14:18:48.936Z</time>
      </trkpt>
      <trkpt lat="45.20328" lon="0.80319">
        <ele>92.271061855973</ele>
        <time>2021-07-17T14:18:49.691Z</time>
      </trkpt>
      <trkpt lat="45.20333" lon="0.80317">
        <ele>92.221508546293</ele>
        <time>2021-07-17T14:18:50.447Z</time>
      </trkpt>
      <trkpt lat="45.20337" lon="0.80319">
        <ele>92.169886658441</ele>
        <time>2021-07-17T14:18:51.204Z</time>
      </trkpt>
      <trkpt lat="45.20342" lon="0.80324">
        <ele>92.120497424518</ele>
        <time>2021-07-17T14:18:51.962Z</time>
      </trkpt>
      <trkpt lat="45.20347" lon="0.80338">
        <ele>92.067869852136</ele>
        <time>2021-07-17T14:18:52.723Z</time>
      </trkpt>
      <trkpt lat="45.20351" lon="0.80343">
        <ele>92.02159305464</ele>
        <time>2021-07-17T14:18:53.485Z</time>
      </trkpt>
      <trkpt lat="45.2034" lon="0.80361">
        <ele>91.933736965519</ele>
        <time>2021-07-17T14:18:54.250Z</time>
      </trkpt>
      <trkpt lat="45.20328" lon="0.80376">
        <ele>91.846782491054</ele>
        <time>2021-07-17T14:18:55.018Z</time>
      </trkpt>
      <trkpt lat="45.2027" lon="0.80446">
        <ele>91.73451469005</ele>
        <time>2021-07-17T14:18:55.801Z</time>
      </trkpt>
      <trkpt lat="45.20247" lon="0.80469">
        <ele>91.758799278123</ele>
        <time>2021-07-17T14:18:56.590Z</time>
      </trkpt>
      <trkpt lat="45.20281" lon="0.80561">
        <ele>91.77500824897</ele>
        <time>2021-07-17T14:18:57.394Z</time>
      </trkpt>
      <trkpt lat="45.2029" lon="0.80606">
        <ele>91.685913021191</ele>
        <time>2021-07-17T14:18:58.204Z</time>
      </trkpt>
      <trkpt lat="45.20288" lon="0.80655">
        <ele>91.608117124202</ele>
        <time>2021-07-17T14:18:59.021Z</time>
      </trkpt>
      <trkpt lat="45.20283" lon="0.80684">
        <ele>91.614031297354</ele>
        <time>2021-07-17T14:18:59.842Z</time>
      </trkpt>
      <trkpt lat="45.20269" lon="0.80725">
        <ele>91.690460280748</ele>
        <time>2021-07-17T14:19:00.670Z</time>
      </trkpt>
      <trkpt lat="45.20245" lon="0.80761">
        <ele>91.689125436387</ele>
        <time>2021-07-17T14:19:01.505Z</time>
      </trkpt>
      <trkpt lat="45.20229" lon="0.80775">
        <ele>91.70900030359</ele>
        <time>2021-07-17T14:19:02.344Z</time>
      </trkpt>
      <trkpt lat="45.20211" lon="0.80786">
        <ele>91.752755833091</ele>
        <time>2021-07-17T14:19:03.187Z</time>
      </trkpt>
      <trkpt lat="45.20166" lon="0.80807">
        <ele>91.855791253943</ele>
        <time>2021-07-17T14:19:04.039Z</time>
      </trkpt>
      <trkpt lat="45.2021" lon="0.81333">
        <ele>91.979566435658</ele>
        <time>2021-07-17T14:19:04.966Z</time>
      </trkpt>
      <trkpt lat="45.20213" lon="0.81392">
        <ele>92.097460527306</ele>
        <time>2021-07-17T14:19:05.901Z</time>
      </trkpt>
      <trkpt lat="45.20212" lon="0.81415">
        <ele>92.228736919215</ele>
        <time>2021-07-17T14:19:06.840Z</time>
      </trkpt>
      <trkpt lat="45.20209" lon="0.81445">
        <ele>92.372182401634</ele>
        <time>2021-07-17T14:19:07.783Z</time>
      </trkpt>
      <trkpt lat="45.20201" lon="0.81477">
        <ele>92.559340386036</ele>
        <time>2021-07-17T14:19:08.731Z</time>
      </trkpt>
      <trkpt lat="45.20189" lon="0.81508">
        <ele>92.717877705066</ele>
        <time>2021-07-17T14:19:09.684Z</time>
      </trkpt>
      <trkpt lat="45.20164" lon="0.81544">
        <ele>92.918023911738</ele>
        <time>2021-07-17T14:19:10.644Z</time>
      </trkpt>
      <trkpt lat="45.20115" lon="0.816">
        <ele>93.2764748669</ele>
        <time>2021-07-17T14:19:11.616Z</time>
      </trkpt>
      <trkpt lat="45.19863" lon="0.81881">
        <ele>93.389219338267</ele>
        <time>2021-07-17T14:19:12.653Z</time>
      </trkpt>
      <trkpt lat="45.19797" lon="0.81947">
        <ele>93.764669575136</ele>
        <time>2021-07-17T14:19:13.706Z</time>
      </trkpt>
      <trkpt lat="45.19789" lon="0.81957">
        <ele>94.015818902854</ele>
        <time>2021-07-17T14:19:14.761Z</time>
      </trkpt>
      <trkpt lat="45.19755" lon="0.81927">
        <ele>94.231004037661</ele>
        <time>2021-07-17T14:19:15.824Z</time>
      </trkpt>
      <trkpt lat="45.19746" lon="0.81924">
        <ele>94.450167588379</ele>
        <time>2021-07-17T14:19:16.889Z</time>
      </trkpt>
      <trkpt lat="45.19741" lon="0.81925">
        <ele>94.667094691878</ele>
        <time>2021-07-17T14:19:17.955Z</time>
      </trkpt>
      <trkpt lat="45.19736" lon="0.81933">
        <ele>94.899092518583</ele>
        <time>2021-07-17T14:19:19.022Z</time>
      </trkpt>
      <trkpt lat="45.19652" lon="0.82212">
        <ele>95.077904188722</ele>
        <time>2021-07-17T14:19:20.132Z</time>
      </trkpt>
      <trkpt lat="45.19643" lon="0.82236">
        <ele>95.245578126022</ele>
        <time>2021-07-17T14:19:21.246Z</time>
      </trkpt>
      <trkpt lat="45.19632" lon="0.82254">
        <ele>95.417927451842</ele>
        <time>2021-07-17T14:19:22.363Z</time>
      </trkpt>
      <trkpt lat="45.19616" lon="0.82271">
        <ele>95.589031457533</ele>
        <time>2021-07-17T14:19:23.484Z</time>
      </trkpt>
      <trkpt lat="45.19576" lon="0.82306">
        <ele>95.802790801242</ele>
        <time>2021-07-17T14:19:24.615Z</time>
      </trkpt>
      <trkpt lat="45.19568" lon="0.82318">
        <ele>95.965276124581</ele>
        <time>2021-07-17T14:19:25.748Z</time>
      </trkpt>
      <trkpt lat="45.19562" lon="0.82333">
        <ele>96.103295290141</ele>
        <time>2021-07-17T14:19:26.884Z</time>
      </trkpt>
      <trkpt lat="45.19546" lon="0.82384">
        <ele>96.176267935977</ele>
        <time>2021-07-17T14:19:28.027Z</time>
      </trkpt>
      <trkpt lat="45.19521" lon="0.82477">
        <ele>96.329564765784</ele>
        <time>2021-07-17T14:19:29.185Z</time>
      </trkpt>
      <trkpt lat="45.19488" lon="0.82617">
        <ele>96.27009338774</ele>
        <time>2021-07-17T14:19:30.363Z</time>
      </trkpt>
      <trkpt lat="45.19471" lon="0.82662">
        <ele>96.424063581688</ele>
        <time>2021-07-17T14:19:31.549Z</time>
      </trkpt>
      <trkpt lat="45.19393" lon="0.82815">
        <ele>96.56284415275</ele>
        <time>2021-07-17T14:19:32.761Z</time>
      </trkpt>
      <trkpt lat="45.19348" lon="0.82895">
        <ele>96.639587336406</ele>
        <time>2021-07-17T14:19:33.988Z</time>
      </trkpt>
      <trkpt lat="45.19293" lon="0.82982">
        <ele>96.650122083858</ele>
        <time>2021-07-17T14:19:35.231Z</time>
      </trkpt>
      <trkpt lat="45.19283" lon="0.82992">
        <ele>96.727311702981</ele>
        <time>2021-07-17T14:19:36.477Z</time>
      </trkpt>
      <trkpt lat="45.19272" lon="0.82996">
        <ele>96.761903925618</ele>
        <time>2021-07-17T14:19:37.725Z</time>
      </trkpt>
      <trkpt lat="45.19271" lon="0.83038">
        <ele>96.821935068057</ele>
        <time>2021-07-17T14:19:38.979Z</time>
      </trkpt>
      <trkpt lat="45.19268" lon="0.83058">
        <ele>96.833058006449</ele>
        <time>2021-07-17T14:19:40.236Z</time>
      </trkpt>
      <trkpt lat="45.19257" lon="0.83105">
        <ele>96.831335689306</ele>
        <time>2021-07-17T14:19:41.500Z</time>
      </trkpt>
      <trkpt lat="45.19241" lon="0.8315">
        <ele>96.826444266364</ele>
        <time>2021-07-17T14:19:42.771Z</time>
      </trkpt>
      <trkpt lat="45.19197" lon="0.83249">
        <ele>96.744989110945</ele>
        <time>2021-07-17T14:19:44.058Z</time>
      </trkpt>
      <trkpt lat="45.19181" lon="0.83303">
        <ele>96.640664580018</ele>
        <time>2021-07-17T14:19:45.354Z</time>
      </trkpt>
      <trkpt lat="45.19172" lon="0.83346">
        <ele>96.533154202248</ele>
        <time>2021-07-17T14:19:46.656Z</time>
      </trkpt>
      <trkpt lat="45.19097" lon="0.83766">
        <ele>96.640927991905</ele>
        <time>2021-07-17T14:19:48.019Z</time>
      </trkpt>
      <trkpt lat="45.19091" lon="0.83827">
        <ele>96.580702986843</ele>
        <time>2021-07-17T14:19:49.391Z</time>
      </trkpt>
      <trkpt lat="45.19089" lon="0.83877">
        <ele>96.417747916607</ele>
        <time>2021-07-17T14:19:50.770Z</time>
      </trkpt>
      <trkpt lat="45.19091" lon="0.83909">
        <ele>96.227921125406</ele>
        <time>2021-07-17T14:19:52.154Z</time>
      </trkpt>
      <trkpt lat="45.19108" lon="0.8406">
        <ele>95.958570249429</ele>
        <time>2021-07-17T14:19:53.559Z</time>
      </trkpt>
      <trkpt lat="45.1913" lon="0.84231">
        <ele>95.774991569979</ele>
        <time>2021-07-17T14:19:54.989Z</time>
      </trkpt>
      <trkpt lat="45.19133" lon="0.84284">
        <ele>95.601947505533</ele>
        <time>2021-07-17T14:19:56.426Z</time>
      </trkpt>
      <trkpt lat="45.19131" lon="0.84321">
        <ele>95.322152182729</ele>
        <time>2021-07-17T14:19:57.869Z</time>
      </trkpt>
      <trkpt lat="45.19125" lon="0.84361">
        <ele>95.017882943706</ele>
        <time>2021-07-17T14:19:59.318Z</time>
      </trkpt>
      <trkpt lat="45.19083" lon="0.84523">
        <ele>94.672357623058</ele>
        <time>2021-07-17T14:20:00.791Z</time>
      </trkpt>
      <trkpt lat="45.19029" lon="0.84713">
        <ele>94.511358110972</ele>
        <time>2021-07-17T14:20:02.293Z</time>
      </trkpt>
      <trkpt lat="45.19006" lon="0.84787">
        <ele>94.193358450014</ele>
        <time>2021-07-17T14:20:03.806Z</time>
      </trkpt>
      <trkpt lat="45.18987" lon="0.84834">
        <ele>93.918918098744</ele>
        <time>2021-07-17T14:20:05.327Z</time>
      </trkpt>
      <trkpt lat="45.18972" lon="0.84863">
        <ele>93.679114037526</ele>
        <time>2021-07-17T14:20:06.853Z</time>
      </trkpt>
      <trkpt lat="45.18957" lon="0.84889">
        <ele>93.452956715151</ele>
        <time>2021-07-17T14:20:08.384Z</time>
      </trkpt>
      <trkpt lat="45.18933" lon="0.84926">
        <ele>93.226349883864</ele>
        <time>2021-07-17T14:20:09.922Z</time>
      </trkpt>
      <trkpt lat="45.1879" lon="0.85107">
        <ele>93.079704969873</ele>
        <time>2021-07-17T14:20:11.498Z</time>
      </trkpt>
      <trkpt lat="45.18766" lon="0.85136">
        <ele>92.96881933992</ele>
        <time>2021-07-17T14:20:13.081Z</time>
      </trkpt>
      <trkpt lat="45.18752" lon="0.85147">
        <ele>92.844044785591</ele>
        <time>2021-07-17T14:20:14.667Z</time>
      </trkpt>
      <trkpt lat="45.18745" lon="0.85159">
        <ele>92.709520738508</ele>
        <time>2021-07-17T14:20:16.255Z</time>
      </trkpt>
      <trkpt lat="45.18744" lon="0.85165">
        <ele>92.582696116846</ele>
        <time>2021-07-17T14:20:17.844Z</time>
      </trkpt>
      <trkpt lat="45.18745" lon="0.8518">
        <ele>92.472982961587</ele>
        <time>2021-07-17T14:20:19.435Z</time>
      </trkpt>
      <trkpt lat="45.18737" lon="0.85182">
        <ele>92.430349084195</ele>
        <time>2021-07-17T14:20:21.027Z</time>
      </trkpt>
      <trkpt lat="45.18729" lon="0.85188">
        <ele>92.429486935042</ele>
        <time>2021-07-17T14:20:22.621Z</time>
      </trkpt>
      <trkpt lat="45.1871" lon="0.85209">
        <ele>92.431376971955</ele>
        <time>2021-07-17T14:20:24.220Z</time>
      </trkpt>
      <trkpt lat="45.18691" lon="0.85236">
        <ele>92.426882385347</ele>
        <time>2021-07-17T14:20:25.825Z</time>
      </trkpt>
      <trkpt lat="45.18679" lon="0.85259">
        <ele>92.469774519513</ele>
        <time>2021-07-17T14:20:27.433Z</time>
      </trkpt>
      <trkpt lat="45.18676" lon="0.85282">
        <ele>92.687491423088</ele>
        <time>2021-07-17T14:20:29.045Z</time>
      </trkpt>
      <trkpt lat="45.18676" lon="0.8531">
        <ele>92.952459385338</ele>
        <time>2021-07-17T14:20:30.661Z</time>
      </trkpt>
      <trkpt lat="45.18679" lon="0.85363">
        <ele>93.369352304715</ele>
        <time>2021-07-17T14:20:32.284Z</time>
      </trkpt>
      <trkpt lat="45.1868" lon="0.85399">
        <ele>93.799796736454</ele>
        <time>2021-07-17T14:20:33.912Z</time>
      </trkpt>
      <trkpt lat="45.18675" lon="0.85437">
        <ele>94.294596142874</ele>
        <time>2021-07-17T14:20:35.546Z</time>
      </trkpt>
      <trkpt lat="45.18668" lon="0.85451">
        <ele>94.898627873942</ele>
        <time>2021-07-17T14:20:37.182Z</time>
      </trkpt>
      <trkpt lat="45.18652" lon="0.85475">
        <ele>95.647867876209</ele>
        <time>2021-07-17T14:20:38.823Z</time>
      </trkpt>
      <trkpt lat="45.18637" lon="0.85498">
        <ele>96.474956910094</ele>
        <time>2021-07-17T14:20:40.468Z</time>
      </trkpt>
      <trkpt lat="45.18627" lon="0.85518">
        <ele>97.348704189036</ele>
        <time>2021-07-17T14:20:42.117Z</time>
      </trkpt>
      <trkpt lat="45.18611" lon="0.85557">
        <ele>98.248778117537</ele>
        <time>2021-07-17T14:20:43.772Z</time>
      </trkpt>
      <trkpt lat="45.18597" lon="0.85584">
        <ele>99.272115430076</ele>
        <time>2021-07-17T14:20:45.432Z</time>
      </trkpt>
      <trkpt lat="45.18585" lon="0.856">
        <ele>100.36177767862</ele>
        <time>2021-07-17T14:20:47.095Z</time>
      </trkpt>
      <trkpt lat="45.18571" lon="0.85623">
        <ele>101.59157055562</ele>
        <time>2021-07-17T14:20:48.763Z</time>
      </trkpt>
      <trkpt lat="45.185" lon="0.85816">
        <ele>103.14251231616</ele>
        <time>2021-07-17T14:20:50.461Z</time>
      </trkpt>
      <trkpt lat="45.18492" lon="0.85844">
        <ele>104.64255518867</ele>
        <time>2021-07-17T14:20:52.164Z</time>
      </trkpt>
      <trkpt lat="45.18468" lon="0.85948">
        <ele>106.43568534531</ele>
        <time>2021-07-17T14:20:53.882Z</time>
      </trkpt>
      <trkpt lat="45.18436" lon="0.86045">
        <ele>107.88860273587</ele>
        <time>2021-07-17T14:20:55.615Z</time>
      </trkpt>
      <trkpt lat="45.18415" lon="0.86113">
        <ele>109.69379033153</ele>
        <time>2021-07-17T14:20:57.359Z</time>
      </trkpt>
      <trkpt lat="45.18395" lon="0.86202">
        <ele>111.38970403253</ele>
        <time>2021-07-17T14:20:59.116Z</time>
      </trkpt>
      <trkpt lat="45.18386" lon="0.86258">
        <ele>113.08936589608</ele>
        <time>2021-07-17T14:21:00.881Z</time>
      </trkpt>
      <trkpt lat="45.18349" lon="0.86405">
        <ele>115.26185672527</ele>
        <time>2021-07-17T14:21:02.668Z</time>
      </trkpt>
      <trkpt lat="45.18327" lon="0.86437">
        <ele>117.53194129634</ele>
        <time>2021-07-17T14:21:04.461Z</time>
      </trkpt>
      <trkpt lat="45.18306" lon="0.86464">
        <ele>119.79438850138</ele>
        <time>2021-07-17T14:21:06.260Z</time>
      </trkpt>
      <trkpt lat="45.18271" lon="0.86484">
        <ele>122.38408730744</ele>
        <time>2021-07-17T14:21:08.067Z</time>
      </trkpt>
      <trkpt lat="45.18244" lon="0.86512">
        <ele>124.76591303945</ele>
        <time>2021-07-17T14:21:09.880Z</time>
      </trkpt>
      <trkpt lat="45.18226" lon="0.86528">
        <ele>127.31351407058</ele>
        <time>2021-07-17T14:21:11.698Z</time>
      </trkpt>
      <trkpt lat="45.18165" lon="0.86571">
        <ele>130.39131857815</ele>
        <time>2021-07-17T14:21:13.529Z</time>
      </trkpt>
      <trkpt lat="45.18152" lon="0.86586">
        <ele>132.89036758106</ele>
        <time>2021-07-17T14:21:15.364Z</time>
      </trkpt>
      <trkpt lat="45.18116" lon="0.86638">
        <ele>135.50612589122</ele>
        <time>2021-07-17T14:21:17.209Z</time>
      </trkpt>
      <trkpt lat="45.18094" lon="0.86673">
        <ele>138.11066527363</ele>
        <time>2021-07-17T14:21:19.061Z</time>
      </trkpt>
      <trkpt lat="45.18064" lon="0.86712">
        <ele>140.70345669439</ele>
        <time>2021-07-17T14:21:20.921Z</time>
      </trkpt>
      <trkpt lat="45.18044" lon="0.86726">
        <ele>143.33709063039</ele>
        <time>2021-07-17T14:21:22.785Z</time>
      </trkpt>
      <trkpt lat="45.18001" lon="0.86741">
        <ele>146.15712818784</ele>
        <time>2021-07-17T14:21:24.658Z</time>
      </trkpt>
      <trkpt lat="45.17986" lon="0.86747">
        <ele>148.75404065962</ele>
        <time>2021-07-17T14:21:26.534Z</time>
      </trkpt>
      <trkpt lat="45.17979" lon="0.86754">
        <ele>151.27513188558</ele>
        <time>2021-07-17T14:21:28.412Z</time>
      </trkpt>
      <trkpt lat="45.1798" lon="0.86764">
        <ele>153.77135874236</ele>
        <time>2021-07-17T14:21:30.291Z</time>
      </trkpt>
      <trkpt lat="45.17985" lon="0.86769">
        <ele>156.25455020966</ele>
        <time>2021-07-17T14:21:32.172Z</time>
      </trkpt>
      <trkpt lat="45.18008" lon="0.8679">
        <ele>158.64190380857</ele>
        <time>2021-07-17T14:21:34.058Z</time>
      </trkpt>
      <trkpt lat="45.18018" lon="0.86805">
        <ele>161.0405114394</ele>
        <time>2021-07-17T14:21:35.947Z</time>
      </trkpt>
      <trkpt lat="45.18027" lon="0.86837">
        <ele>163.49300379603</ele>
        <time>2021-07-17T14:21:37.841Z</time>
      </trkpt>
      <trkpt lat="45.1803" lon="0.8686">
        <ele>165.93762837074</ele>
        <time>2021-07-17T14:21:39.738Z</time>
      </trkpt>
      <trkpt lat="45.18031" lon="0.86882">
        <ele>168.34153653617</ele>
        <time>2021-07-17T14:21:41.638Z</time>
      </trkpt>
      <trkpt lat="45.18027" lon="0.86932">
        <ele>170.77850208002</ele>
        <time>2021-07-17T14:21:43.545Z</time>
      </trkpt>
      <trkpt lat="45.18018" lon="0.87008">
        <ele>173.21946336114</ele>
        <time>2021-07-17T14:21:45.463Z</time>
      </trkpt>
      <trkpt lat="45.18011" lon="0.87052">
        <ele>175.42982472462</ele>
        <time>2021-07-17T14:21:47.388Z</time>
      </trkpt>
      <trkpt lat="45.18008" lon="0.87088">
        <ele>177.54210231528</ele>
        <time>2021-07-17T14:21:49.318Z</time>
      </trkpt>
      <trkpt lat="45.18009" lon="0.87169">
        <ele>179.58091062901</ele>
        <time>2021-07-17T14:21:51.259Z</time>
      </trkpt>
      <trkpt lat="45.18005" lon="0.87219">
        <ele>181.68402331006</ele>
        <time>2021-07-17T14:21:53.207Z</time>
      </trkpt>
      <trkpt lat="45.18005" lon="0.87231">
        <ele>183.56913269517</ele>
        <time>2021-07-17T14:21:55.157Z</time>
      </trkpt>
      <trkpt lat="45.18" lon="0.87236">
        <ele>185.41397289954</ele>
        <time>2021-07-17T14:21:57.108Z</time>
      </trkpt>
      <trkpt lat="45.1799" lon="0.87249">
        <ele>187.18621209998</ele>
        <time>2021-07-17T14:21:59.062Z</time>
      </trkpt>
      <trkpt lat="45.17986" lon="0.87261">
        <ele>188.81922119586</ele>
        <time>2021-07-17T14:22:01.018Z</time>
      </trkpt>
      <trkpt lat="45.17985" lon="0.87277">
        <ele>190.34423277725</ele>
        <time>2021-07-17T14:22:02.976Z</time>
      </trkpt>
      <trkpt lat="45.17991" lon="0.87344">
        <ele>191.83295388015</ele>
        <time>2021-07-17T14:22:04.944Z</time>
      </trkpt>
      <trkpt lat="45.1799" lon="0.87372">
        <ele>193.25147984942</ele>
        <time>2021-07-17T14:22:06.916Z</time>
      </trkpt>
      <trkpt lat="45.17997" lon="0.87382">
        <ele>194.51041228161</ele>
        <time>2021-07-17T14:22:08.890Z</time>
      </trkpt>
      <trkpt lat="45.18014" lon="0.87397">
        <ele>195.69791584203</ele>
        <time>2021-07-17T14:22:10.868Z</time>
      </trkpt>
      <trkpt lat="45.18017" lon="0.87407">
        <ele>196.73470200618</ele>
        <time>2021-07-17T14:22:12.847Z</time>
      </trkpt>
      <trkpt lat="45.18017" lon="0.8742">
        <ele>197.65350048882</ele>
        <time>2021-07-17T14:22:14.828Z</time>
      </trkpt>
      <trkpt lat="45.1801" lon="0.87492">
        <ele>198.46706273324</ele>
        <time>2021-07-17T14:22:16.819Z</time>
      </trkpt>
      <trkpt lat="45.18009" lon="0.87531">
        <ele>199.06172905345</ele>
        <time>2021-07-17T14:22:18.816Z</time>
      </trkpt>
      <trkpt lat="45.18" lon="0.87593">
        <ele>199.6638923411</ele>
        <time>2021-07-17T14:22:20.822Z</time>
      </trkpt>
      <trkpt lat="45.17987" lon="0.87639">
        <ele>200.16121706053</ele>
        <time>2021-07-17T14:22:22.835Z</time>
      </trkpt>
      <trkpt lat="45.17973" lon="0.87705">
        <ele>200.51692745473</ele>
        <time>2021-07-17T14:22:24.858Z</time>
      </trkpt>
      <trkpt lat="45.17968" lon="0.87724">
        <ele>200.67880148768</ele>
        <time>2021-07-17T14:22:26.884Z</time>
      </trkpt>
      <trkpt lat="45.17955" lon="0.87757">
        <ele>200.69068216862</ele>
        <time>2021-07-17T14:22:28.915Z</time>
      </trkpt>
      <trkpt lat="45.17949" lon="0.87771">
        <ele>200.50702186121</ele>
        <time>2021-07-17T14:22:30.948Z</time>
      </trkpt>
      <trkpt lat="45.17924" lon="0.87811">
        <ele>200.07019655336</ele>
        <time>2021-07-17T14:22:32.989Z</time>
      </trkpt>
      <trkpt lat="45.1792" lon="0.87823">
        <ele>199.57743632784</ele>
        <time>2021-07-17T14:22:35.032Z</time>
      </trkpt>
      <trkpt lat="45.17919" lon="0.87836">
        <ele>198.95074523052</ele>
        <time>2021-07-17T14:22:37.077Z</time>
      </trkpt>
      <trkpt lat="45.1792" lon="0.8785">
        <ele>198.19035764789</ele>
        <time>2021-07-17T14:22:39.123Z</time>
      </trkpt>
      <trkpt lat="45.17932" lon="0.87919">
        <ele>197.25196156649</ele>
        <time>2021-07-17T14:22:41.180Z</time>
      </trkpt>
      <trkpt lat="45.17933" lon="0.87936">
        <ele>196.16625242801</ele>
        <time>2021-07-17T14:22:43.239Z</time>
      </trkpt>
      <trkpt lat="45.17931" lon="0.87986">
        <ele>194.8254054255</ele>
        <time>2021-07-17T14:22:45.305Z</time>
      </trkpt>
      <trkpt lat="45.17928" lon="0.88">
        <ele>193.47430352287</ele>
        <time>2021-07-17T14:22:47.373Z</time>
      </trkpt>
      <trkpt lat="45.17926" lon="0.88026">
        <ele>191.99784527396</ele>
        <time>2021-07-17T14:22:49.445Z</time>
      </trkpt>
      <trkpt lat="45.17883" lon="0.87999">
        <ele>190.31841705162</ele>
        <time>2021-07-17T14:22:51.526Z</time>
      </trkpt>
      <trkpt lat="45.1784" lon="0.87966">
        <ele>188.49499425955</ele>
        <time>2021-07-17T14:22:53.617Z</time>
      </trkpt>
      <trkpt lat="45.17829" lon="0.87963">
        <ele>186.77064381171</ele>
        <time>2021-07-17T14:22:55.710Z</time>
      </trkpt>
      <trkpt lat="45.17802" lon="0.8796">
        <ele>184.92442326876</ele>
        <time>2021-07-17T14:22:57.809Z</time>
      </trkpt>
      <trkpt lat="45.17781" lon="0.8796">
        <ele>183.02123972653</ele>
        <time>2021-07-17T14:22:59.912Z</time>
      </trkpt>
      <trkpt lat="45.17763" lon="0.87962">
        <ele>181.05386344047</ele>
        <time>2021-07-17T14:23:02.019Z</time>
      </trkpt>
      <trkpt lat="45.1774" lon="0.87969">
        <ele>178.99249818317</ele>
        <time>2021-07-17T14:23:04.130Z</time>
      </trkpt>
      <trkpt lat="45.17722" lon="0.87971">
        <ele>176.93379088989</ele>
        <time>2021-07-17T14:23:06.245Z</time>
      </trkpt>
      <trkpt lat="45.17699" lon="0.8797">
        <ele>174.84571207032</ele>
        <time>2021-07-17T14:23:08.364Z</time>
      </trkpt>
      <trkpt lat="45.17688" lon="0.87968">
        <ele>172.74296834236</ele>
        <time>2021-07-17T14:23:10.486Z</time>
      </trkpt>
      <trkpt lat="45.17658" lon="0.87946">
        <ele>170.63724463241</ele>
        <time>2021-07-17T14:23:12.614Z</time>
      </trkpt>
      <trkpt lat="45.17647" lon="0.87988">
        <ele>168.37526793144</ele>
        <time>2021-07-17T14:23:14.749Z</time>
      </trkpt>
      <trkpt lat="45.17634" lon="0.88022">
        <ele>166.22124686653</ele>
        <time>2021-07-17T14:23:16.889Z</time>
      </trkpt>
      <trkpt lat="45.17619" lon="0.88049">
        <ele>164.03932563185</ele>
        <time>2021-07-17T14:23:19.034Z</time>
      </trkpt>
      <trkpt lat="45.17601" lon="0.88072">
        <ele>161.81099063566</ele>
        <time>2021-07-17T14:23:21.184Z</time>
      </trkpt>
      <trkpt lat="45.17591" lon="0.88081">
        <ele>159.63746821136</ele>
        <time>2021-07-17T14:23:23.336Z</time>
      </trkpt>
      <trkpt lat="45.17574" lon="0.88093">
        <ele>157.42364330017</ele>
        <time>2021-07-17T14:23:25.492Z</time>
      </trkpt>
      <trkpt lat="45.1756" lon="0.88096">
        <ele>155.34280233193</ele>
        <time>2021-07-17T14:23:27.651Z</time>
      </trkpt>
      <trkpt lat="45.17554" lon="0.88101">
        <ele>153.24991415562</ele>
        <time>2021-07-17T14:23:29.811Z</time>
      </trkpt>
      <trkpt lat="45.17548" lon="0.8811">
        <ele>151.11624937757</ele>
        <time>2021-07-17T14:23:31.973Z</time>
      </trkpt>
      <trkpt lat="45.17544" lon="0.88121">
        <ele>148.99707420179</ele>
        <time>2021-07-17T14:23:34.137Z</time>
      </trkpt>
      <trkpt lat="45.17535" lon="0.88178">
        <ele>146.93672677739</ele>
        <time>2021-07-17T14:23:36.309Z</time>
      </trkpt>
      <trkpt lat="45.17529" lon="0.88199">
        <ele>144.92545790352</ele>
        <time>2021-07-17T14:23:38.484Z</time>
      </trkpt>
      <trkpt lat="45.17522" lon="0.88217">
        <ele>142.90877331992</ele>
        <time>2021-07-17T14:23:40.662Z</time>
      </trkpt>
      <trkpt lat="45.17513" lon="0.88235">
        <ele>140.93506436398</ele>
        <time>2021-07-17T14:23:42.843Z</time>
      </trkpt>
      <trkpt lat="45.17495" lon="0.8828">
        <ele>138.9714114301</ele>
        <time>2021-07-17T14:23:45.032Z</time>
      </trkpt>
      <trkpt lat="45.17487" lon="0.88297">
        <ele>137.09201110886</ele>
        <time>2021-07-17T14:23:47.224Z</time>
      </trkpt>
      <trkpt lat="45.1742" lon="0.88394">
        <ele>135.05911528753</ele>
        <time>2021-07-17T14:23:49.435Z</time>
      </trkpt>
      <trkpt lat="45.17414" lon="0.88405">
        <ele>133.1260456876</ele>
        <time>2021-07-17T14:23:51.648Z</time>
      </trkpt>
      <trkpt lat="45.17411" lon="0.8842">
        <ele>131.22110639678</ele>
        <time>2021-07-17T14:23:53.863Z</time>
      </trkpt>
      <trkpt lat="45.1741" lon="0.88437">
        <ele>129.38240993927</ele>
        <time>2021-07-17T14:23:56.080Z</time>
      </trkpt>
      <trkpt lat="45.17412" lon="0.88459">
        <ele>127.6363277706</ele>
        <time>2021-07-17T14:23:58.300Z</time>
      </trkpt>
      <trkpt lat="45.17427" lon="0.88572">
        <ele>125.96751393053</ele>
        <time>2021-07-17T14:24:00.537Z</time>
      </trkpt>
      <trkpt lat="45.17439" lon="0.88626">
        <ele>124.22472312761</ele>
        <time>2021-07-17T14:24:02.782Z</time>
      </trkpt>
      <trkpt lat="45.1745" lon="0.88704">
        <ele>122.38085728074</ele>
        <time>2021-07-17T14:24:05.038Z</time>
      </trkpt>
      <trkpt lat="45.17475" lon="0.88785">
        <ele>120.81067638603</ele>
        <time>2021-07-17T14:24:07.307Z</time>
      </trkpt>
      <trkpt lat="45.17482" lon="0.88799">
        <ele>119.39762476799</ele>
        <time>2021-07-17T14:24:09.578Z</time>
      </trkpt>
      <trkpt lat="45.17507" lon="0.88836">
        <ele>118.02438883881</ele>
        <time>2021-07-17T14:24:11.856Z</time>
      </trkpt>
      <trkpt lat="45.1751" lon="0.88848">
        <ele>116.8468993525</ele>
        <time>2021-07-17T14:24:14.136Z</time>
      </trkpt>
      <trkpt lat="45.17508" lon="0.88865">
        <ele>115.77547713337</ele>
        <time>2021-07-17T14:24:16.418Z</time>
      </trkpt>
      <trkpt lat="45.17496" lon="0.88885">
        <ele>114.83693048443</ele>
        <time>2021-07-17T14:24:18.704Z</time>
      </trkpt>
      <trkpt lat="45.17483" lon="0.88925">
        <ele>113.99990448524</ele>
        <time>2021-07-17T14:24:20.996Z</time>
      </trkpt>
      <trkpt lat="45.17477" lon="0.88962">
        <ele>113.27527425956</ele>
        <time>2021-07-17T14:24:23.294Z</time>
      </trkpt>
      <trkpt lat="45.17476" lon="0.89012">
        <ele>112.60695577497</ele>
        <time>2021-07-17T14:24:25.599Z</time>
      </trkpt>
      <trkpt lat="45.17477" lon="0.89021">
        <ele>112.16993924481</ele>
        <time>2021-07-17T14:24:27.905Z</time>
      </trkpt>
      <trkpt lat="45.17482" lon="0.89029">
        <ele>111.83943751855</ele>
        <time>2021-07-17T14:24:30.213Z</time>
      </trkpt>
      <trkpt lat="45.17501" lon="0.89048">
        <ele>111.62024884755</ele>
        <time>2021-07-17T14:24:32.525Z</time>
      </trkpt>
      <trkpt lat="45.17535" lon="0.89079">
        <ele>111.64693859572</ele>
        <time>2021-07-17T14:24:34.845Z</time>
      </trkpt>
      <trkpt lat="45.1755" lon="0.89088">
        <ele>111.79764678687</ele>
        <time>2021-07-17T14:24:37.169Z</time>
      </trkpt>
      <trkpt lat="45.17573" lon="0.89102">
        <ele>112.0947225004</ele>
        <time>2021-07-17T14:24:39.498Z</time>
      </trkpt>
      <trkpt lat="45.17637" lon="0.89135">
        <ele>112.69132916421</ele>
        <time>2021-07-17T14:24:41.840Z</time>
      </trkpt>
      <trkpt lat="45.17653" lon="0.8914">
        <ele>113.27214955187</ele>
        <time>2021-07-17T14:24:44.186Z</time>
      </trkpt>
      <trkpt lat="45.17673" lon="0.8914">
        <ele>113.98447565756</ele>
        <time>2021-07-17T14:24:46.535Z</time>
      </trkpt>
      <trkpt lat="45.17677" lon="0.89144">
        <ele>114.78587027775</ele>
        <time>2021-07-17T14:24:48.885Z</time>
      </trkpt>
      <trkpt lat="45.17666" lon="0.89149">
        <ele>115.64878564837</ele>
        <time>2021-07-17T14:24:51.238Z</time>
      </trkpt>
      <trkpt lat="45.17623" lon="0.89161">
        <ele>116.62358832348</ele>
        <time>2021-07-17T14:24:53.600Z</time>
      </trkpt>
      <trkpt lat="45.17559" lon="0.89206">
        <ele>117.8292430162</ele>
        <time>2021-07-17T14:24:55.976Z</time>
      </trkpt>
      <trkpt lat="45.17482" lon="0.89249">
        <ele>119.14796555512</ele>
        <time>2021-07-17T14:24:58.369Z</time>
      </trkpt>
      <trkpt lat="45.17456" lon="0.89273">
        <ele>120.54036816351</ele>
        <time>2021-07-17T14:25:00.768Z</time>
      </trkpt>
      <trkpt lat="45.17428" lon="0.89311">
        <ele>122.0119025849</ele>
        <time>2021-07-17T14:25:03.175Z</time>
      </trkpt>
      <trkpt lat="45.17402" lon="0.89354">
        <ele>123.59451982231</ele>
        <time>2021-07-17T14:25:05.589Z</time>
      </trkpt>
      <trkpt lat="45.17372" lon="0.89431">
        <ele>125.22736535489</ele>
        <time>2021-07-17T14:25:08.016Z</time>
      </trkpt>
      <trkpt lat="45.17323" lon="0.89599">
        <ele>127.25707190587</ele>
        <time>2021-07-17T14:25:10.469Z</time>
      </trkpt>
      <trkpt lat="45.17269" lon="0.8977">
        <ele>129.46772235627</ele>
        <time>2021-07-17T14:25:12.948Z</time>
      </trkpt>
      <trkpt lat="45.17267" lon="0.89811">
        <ele>131.63973396545</ele>
        <time>2021-07-17T14:25:15.433Z</time>
      </trkpt>
      <trkpt lat="45.17312" lon="0.9">
        <ele>134.23508379948</ele>
        <time>2021-07-17T14:25:17.946Z</time>
      </trkpt>
      <trkpt lat="45.17312" lon="0.90034">
        <ele>136.55377971837</ele>
        <time>2021-07-17T14:25:20.464Z</time>
      </trkpt>
      <trkpt lat="45.1731" lon="0.90062">
        <ele>138.98840374632</ele>
        <time>2021-07-17T14:25:22.986Z</time>
      </trkpt>
      <trkpt lat="45.17299" lon="0.90097">
        <ele>141.63989405225</ele>
        <time>2021-07-17T14:25:25.513Z</time>
      </trkpt>
      <trkpt lat="45.17286" lon="0.90127">
        <ele>144.35765977074</ele>
        <time>2021-07-17T14:25:28.045Z</time>
      </trkpt>
      <trkpt lat="45.17271" lon="0.90174">
        <ele>147.12515950505</ele>
        <time>2021-07-17T14:25:30.585Z</time>
      </trkpt>
      <trkpt lat="45.17263" lon="0.90223">
        <ele>150.1132112643</ele>
        <time>2021-07-17T14:25:33.132Z</time>
      </trkpt>
      <trkpt lat="45.17256" lon="0.9029">
        <ele>153.20475115216</ele>
        <time>2021-07-17T14:25:35.688Z</time>
      </trkpt>
      <trkpt lat="45.17257" lon="0.90304">
        <ele>156.31066561374</ele>
        <time>2021-07-17T14:25:38.246Z</time>
      </trkpt>
      <trkpt lat="45.17222" lon="0.9033">
        <ele>159.53114831035</ele>
        <time>2021-07-17T14:25:40.812Z</time>
      </trkpt>
      <trkpt lat="45.17155" lon="0.90144">
        <ele>163.09816316177</ele>
        <time>2021-07-17T14:25:43.408Z</time>
      </trkpt>
      <trkpt lat="45.17068" lon="0.90051">
        <ele>166.16993031795</ele>
        <time>2021-07-17T14:25:46.026Z</time>
      </trkpt>
      <trkpt lat="45.16646" lon="0.90122">
        <ele>170.04373029221</ele>
        <time>2021-07-17T14:25:48.729Z</time>
      </trkpt>
      <trkpt lat="45.16435" lon="0.89944">
        <ele>174.76481228025</ele>
        <time>2021-07-17T14:25:51.481Z</time>
      </trkpt>
      <trkpt lat="45.16279" lon="0.89881">
        <ele>178.54210183523</ele>
        <time>2021-07-17T14:25:54.265Z</time>
      </trkpt>
      <trkpt lat="45.16331" lon="0.89803">
        <ele>182.12251584048</ele>
        <time>2021-07-17T14:25:57.064Z</time>
      </trkpt>
      <trkpt lat="45.16188" lon="0.89756">
        <ele>185.50421421717</ele>
        <time>2021-07-17T14:25:59.893Z</time>
      </trkpt>
      <trkpt lat="45.16124" lon="0.8958">
        <ele>188.8030316234</ele>
        <time>2021-07-17T14:26:02.750Z</time>
      </trkpt>
      <trkpt lat="45.15986" lon="0.89588">
        <ele>191.54667913264</ele>
        <time>2021-07-17T14:26:05.635Z</time>
      </trkpt>
      <trkpt lat="45.15845" lon="0.89546">
        <ele>194.80811285155</ele>
        <time>2021-07-17T14:26:08.548Z</time>
      </trkpt>
      <trkpt lat="45.15834" lon="0.89538">
        <ele>197.55057608693</ele>
        <time>2021-07-17T14:26:11.464Z</time>
      </trkpt>
      <trkpt lat="45.15748" lon="0.89464">
        <ele>199.32939021233</ele>
        <time>2021-07-17T14:26:14.400Z</time>
      </trkpt>
      <trkpt lat="45.15737" lon="0.89431">
        <ele>201.72140735967</ele>
        <time>2021-07-17T14:26:17.341Z</time>
      </trkpt>
      <trkpt lat="45.15724" lon="0.89412">
        <ele>204.05057878577</ele>
        <time>2021-07-17T14:26:20.286Z</time>
      </trkpt>
      <trkpt lat="45.15714" lon="0.89412">
        <ele>206.25406879102</ele>
        <time>2021-07-17T14:26:23.233Z</time>
      </trkpt>
      <trkpt lat="45.15709" lon="0.89423">
        <ele>208.38927763437</ele>
        <time>2021-07-17T14:26:26.182Z</time>
      </trkpt>
      <trkpt lat="45.15711" lon="0.89562">
        <ele>210.64687786166</ele>
        <time>2021-07-17T14:26:29.150Z</time>
      </trkpt>
      <trkpt lat="45.15636" lon="0.89642">
        <ele>212.75491942774</ele>
        <time>2021-07-17T14:26:32.137Z</time>
      </trkpt>
      <trkpt lat="45.15615" lon="0.89674">
        <ele>214.54669769579</ele>
        <time>2021-07-17T14:26:35.130Z</time>
      </trkpt>
      <trkpt lat="45.15585" lon="0.89736">
        <ele>216.27920822792</ele>
        <time>2021-07-17T14:26:38.134Z</time>
      </trkpt>
      <trkpt lat="45.15559" lon="0.89805">
        <ele>218.00872239458</ele>
        <time>2021-07-17T14:26:41.149Z</time>
      </trkpt>
      <trkpt lat="45.15527" lon="0.89903">
        <ele>219.38730490887</ele>
        <time>2021-07-17T14:26:44.179Z</time>
      </trkpt>
      <trkpt lat="45.15505" lon="0.90009">
        <ele>220.68706361218</ele>
        <time>2021-07-17T14:26:47.225Z</time>
      </trkpt>
      <trkpt lat="45.15417" lon="0.90225">
        <ele>222.08707593455</ele>
        <time>2021-07-17T14:26:50.306Z</time>
      </trkpt>
      <trkpt lat="45.15425" lon="0.90206">
        <ele>223.02706753536</ele>
        <time>2021-07-17T14:26:53.390Z</time>
      </trkpt>
      <trkpt lat="45.15248" lon="0.89993">
        <ele>223.87736617851</ele>
        <time>2021-07-17T14:26:56.521Z</time>
      </trkpt>
      <trkpt lat="45.15042" lon="0.90172">
        <ele>224.69270782341</ele>
        <time>2021-07-17T14:26:59.700Z</time>
      </trkpt>
      <trkpt lat="45.1494" lon="0.9021">
        <ele>225.40459117325</ele>
        <time>2021-07-17T14:27:02.900Z</time>
      </trkpt>
      <trkpt lat="45.14832" lon="0.90203">
        <ele>225.66333997252</ele>
        <time>2021-07-17T14:27:06.122Z</time>
      </trkpt>
      <trkpt lat="45.14789" lon="0.90264">
        <ele>225.68750143316</ele>
        <time>2021-07-17T14:27:09.356Z</time>
      </trkpt>
      <trkpt lat="45.14578" lon="0.90384">
        <ele>225.97766158694</ele>
        <time>2021-07-17T14:27:12.636Z</time>
      </trkpt>
      <trkpt lat="45.14391" lon="0.90388">
        <ele>226.01492204562</ele>
        <time>2021-07-17T14:27:15.953Z</time>
      </trkpt>
      <trkpt lat="45.14222" lon="0.90317">
        <ele>225.47364088467</ele>
        <time>2021-07-17T14:27:19.306Z</time>
      </trkpt>
      <trkpt lat="45.14094" lon="0.90329">
        <ele>225.01149060333</ele>
        <time>2021-07-17T14:27:22.684Z</time>
      </trkpt>
      <trkpt lat="45.13849" lon="0.9048">
        <ele>223.25452362995</ele>
        <time>2021-07-17T14:27:26.115Z</time>
      </trkpt>
      <trkpt lat="45.13879" lon="0.90537">
        <ele>222.07737543702</ele>
        <time>2021-07-17T14:27:29.557Z</time>
      </trkpt>
      <trkpt lat="45.1372" lon="0.90666">
        <ele>220.99592287235</ele>
        <time>2021-07-17T14:27:33.035Z</time>
      </trkpt>
      <trkpt lat="45.13655" lon="0.90624">
        <ele>219.89472391267</ele>
        <time>2021-07-17T14:27:36.528Z</time>
      </trkpt>
      <trkpt lat="45.13524" lon="0.90717">
        <ele>218.27903580447</ele>
        <time>2021-07-17T14:27:40.050Z</time>
      </trkpt>
      <trkpt lat="45.13451" lon="0.90782">
        <ele>216.78934161401</ele>
        <time>2021-07-17T14:27:43.589Z</time>
      </trkpt>
      <trkpt lat="45.13327" lon="0.9093">
        <ele>214.98126158668</ele>
        <time>2021-07-17T14:27:47.161Z</time>
      </trkpt>
      <trkpt lat="45.13307" lon="0.91008">
        <ele>213.15107591401</ele>
        <time>2021-07-17T14:27:50.744Z</time>
      </trkpt>
      <trkpt lat="45.13284" lon="0.91006">
        <ele>211.49127902856</ele>
        <time>2021-07-17T14:27:54.332Z</time>
      </trkpt>
      <trkpt lat="45.13267" lon="0.90957">
        <ele>209.79911567229</ele>
        <time>2021-07-17T14:27:57.928Z</time>
      </trkpt>
      <trkpt lat="45.13212" lon="0.90904">
        <ele>207.90035013063</ele>
        <time>2021-07-17T14:28:01.537Z</time>
      </trkpt>
      <trkpt lat="45.13186" lon="0.90905">
        <ele>206.16433274748</ele>
        <time>2021-07-17T14:28:05.151Z</time>
      </trkpt>
      <trkpt lat="45.1314" lon="0.90999">
        <ele>204.13737972606</ele>
        <time>2021-07-17T14:28:08.781Z</time>
      </trkpt>
      <trkpt lat="45.13062" lon="0.91034">
        <ele>202.35263478599</ele>
        <time>2021-07-17T14:28:12.428Z</time>
      </trkpt>
      <trkpt lat="45.12925" lon="0.91022">
        <ele>200.5413929538</ele>
        <time>2021-07-17T14:28:16.102Z</time>
      </trkpt>
      <trkpt lat="45.12833" lon="0.91072">
        <ele>198.84574316016</ele>
        <time>2021-07-17T14:28:19.796Z</time>
      </trkpt>
      <trkpt lat="45.1277" lon="0.91141">
        <ele>197.26615606865</ele>
        <time>2021-07-17T14:28:23.506Z</time>
      </trkpt>
      <trkpt lat="45.12782" lon="0.91216">
        <ele>196.32602920896</ele>
        <time>2021-07-17T14:28:27.227Z</time>
      </trkpt>
      <trkpt lat="45.12756" lon="0.91228">
        <ele>195.3317113156</ele>
        <time>2021-07-17T14:28:30.953Z</time>
      </trkpt>
      <trkpt lat="45.12721" lon="0.91096">
        <ele>194.8855441746</ele>
        <time>2021-07-17T14:28:34.699Z</time>
      </trkpt>
      <trkpt lat="45.12594" lon="0.91125">
        <ele>194.36990434147</ele>
        <time>2021-07-17T14:28:38.471Z</time>
      </trkpt>
      <trkpt lat="45.12625" lon="0.91186">
        <ele>194.27033704483</ele>
        <time>2021-07-17T14:28:42.254Z</time>
      </trkpt>
      <trkpt lat="45.12517" lon="0.91373">
        <ele>195.5705441291</ele>
        <time>2021-07-17T14:28:46.071Z</time>
      </trkpt>
      <trkpt lat="45.12452" lon="0.9142">
        <ele>196.18237960278</ele>
        <time>2021-07-17T14:28:49.903Z</time>
      </trkpt>
      <trkpt lat="45.12388" lon="0.91509">
        <ele>196.95845675682</ele>
        <time>2021-07-17T14:28:53.752Z</time>
      </trkpt>
      <trkpt lat="45.12324" lon="0.91635">
        <ele>197.99001761837</ele>
        <time>2021-07-17T14:28:57.623Z</time>
      </trkpt>
      <trkpt lat="45.12284" lon="0.91817">
        <ele>198.4268404828</ele>
        <time>2021-07-17T14:29:01.522Z</time>
      </trkpt>
      <trkpt lat="45.12157" lon="0.91864">
        <ele>199.75688318684</ele>
        <time>2021-07-17T14:29:05.447Z</time>
      </trkpt>
      <trkpt lat="45.12106" lon="0.91829">
        <ele>201.1003079493</ele>
        <time>2021-07-17T14:29:09.383Z</time>
      </trkpt>
      <trkpt lat="45.12037" lon="0.91839">
        <ele>202.20392961134</ele>
        <time>2021-07-17T14:29:13.333Z</time>
      </trkpt>
      <trkpt lat="45.11777" lon="0.9205">
        <ele>203.14573759373</ele>
        <time>2021-07-17T14:29:17.343Z</time>
      </trkpt>
      <trkpt lat="45.1168" lon="0.92048">
        <ele>204.56455759474</ele>
        <time>2021-07-17T14:29:21.372Z</time>
      </trkpt>
      <trkpt lat="45.11652" lon="0.92111">
        <ele>206.09676950522</ele>
        <time>2021-07-17T14:29:25.412Z</time>
      </trkpt>
      <trkpt lat="45.11454" lon="0.9217">
        <ele>207.73713369722</ele>
        <time>2021-07-17T14:29:29.492Z</time>
      </trkpt>
      <trkpt lat="45.11295" lon="0.92099">
        <ele>209.26087924147</ele>
        <time>2021-07-17T14:29:33.606Z</time>
      </trkpt>
      <trkpt lat="45.11204" lon="0.92136">
        <ele>211.2048988827</ele>
        <time>2021-07-17T14:29:37.739Z</time>
      </trkpt>
      <trkpt lat="45.11099" lon="0.92011">
        <ele>212.41529384345</ele>
        <time>2021-07-17T14:29:41.899Z</time>
      </trkpt>
      <trkpt lat="45.11012" lon="0.91969">
        <ele>213.88648504207</ele>
        <time>2021-07-17T14:29:46.078Z</time>
      </trkpt>
      <trkpt lat="45.1092" lon="0.91949">
        <ele>215.38746796825</ele>
        <time>2021-07-17T14:29:50.275Z</time>
      </trkpt>
      <trkpt lat="45.10813" lon="0.91976">
        <ele>216.91669087853</ele>
        <time>2021-07-17T14:29:54.494Z</time>
      </trkpt>
      <trkpt lat="45.10539" lon="0.9336">
        <ele>218.17282460203</ele>
        <time>2021-07-17T14:29:58.916Z</time>
      </trkpt>
      <trkpt lat="45.10382" lon="0.93457">
        <ele>219.75527975458</ele>
        <time>2021-07-17T14:30:03.373Z</time>
      </trkpt>
      <trkpt lat="45.10152" lon="0.93526">
        <ele>220.49443402027</ele>
        <time>2021-07-17T14:30:07.877Z</time>
      </trkpt>
      <trkpt lat="45.10158" lon="0.93557">
        <ele>221.86523453455</ele>
        <time>2021-07-17T14:30:12.385Z</time>
      </trkpt>
      <trkpt lat="45.10046" lon="0.93656">
        <ele>223.32678083955</ele>
        <time>2021-07-17T14:30:16.920Z</time>
      </trkpt>
      <trkpt lat="45.09695" lon="0.94197">
        <ele>226.05062650405</ele>
        <time>2021-07-17T14:30:21.559Z</time>
      </trkpt>
      <trkpt lat="45.09703" lon="0.94209">
        <ele>227.41623972331</ele>
        <time>2021-07-17T14:30:26.200Z</time>
      </trkpt>
      <trkpt lat="45.09709" lon="0.94268">
        <ele>228.83425781495</ele>
        <time>2021-07-17T14:30:30.850Z</time>
      </trkpt>
      <trkpt lat="45.09705" lon="0.94307">
        <ele>230.15335711655</ele>
        <time>2021-07-17T14:30:35.505Z</time>
      </trkpt>
      <trkpt lat="45.09712" lon="0.94352">
        <ele>231.38167936982</ele>
        <time>2021-07-17T14:30:40.167Z</time>
      </trkpt>
      <trkpt lat="45.09726" lon="0.94399">
        <ele>232.53219204673</ele>
        <time>2021-07-17T14:30:44.836Z</time>
      </trkpt>
      <trkpt lat="45.09714" lon="0.94416">
        <ele>233.64808491143</ele>
        <time>2021-07-17T14:30:49.509Z</time>
      </trkpt>
      <trkpt lat="45.09693" lon="0.94427">
        <ele>234.68459980384</ele>
        <time>2021-07-17T14:30:54.186Z</time>
      </trkpt>
      <trkpt lat="45.0967" lon="0.94468">
        <ele>235.62134337857</ele>
        <time>2021-07-17T14:30:58.871Z</time>
      </trkpt>
      <trkpt lat="45.09632" lon="0.94503">
        <ele>236.50732394839</ele>
        <time>2021-07-17T14:31:03.565Z</time>
      </trkpt>
      <trkpt lat="45.09596" lon="0.94516">
        <ele>237.29806347524</ele>
        <time>2021-07-17T14:31:08.266Z</time>
      </trkpt>
      <trkpt lat="45.0958" lon="0.94516">
        <ele>238.05432921799</ele>
        <time>2021-07-17T14:31:12.970Z</time>
      </trkpt>
      <trkpt lat="45.09513" lon="0.94507">
        <ele>238.69465908945</ele>
        <time>2021-07-17T14:31:17.688Z</time>
      </trkpt>
      <trkpt lat="45.09486" lon="0.9454">
        <ele>239.38105506976</ele>
        <time>2021-07-17T14:31:22.413Z</time>
      </trkpt>
      <trkpt lat="45.09385" lon="0.946">
        <ele>239.84055945589</ele>
        <time>2021-07-17T14:31:27.160Z</time>
      </trkpt>
      <trkpt lat="45.0921" lon="0.9477">
        <ele>240.24737000216</ele>
        <time>2021-07-17T14:31:31.949Z</time>
      </trkpt>
      <trkpt lat="45.09014" lon="0.94873">
        <ele>240.17151447254</ele>
        <time>2021-07-17T14:31:36.780Z</time>
      </trkpt>
      <trkpt lat="45.08978" lon="0.94982">
        <ele>240.37845737995</ele>
        <time>2021-07-17T14:31:41.628Z</time>
      </trkpt>
      <trkpt lat="45.08991" lon="0.95045">
        <ele>241.04939280106</ele>
        <time>2021-07-17T14:31:46.485Z</time>
      </trkpt>
      <trkpt lat="45.08784" lon="0.9526">
        <ele>242.6729399154</ele>
        <time>2021-07-17T14:31:51.394Z</time>
      </trkpt>
      <trkpt lat="45.08712" lon="0.95424">
        <ele>243.53121714626</ele>
        <time>2021-07-17T14:31:56.330Z</time>
      </trkpt>
      <trkpt lat="45.08504" lon="0.95525">
        <ele>244.0728429037</ele>
        <time>2021-07-17T14:32:01.310Z</time>
      </trkpt>
      <trkpt lat="45.08479" lon="0.95688">
        <ele>244.36175851267</ele>
        <time>2021-07-17T14:32:06.314Z</time>
      </trkpt>
      <trkpt lat="45.08437" lon="0.95792">
        <ele>244.40428182031</ele>
        <time>2021-07-17T14:32:11.335Z</time>
      </trkpt>
      <trkpt lat="45.08312" lon="0.95918">
        <ele>244.27283295713</ele>
        <time>2021-07-17T14:32:16.386Z</time>
      </trkpt>
      <trkpt lat="45.08333" lon="0.96017">
        <ele>244.06875751847</ele>
        <time>2021-07-17T14:32:21.452Z</time>
      </trkpt>
      <trkpt lat="45.08266" lon="0.96039">
        <ele>243.64899379373</ele>
        <time>2021-07-17T14:32:26.532Z</time>
      </trkpt>
      <trkpt lat="45.08079" lon="0.96198">
        <ele>243.38727138772</ele>
        <time>2021-07-17T14:32:31.656Z</time>
      </trkpt>
      <trkpt lat="45.08354" lon="0.9717">
        <ele>240.99516874176</ele>
        <time>2021-07-17T14:32:36.928Z</time>
      </trkpt>
      <trkpt lat="45.0835" lon="0.97627">
        <ele>241.68919444712</ele>
        <time>2021-07-17T14:32:42.265Z</time>
      </trkpt>
      <trkpt lat="45.08238" lon="0.98157">
        <ele>241.52068291565</ele>
        <time>2021-07-17T14:32:47.680Z</time>
      </trkpt>
      <trkpt lat="45.08223" lon="0.98766">
        <ele>240.39999475078</ele>
        <time>2021-07-17T14:32:53.181Z</time>
      </trkpt>
      <trkpt lat="45.08242" lon="0.98872">
        <ele>238.77416650906</ele>
        <time>2021-07-17T14:32:58.698Z</time>
      </trkpt>
      <trkpt lat="45.082" lon="0.98981">
        <ele>236.91240542111</ele>
        <time>2021-07-17T14:33:04.233Z</time>
      </trkpt>
      <trkpt lat="45.08162" lon="0.98977">
        <ele>235.05794330008</ele>
        <time>2021-07-17T14:33:09.775Z</time>
      </trkpt>
      <trkpt lat="45.08066" lon="0.99038">
        <ele>232.83527650313</ele>
        <time>2021-07-17T14:33:15.338Z</time>
      </trkpt>
      <trkpt lat="45.07983" lon="0.99014">
        <ele>230.60253223202</ele>
        <time>2021-07-17T14:33:20.918Z</time>
      </trkpt>
      <trkpt lat="45.07944" lon="0.99163">
        <ele>227.88443675908</ele>
        <time>2021-07-17T14:33:26.521Z</time>
      </trkpt>
      <trkpt lat="45.07962" lon="0.9923">
        <ele>225.35567335281</ele>
        <time>2021-07-17T14:33:32.134Z</time>
      </trkpt>
      <trkpt lat="45.07948" lon="0.99313">
        <ele>222.49980369781</ele>
        <time>2021-07-17T14:33:37.759Z</time>
      </trkpt>
      <trkpt lat="45.07742" lon="0.9963">
        <ele>217.9232504258</ele>
        <time>2021-07-17T14:33:43.445Z</time>
      </trkpt>
      <trkpt lat="45.07617" lon="0.99737">
        <ele>214.47222638416</ele>
        <time>2021-07-17T14:33:49.160Z</time>
      </trkpt>
      <trkpt lat="45.07561" lon="0.99856">
        <ele>211.85727557482</ele>
        <time>2021-07-17T14:33:54.895Z</time>
      </trkpt>
      <trkpt lat="45.07147" lon="1.0031">
        <ele>207.91274086418</ele>
        <time>2021-07-17T14:34:00.735Z</time>
      </trkpt>
      <trkpt lat="45.07008" lon="1.0057">
        <ele>205.23050608722</ele>
        <time>2021-07-17T14:34:06.621Z</time>
      </trkpt>
      <trkpt lat="45.06928" lon="1.00897">
        <ele>202.19198767672</ele>
        <time>2021-07-17T14:34:12.556Z</time>
      </trkpt>
      <trkpt lat="45.06866" lon="1.00942">
        <ele>199.70221357961</ele>
        <time>2021-07-17T14:34:18.505Z</time>
      </trkpt>
      <trkpt lat="45.06867" lon="1.00928">
        <ele>197.31607606843</ele>
        <time>2021-07-17T14:34:24.456Z</time>
      </trkpt>
      <trkpt lat="45.06854" lon="1.0093">
        <ele>195.21604245627</ele>
        <time>2021-07-17T14:34:30.410Z</time>
      </trkpt>
      <trkpt lat="45.06798" lon="1.00997">
        <ele>193.41451522447</ele>
        <time>2021-07-17T14:34:36.379Z</time>
      </trkpt>
      <trkpt lat="45.06779" lon="1.01025">
        <ele>191.58292992518</ele>
        <time>2021-07-17T14:34:42.353Z</time>
      </trkpt>
      <trkpt lat="45.06774" lon="1.01012">
        <ele>189.87309764606</ele>
        <time>2021-07-17T14:34:48.329Z</time>
      </trkpt>
      <trkpt lat="45.06768" lon="1.00975">
        <ele>188.44665270485</ele>
        <time>2021-07-17T14:34:54.311Z</time>
      </trkpt>
      <trkpt lat="45.0676" lon="1.00952">
        <ele>187.23256808607</ele>
        <time>2021-07-17T14:35:00.296Z</time>
      </trkpt>
      <trkpt lat="45.06751" lon="1.00934">
        <ele>186.15852442068</ele>
        <time>2021-07-17T14:35:06.285Z</time>
      </trkpt>
      <trkpt lat="45.06738" lon="1.00974">
        <ele>184.98181770946</ele>
        <time>2021-07-17T14:35:12.280Z</time>
      </trkpt>
      <trkpt lat="45.06734" lon="1.00984">
        <ele>183.95804280953</ele>
        <time>2021-07-17T14:35:18.276Z</time>
      </trkpt>
      <trkpt lat="45.0673" lon="1.00989">
        <ele>183.10506393708</ele>
        <time>2021-07-17T14:35:24.273Z</time>
      </trkpt>
      <trkpt lat="45.0672" lon="1.00992">
        <ele>182.46238935733</ele>
        <time>2021-07-17T14:35:30.272Z</time>
      </trkpt>
      <trkpt lat="45.06679" lon="1.00987">
        <ele>182.24575353957</ele>
        <time>2021-07-17T14:35:36.280Z</time>
      </trkpt>
      <trkpt lat="45.06663" lon="1.00984">
        <ele>181.84297806099</ele>
        <time>2021-07-17T14:35:42.291Z</time>
      </trkpt>
      <trkpt lat="45.06639" lon="1.00976">
        <ele>181.52283086686</ele>
        <time>2021-07-17T14:35:48.307Z</time>
      </trkpt>
      <trkpt lat="45.06637" lon="1.00987">
        <ele>181.24203930601</ele>
        <time>2021-07-17T14:35:54.325Z</time>
      </trkpt>
      <trkpt lat="45.06636" lon="1.01029">
        <ele>180.94739270518</ele>
        <time>2021-07-17T14:36:00.349Z</time>
      </trkpt>
      <trkpt lat="45.06621" lon="1.01006">
        <ele>180.88715197706</ele>
        <time>2021-07-17T14:36:06.377Z</time>
      </trkpt>
      <trkpt lat="45.0661" lon="1.00983">
        <ele>180.73937517885</ele>
        <time>2021-07-17T14:36:12.409Z</time>
      </trkpt>
      <trkpt lat="45.06585" lon="1.00903">
        <ele>180.36926547841</ele>
        <time>2021-07-17T14:36:18.453Z</time>
      </trkpt>
      <trkpt lat="45.06571" lon="1.00848">
        <ele>180.11731808565</ele>
        <time>2021-07-17T14:36:24.506Z</time>
      </trkpt>
      <trkpt lat="45.06567" lon="1.00814">
        <ele>180.23634884371</ele>
        <time>2021-07-17T14:36:30.564Z</time>
      </trkpt>
      <trkpt lat="45.06565" lon="1.00774">
        <ele>180.47314910131</ele>
        <time>2021-07-17T14:36:36.627Z</time>
      </trkpt>
      <trkpt lat="45.06565" lon="1.0067">
        <ele>180.61243883044</ele>
        <time>2021-07-17T14:36:42.705Z</time>
      </trkpt>
      <trkpt lat="45.06563" lon="1.00663">
        <ele>181.10531136097</ele>
        <time>2021-07-17T14:36:48.784Z</time>
      </trkpt>
      <trkpt lat="45.06551" lon="1.00646">
        <ele>181.60614025906</ele>
        <time>2021-07-17T14:36:54.866Z</time>
      </trkpt>
      <trkpt lat="45.06535" lon="1.00637">
        <ele>182.25359053216</ele>
        <time>2021-07-17T14:37:00.952Z</time>
      </trkpt>
      <trkpt lat="45.06528" lon="1.00635">
        <ele>183.06140306032</ele>
        <time>2021-07-17T14:37:07.039Z</time>
      </trkpt>
      <trkpt lat="45.06515" lon="1.00643">
        <ele>183.9475642983</ele>
        <time>2021-07-17T14:37:13.129Z</time>
      </trkpt>
      <trkpt lat="45.06507" lon="1.00646">
        <ele>185.03503612132</ele>
        <time>2021-07-17T14:37:19.221Z</time>
      </trkpt>
      <trkpt lat="45.06501" lon="1.00646">
        <ele>186.17024341661</ele>
        <time>2021-07-17T14:37:25.314Z</time>
      </trkpt>
      <trkpt lat="45.06498" lon="1.00649">
        <ele>187.34412281922</ele>
        <time>2021-07-17T14:37:31.408Z</time>
      </trkpt>
      <trkpt lat="45.06468" lon="1.00709">
        <ele>188.8053949207</ele>
        <time>2021-07-17T14:37:37.512Z</time>
      </trkpt>
      <trkpt lat="45.06457" lon="1.00736">
        <ele>190.15879040539</ele>
        <time>2021-07-17T14:37:43.620Z</time>
      </trkpt>
      <trkpt lat="45.06447" lon="1.00768">
        <ele>191.46353123883</ele>
        <time>2021-07-17T14:37:49.733Z</time>
      </trkpt>
      <trkpt lat="45.06437" lon="1.00788">
        <ele>192.76632789422</ele>
        <time>2021-07-17T14:37:55.850Z</time>
      </trkpt>
      <trkpt lat="45.06409" lon="1.00822">
        <ele>194.16770909959</ele>
        <time>2021-07-17T14:38:01.974Z</time>
      </trkpt>
      <trkpt lat="45.06395" lon="1.00843">
        <ele>195.43955803933</ele>
        <time>2021-07-17T14:38:08.102Z</time>
      </trkpt>
      <trkpt lat="45.06377" lon="1.00864">
        <ele>196.74724005769</ele>
        <time>2021-07-17T14:38:14.235Z</time>
      </trkpt>
      <trkpt lat="45.06331" lon="1.00909">
        <ele>198.01827106365</ele>
        <time>2021-07-17T14:38:20.379Z</time>
      </trkpt>
      <trkpt lat="45.06312" lon="1.00935">
        <ele>199.18270227481</ele>
        <time>2021-07-17T14:38:26.529Z</time>
      </trkpt>
      <trkpt lat="45.0628" lon="1.00989">
        <ele>200.30317474998</ele>
        <time>2021-07-17T14:38:32.689Z</time>
      </trkpt>
      <trkpt lat="45.06223" lon="1.01065">
        <ele>201.29511727209</ele>
        <time>2021-07-17T14:38:38.864Z</time>
      </trkpt>
      <trkpt lat="45.06212" lon="1.01074">
        <ele>202.0235839468</ele>
        <time>2021-07-17T14:38:45.042Z</time>
      </trkpt>
      <trkpt lat="45.06188" lon="1.00962">
        <ele>202.61252720252</ele>
        <time>2021-07-17T14:38:51.236Z</time>
      </trkpt>
      <trkpt lat="45.06185" lon="1.00934">
        <ele>202.93118390095</ele>
        <time>2021-07-17T14:38:57.435Z</time>
      </trkpt>
      <trkpt lat="45.06181" lon="1.00924">
        <ele>203.0571592452</ele>
        <time>2021-07-17T14:39:03.635Z</time>
      </trkpt>
      <trkpt lat="45.0617" lon="1.00909">
        <ele>202.97390299515</ele>
        <time>2021-07-17T14:39:09.838Z</time>
      </trkpt>
      <trkpt lat="45.06155" lon="1.00892">
        <ele>202.6653417947</ele>
        <time>2021-07-17T14:39:16.045Z</time>
      </trkpt>
      <trkpt lat="45.06144" lon="1.00872">
        <ele>202.10717672538</ele>
        <time>2021-07-17T14:39:22.256Z</time>
      </trkpt>
      <trkpt lat="45.06132" lon="1.00823">
        <ele>201.36435591534</ele>
        <time>2021-07-17T14:39:28.474Z</time>
      </trkpt>
      <trkpt lat="45.06084" lon="1.00907">
        <ele>200.37053641156</ele>
        <time>2021-07-17T14:39:34.707Z</time>
      </trkpt>
      <trkpt lat="45.06045" lon="1.00967">
        <ele>199.19600564101</ele>
        <time>2021-07-17T14:39:40.952Z</time>
      </trkpt>
      <trkpt lat="45.06021" lon="1.01034">
        <ele>197.79699137705</ele>
        <time>2021-07-17T14:39:47.207Z</time>
      </trkpt>
      <trkpt lat="45.06009" lon="1.01073">
        <ele>196.25143168635</ele>
        <time>2021-07-17T14:39:53.468Z</time>
      </trkpt>
      <trkpt lat="45.06001" lon="1.01118">
        <ele>194.55620412139</ele>
        <time>2021-07-17T14:39:59.736Z</time>
      </trkpt>
      <trkpt lat="45.05992" lon="1.01139">
        <ele>192.62779980284</ele>
        <time>2021-07-17T14:40:06.008Z</time>
      </trkpt>
      <trkpt lat="45.05966" lon="1.01221">
        <ele>190.40612301666</ele>
        <time>2021-07-17T14:40:12.292Z</time>
      </trkpt>
      <trkpt lat="45.05958" lon="1.01239">
        <ele>188.09799827933</ele>
        <time>2021-07-17T14:40:18.579Z</time>
      </trkpt>
      <trkpt lat="45.05942" lon="1.0127">
        <ele>185.68886364737</ele>
        <time>2021-07-17T14:40:24.872Z</time>
      </trkpt>
      <trkpt lat="45.05914" lon="1.01305">
        <ele>183.00749089288</ele>
        <time>2021-07-17T14:40:31.172Z</time>
      </trkpt>
      <trkpt lat="45.05862" lon="1.01365">
        <ele>179.88087038297</ele>
        <time>2021-07-17T14:40:37.486Z</time>
      </trkpt>
      <trkpt lat="45.05858" lon="1.01373">
        <ele>177.07879391496</ele>
        <time>2021-07-17T14:40:43.801Z</time>
      </trkpt>
      <trkpt lat="45.05848" lon="1.01411">
        <ele>174.17603634533</ele>
        <time>2021-07-17T14:40:50.122Z</time>
      </trkpt>
      <trkpt lat="45.05802" lon="1.01548">
        <ele>170.73013124303</ele>
        <time>2021-07-17T14:40:56.464Z</time>
      </trkpt>
      <trkpt lat="45.05791" lon="1.01577">
        <ele>167.69963445543</ele>
        <time>2021-07-17T14:41:02.811Z</time>
      </trkpt>
      <trkpt lat="45.0578" lon="1.01597">
        <ele>164.57802829614</ele>
        <time>2021-07-17T14:41:09.161Z</time>
      </trkpt>
      <trkpt lat="45.05766" lon="1.01649">
        <ele>161.40163497391</ele>
        <time>2021-07-17T14:41:15.519Z</time>
      </trkpt>
      <trkpt lat="45.05764" lon="1.01725">
        <ele>158.42844626076</ele>
        <time>2021-07-17T14:41:21.888Z</time>
      </trkpt>
      <trkpt lat="45.05762" lon="1.01748">
        <ele>155.50557436886</ele>
        <time>2021-07-17T14:41:28.260Z</time>
      </trkpt>
      <trkpt lat="45.05751" lon="1.01798">
        <ele>152.56440271744</ele>
        <time>2021-07-17T14:41:34.640Z</time>
      </trkpt>
      <trkpt lat="45.05749" lon="1.018">
        <ele>149.71847356083</ele>
        <time>2021-07-17T14:41:41.020Z</time>
      </trkpt>
      <trkpt lat="45.05746" lon="1.01811">
        <ele>146.93189396535</ele>
        <time>2021-07-17T14:41:47.402Z</time>
      </trkpt>
      <trkpt lat="45.05742" lon="1.01845">
        <ele>144.13503759999</ele>
        <time>2021-07-17T14:41:53.789Z</time>
      </trkpt>
      <trkpt lat="45.05738" lon="1.0191">
        <ele>141.48054992144</ele>
        <time>2021-07-17T14:42:00.185Z</time>
      </trkpt>
      <trkpt lat="45.05739" lon="1.01942">
        <ele>138.96128755587</ele>
        <time>2021-07-17T14:42:06.586Z</time>
      </trkpt>
      <trkpt lat="45.05735" lon="1.01964">
        <ele>136.48213154089</ele>
        <time>2021-07-17T14:42:12.990Z</time>
      </trkpt>
      <trkpt lat="45.05729" lon="1.01974">
        <ele>134.13912851412</ele>
        <time>2021-07-17T14:42:19.396Z</time>
      </trkpt>
      <trkpt lat="45.05698" lon="1.02006">
        <ele>131.75121600181</ele>
        <time>2021-07-17T14:42:25.810Z</time>
      </trkpt>
      <trkpt lat="45.05676" lon="1.02021">
        <ele>129.68144964134</ele>
        <time>2021-07-17T14:42:32.228Z</time>
      </trkpt>
      <trkpt lat="45.05666" lon="1.02022">
        <ele>127.82551130869</ele>
        <time>2021-07-17T14:42:38.649Z</time>
      </trkpt>
      <trkpt lat="45.0564" lon="1.02014">
        <ele>126.19552031891</ele>
        <time>2021-07-17T14:42:45.075Z</time>
      </trkpt>
      <trkpt lat="45.05635" lon="1.02016">
        <ele>124.60269029993</ele>
        <time>2021-07-17T14:42:51.502Z</time>
      </trkpt>
      <trkpt lat="45.05633" lon="1.02022">
        <ele>123.10472389283</ele>
        <time>2021-07-17T14:42:57.930Z</time>
      </trkpt>
      <trkpt lat="45.05626" lon="1.02094">
        <ele>121.55742848672</ele>
        <time>2021-07-17T14:43:04.368Z</time>
      </trkpt>
      <trkpt lat="45.05622" lon="1.02106">
        <ele>120.32936337783</ele>
        <time>2021-07-17T14:43:10.808Z</time>
      </trkpt>
      <trkpt lat="45.0561" lon="1.02126">
        <ele>119.24543148543</ele>
        <time>2021-07-17T14:43:17.252Z</time>
      </trkpt>
      <trkpt lat="45.05577" lon="1.02169">
        <ele>118.43474139234</ele>
        <time>2021-07-17T14:43:23.705Z</time>
      </trkpt>
      <trkpt lat="45.05542" lon="1.02206">
        <ele>117.66563330368</ele>
        <time>2021-07-17T14:43:30.166Z</time>
      </trkpt>
      <trkpt lat="45.05515" lon="1.02229">
        <ele>116.82928041134</ele>
        <time>2021-07-17T14:43:36.634Z</time>
      </trkpt>
      <trkpt lat="45.05473" lon="1.02272">
        <ele>115.80988818951</ele>
        <time>2021-07-17T14:43:43.112Z</time>
      </trkpt>
      <trkpt lat="45.05461" lon="1.02282">
        <ele>115.1437266742</ele>
        <time>2021-07-17T14:43:49.593Z</time>
      </trkpt>
      <trkpt lat="45.05449" lon="1.02282">
        <ele>114.56557942452</ele>
        <time>2021-07-17T14:43:56.076Z</time>
      </trkpt>
      <trkpt lat="45.05425" lon="1.02273">
        <ele>114.08804698699</ele>
        <time>2021-07-17T14:44:02.564Z</time>
      </trkpt>
      <trkpt lat="45.05415" lon="1.0229">
        <ele>113.66794193465</ele>
        <time>2021-07-17T14:44:09.055Z</time>
      </trkpt>
      <trkpt lat="45.05406" lon="1.02302">
        <ele>113.33380986583</ele>
        <time>2021-07-17T14:44:15.549Z</time>
      </trkpt>
      <trkpt lat="45.05391" lon="1.02315">
        <ele>113.10117200287</ele>
        <time>2021-07-17T14:44:22.046Z</time>
      </trkpt>
      <trkpt lat="45.05251" lon="1.02421">
        <ele>113.04803515748</ele>
        <time>2021-07-17T14:44:28.575Z</time>
      </trkpt>
      <trkpt lat="45.05218" lon="1.02448">
        <ele>112.90118859395</ele>
        <time>2021-07-17T14:44:35.112Z</time>
      </trkpt>
      <trkpt lat="45.05043" lon="1.02604">
        <ele>112.48078389011</ele>
        <time>2021-07-17T14:44:41.690Z</time>
      </trkpt>
      <trkpt lat="45.04892" lon="1.02735">
        <ele>112.8082637066</ele>
        <time>2021-07-17T14:44:48.304Z</time>
      </trkpt>
      <trkpt lat="45.04834" lon="1.02788">
        <ele>113.12797948328</ele>
        <time>2021-07-17T14:44:54.932Z</time>
      </trkpt>
      <trkpt lat="45.04719" lon="1.02886">
        <ele>113.03875752922</ele>
        <time>2021-07-17T14:45:01.586Z</time>
      </trkpt>
      <trkpt lat="45.04707" lon="1.02901">
        <ele>113.21957034904</ele>
        <time>2021-07-17T14:45:08.244Z</time>
      </trkpt>
      <trkpt lat="45.04694" lon="1.02923">
        <ele>113.42537330513</ele>
        <time>2021-07-17T14:45:14.906Z</time>
      </trkpt>
      <trkpt lat="45.04684" lon="1.0295">
        <ele>113.65565884996</ele>
        <time>2021-07-17T14:45:21.572Z</time>
      </trkpt>
      <trkpt lat="45.04678" lon="1.02982">
        <ele>113.85605108029</ele>
        <time>2021-07-17T14:45:28.243Z</time>
      </trkpt>
      <trkpt lat="45.04673" lon="1.03037">
        <ele>113.91344721746</ele>
        <time>2021-07-17T14:45:34.922Z</time>
      </trkpt>
      <trkpt lat="45.0467" lon="1.03058">
        <ele>114.11283708339</ele>
        <time>2021-07-17T14:45:41.604Z</time>
      </trkpt>
      <trkpt lat="45.04664" lon="1.0308">
        <ele>114.37954057455</ele>
        <time>2021-07-17T14:45:48.289Z</time>
      </trkpt>
      <trkpt lat="45.04656" lon="1.03096">
        <ele>114.74295607729</ele>
        <time>2021-07-17T14:45:54.977Z</time>
      </trkpt>
      <trkpt lat="45.04642" lon="1.0312">
        <ele>115.13093528827</ele>
        <time>2021-07-17T14:46:01.669Z</time>
      </trkpt>
      <trkpt lat="45.04637" lon="1.03126">
        <ele>115.44720994445</ele>
        <time>2021-07-17T14:46:08.362Z</time>
      </trkpt>
      <trkpt lat="45.04624" lon="1.03136">
        <ele>115.80048073123</ele>
        <time>2021-07-17T14:46:15.058Z</time>
      </trkpt>
      <trkpt lat="45.04608" lon="1.03147">
        <ele>116.1464599635</ele>
        <time>2021-07-17T14:46:21.758Z</time>
      </trkpt>
      <trkpt lat="45.04472" lon="1.032">
        <ele>116.68747455201</ele>
        <time>2021-07-17T14:46:28.486Z</time>
      </trkpt>
      <trkpt lat="45.04427" lon="1.03221">
        <ele>116.82365992543</ele>
        <time>2021-07-17T14:46:35.224Z</time>
      </trkpt>
      <trkpt lat="45.04321" lon="1.03279">
        <ele>117.00649869304</ele>
        <time>2021-07-17T14:46:41.984Z</time>
      </trkpt>
      <trkpt lat="45.04278" lon="1.03306">
        <ele>116.99867628412</ele>
        <time>2021-07-17T14:46:48.754Z</time>
      </trkpt>
      <trkpt lat="45.04203" lon="1.03363">
        <ele>116.98519179927</ele>
        <time>2021-07-17T14:46:55.541Z</time>
      </trkpt>
      <trkpt lat="45.04118" lon="1.03422">
        <ele>116.77979790093</ele>
        <time>2021-07-17T14:47:02.347Z</time>
      </trkpt>
      <trkpt lat="45.04012" lon="1.03499">
        <ele>116.3252738945</ele>
        <time>2021-07-17T14:47:09.177Z</time>
      </trkpt>
      <trkpt lat="45.03933" lon="1.03559">
        <ele>116.09230781528</ele>
        <time>2021-07-17T14:47:16.025Z</time>
      </trkpt>
      <trkpt lat="45.03904" lon="1.03584">
        <ele>115.73980896159</ele>
        <time>2021-07-17T14:47:22.879Z</time>
      </trkpt>
      <trkpt lat="45.0389" lon="1.03604">
        <ele>115.35717209075</ele>
        <time>2021-07-17T14:47:29.737Z</time>
      </trkpt>
      <trkpt lat="45.03865" lon="1.03657">
        <ele>114.3004617805</ele>
        <time>2021-07-17T14:47:36.604Z</time>
      </trkpt>
      <trkpt lat="45.03854" lon="1.03674">
        <ele>113.6650429496</ele>
        <time>2021-07-17T14:47:43.475Z</time>
      </trkpt>
      <trkpt lat="45.03841" lon="1.03689">
        <ele>113.06255659705</ele>
        <time>2021-07-17T14:47:50.349Z</time>
      </trkpt>
      <trkpt lat="45.03831" lon="1.03698">
        <ele>112.42041283436</ele>
        <time>2021-07-17T14:47:57.226Z</time>
      </trkpt>
      <trkpt lat="45.03817" lon="1.03705">
        <ele>111.71511157984</ele>
        <time>2021-07-17T14:48:04.105Z</time>
      </trkpt>
      <trkpt lat="45.03764" lon="1.0372">
        <ele>110.79298509947</ele>
        <time>2021-07-17T14:48:10.995Z</time>
      </trkpt>
      <trkpt lat="45.03734" lon="1.03737">
        <ele>109.92675925234</ele>
        <time>2021-07-17T14:48:17.892Z</time>
      </trkpt>
      <trkpt lat="45.03605" lon="1.03843">
        <ele>109.21811271711</ele>
        <time>2021-07-17T14:48:24.819Z</time>
      </trkpt>
      <trkpt lat="45.0355" lon="1.03892">
        <ele>108.12933065747</ele>
        <time>2021-07-17T14:48:31.759Z</time>
      </trkpt>
      <trkpt lat="45.03453" lon="1.03991">
        <ele>107.28125189184</ele>
        <time>2021-07-17T14:48:38.722Z</time>
      </trkpt>
      <trkpt lat="45.03383" lon="1.04059">
        <ele>106.11623816669</ele>
        <time>2021-07-17T14:48:45.702Z</time>
      </trkpt>
      <trkpt lat="45.03364" lon="1.04025">
        <ele>104.84782412645</ele>
        <time>2021-07-17T14:48:52.689Z</time>
      </trkpt>
      <trkpt lat="45.03317" lon="1.03957">
        <ele>103.40090045952</ele>
        <time>2021-07-17T14:48:59.689Z</time>
      </trkpt>
      <trkpt lat="45.03306" lon="1.03941">
        <ele>102.2938007927</ele>
        <time>2021-07-17T14:49:06.692Z</time>
      </trkpt>
      <trkpt lat="45.03271" lon="1.03905">
        <ele>101.19033097442</ele>
        <time>2021-07-17T14:49:13.704Z</time>
      </trkpt>
      <trkpt lat="45.03267" lon="1.03897">
        <ele>100.11600997105</ele>
        <time>2021-07-17T14:49:20.717Z</time>
      </trkpt>
      <trkpt lat="45.03263" lon="1.03884">
        <ele>99.049536458279</ele>
        <time>2021-07-17T14:49:27.732Z</time>
      </trkpt>
      <trkpt lat="45.03257" lon="1.03853">
        <ele>98.002687318793</ele>
        <time>2021-07-17T14:49:34.752Z</time>
      </trkpt>
      <trkpt lat="45.03256" lon="1.03844">
        <ele>97.022281525982</ele>
        <time>2021-07-17T14:49:41.773Z</time>
      </trkpt>
      <trkpt lat="45.0325" lon="1.03844">
        <ele>96.067606145489</ele>
        <time>2021-07-17T14:49:48.795Z</time>
      </trkpt>
      <trkpt lat="45.0324" lon="1.03848">
        <ele>95.151247909246</ele>
        <time>2021-07-17T14:49:55.819Z</time>
      </trkpt>
      <trkpt lat="45.03228" lon="1.03859">
        <ele>94.296350284942</ele>
        <time>2021-07-17T14:50:02.846Z</time>
      </trkpt>
      <trkpt lat="45.03175" lon="1.03924">
        <ele>93.478362612193</ele>
        <time>2021-07-17T14:50:09.887Z</time>
      </trkpt>
      <trkpt lat="45.0316" lon="1.03945">
        <ele>92.769981075066</ele>
        <time>2021-07-17T14:50:16.933Z</time>
      </trkpt>
      <trkpt lat="45.03132" lon="1.03969">
        <ele>92.155727342347</ele>
        <time>2021-07-17T14:50:23.985Z</time>
      </trkpt>
      <trkpt lat="45.03107" lon="1.03993">
        <ele>91.64008204612</ele>
        <time>2021-07-17T14:50:31.043Z</time>
      </trkpt>
      <trkpt lat="45.03093" lon="1.04002">
        <ele>91.18104504788</ele>
        <time>2021-07-17T14:50:38.104Z</time>
      </trkpt>
      <trkpt lat="45.03064" lon="1.04007">
        <ele>90.745854531698</ele>
        <time>2021-07-17T14:50:45.171Z</time>
      </trkpt>
      <trkpt lat="45.03037" lon="1.04029">
        <ele>90.386295256685</ele>
        <time>2021-07-17T14:50:52.244Z</time>
      </trkpt>
      <trkpt lat="45.03017" lon="1.04054">
        <ele>90.153192816601</ele>
        <time>2021-07-17T14:50:59.323Z</time>
      </trkpt>
      <trkpt lat="45.02967" lon="1.04109">
        <ele>90.107102563968</ele>
        <time>2021-07-17T14:51:06.414Z</time>
      </trkpt>
      <trkpt lat="45.02885" lon="1.04195">
        <ele>90.131194781492</ele>
        <time>2021-07-17T14:51:13.526Z</time>
      </trkpt>
      <trkpt lat="45.02816" lon="1.04266">
        <ele>90.431145613164</ele>
        <time>2021-07-17T14:51:20.655Z</time>
      </trkpt>
      <trkpt lat="45.02804" lon="1.04296">
        <ele>90.804831847414</ele>
        <time>2021-07-17T14:51:27.789Z</time>
      </trkpt>
      <trkpt lat="45.02795" lon="1.04311">
        <ele>91.257880167224</ele>
        <time>2021-07-17T14:51:34.926Z</time>
      </trkpt>
      <trkpt lat="45.02709" lon="1.04432">
        <ele>91.781289879098</ele>
        <time>2021-07-17T14:51:42.087Z</time>
      </trkpt>
      <trkpt lat="45.02691" lon="1.04455">
        <ele>92.48011129682</ele>
        <time>2021-07-17T14:51:49.253Z</time>
      </trkpt>
      <trkpt lat="45.0264" lon="1.04493">
        <ele>93.22772769518</ele>
        <time>2021-07-17T14:51:56.430Z</time>
      </trkpt>
      <trkpt lat="45.02638" lon="1.04492">
        <ele>94.1328184169</ele>
        <time>2021-07-17T14:52:03.608Z</time>
      </trkpt>
      <trkpt lat="45.02587" lon="1.04491">
        <ele>95.083410962214</ele>
        <time>2021-07-17T14:52:10.796Z</time>
      </trkpt>
      <trkpt lat="45.0255" lon="1.04486">
        <ele>96.072782887891</ele>
        <time>2021-07-17T14:52:17.991Z</time>
      </trkpt>
      <trkpt lat="45.02521" lon="1.04477">
        <ele>97.329612524011</ele>
        <time>2021-07-17T14:52:25.192Z</time>
      </trkpt>
      <trkpt lat="45.02508" lon="1.04469">
        <ele>98.745443727943</ele>
        <time>2021-07-17T14:52:32.396Z</time>
      </trkpt>
      <trkpt lat="45.02499" lon="1.04459">
        <ele>100.28316706395</ele>
        <time>2021-07-17T14:52:39.602Z</time>
      </trkpt>
      <trkpt lat="45.02495" lon="1.04449">
        <ele>101.90950041704</ele>
        <time>2021-07-17T14:52:46.810Z</time>
      </trkpt>
      <trkpt lat="45.02459" lon="1.0435">
        <ele>104.00392611465</ele>
        <time>2021-07-17T14:52:54.034Z</time>
      </trkpt>
      <trkpt lat="45.02443" lon="1.04313">
        <ele>105.80733820872</ele>
        <time>2021-07-17T14:53:01.264Z</time>
      </trkpt>
      <trkpt lat="45.02433" lon="1.04299">
        <ele>107.63953206416</ele>
        <time>2021-07-17T14:53:08.497Z</time>
      </trkpt>
      <trkpt lat="45.02413" lon="1.04276">
        <ele>109.68861383963</ele>
        <time>2021-07-17T14:53:15.735Z</time>
      </trkpt>
      <trkpt lat="45.02402" lon="1.0427">
        <ele>111.68974398389</ele>
        <time>2021-07-17T14:53:22.975Z</time>
      </trkpt>
      <trkpt lat="45.02382" lon="1.04272">
        <ele>113.86527760982</ele>
        <time>2021-07-17T14:53:30.219Z</time>
      </trkpt>
      <trkpt lat="45.02353" lon="1.0429">
        <ele>116.15910447928</ele>
        <time>2021-07-17T14:53:37.470Z</time>
      </trkpt>
      <trkpt lat="45.02326" lon="1.043">
        <ele>118.28244652243</ele>
        <time>2021-07-17T14:53:44.726Z</time>
      </trkpt>
      <trkpt lat="45.02312" lon="1.043">
        <ele>120.29609216818</ele>
        <time>2021-07-17T14:53:51.985Z</time>
      </trkpt>
      <trkpt lat="45.023" lon="1.04298">
        <ele>122.23279011079</ele>
        <time>2021-07-17T14:53:59.247Z</time>
      </trkpt>
      <trkpt lat="45.02288" lon="1.04301">
        <ele>124.13754626153</ele>
        <time>2021-07-17T14:54:06.511Z</time>
      </trkpt>
      <trkpt lat="45.02277" lon="1.04309">
        <ele>125.97889089696</ele>
        <time>2021-07-17T14:54:13.777Z</time>
      </trkpt>
      <trkpt lat="45.02263" lon="1.04314">
        <ele>127.77498913257</ele>
        <time>2021-07-17T14:54:21.046Z</time>
      </trkpt>
      <trkpt lat="45.02248" lon="1.04315">
        <ele>129.55232355838</ele>
        <time>2021-07-17T14:54:28.318Z</time>
      </trkpt>
      <trkpt lat="45.02197" lon="1.04336">
        <ele>131.37533596258</ele>
        <time>2021-07-17T14:54:35.601Z</time>
      </trkpt>
      <trkpt lat="45.02165" lon="1.04345">
        <ele>133.02008423401</ele>
        <time>2021-07-17T14:54:42.890Z</time>
      </trkpt>
      <trkpt lat="45.02123" lon="1.04351">
        <ele>134.57875424862</ele>
        <time>2021-07-17T14:54:50.188Z</time>
      </trkpt>
      <trkpt lat="45.02107" lon="1.04363">
        <ele>136.12344002395</ele>
        <time>2021-07-17T14:54:57.489Z</time>
      </trkpt>
      <trkpt lat="45.02093" lon="1.04387">
        <ele>137.48005707061</ele>
        <time>2021-07-17T14:55:04.795Z</time>
      </trkpt>
      <trkpt lat="45.02083" lon="1.04412">
        <ele>138.77238771326</ele>
        <time>2021-07-17T14:55:12.105Z</time>
      </trkpt>
      <trkpt lat="45.02079" lon="1.04425">
        <ele>139.91357494113</ele>
        <time>2021-07-17T14:55:19.417Z</time>
      </trkpt>
      <trkpt lat="45.02067" lon="1.04447">
        <ele>141.08047128428</ele>
        <time>2021-07-17T14:55:26.733Z</time>
      </trkpt>
      <trkpt lat="45.02048" lon="1.04468">
        <ele>142.3242475214</ele>
        <time>2021-07-17T14:55:34.054Z</time>
      </trkpt>
      <trkpt lat="45.02039" lon="1.04481">
        <ele>143.1915883076</ele>
        <time>2021-07-17T14:55:41.377Z</time>
      </trkpt>
      <trkpt lat="45.02025" lon="1.04495">
        <ele>144.08305273426</ele>
        <time>2021-07-17T14:55:48.704Z</time>
      </trkpt>
      <trkpt lat="45.02023" lon="1.045">
        <ele>144.88026898175</ele>
        <time>2021-07-17T14:55:56.032Z</time>
      </trkpt>
      <trkpt lat="45.02022" lon="1.04515">
        <ele>145.41959257968</ele>
        <time>2021-07-17T14:56:03.362Z</time>
      </trkpt>
      <trkpt lat="45.02019" lon="1.04526">
        <ele>146.04859872976</ele>
        <time>2021-07-17T14:56:10.694Z</time>
      </trkpt>
      <trkpt lat="45.02003" lon="1.0455">
        <ele>146.76460737492</ele>
        <time>2021-07-17T14:56:18.030Z</time>
      </trkpt>
      <trkpt lat="45.01981" lon="1.04596">
        <ele>147.18166278813</ele>
        <time>2021-07-17T14:56:25.374Z</time>
      </trkpt>
      <trkpt lat="45.01972" lon="1.04606">
        <ele>147.51099777113</ele>
        <time>2021-07-17T14:56:32.720Z</time>
      </trkpt>
      <trkpt lat="45.01936" lon="1.04636">
        <ele>147.68971708972</ele>
        <time>2021-07-17T14:56:40.075Z</time>
      </trkpt>
      <trkpt lat="45.01919" lon="1.04647">
        <ele>147.90147042714</ele>
        <time>2021-07-17T14:56:47.433Z</time>
      </trkpt>
      <trkpt lat="45.01883" lon="1.04661">
        <ele>148.14442837208</ele>
        <time>2021-07-17T14:56:54.799Z</time>
      </trkpt>
      <trkpt lat="45.0188" lon="1.04661">
        <ele>148.0590590036</ele>
        <time>2021-07-17T14:57:02.166Z</time>
      </trkpt>
      <trkpt lat="45.01849" lon="1.04652">
        <ele>148.15895745254</ele>
        <time>2021-07-17T14:57:09.539Z</time>
      </trkpt>
      <trkpt lat="45.01827" lon="1.04648">
        <ele>147.87784722397</ele>
        <time>2021-07-17T14:57:16.916Z</time>
      </trkpt>
      <trkpt lat="45.01799" lon="1.04635">
        <ele>147.45553088874</ele>
        <time>2021-07-17T14:57:24.299Z</time>
      </trkpt>
      <trkpt lat="45.01793" lon="1.04634">
        <ele>146.78359349814</ele>
        <time>2021-07-17T14:57:31.683Z</time>
      </trkpt>
      <trkpt lat="45.01784" lon="1.04635">
        <ele>145.92974233433</ele>
        <time>2021-07-17T14:57:39.069Z</time>
      </trkpt>
      <trkpt lat="45.01773" lon="1.04645">
        <ele>144.87977611819</ele>
        <time>2021-07-17T14:57:46.458Z</time>
      </trkpt>
      <trkpt lat="45.01773" lon="1.04651">
        <ele>143.69555667854</ele>
        <time>2021-07-17T14:57:53.848Z</time>
      </trkpt>
      <trkpt lat="45.01751" lon="1.04677">
        <ele>142.32196908208</ele>
        <time>2021-07-17T14:58:01.243Z</time>
      </trkpt>
      <trkpt lat="45.01726" lon="1.04712">
        <ele>140.71336170355</ele>
        <time>2021-07-17T14:58:08.645Z</time>
      </trkpt>
      <trkpt lat="45.01643" lon="1.04804">
        <ele>138.55416381397</ele>
        <time>2021-07-17T14:58:16.068Z</time>
      </trkpt>
      <trkpt lat="45.01629" lon="1.04816">
        <ele>136.7825467755</ele>
        <time>2021-07-17T14:58:23.495Z</time>
      </trkpt>
      <trkpt lat="45.01623" lon="1.04818">
        <ele>134.92804416351</ele>
        <time>2021-07-17T14:58:30.923Z</time>
      </trkpt>
      <trkpt lat="45.01604" lon="1.0482">
        <ele>132.99040631591</ele>
        <time>2021-07-17T14:58:38.355Z</time>
      </trkpt>
      <trkpt lat="45.01597" lon="1.04824">
        <ele>130.90596865993</ele>
        <time>2021-07-17T14:58:45.788Z</time>
      </trkpt>
      <trkpt lat="45.01595" lon="1.04832">
        <ele>128.67375316493</ele>
        <time>2021-07-17T14:58:53.223Z</time>
      </trkpt>
      <trkpt lat="45.01597" lon="1.04837">
        <ele>126.38734540984</ele>
        <time>2021-07-17T14:59:00.658Z</time>
      </trkpt>
      <trkpt lat="45.016" lon="1.04841">
        <ele>124.01905059955</ele>
        <time>2021-07-17T14:59:08.094Z</time>
      </trkpt>
      <trkpt lat="45.01603" lon="1.04842">
        <ele>121.59969221362</ele>
        <time>2021-07-17T14:59:15.531Z</time>
      </trkpt>
      <trkpt lat="45.0167" lon="1.04816">
        <ele>119.12654939975</ele>
        <time>2021-07-17T14:59:22.982Z</time>
      </trkpt>
      <trkpt lat="45.01705" lon="1.04812">
        <ele>116.39246411805</ele>
        <time>2021-07-17T14:59:30.440Z</time>
      </trkpt>
      <trkpt lat="45.01751" lon="1.04798">
        <ele>113.73676765683</ele>
        <time>2021-07-17T14:59:37.907Z</time>
      </trkpt>
      <trkpt lat="45.01811" lon="1.04793">
        <ele>110.67182115537</ele>
        <time>2021-07-17T14:59:45.386Z</time>
      </trkpt>
      <trkpt lat="45.01816" lon="1.04797">
        <ele>108.07189948063</ele>
        <time>2021-07-17T14:59:52.866Z</time>
      </trkpt>
      <trkpt lat="45.01727" lon="1.04887">
        <ele>105.23635502712</ele>
        <time>2021-07-17T15:00:00.368Z</time>
      </trkpt>
      <trkpt lat="45.01707" lon="1.04905">
        <ele>102.72114494849</ele>
        <time>2021-07-17T15:00:07.875Z</time>
      </trkpt>
      <trkpt lat="45.01664" lon="1.04937">
        <ele>100.25126080451</ele>
        <time>2021-07-17T15:00:15.392Z</time>
      </trkpt>
      <trkpt lat="45.01614" lon="1.04966">
        <ele>97.846423343027</ele>
        <time>2021-07-17T15:00:22.919Z</time>
      </trkpt>
      <trkpt lat="45.01597" lon="1.04973">
        <ele>95.503448385652</ele>
        <time>2021-07-17T15:00:30.450Z</time>
      </trkpt>
      <trkpt lat="45.01583" lon="1.04983">
        <ele>93.238965590421</ele>
        <time>2021-07-17T15:00:37.984Z</time>
      </trkpt>
      <trkpt lat="45.01567" lon="1.04996">
        <ele>91.082041820539</ele>
        <time>2021-07-17T15:00:45.522Z</time>
      </trkpt>
      <trkpt lat="45.01554" lon="1.05014">
        <ele>89.033944322877</ele>
        <time>2021-07-17T15:00:53.063Z</time>
      </trkpt>
      <trkpt lat="45.01561" lon="1.05019">
        <ele>87.136553396072</ele>
        <time>2021-07-17T15:01:00.606Z</time>
      </trkpt>
      <trkpt lat="45.01572" lon="1.05034">
        <ele>85.328622442451</ele>
        <time>2021-07-17T15:01:08.152Z</time>
      </trkpt>
      <trkpt lat="45.01583" lon="1.05042">
        <ele>83.699385068467</ele>
        <time>2021-07-17T15:01:15.700Z</time>
      </trkpt>
      <trkpt lat="45.01596" lon="1.05047">
        <ele>82.246557179216</ele>
        <time>2021-07-17T15:01:23.251Z</time>
      </trkpt>
      <trkpt lat="45.01633" lon="1.05052">
        <ele>80.921034007927</ele>
        <time>2021-07-17T15:01:30.810Z</time>
      </trkpt>
      <trkpt lat="45.01649" lon="1.05058">
        <ele>79.730732187097</ele>
        <time>2021-07-17T15:01:38.372Z</time>
      </trkpt>
      <trkpt lat="45.0167" lon="1.05071">
        <ele>78.712290681425</ele>
        <time>2021-07-17T15:01:45.939Z</time>
      </trkpt>
      <trkpt lat="45.01688" lon="1.05087">
        <ele>77.884585594072</ele>
        <time>2021-07-17T15:01:53.510Z</time>
      </trkpt>
      <trkpt lat="45.01701" lon="1.05106">
        <ele>77.200283382358</ele>
        <time>2021-07-17T15:02:01.085Z</time>
      </trkpt>
      <trkpt lat="45.01713" lon="1.05129">
        <ele>76.646168008186</ele>
        <time>2021-07-17T15:02:08.664Z</time>
      </trkpt>
      <trkpt lat="45.0173" lon="1.05169">
        <ele>76.339556341921</ele>
        <time>2021-07-17T15:02:16.249Z</time>
      </trkpt>
      <trkpt lat="45.01785" lon="1.05315">
        <ele>76.114825793094</ele>
        <time>2021-07-17T15:02:23.858Z</time>
      </trkpt>
      <trkpt lat="45.01795" lon="1.05336">
        <ele>76.181849722428</ele>
        <time>2021-07-17T15:02:31.470Z</time>
      </trkpt>
      <trkpt lat="45.01807" lon="1.05354">
        <ele>76.471876192142</ele>
        <time>2021-07-17T15:02:39.086Z</time>
      </trkpt>
      <trkpt lat="45.01823" lon="1.05388">
        <ele>76.882465947364</ele>
        <time>2021-07-17T15:02:46.708Z</time>
      </trkpt>
      <trkpt lat="45.01864" lon="1.05455">
        <ele>77.516316159636</ele>
        <time>2021-07-17T15:02:54.342Z</time>
      </trkpt>
      <trkpt lat="45.01922" lon="1.05556">
        <ele>78.424719125688</ele>
        <time>2021-07-17T15:03:01.995Z</time>
      </trkpt>
      <trkpt lat="45.01949" lon="1.05598">
        <ele>79.268879854307</ele>
        <time>2021-07-17T15:03:09.656Z</time>
      </trkpt>
      <trkpt lat="45.01951" lon="1.0561">
        <ele>80.180646797809</ele>
        <time>2021-07-17T15:03:17.318Z</time>
      </trkpt>
      <trkpt lat="45.01949" lon="1.05618">
        <ele>81.284366723318</ele>
        <time>2021-07-17T15:03:24.981Z</time>
      </trkpt>
      <trkpt lat="45.01934" lon="1.05653">
        <ele>82.432450920597</ele>
        <time>2021-07-17T15:03:32.650Z</time>
      </trkpt>
      <trkpt lat="45.01912" lon="1.05711">
        <ele>84.201730763054</ele>
        <time>2021-07-17T15:03:40.329Z</time>
      </trkpt>
      <trkpt lat="45.01959" lon="1.05775">
        <ele>85.948500659638</ele>
        <time>2021-07-17T15:03:48.021Z</time>
      </trkpt>
      <trkpt lat="45.01971" lon="1.05787">
        <ele>87.868125049526</ele>
        <time>2021-07-17T15:03:55.716Z</time>
      </trkpt>
      <trkpt lat="45.01998" lon="1.05809">
        <ele>89.973676512503</ele>
        <time>2021-07-17T15:04:03.417Z</time>
      </trkpt>
      <trkpt lat="45.02031" lon="1.05842">
        <ele>92.378622026755</ele>
        <time>2021-07-17T15:04:11.126Z</time>
      </trkpt>
      <trkpt lat="45.02044" lon="1.05856">
        <ele>94.894087196327</ele>
        <time>2021-07-17T15:04:18.838Z</time>
      </trkpt>
      <trkpt lat="45.02056" lon="1.05875">
        <ele>97.550102073163</ele>
        <time>2021-07-17T15:04:26.554Z</time>
      </trkpt>
      <trkpt lat="45.02069" lon="1.05898">
        <ele>100.41434182117</ele>
        <time>2021-07-17T15:04:34.274Z</time>
      </trkpt>
      <trkpt lat="45.02077" lon="1.05915">
        <ele>103.48558199685</ele>
        <time>2021-07-17T15:04:41.997Z</time>
      </trkpt>
      <trkpt lat="45.02081" lon="1.05931">
        <ele>106.75740518958</ele>
        <time>2021-07-17T15:04:49.722Z</time>
      </trkpt>
      <trkpt lat="45.02093" lon="1.05953">
        <ele>110.1873741749</ele>
        <time>2021-07-17T15:04:57.451Z</time>
      </trkpt>
      <trkpt lat="45.0212" lon="1.05995">
        <ele>113.91528209728</ele>
        <time>2021-07-17T15:05:05.188Z</time>
      </trkpt>
      <trkpt lat="45.02171" lon="1.06065">
        <ele>117.85653389645</ele>
        <time>2021-07-17T15:05:12.940Z</time>
      </trkpt>
      <trkpt lat="45.02198" lon="1.06096">
        <ele>121.88107826407</ele>
        <time>2021-07-17T15:05:20.698Z</time>
      </trkpt>
      <trkpt lat="45.02254" lon="1.06158">
        <ele>126.19022111441</ele>
        <time>2021-07-17T15:05:28.471Z</time>
      </trkpt>
      <trkpt lat="45.02276" lon="1.06189">
        <ele>130.50953338231</ele>
        <time>2021-07-17T15:05:36.250Z</time>
      </trkpt>
      <trkpt lat="45.02291" lon="1.06218">
        <ele>134.93905308196</ele>
        <time>2021-07-17T15:05:44.034Z</time>
      </trkpt>
      <trkpt lat="45.02296" lon="1.06233">
        <ele>139.56074519739</ele>
        <time>2021-07-17T15:05:51.820Z</time>
      </trkpt>
      <trkpt lat="45.023" lon="1.06258">
        <ele>144.3379134318</ele>
        <time>2021-07-17T15:05:59.610Z</time>
      </trkpt>
      <trkpt lat="45.0231" lon="1.06436">
        <ele>149.54267277876</ele>
        <time>2021-07-17T15:06:07.425Z</time>
      </trkpt>
      <trkpt lat="45.02307" lon="1.06467">
        <ele>154.59709852702</ele>
        <time>2021-07-17T15:06:15.245Z</time>
      </trkpt>
      <trkpt lat="45.02272" lon="1.06554">
        <ele>160.05399302554</ele>
        <time>2021-07-17T15:06:23.079Z</time>
      </trkpt>
      <trkpt lat="45.02215" lon="1.06614">
        <ele>165.7204553562</ele>
        <time>2021-07-17T15:06:30.927Z</time>
      </trkpt>
      <trkpt lat="45.02153" lon="1.06698">
        <ele>171.07814437902</ele>
        <time>2021-07-17T15:06:38.792Z</time>
      </trkpt>
      <trkpt lat="45.02053" lon="1.06769">
        <ele>176.51109449091</ele>
        <time>2021-07-17T15:06:46.680Z</time>
      </trkpt>
      <trkpt lat="45.02035" lon="1.06786">
        <ele>181.4340699875</ele>
        <time>2021-07-17T15:06:54.572Z</time>
      </trkpt>
      <trkpt lat="45.02013" lon="1.06826">
        <ele>186.30663707281</ele>
        <time>2021-07-17T15:07:02.471Z</time>
      </trkpt>
      <trkpt lat="45.02002" lon="1.06859">
        <ele>191.0761710378</ele>
        <time>2021-07-17T15:07:10.375Z</time>
      </trkpt>
      <trkpt lat="45.01996" lon="1.06871">
        <ele>195.63396541855</ele>
        <time>2021-07-17T15:07:18.282Z</time>
      </trkpt>
      <trkpt lat="45.01962" lon="1.06885">
        <ele>200.3334527746</ele>
        <time>2021-07-17T15:07:26.196Z</time>
      </trkpt>
      <trkpt lat="45.01937" lon="1.06885">
        <ele>204.78126118982</ele>
        <time>2021-07-17T15:07:34.115Z</time>
      </trkpt>
      <trkpt lat="45.01917" lon="1.06879">
        <ele>208.91509442955</ele>
        <time>2021-07-17T15:07:42.038Z</time>
      </trkpt>
      <trkpt lat="45.01897" lon="1.0686">
        <ele>212.75210275961</ele>
        <time>2021-07-17T15:07:49.966Z</time>
      </trkpt>
      <trkpt lat="45.01872" lon="1.06899">
        <ele>216.34909247736</ele>
        <time>2021-07-17T15:07:57.901Z</time>
      </trkpt>
      <trkpt lat="45.01857" lon="1.06932">
        <ele>219.69762607706</ele>
        <time>2021-07-17T15:08:05.842Z</time>
      </trkpt>
      <trkpt lat="45.01837" lon="1.06988">
        <ele>222.86605990616</ele>
        <time>2021-07-17T15:08:13.791Z</time>
      </trkpt>
      <trkpt lat="45.01827" lon="1.07029">
        <ele>225.74051375191</ele>
        <time>2021-07-17T15:08:21.747Z</time>
      </trkpt>
      <trkpt lat="45.01823" lon="1.07097">
        <ele>228.24963650807</ele>
        <time>2021-07-17T15:08:29.712Z</time>
      </trkpt>
      <trkpt lat="45.01821" lon="1.07143">
        <ele>230.31386798915</ele>
        <time>2021-07-17T15:08:37.684Z</time>
      </trkpt>
      <trkpt lat="45.01804" lon="1.07126">
        <ele>232.23292534363</ele>
        <time>2021-07-17T15:08:45.660Z</time>
      </trkpt>
      <trkpt lat="45.01792" lon="1.07118">
        <ele>233.81566997928</ele>
        <time>2021-07-17T15:08:53.639Z</time>
      </trkpt>
      <trkpt lat="45.01837" lon="1.07176">
        <ele>234.96819768096</ele>
        <time>2021-07-17T15:09:01.630Z</time>
      </trkpt>
      <trkpt lat="45.0187" lon="1.07232">
        <ele>235.96255954477</ele>
        <time>2021-07-17T15:09:09.631Z</time>
      </trkpt>
      <trkpt lat="45.01885" lon="1.07252">
        <ele>236.58584284971</ele>
        <time>2021-07-17T15:09:17.637Z</time>
      </trkpt>
      <trkpt lat="45.01982" lon="1.07422">
        <ele>236.72468632885</ele>
        <time>2021-07-17T15:09:25.673Z</time>
      </trkpt>
      <trkpt lat="45.0201" lon="1.07461">
        <ele>236.92748018834</ele>
        <time>2021-07-17T15:09:33.717Z</time>
      </trkpt>
      <trkpt lat="45.02038" lon="1.07512">
        <ele>236.82210333323</ele>
        <time>2021-07-17T15:09:41.770Z</time>
      </trkpt>
      <trkpt lat="45.02053" lon="1.07493">
        <ele>236.46145683354</ele>
        <time>2021-07-17T15:09:49.828Z</time>
      </trkpt>
      <trkpt lat="45.02095" lon="1.07556">
        <ele>235.86036308029</ele>
        <time>2021-07-17T15:09:57.898Z</time>
      </trkpt>
      <trkpt lat="45.02239" lon="1.07752">
        <ele>235.14545689747</ele>
        <time>2021-07-17T15:10:06.008Z</time>
      </trkpt>
      <trkpt lat="45.02229" lon="1.07796">
        <ele>233.87453249271</ele>
        <time>2021-07-17T15:10:14.125Z</time>
      </trkpt>
      <trkpt lat="45.0222" lon="1.07841">
        <ele>232.30231667782</ele>
        <time>2021-07-17T15:10:22.248Z</time>
      </trkpt>
      <trkpt lat="45.02173" lon="1.08034">
        <ele>229.89330127923</ele>
        <time>2021-07-17T15:10:30.400Z</time>
      </trkpt>
      <trkpt lat="45.02164" lon="1.08101">
        <ele>227.80565277486</ele>
        <time>2021-07-17T15:10:38.562Z</time>
      </trkpt>
      <trkpt lat="45.02164" lon="1.08122">
        <ele>225.6374522908</ele>
        <time>2021-07-17T15:10:46.727Z</time>
      </trkpt>
      <trkpt lat="45.02167" lon="1.08156">
        <ele>223.21704815332</ele>
        <time>2021-07-17T15:10:54.897Z</time>
      </trkpt>
      <trkpt lat="45.02178" lon="1.08171">
        <ele>220.66103830278</ele>
        <time>2021-07-17T15:11:03.070Z</time>
      </trkpt>
      <trkpt lat="45.02193" lon="1.08184">
        <ele>217.89750013141</ele>
        <time>2021-07-17T15:11:11.246Z</time>
      </trkpt>
      <trkpt lat="45.02201" lon="1.08197">
        <ele>214.96857677604</ele>
        <time>2021-07-17T15:11:19.425Z</time>
      </trkpt>
      <trkpt lat="45.02205" lon="1.0822">
        <ele>211.82078089728</ele>
        <time>2021-07-17T15:11:27.607Z</time>
      </trkpt>
      <trkpt lat="45.02205" lon="1.0823">
        <ele>208.57399811079</ele>
        <time>2021-07-17T15:11:35.791Z</time>
      </trkpt>
      <trkpt lat="45.02202" lon="1.08244">
        <ele>205.16993975432</ele>
        <time>2021-07-17T15:11:43.976Z</time>
      </trkpt>
      <trkpt lat="45.02197" lon="1.0826">
        <ele>201.62472616326</ele>
        <time>2021-07-17T15:11:52.164Z</time>
      </trkpt>
      <trkpt lat="45.0219" lon="1.08272">
        <ele>198.02296023622</ele>
        <time>2021-07-17T15:12:00.354Z</time>
      </trkpt>
      <trkpt lat="45.02164" lon="1.083">
        <ele>194.13078488511</ele>
        <time>2021-07-17T15:12:08.551Z</time>
      </trkpt>
      <trkpt lat="45.02154" lon="1.08307">
        <ele>190.27769151208</ele>
        <time>2021-07-17T15:12:16.750Z</time>
      </trkpt>
      <trkpt lat="45.02131" lon="1.08314">
        <ele>186.17918968343</ele>
        <time>2021-07-17T15:12:24.954Z</time>
      </trkpt>
      <trkpt lat="45.02123" lon="1.0832">
        <ele>182.14149769812</ele>
        <time>2021-07-17T15:12:33.159Z</time>
      </trkpt>
      <trkpt lat="45.02114" lon="1.08329">
        <ele>178.04673041636</ele>
        <time>2021-07-17T15:12:41.367Z</time>
      </trkpt>
      <trkpt lat="45.02063" lon="1.08407">
        <ele>173.49737887537</ele>
        <time>2021-07-17T15:12:49.590Z</time>
      </trkpt>
      <trkpt lat="45.02049" lon="1.08445">
        <ele>169.16745224446</ele>
        <time>2021-07-17T15:12:57.819Z</time>
      </trkpt>
      <trkpt lat="45.02047" lon="1.08481">
        <ele>164.94777838034</ele>
        <time>2021-07-17T15:13:06.053Z</time>
      </trkpt>
      <trkpt lat="45.02035" lon="1.08541">
        <ele>160.5209502305</ele>
        <time>2021-07-17T15:13:14.296Z</time>
      </trkpt>
      <trkpt lat="45.02034" lon="1.08559">
        <ele>156.42589927175</ele>
        <time>2021-07-17T15:13:22.541Z</time>
      </trkpt>
      <trkpt lat="45.02037" lon="1.08568">
        <ele>152.38601868498</ele>
        <time>2021-07-17T15:13:30.788Z</time>
      </trkpt>
      <trkpt lat="45.0204" lon="1.08571">
        <ele>148.38307147629</ele>
        <time>2021-07-17T15:13:39.035Z</time>
      </trkpt>
      <trkpt lat="45.02045" lon="1.08572">
        <ele>144.41295769208</ele>
        <time>2021-07-17T15:13:47.283Z</time>
      </trkpt>
      <trkpt lat="45.02033" lon="1.08584">
        <ele>140.33325702865</ele>
        <time>2021-07-17T15:13:55.535Z</time>
      </trkpt>
      <trkpt lat="45.0203" lon="1.08591">
        <ele>136.38644968879</ele>
        <time>2021-07-17T15:14:03.788Z</time>
      </trkpt>
      <trkpt lat="45.02029" lon="1.08612">
        <ele>132.48086090665</ele>
        <time>2021-07-17T15:14:12.044Z</time>
      </trkpt>
      <trkpt lat="45.02032" lon="1.08652">
        <ele>128.53142203722</ele>
        <time>2021-07-17T15:14:20.305Z</time>
      </trkpt>
      <trkpt lat="45.02031" lon="1.08669">
        <ele>124.6475723106</ele>
        <time>2021-07-17T15:14:28.569Z</time>
      </trkpt>
      <trkpt lat="45.02027" lon="1.08693">
        <ele>120.88024689114</ele>
        <time>2021-07-17T15:14:36.836Z</time>
      </trkpt>
      <trkpt lat="45.01996" lon="1.08786">
        <ele>116.9234224671</ele>
        <time>2021-07-17T15:14:45.118Z</time>
      </trkpt>
      <trkpt lat="45.01955" lon="1.08878">
        <ele>112.88699513731</ele>
        <time>2021-07-17T15:14:53.415Z</time>
      </trkpt>
      <trkpt lat="45.01941" lon="1.08905">
        <ele>109.31027357072</ele>
        <time>2021-07-17T15:15:01.717Z</time>
      </trkpt>
      <trkpt lat="45.01935" lon="1.08921">
        <ele>105.99807834627</ele>
        <time>2021-07-17T15:15:10.022Z</time>
      </trkpt>
      <trkpt lat="45.01917" lon="1.08954">
        <ele>102.79140793112</ele>
        <time>2021-07-17T15:15:18.332Z</time>
      </trkpt>
      <trkpt lat="45.01908" lon="1.08967">
        <ele>99.79001162897</ele>
        <time>2021-07-17T15:15:26.645Z</time>
      </trkpt>
      <trkpt lat="45.01877" lon="1.09006">
        <ele>96.791876257563</ele>
        <time>2021-07-17T15:15:34.966Z</time>
      </trkpt>
      <trkpt lat="45.01859" lon="1.09022">
        <ele>93.937273036346</ele>
        <time>2021-07-17T15:15:43.291Z</time>
      </trkpt>
      <trkpt lat="45.01848" lon="1.09027">
        <ele>91.269138014061</ele>
        <time>2021-07-17T15:15:51.619Z</time>
      </trkpt>
      <trkpt lat="45.01834" lon="1.09031">
        <ele>88.739588568758</ele>
        <time>2021-07-17T15:15:59.950Z</time>
      </trkpt>
      <trkpt lat="45.0181" lon="1.09047">
        <ele>86.347742731613</ele>
        <time>2021-07-17T15:16:08.286Z</time>
      </trkpt>
      <trkpt lat="45.01799" lon="1.09057">
        <ele>84.10325790571</ele>
        <time>2021-07-17T15:16:16.625Z</time>
      </trkpt>
      <trkpt lat="45.01784" lon="1.09076">
        <ele>81.965132391463</ele>
        <time>2021-07-17T15:16:24.968Z</time>
      </trkpt>
      <trkpt lat="45.01768" lon="1.09101">
        <ele>79.882174880252</ele>
        <time>2021-07-17T15:16:33.316Z</time>
      </trkpt>
      <trkpt lat="45.01749" lon="1.09122">
        <ele>77.978672018547</ele>
        <time>2021-07-17T15:16:41.668Z</time>
      </trkpt>
      <trkpt lat="45.01737" lon="1.09131">
        <ele>76.226907752806</ele>
        <time>2021-07-17T15:16:50.023Z</time>
      </trkpt>
      <trkpt lat="45.01708" lon="1.09138">
        <ele>74.504272093642</ele>
        <time>2021-07-17T15:16:58.384Z</time>
      </trkpt>
      <trkpt lat="45.01703" lon="1.09146">
        <ele>73.016428502539</ele>
        <time>2021-07-17T15:17:06.746Z</time>
      </trkpt>
      <trkpt lat="45.01697" lon="1.0916">
        <ele>71.670443577317</ele>
        <time>2021-07-17T15:17:15.111Z</time>
      </trkpt>
      <trkpt lat="45.01689" lon="1.09201">
        <ele>70.666611453277</ele>
        <time>2021-07-17T15:17:23.482Z</time>
      </trkpt>
      <trkpt lat="45.01684" lon="1.09208">
        <ele>69.560166198194</ele>
        <time>2021-07-17T15:17:31.854Z</time>
      </trkpt>
      <trkpt lat="45.01667" lon="1.09199">
        <ele>68.410094897795</ele>
        <time>2021-07-17T15:17:40.230Z</time>
      </trkpt>
      <trkpt lat="45.01648" lon="1.09184">
        <ele>67.321222301487</ele>
        <time>2021-07-17T15:17:48.610Z</time>
      </trkpt>
      <trkpt lat="45.01615" lon="1.09154">
        <ele>66.312313583227</ele>
        <time>2021-07-17T15:17:56.998Z</time>
      </trkpt>
      <trkpt lat="45.01601" lon="1.09138">
        <ele>65.491138222954</ele>
        <time>2021-07-17T15:18:05.390Z</time>
      </trkpt>
      <trkpt lat="45.01593" lon="1.09138">
        <ele>64.826994052317</ele>
        <time>2021-07-17T15:18:13.783Z</time>
      </trkpt>
      <trkpt lat="45.01564" lon="1.09105">
        <ele>64.098761326452</ele>
        <time>2021-07-17T15:18:22.184Z</time>
      </trkpt>
      <trkpt lat="45.01488" lon="1.09032">
        <ele>63.436465203661</ele>
        <time>2021-07-17T15:18:30.603Z</time>
      </trkpt>
      <trkpt lat="45.01464" lon="1.09011">
        <ele>63.109317276405</ele>
        <time>2021-07-17T15:18:39.028Z</time>
      </trkpt>
      <trkpt lat="45.01447" lon="1.08999">
        <ele>62.891135877924</ele>
        <time>2021-07-17T15:18:47.456Z</time>
      </trkpt>
      <trkpt lat="45.01405" lon="1.08977">
        <ele>62.763905476451</ele>
        <time>2021-07-17T15:18:55.893Z</time>
      </trkpt>
      <trkpt lat="45.01383" lon="1.08968">
        <ele>62.684557721163</ele>
        <time>2021-07-17T15:19:04.335Z</time>
      </trkpt>
      <trkpt lat="45.01358" lon="1.0896">
        <ele>62.760394657168</ele>
        <time>2021-07-17T15:19:12.782Z</time>
      </trkpt>
      <trkpt lat="45.01326" lon="1.08955">
        <ele>62.970224780342</ele>
        <time>2021-07-17T15:19:21.235Z</time>
      </trkpt>
      <trkpt lat="45.01273" lon="1.08954">
        <ele>63.326816432038</ele>
        <time>2021-07-17T15:19:29.699Z</time>
      </trkpt>
      <trkpt lat="45.0125" lon="1.08951">
        <ele>63.754417020582</ele>
        <time>2021-07-17T15:19:38.168Z</time>
      </trkpt>
      <trkpt lat="45.01231" lon="1.08947">
        <ele>64.270837098154</ele>
        <time>2021-07-17T15:19:46.640Z</time>
      </trkpt>
      <trkpt lat="45.01131" lon="1.08905">
        <ele>64.995715908043</ele>
        <time>2021-07-17T15:19:55.134Z</time>
      </trkpt>
      <trkpt lat="45.01114" lon="1.089">
        <ele>65.751696888211</ele>
        <time>2021-07-17T15:20:03.631Z</time>
      </trkpt>
      <trkpt lat="45.01083" lon="1.08904">
        <ele>66.662037645253</ele>
        <time>2021-07-17T15:20:12.134Z</time>
      </trkpt>
      <trkpt lat="45.01086" lon="1.0889">
        <ele>67.561524706896</ele>
        <time>2021-07-17T15:20:20.639Z</time>
      </trkpt>
      <trkpt lat="45.01109" lon="1.08755">
        <ele>68.494204236919</ele>
        <time>2021-07-17T15:20:29.164Z</time>
      </trkpt>
      <trkpt lat="45.0112" lon="1.08683">
        <ele>69.940528711622</ele>
        <time>2021-07-17T15:20:37.699Z</time>
      </trkpt>
      <trkpt lat="45.0112" lon="1.08651">
        <ele>71.224581627665</ele>
        <time>2021-07-17T15:20:46.239Z</time>
      </trkpt>
      <trkpt lat="45.01118" lon="1.0864">
        <ele>72.459953245089</ele>
        <time>2021-07-17T15:20:54.781Z</time>
      </trkpt>
      <trkpt lat="45.01104" lon="1.08596">
        <ele>73.797991810191</ele>
        <time>2021-07-17T15:21:03.330Z</time>
      </trkpt>
      <trkpt lat="45.00978" lon="1.08231">
        <ele>75.39051093688</ele>
        <time>2021-07-17T15:21:11.936Z</time>
      </trkpt>
      <trkpt lat="45.00926" lon="1.08252">
        <ele>76.832708279502</ele>
        <time>2021-07-17T15:21:20.553Z</time>
      </trkpt>
      <trkpt lat="45.0089" lon="1.08263">
        <ele>78.257233977161</ele>
        <time>2021-07-17T15:21:29.177Z</time>
      </trkpt>
      <trkpt lat="45.00802" lon="1.0828">
        <ele>79.954861401104</ele>
        <time>2021-07-17T15:21:37.819Z</time>
      </trkpt>
      <trkpt lat="45.00793" lon="1.0828">
        <ele>81.471563720457</ele>
        <time>2021-07-17T15:21:46.463Z</time>
      </trkpt>
      <trkpt lat="45.0078" lon="1.08278">
        <ele>83.0223568844</ele>
        <time>2021-07-17T15:21:55.110Z</time>
      </trkpt>
      <trkpt lat="45.0077" lon="1.0828">
        <ele>84.595749225805</ele>
        <time>2021-07-17T15:22:03.759Z</time>
      </trkpt>
      <trkpt lat="45.0076" lon="1.08287">
        <ele>86.200327877585</ele>
        <time>2021-07-17T15:22:12.410Z</time>
      </trkpt>
      <trkpt lat="45.00748" lon="1.083">
        <ele>87.80151949756</ele>
        <time>2021-07-17T15:22:21.064Z</time>
      </trkpt>
      <trkpt lat="45.00725" lon="1.08353">
        <ele>89.399353669953</ele>
        <time>2021-07-17T15:22:29.727Z</time>
      </trkpt>
      <trkpt lat="45.00709" lon="1.08384">
        <ele>91.09843323921</ele>
        <time>2021-07-17T15:22:38.395Z</time>
      </trkpt>
      <trkpt lat="45.00702" lon="1.08392">
        <ele>92.822417099057</ele>
        <time>2021-07-17T15:22:47.065Z</time>
      </trkpt>
      <trkpt lat="45.00694" lon="1.08395">
        <ele>94.594205339014</ele>
        <time>2021-07-17T15:22:55.736Z</time>
      </trkpt>
      <trkpt lat="45.0064" lon="1.0838">
        <ele>96.650407039056</ele>
        <time>2021-07-17T15:23:04.419Z</time>
      </trkpt>
      <trkpt lat="45.00628" lon="1.0838">
        <ele>98.540275283096</ele>
        <time>2021-07-17T15:23:13.104Z</time>
      </trkpt>
      <trkpt lat="45.00623" lon="1.08383">
        <ele>100.44068134219</ele>
        <time>2021-07-17T15:23:21.790Z</time>
      </trkpt>
      <trkpt lat="45.00608" lon="1.08399">
        <ele>102.3862335303</ele>
        <time>2021-07-17T15:23:30.480Z</time>
      </trkpt>
      <trkpt lat="45.00583" lon="1.08434">
        <ele>104.34658417849</ele>
        <time>2021-07-17T15:23:39.177Z</time>
      </trkpt>
      <trkpt lat="45.00575" lon="1.08437">
        <ele>106.34636416353</ele>
        <time>2021-07-17T15:23:47.876Z</time>
      </trkpt>
      <trkpt lat="45.00554" lon="1.08433">
        <ele>108.42342088527</ele>
        <time>2021-07-17T15:23:56.579Z</time>
      </trkpt>
      <trkpt lat="45.00522" lon="1.08458">
        <ele>110.6556814503</ele>
        <time>2021-07-17T15:24:05.289Z</time>
      </trkpt>
      <trkpt lat="45.0051" lon="1.08465">
        <ele>112.89826347</ele>
        <time>2021-07-17T15:24:14.002Z</time>
      </trkpt>
      <trkpt lat="45.00486" lon="1.08461">
        <ele>115.32024571549</ele>
        <time>2021-07-17T15:24:22.719Z</time>
      </trkpt>
      <trkpt lat="45.00477" lon="1.08462">
        <ele>117.65181926461</ele>
        <time>2021-07-17T15:24:31.438Z</time>
      </trkpt>
      <trkpt lat="45.00449" lon="1.08471">
        <ele>120.16050726947</ele>
        <time>2021-07-17T15:24:40.163Z</time>
      </trkpt>
      <trkpt lat="45.00417" lon="1.08485">
        <ele>122.69385183039</ele>
        <time>2021-07-17T15:24:48.895Z</time>
      </trkpt>
      <trkpt lat="45.0037" lon="1.08516">
        <ele>125.20470455074</ele>
        <time>2021-07-17T15:24:57.637Z</time>
      </trkpt>
      <trkpt lat="45.00354" lon="1.08524">
        <ele>127.7529722153</ele>
        <time>2021-07-17T15:25:06.382Z</time>
      </trkpt>
      <trkpt lat="45.00289" lon="1.08547">
        <ele>130.56681501601</ele>
        <time>2021-07-17T15:25:15.141Z</time>
      </trkpt>
      <trkpt lat="45.00271" lon="1.08559">
        <ele>133.198602715</ele>
        <time>2021-07-17T15:25:23.904Z</time>
      </trkpt>
      <trkpt lat="45.00254" lon="1.08575">
        <ele>135.85457432757</ele>
        <time>2021-07-17T15:25:32.671Z</time>
      </trkpt>
      <trkpt lat="45.00243" lon="1.08581">
        <ele>138.50037476206</ele>
        <time>2021-07-17T15:25:41.440Z</time>
      </trkpt>
      <trkpt lat="45.00228" lon="1.08586">
        <ele>141.19663587323</ele>
        <time>2021-07-17T15:25:50.212Z</time>
      </trkpt>
      <trkpt lat="45.00196" lon="1.08589">
        <ele>143.99515475514</ele>
        <time>2021-07-17T15:25:58.991Z</time>
      </trkpt>
      <trkpt lat="45.00094" lon="1.08592">
        <ele>147.18875256507</ele>
        <time>2021-07-17T15:26:07.790Z</time>
      </trkpt>
      <trkpt lat="45.00075" lon="1.08591">
        <ele>149.8698192238</ele>
        <time>2021-07-17T15:26:16.593Z</time>
      </trkpt>
      <trkpt lat="45.00062" lon="1.08588">
        <ele>152.52093412765</ele>
        <time>2021-07-17T15:26:25.399Z</time>
      </trkpt>
      <trkpt lat="45.0005" lon="1.0858">
        <ele>155.18256693104</ele>
        <time>2021-07-17T15:26:34.207Z</time>
      </trkpt>
      <trkpt lat="45.00042" lon="1.08579">
        <ele>157.80991948446</ele>
        <time>2021-07-17T15:26:43.017Z</time>
      </trkpt>
      <trkpt lat="45.00037" lon="1.08581">
        <ele>160.38362636052</ele>
        <time>2021-07-17T15:26:51.828Z</time>
      </trkpt>
      <trkpt lat="45.00031" lon="1.08588">
        <ele>162.92805340592</ele>
        <time>2021-07-17T15:27:00.640Z</time>
      </trkpt>
      <trkpt lat="45.00028" lon="1.08598">
        <ele>165.47439792378</ele>
        <time>2021-07-17T15:27:09.454Z</time>
      </trkpt>
      <trkpt lat="45.00028" lon="1.08612">
        <ele>167.95967154357</ele>
        <time>2021-07-17T15:27:18.270Z</time>
      </trkpt>
      <trkpt lat="45.00039" lon="1.08678">
        <ele>170.53453803445</ele>
        <time>2021-07-17T15:27:27.096Z</time>
      </trkpt>
      <trkpt lat="45.00039" lon="1.08698">
        <ele>172.97860983682</ele>
        <time>2021-07-17T15:27:35.925Z</time>
      </trkpt>
      <trkpt lat="45.00035" lon="1.08715">
        <ele>175.43163109155</ele>
        <time>2021-07-17T15:27:44.756Z</time>
      </trkpt>
      <trkpt lat="45.0003" lon="1.08728">
        <ele>177.87616328496</ele>
        <time>2021-07-17T15:27:53.589Z</time>
      </trkpt>
      <trkpt lat="45.00022" lon="1.08739">
        <ele>180.25727003093</ele>
        <time>2021-07-17T15:28:02.424Z</time>
      </trkpt>
      <trkpt lat="45.00003" lon="1.08756">
        <ele>182.61101325431</ele>
        <time>2021-07-17T15:28:11.264Z</time>
      </trkpt>
      <trkpt lat="44.99983" lon="1.08771">
        <ele>185.22822648143</ele>
        <time>2021-07-17T15:28:20.108Z</time>
      </trkpt>
      <trkpt lat="44.99965" lon="1.08779">
        <ele>187.541028823</ele>
        <time>2021-07-17T15:28:28.956Z</time>
      </trkpt>
      <trkpt lat="44.99947" lon="1.08784">
        <ele>189.75480646545</ele>
        <time>2021-07-17T15:28:37.808Z</time>
      </trkpt>
      <trkpt lat="44.99936" lon="1.08785">
        <ele>191.85212429659</ele>
        <time>2021-07-17T15:28:46.662Z</time>
      </trkpt>
      <trkpt lat="44.99903" lon="1.08782">
        <ele>193.96615358851</ele>
        <time>2021-07-17T15:28:55.523Z</time>
      </trkpt>
      <trkpt lat="44.99879" lon="1.08786">
        <ele>195.89644476579</ele>
        <time>2021-07-17T15:29:04.388Z</time>
      </trkpt>
      <trkpt lat="44.99861" lon="1.08791">
        <ele>197.74117039895</ele>
        <time>2021-07-17T15:29:13.257Z</time>
      </trkpt>
      <trkpt lat="44.99826" lon="1.08808">
        <ele>199.46814683551</ele>
        <time>2021-07-17T15:29:22.134Z</time>
      </trkpt>
      <trkpt lat="44.99802" lon="1.08828">
        <ele>201.05058361955</ele>
        <time>2021-07-17T15:29:31.016Z</time>
      </trkpt>
      <trkpt lat="44.99773" lon="1.08857">
        <ele>202.6319991865</ele>
        <time>2021-07-17T15:29:39.905Z</time>
      </trkpt>
      <trkpt lat="44.99744" lon="1.08881">
        <ele>204.13955769978</ele>
        <time>2021-07-17T15:29:48.801Z</time>
      </trkpt>
      <trkpt lat="44.99719" lon="1.08896">
        <ele>205.53218115949</ele>
        <time>2021-07-17T15:29:57.703Z</time>
      </trkpt>
      <trkpt lat="44.99706" lon="1.089">
        <ele>206.81842242288</ele>
        <time>2021-07-17T15:30:06.607Z</time>
      </trkpt>
      <trkpt lat="44.9969" lon="1.08901">
        <ele>207.95900843465</ele>
        <time>2021-07-17T15:30:15.514Z</time>
      </trkpt>
      <trkpt lat="44.99685" lon="1.08899">
        <ele>209.03521399382</ele>
        <time>2021-07-17T15:30:24.422Z</time>
      </trkpt>
      <trkpt lat="44.99677" lon="1.0891">
        <ele>210.04559525327</ele>
        <time>2021-07-17T15:30:33.333Z</time>
      </trkpt>
      <trkpt lat="44.99651" lon="1.08933">
        <ele>210.96913128763</ele>
        <time>2021-07-17T15:30:42.250Z</time>
      </trkpt>
      <trkpt lat="44.99624" lon="1.08948">
        <ele>211.77904965788</ele>
        <time>2021-07-17T15:30:51.173Z</time>
      </trkpt>
      <trkpt lat="44.99594" lon="1.08968">
        <ele>212.6046946055</ele>
        <time>2021-07-17T15:31:00.102Z</time>
      </trkpt>
      <trkpt lat="44.99574" lon="1.08983">
        <ele>213.29671663948</ele>
        <time>2021-07-17T15:31:09.036Z</time>
      </trkpt>
      <trkpt lat="44.99544" lon="1.09011">
        <ele>213.93108982802</ele>
        <time>2021-07-17T15:31:17.977Z</time>
      </trkpt>
      <trkpt lat="44.99519" lon="1.09037">
        <ele>214.49920366842</ele>
        <time>2021-07-17T15:31:26.924Z</time>
      </trkpt>
      <trkpt lat="44.99472" lon="1.0908">
        <ele>215.07863163667</ele>
        <time>2021-07-17T15:31:35.882Z</time>
      </trkpt>
      <trkpt lat="44.99459" lon="1.09096">
        <ele>215.4578360299</ele>
        <time>2021-07-17T15:31:44.844Z</time>
      </trkpt>
      <trkpt lat="44.99418" lon="1.09167">
        <ele>215.85699215789</ele>
        <time>2021-07-17T15:31:53.819Z</time>
      </trkpt>
      <trkpt lat="44.99377" lon="1.09234">
        <ele>216.11107107662</ele>
        <time>2021-07-17T15:32:02.806Z</time>
      </trkpt>
      <trkpt lat="44.99326" lon="1.09308">
        <ele>216.34913392678</ele>
        <time>2021-07-17T15:32:11.808Z</time>
      </trkpt>
      <trkpt lat="44.9932" lon="1.09293">
        <ele>216.30425840282</ele>
        <time>2021-07-17T15:32:20.812Z</time>
      </trkpt>
      <trkpt lat="44.99303" lon="1.09259">
        <ele>216.06385234021</ele>
        <time>2021-07-17T15:32:29.822Z</time>
      </trkpt>
      <trkpt lat="44.99294" lon="1.09252">
        <ele>215.84344496319</ele>
        <time>2021-07-17T15:32:38.835Z</time>
      </trkpt>
      <trkpt lat="44.99287" lon="1.09252">
        <ele>215.57091966242</ele>
        <time>2021-07-17T15:32:47.849Z</time>
      </trkpt>
      <trkpt lat="44.9928" lon="1.09256">
        <ele>215.22320974782</ele>
        <time>2021-07-17T15:32:56.864Z</time>
      </trkpt>
      <trkpt lat="44.99195" lon="1.09319">
        <ele>215.1785623347</ele>
        <time>2021-07-17T15:33:05.899Z</time>
      </trkpt>
      <trkpt lat="44.99172" lon="1.09331">
        <ele>214.72453802245</ele>
        <time>2021-07-17T15:33:14.939Z</time>
      </trkpt>
      <trkpt lat="44.99162" lon="1.09335">
        <ele>214.16270264754</ele>
        <time>2021-07-17T15:33:23.981Z</time>
      </trkpt>
      <trkpt lat="44.99151" lon="1.09334">
        <ele>213.51708950049</ele>
        <time>2021-07-17T15:33:33.025Z</time>
      </trkpt>
      <trkpt lat="44.99145" lon="1.0933">
        <ele>212.81500978973</ele>
        <time>2021-07-17T15:33:42.070Z</time>
      </trkpt>
      <trkpt lat="44.99123" lon="1.09311">
        <ele>211.95435584817</ele>
        <time>2021-07-17T15:33:51.120Z</time>
      </trkpt>
      <trkpt lat="44.99112" lon="1.09294">
        <ele>211.05818989051</ele>
        <time>2021-07-17T15:34:00.174Z</time>
      </trkpt>
      <trkpt lat="44.9911" lon="1.09284">
        <ele>210.16948097298</ele>
        <time>2021-07-17T15:34:09.229Z</time>
      </trkpt>
      <trkpt lat="44.99111" lon="1.09246">
        <ele>209.10018873402</ele>
        <time>2021-07-17T15:34:18.289Z</time>
      </trkpt>
      <trkpt lat="44.99108" lon="1.09229">
        <ele>208.11687645865</ele>
        <time>2021-07-17T15:34:27.352Z</time>
      </trkpt>
      <trkpt lat="44.99096" lon="1.09173">
        <ele>206.86282866715</ele>
        <time>2021-07-17T15:34:36.423Z</time>
      </trkpt>
      <trkpt lat="44.99092" lon="1.09163">
        <ele>205.86519229016</ele>
        <time>2021-07-17T15:34:45.496Z</time>
      </trkpt>
      <trkpt lat="44.99086" lon="1.09155">
        <ele>204.88118704929</ele>
        <time>2021-07-17T15:34:54.571Z</time>
      </trkpt>
      <trkpt lat="44.99061" lon="1.09146">
        <ele>203.94408343098</ele>
        <time>2021-07-17T15:35:03.651Z</time>
      </trkpt>
      <trkpt lat="44.99054" lon="1.09139">
        <ele>202.96942772887</ele>
        <time>2021-07-17T15:35:12.732Z</time>
      </trkpt>
      <trkpt lat="44.99045" lon="1.09135">
        <ele>202.02499340172</ele>
        <time>2021-07-17T15:35:21.815Z</time>
      </trkpt>
      <trkpt lat="44.99021" lon="1.09129">
        <ele>200.9580142616</ele>
        <time>2021-07-17T15:35:30.903Z</time>
      </trkpt>
      <trkpt lat="44.99015" lon="1.09129">
        <ele>200.03677787227</ele>
        <time>2021-07-17T15:35:39.992Z</time>
      </trkpt>
      <trkpt lat="44.99002" lon="1.09136">
        <ele>199.16222258366</ele>
        <time>2021-07-17T15:35:49.084Z</time>
      </trkpt>
      <trkpt lat="44.98992" lon="1.09136">
        <ele>198.29195854089</ele>
        <time>2021-07-17T15:35:58.178Z</time>
      </trkpt>
      <trkpt lat="44.98964" lon="1.09135">
        <ele>197.33570196335</ele>
        <time>2021-07-17T15:36:07.278Z</time>
      </trkpt>
      <trkpt lat="44.98937" lon="1.09128">
        <ele>196.39534933285</ele>
        <time>2021-07-17T15:36:16.383Z</time>
      </trkpt>
      <trkpt lat="44.98928" lon="1.09132">
        <ele>195.65680895512</ele>
        <time>2021-07-17T15:36:25.490Z</time>
      </trkpt>
      <trkpt lat="44.98917" lon="1.09153">
        <ele>194.98761266312</ele>
        <time>2021-07-17T15:36:34.601Z</time>
      </trkpt>
      <trkpt lat="44.98903" lon="1.09197">
        <ele>194.46564074735</ele>
        <time>2021-07-17T15:36:43.719Z</time>
      </trkpt>
      <trkpt lat="44.98892" lon="1.09237">
        <ele>194.06643165772</ele>
        <time>2021-07-17T15:36:52.843Z</time>
      </trkpt>
      <trkpt lat="44.98887" lon="1.09248">
        <ele>193.56813968588</ele>
        <time>2021-07-17T15:37:01.969Z</time>
      </trkpt>
      <trkpt lat="44.98873" lon="1.09268">
        <ele>193.04200244692</ele>
        <time>2021-07-17T15:37:11.099Z</time>
      </trkpt>
      <trkpt lat="44.98865" lon="1.09285">
        <ele>192.63631992098</ele>
        <time>2021-07-17T15:37:20.232Z</time>
      </trkpt>
      <trkpt lat="44.98858" lon="1.0931">
        <ele>192.28927231285</ele>
        <time>2021-07-17T15:37:29.368Z</time>
      </trkpt>
      <trkpt lat="44.98852" lon="1.09301">
        <ele>191.83322580177</ele>
        <time>2021-07-17T15:37:38.506Z</time>
      </trkpt>
      <trkpt lat="44.98849" lon="1.0929">
        <ele>191.37947634337</ele>
        <time>2021-07-17T15:37:47.646Z</time>
      </trkpt>
      <trkpt lat="44.98845" lon="1.09282">
        <ele>190.95613559377</ele>
        <time>2021-07-17T15:37:56.787Z</time>
      </trkpt>
      <trkpt lat="44.98831" lon="1.09274">
        <ele>190.58205063442</ele>
        <time>2021-07-17T15:38:05.931Z</time>
      </trkpt>
      <trkpt lat="44.98824" lon="1.09267">
        <ele>190.16041302346</ele>
        <time>2021-07-17T15:38:15.077Z</time>
      </trkpt>
      <trkpt lat="44.98818" lon="1.09229">
        <ele>189.67729489864</ele>
        <time>2021-07-17T15:38:24.228Z</time>
      </trkpt>
      <trkpt lat="44.98814" lon="1.09217">
        <ele>189.2263792843</ele>
        <time>2021-07-17T15:38:33.381Z</time>
      </trkpt>
      <trkpt lat="44.98807" lon="1.09209">
        <ele>188.76953132126</ele>
        <time>2021-07-17T15:38:42.536Z</time>
      </trkpt>
      <trkpt lat="44.9879" lon="1.09203">
        <ele>188.39976847243</ele>
        <time>2021-07-17T15:38:51.695Z</time>
      </trkpt>
      <trkpt lat="44.98788" lon="1.09201">
        <ele>187.77064022464</ele>
        <time>2021-07-17T15:39:00.854Z</time>
      </trkpt>
      <trkpt lat="44.98788" lon="1.0919">
        <ele>187.05419930702</ele>
        <time>2021-07-17T15:39:10.015Z</time>
      </trkpt>
      <trkpt lat="44.98794" lon="1.09174">
        <ele>186.20269232926</ele>
        <time>2021-07-17T15:39:19.178Z</time>
      </trkpt>
      <trkpt lat="44.98795" lon="1.09152">
        <ele>185.35116392558</ele>
        <time>2021-07-17T15:39:28.344Z</time>
      </trkpt>
      <trkpt lat="44.98796" lon="1.09149">
        <ele>184.38961380928</ele>
        <time>2021-07-17T15:39:37.511Z</time>
      </trkpt>
      <trkpt lat="44.98801" lon="1.09142">
        <ele>183.26508571427</ele>
        <time>2021-07-17T15:39:46.679Z</time>
      </trkpt>
      <trkpt lat="44.98809" lon="1.09115">
        <ele>182.03673161262</ele>
        <time>2021-07-17T15:39:55.851Z</time>
      </trkpt>
      <trkpt lat="44.98821" lon="1.09082">
        <ele>180.7331372752</ele>
        <time>2021-07-17T15:40:05.029Z</time>
      </trkpt>
      <trkpt lat="44.98848" lon="1.09038">
        <ele>179.21985026132</ele>
        <time>2021-07-17T15:40:14.215Z</time>
      </trkpt>
      <trkpt lat="44.98856" lon="1.09015">
        <ele>177.85023844283</ele>
        <time>2021-07-17T15:40:23.405Z</time>
      </trkpt>
      <trkpt lat="44.9887" lon="1.09">
        <ele>176.34358927143</ele>
        <time>2021-07-17T15:40:32.598Z</time>
      </trkpt>
      <trkpt lat="44.989" lon="1.08963">
        <ele>174.70548722015</ele>
        <time>2021-07-17T15:40:41.799Z</time>
      </trkpt>
      <trkpt lat="44.98917" lon="1.08928">
        <ele>173.02152448148</ele>
        <time>2021-07-17T15:40:51.006Z</time>
      </trkpt>
      <trkpt lat="44.98928" lon="1.08913">
        <ele>171.29713837882</ele>
        <time>2021-07-17T15:41:00.216Z</time>
      </trkpt>
      <trkpt lat="44.9894" lon="1.08885">
        <ele>169.64372394354</ele>
        <time>2021-07-17T15:41:09.431Z</time>
      </trkpt>
      <trkpt lat="44.98947" lon="1.08856">
        <ele>167.94916655598</ele>
        <time>2021-07-17T15:41:18.650Z</time>
      </trkpt>
      <trkpt lat="44.98952" lon="1.08852">
        <ele>166.17470435455</ele>
        <time>2021-07-17T15:41:27.870Z</time>
      </trkpt>
      <trkpt lat="44.98961" lon="1.08855">
        <ele>164.32952792732</ele>
        <time>2021-07-17T15:41:37.092Z</time>
      </trkpt>
      <trkpt lat="44.98967" lon="1.08854">
        <ele>162.50747693977</ele>
        <time>2021-07-17T15:41:46.315Z</time>
      </trkpt>
      <trkpt lat="44.98979" lon="1.08849">
        <ele>160.62208024809</ele>
        <time>2021-07-17T15:41:55.541Z</time>
      </trkpt>
      <trkpt lat="44.99021" lon="1.088">
        <ele>158.66753872186</ele>
        <time>2021-07-17T15:42:04.778Z</time>
      </trkpt>
      <trkpt lat="44.99035" lon="1.08793">
        <ele>156.85013251508</ele>
        <time>2021-07-17T15:42:14.018Z</time>
      </trkpt>
      <trkpt lat="44.99078" lon="1.08765">
        <ele>155.05123901325</ele>
        <time>2021-07-17T15:42:23.267Z</time>
      </trkpt>
      <trkpt lat="44.99103" lon="1.08751">
        <ele>153.16371007126</ele>
        <time>2021-07-17T15:42:32.521Z</time>
      </trkpt>
      <trkpt lat="44.99112" lon="1.08747">
        <ele>151.37482635872</ele>
        <time>2021-07-17T15:42:41.777Z</time>
      </trkpt>
      <trkpt lat="44.99127" lon="1.08745">
        <ele>149.56154572211</ele>
        <time>2021-07-17T15:42:51.036Z</time>
      </trkpt>
      <trkpt lat="44.99158" lon="1.08743">
        <ele>147.70703526399</ele>
        <time>2021-07-17T15:43:00.302Z</time>
      </trkpt>
      <trkpt lat="44.99178" lon="1.08735">
        <ele>146.17680440347</ele>
        <time>2021-07-17T15:43:09.572Z</time>
      </trkpt>
      <trkpt lat="44.99185" lon="1.08735">
        <ele>144.65046676528</ele>
        <time>2021-07-17T15:43:18.843Z</time>
      </trkpt>
      <trkpt lat="44.99213" lon="1.08707">
        <ele>143.19119413978</ele>
        <time>2021-07-17T15:43:28.121Z</time>
      </trkpt>
      <trkpt lat="44.99262" lon="1.08665">
        <ele>141.68291884872</ele>
        <time>2021-07-17T15:43:37.410Z</time>
      </trkpt>
      <trkpt lat="44.99325" lon="1.08615">
        <ele>140.43159514138</ele>
        <time>2021-07-17T15:43:46.714Z</time>
      </trkpt>
      <trkpt lat="44.99376" lon="1.08578">
        <ele>139.1333457776</ele>
        <time>2021-07-17T15:43:56.029Z</time>
      </trkpt>
      <trkpt lat="44.99399" lon="1.08554">
        <ele>138.04690830083</ele>
        <time>2021-07-17T15:44:05.350Z</time>
      </trkpt>
      <trkpt lat="44.99419" lon="1.0852">
        <ele>137.16815583562</ele>
        <time>2021-07-17T15:44:14.677Z</time>
      </trkpt>
      <trkpt lat="44.99446" lon="1.08462">
        <ele>136.36054435279</ele>
        <time>2021-07-17T15:44:24.014Z</time>
      </trkpt>
      <trkpt lat="44.99462" lon="1.08432">
        <ele>135.45440438342</ele>
        <time>2021-07-17T15:44:33.357Z</time>
      </trkpt>
      <trkpt lat="44.9949" lon="1.08385">
        <ele>134.46178182804</ele>
        <time>2021-07-17T15:44:42.708Z</time>
      </trkpt>
      <trkpt lat="44.99511" lon="1.08341">
        <ele>133.64555083542</ele>
        <time>2021-07-17T15:44:52.067Z</time>
      </trkpt>
      <trkpt lat="44.99522" lon="1.08285">
        <ele>133.03092147039</ele>
        <time>2021-07-17T15:45:01.434Z</time>
      </trkpt>
      <trkpt lat="44.99531" lon="1.08212">
        <ele>132.62564744656</ele>
        <time>2021-07-17T15:45:10.812Z</time>
      </trkpt>
      <trkpt lat="44.99529" lon="1.08201">
        <ele>132.19889807426</ele>
        <time>2021-07-17T15:45:20.191Z</time>
      </trkpt>
      <trkpt lat="44.99523" lon="1.08189">
        <ele>131.86927083558</ele>
        <time>2021-07-17T15:45:29.572Z</time>
      </trkpt>
      <trkpt lat="44.99518" lon="1.08182">
        <ele>131.63070396634</ele>
        <time>2021-07-17T15:45:38.955Z</time>
      </trkpt>
      <trkpt lat="44.99504" lon="1.0817">
        <ele>131.43729153386</ele>
        <time>2021-07-17T15:45:48.341Z</time>
      </trkpt>
      <trkpt lat="44.99478" lon="1.08156">
        <ele>131.26585039519</ele>
        <time>2021-07-17T15:45:57.733Z</time>
      </trkpt>
      <trkpt lat="44.99447" lon="1.08144">
        <ele>131.14770767567</ele>
        <time>2021-07-17T15:46:07.131Z</time>
      </trkpt>
      <trkpt lat="44.9942" lon="1.08136">
        <ele>131.1518588514</ele>
        <time>2021-07-17T15:46:16.534Z</time>
      </trkpt>
      <trkpt lat="44.99387" lon="1.08132">
        <ele>131.27365009196</ele>
        <time>2021-07-17T15:46:25.944Z</time>
      </trkpt>
      <trkpt lat="44.99365" lon="1.08137">
        <ele>131.45529480096</ele>
        <time>2021-07-17T15:46:35.359Z</time>
      </trkpt>
      <trkpt lat="44.99339" lon="1.0814">
        <ele>131.64000057615</ele>
        <time>2021-07-17T15:46:44.779Z</time>
      </trkpt>
      <trkpt lat="44.99291" lon="1.08128">
        <ele>131.85903888964</ele>
        <time>2021-07-17T15:46:54.209Z</time>
      </trkpt>
      <trkpt lat="44.99245" lon="1.08107">
        <ele>132.23530428943</ele>
        <time>2021-07-17T15:47:03.648Z</time>
      </trkpt>
      <trkpt lat="44.99209" lon="1.08088">
        <ele>132.44650210093</ele>
        <time>2021-07-17T15:47:13.095Z</time>
      </trkpt>
      <trkpt lat="44.99185" lon="1.08077">
        <ele>132.63076638025</ele>
        <time>2021-07-17T15:47:22.547Z</time>
      </trkpt>
      <trkpt lat="44.99173" lon="1.08065">
        <ele>132.80143963826</ele>
        <time>2021-07-17T15:47:32.002Z</time>
      </trkpt>
      <trkpt lat="44.99169" lon="1.08063">
        <ele>133.03918806766</ele>
        <time>2021-07-17T15:47:41.458Z</time>
      </trkpt>
      <trkpt lat="44.99148" lon="1.08062">
        <ele>133.27372736712</ele>
        <time>2021-07-17T15:47:50.918Z</time>
      </trkpt>
      <trkpt lat="44.9912" lon="1.08072">
        <ele>133.55610698588</ele>
        <time>2021-07-17T15:48:00.384Z</time>
      </trkpt>
      <trkpt lat="44.99095" lon="1.08077">
        <ele>133.83921572569</ele>
        <time>2021-07-17T15:48:09.855Z</time>
      </trkpt>
      <trkpt lat="44.99064" lon="1.08064">
        <ele>134.10687045398</ele>
        <time>2021-07-17T15:48:19.332Z</time>
      </trkpt>
      <trkpt lat="44.99042" lon="1.08038">
        <ele>134.22102831552</ele>
        <time>2021-07-17T15:48:28.815Z</time>
      </trkpt>
      <trkpt lat="44.99051" lon="1.08003">
        <ele>134.08718687332</ele>
        <time>2021-07-17T15:48:38.303Z</time>
      </trkpt>
      <trkpt lat="44.99057" lon="1.07941">
        <ele>133.89535006111</ele>
        <time>2021-07-17T15:48:47.800Z</time>
      </trkpt>
      <trkpt lat="44.99034" lon="1.07929">
        <ele>134.00061215915</ele>
        <time>2021-07-17T15:48:57.302Z</time>
      </trkpt>
      <trkpt lat="44.99006" lon="1.07888">
        <ele>133.97836953846</ele>
        <time>2021-07-17T15:49:06.812Z</time>
      </trkpt>
      <trkpt lat="44.98993" lon="1.07871">
        <ele>133.97010125198</ele>
        <time>2021-07-17T15:49:16.326Z</time>
      </trkpt>
      <trkpt lat="44.98985" lon="1.07865">
        <ele>133.91292208686</ele>
        <time>2021-07-17T15:49:25.841Z</time>
      </trkpt>
      <trkpt lat="44.98978" lon="1.07848">
        <ele>133.71953492475</ele>
        <time>2021-07-17T15:49:35.359Z</time>
      </trkpt>
      <trkpt lat="44.98977" lon="1.07837">
        <ele>133.48404020155</ele>
        <time>2021-07-17T15:49:44.879Z</time>
      </trkpt>
      <trkpt lat="44.98956" lon="1.07817">
        <ele>133.34815489693</ele>
        <time>2021-07-17T15:49:54.404Z</time>
      </trkpt>
      <trkpt lat="44.98922" lon="1.0777">
        <ele>133.19845073599</ele>
        <time>2021-07-17T15:50:03.938Z</time>
      </trkpt>
      <trkpt lat="44.98909" lon="1.07757">
        <ele>132.85184897523</ele>
        <time>2021-07-17T15:50:13.475Z</time>
      </trkpt>
      <trkpt lat="44.98901" lon="1.07752">
        <ele>132.39912981003</ele>
        <time>2021-07-17T15:50:23.014Z</time>
      </trkpt>
      <trkpt lat="44.98894" lon="1.07753">
        <ele>131.86029812279</ele>
        <time>2021-07-17T15:50:32.555Z</time>
      </trkpt>
      <trkpt lat="44.98884" lon="1.0776">
        <ele>131.21715042151</ele>
        <time>2021-07-17T15:50:42.098Z</time>
      </trkpt>
      <trkpt lat="44.98875" lon="1.0777">
        <ele>130.47055289097</ele>
        <time>2021-07-17T15:50:51.643Z</time>
      </trkpt>
      <trkpt lat="44.98869" lon="1.07781">
        <ele>129.62013200089</ele>
        <time>2021-07-17T15:51:01.190Z</time>
      </trkpt>
      <trkpt lat="44.98867" lon="1.07789">
        <ele>128.68436339818</ele>
        <time>2021-07-17T15:51:10.738Z</time>
      </trkpt>
      <trkpt lat="44.98863" lon="1.07782">
        <ele>127.66777245285</ele>
        <time>2021-07-17T15:51:20.288Z</time>
      </trkpt>
      <trkpt lat="44.98861" lon="1.07774">
        <ele>126.57557857961</ele>
        <time>2021-07-17T15:51:29.839Z</time>
      </trkpt>
      <trkpt lat="44.98863" lon="1.07763">
        <ele>125.41455552561</ele>
        <time>2021-07-17T15:51:39.391Z</time>
      </trkpt>
      <trkpt lat="44.98854" lon="1.07758">
        <ele>124.19306608766</ele>
        <time>2021-07-17T15:51:48.945Z</time>
      </trkpt>
      <trkpt lat="44.98847" lon="1.07757">
        <ele>122.91967016759</ele>
        <time>2021-07-17T15:51:58.501Z</time>
      </trkpt>
      <trkpt lat="44.9884" lon="1.07758">
        <ele>121.57788517806</ele>
        <time>2021-07-17T15:52:08.058Z</time>
      </trkpt>
      <trkpt lat="44.98807" lon="1.07732">
        <ele>120.08219760965</ele>
        <time>2021-07-17T15:52:17.623Z</time>
      </trkpt>
      <trkpt lat="44.98795" lon="1.0772">
        <ele>118.68024493726</ele>
        <time>2021-07-17T15:52:27.191Z</time>
      </trkpt>
      <trkpt lat="44.98787" lon="1.07708">
        <ele>117.29310238983</ele>
        <time>2021-07-17T15:52:36.761Z</time>
      </trkpt>
      <trkpt lat="44.98771" lon="1.07691">
        <ele>115.85363119588</ele>
        <time>2021-07-17T15:52:46.335Z</time>
      </trkpt>
      <trkpt lat="44.98759" lon="1.0767">
        <ele>114.50311196151</ele>
        <time>2021-07-17T15:52:55.913Z</time>
      </trkpt>
      <trkpt lat="44.98737" lon="1.07639">
        <ele>113.1707124827</ele>
        <time>2021-07-17T15:53:05.497Z</time>
      </trkpt>
      <trkpt lat="44.98709" lon="1.07596">
        <ele>112.01910174667</ele>
        <time>2021-07-17T15:53:15.089Z</time>
      </trkpt>
      <trkpt lat="44.98689" lon="1.07568">
        <ele>110.93514139978</ele>
        <time>2021-07-17T15:53:24.687Z</time>
      </trkpt>
      <trkpt lat="44.98664" lon="1.07525">
        <ele>109.88752048348</ele>
        <time>2021-07-17T15:53:34.293Z</time>
      </trkpt>
      <trkpt lat="44.9865" lon="1.07477">
        <ele>108.90532128177</ele>
        <time>2021-07-17T15:53:43.906Z</time>
      </trkpt>
      <trkpt lat="44.98641" lon="1.07457">
        <ele>108.20668978045</ele>
        <time>2021-07-17T15:53:53.523Z</time>
      </trkpt>
      <trkpt lat="44.9863" lon="1.07426">
        <ele>107.57567575264</ele>
        <time>2021-07-17T15:54:03.145Z</time>
      </trkpt>
      <trkpt lat="44.98623" lon="1.07399">
        <ele>107.26388762209</ele>
        <time>2021-07-17T15:54:12.771Z</time>
      </trkpt>
      <trkpt lat="44.98617" lon="1.07365">
        <ele>107.27328887007</ele>
        <time>2021-07-17T15:54:22.402Z</time>
      </trkpt>
      <trkpt lat="44.9859" lon="1.07338">
        <ele>107.64702248131</ele>
        <time>2021-07-17T15:54:32.039Z</time>
      </trkpt>
      <trkpt lat="44.9857" lon="1.07321">
        <ele>108.51930673011</ele>
        <time>2021-07-17T15:54:41.681Z</time>
      </trkpt>
      <trkpt lat="44.98565" lon="1.07325">
        <ele>109.39582172053</ele>
        <time>2021-07-17T15:54:51.324Z</time>
      </trkpt>
      <trkpt lat="44.98539" lon="1.07366">
        <ele>110.54473025374</ele>
        <time>2021-07-17T15:55:00.975Z</time>
      </trkpt>
      <trkpt lat="44.98501" lon="1.07431">
        <ele>111.93512207171</ele>
        <time>2021-07-17T15:55:10.638Z</time>
      </trkpt>
      <trkpt lat="44.98449" lon="1.0749">
        <ele>113.71741013917</ele>
        <time>2021-07-17T15:55:20.314Z</time>
      </trkpt>
      <trkpt lat="44.98406" lon="1.07557">
        <ele>115.71669355959</ele>
        <time>2021-07-17T15:55:30.003Z</time>
      </trkpt>
      <trkpt lat="44.98396" lon="1.07582">
        <ele>117.76392159426</ele>
        <time>2021-07-17T15:55:39.696Z</time>
      </trkpt>
      <trkpt lat="44.98371" lon="1.07618">
        <ele>120.31748751367</ele>
        <time>2021-07-17T15:55:49.396Z</time>
      </trkpt>
      <trkpt lat="44.98357" lon="1.07641">
        <ele>123.13579636338</ele>
        <time>2021-07-17T15:55:59.101Z</time>
      </trkpt>
      <trkpt lat="44.98355" lon="1.07648">
        <ele>126.05839075839</ele>
        <time>2021-07-17T15:56:08.807Z</time>
      </trkpt>
      <trkpt lat="44.98288" lon="1.07681">
        <ele>129.47629310767</ele>
        <time>2021-07-17T15:56:18.527Z</time>
      </trkpt>
      <trkpt lat="44.98243" lon="1.07696">
        <ele>133.30925045207</ele>
        <time>2021-07-17T15:56:28.256Z</time>
      </trkpt>
      <trkpt lat="44.98223" lon="1.07714">
        <ele>137.15536591998</ele>
        <time>2021-07-17T15:56:37.990Z</time>
      </trkpt>
      <trkpt lat="44.98171" lon="1.07749">
        <ele>141.3871403783</ele>
        <time>2021-07-17T15:56:47.735Z</time>
      </trkpt>
      <trkpt lat="44.98152" lon="1.07756">
        <ele>145.57698886214</ele>
        <time>2021-07-17T15:56:57.484Z</time>
      </trkpt>
      <trkpt lat="44.98119" lon="1.078">
        <ele>149.97638016062</ele>
        <time>2021-07-17T15:57:07.242Z</time>
      </trkpt>
      <trkpt lat="44.9809" lon="1.07834">
        <ele>154.59732799167</ele>
        <time>2021-07-17T15:57:17.008Z</time>
      </trkpt>
      <trkpt lat="44.98075" lon="1.07861">
        <ele>159.25270395793</ele>
        <time>2021-07-17T15:57:26.779Z</time>
      </trkpt>
      <trkpt lat="44.98071" lon="1.07875">
        <ele>163.79107496008</ele>
        <time>2021-07-17T15:57:36.552Z</time>
      </trkpt>
      <trkpt lat="44.9806" lon="1.07894">
        <ele>168.52131227176</ele>
        <time>2021-07-17T15:57:46.328Z</time>
      </trkpt>
      <trkpt lat="44.97995" lon="1.08041">
        <ele>173.96240671846</ele>
        <time>2021-07-17T15:57:56.129Z</time>
      </trkpt>
      <trkpt lat="44.97984" lon="1.0805">
        <ele>178.6885933499</ele>
        <time>2021-07-17T15:58:05.933Z</time>
      </trkpt>
      <trkpt lat="44.9797" lon="1.08033">
        <ele>183.40698346327</ele>
        <time>2021-07-17T15:58:15.740Z</time>
      </trkpt>
      <trkpt lat="44.97952" lon="1.0802">
        <ele>188.19231451511</ele>
        <time>2021-07-17T15:58:25.551Z</time>
      </trkpt>
      <trkpt lat="44.97937" lon="1.07982">
        <ele>192.97229162111</ele>
        <time>2021-07-17T15:58:35.368Z</time>
      </trkpt>
      <trkpt lat="44.97912" lon="1.07943">
        <ele>197.79383433316</ele>
        <time>2021-07-17T15:58:45.193Z</time>
      </trkpt>
      <trkpt lat="44.97903" lon="1.07936">
        <ele>202.32238335701</ele>
        <time>2021-07-17T15:58:55.020Z</time>
      </trkpt>
      <trkpt lat="44.97891" lon="1.07859">
        <ele>206.9595416461</ele>
        <time>2021-07-17T15:59:04.858Z</time>
      </trkpt>
      <trkpt lat="44.97884" lon="1.07823">
        <ele>211.21975489304</ele>
        <time>2021-07-17T15:59:14.701Z</time>
      </trkpt>
      <trkpt lat="44.97877" lon="1.07798">
        <ele>215.30763242217</ele>
        <time>2021-07-17T15:59:24.548Z</time>
      </trkpt>
      <trkpt lat="44.97867" lon="1.07772">
        <ele>219.24526268772</ele>
        <time>2021-07-17T15:59:34.399Z</time>
      </trkpt>
      <trkpt lat="44.97858" lon="1.07758">
        <ele>222.99743439429</ele>
        <time>2021-07-17T15:59:44.253Z</time>
      </trkpt>
      <trkpt lat="44.97847" lon="1.07777">
        <ele>226.65167707995</ele>
        <time>2021-07-17T15:59:54.110Z</time>
      </trkpt>
      <trkpt lat="44.97835" lon="1.07805">
        <ele>230.15582252287</ele>
        <time>2021-07-17T16:00:03.972Z</time>
      </trkpt>
      <trkpt lat="44.97813" lon="1.0784">
        <ele>233.55172381955</ele>
        <time>2021-07-17T16:00:13.841Z</time>
      </trkpt>
      <trkpt lat="44.97808" lon="1.07852">
        <ele>236.64748980567</ele>
        <time>2021-07-17T16:00:23.712Z</time>
      </trkpt>
      <trkpt lat="44.97802" lon="1.07872">
        <ele>239.57725402515</ele>
        <time>2021-07-17T16:00:33.586Z</time>
      </trkpt>
      <trkpt lat="44.97768" lon="1.08021">
        <ele>242.833815237</ele>
        <time>2021-07-17T16:00:43.482Z</time>
      </trkpt>
      <trkpt lat="44.97759" lon="1.08088">
        <ele>245.4319531369</ele>
        <time>2021-07-17T16:00:53.388Z</time>
      </trkpt>
      <trkpt lat="44.97749" lon="1.08119">
        <ele>247.71916273561</ele>
        <time>2021-07-17T16:01:03.299Z</time>
      </trkpt>
      <trkpt lat="44.97741" lon="1.08131">
        <ele>249.75335294595</ele>
        <time>2021-07-17T16:01:13.212Z</time>
      </trkpt>
      <trkpt lat="44.97733" lon="1.08152">
        <ele>251.47099383595</ele>
        <time>2021-07-17T16:01:23.128Z</time>
      </trkpt>
      <trkpt lat="44.97721" lon="1.08192">
        <ele>252.96309521236</ele>
        <time>2021-07-17T16:01:33.051Z</time>
      </trkpt>
      <trkpt lat="44.97703" lon="1.08263">
        <ele>254.49405980259</ele>
        <time>2021-07-17T16:01:42.984Z</time>
      </trkpt>
      <trkpt lat="44.97684" lon="1.08293">
        <ele>255.5938119704</ele>
        <time>2021-07-17T16:01:52.923Z</time>
      </trkpt>
      <trkpt lat="44.9765" lon="1.08368">
        <ele>256.33703524539</ele>
        <time>2021-07-17T16:02:02.874Z</time>
      </trkpt>
      <trkpt lat="44.97631" lon="1.08385">
        <ele>257.07324395054</ele>
        <time>2021-07-17T16:02:12.830Z</time>
      </trkpt>
      <trkpt lat="44.97624" lon="1.08397">
        <ele>257.61621048675</ele>
        <time>2021-07-17T16:02:22.788Z</time>
      </trkpt>
      <trkpt lat="44.97609" lon="1.08399">
        <ele>257.92473559325</ele>
        <time>2021-07-17T16:02:32.749Z</time>
      </trkpt>
      <trkpt lat="44.97537" lon="1.08414">
        <ele>257.97146845597</ele>
        <time>2021-07-17T16:02:42.725Z</time>
      </trkpt>
      <trkpt lat="44.97515" lon="1.08413">
        <ele>257.97983709412</ele>
        <time>2021-07-17T16:02:52.705Z</time>
      </trkpt>
      <trkpt lat="44.97491" lon="1.08406">
        <ele>257.83481654199</ele>
        <time>2021-07-17T16:03:02.690Z</time>
      </trkpt>
      <trkpt lat="44.97465" lon="1.08393">
        <ele>257.42916705335</ele>
        <time>2021-07-17T16:03:12.681Z</time>
      </trkpt>
      <trkpt lat="44.97439" lon="1.08373">
        <ele>256.90008866276</ele>
        <time>2021-07-17T16:03:22.678Z</time>
      </trkpt>
      <trkpt lat="44.97353" lon="1.0829">
        <ele>256.34207482353</ele>
        <time>2021-07-17T16:03:32.695Z</time>
      </trkpt>
      <trkpt lat="44.97276" lon="1.0822">
        <ele>255.57031385484</ele>
        <time>2021-07-17T16:03:42.731Z</time>
      </trkpt>
      <trkpt lat="44.97246" lon="1.08189">
        <ele>254.72497615997</ele>
        <time>2021-07-17T16:03:52.774Z</time>
      </trkpt>
      <trkpt lat="44.97237" lon="1.08178">
        <ele>253.72219450084</ele>
        <time>2021-07-17T16:04:02.820Z</time>
      </trkpt>
      <trkpt lat="44.97194" lon="1.0819">
        <ele>252.48089734468</ele>
        <time>2021-07-17T16:04:12.874Z</time>
      </trkpt>
      <trkpt lat="44.97184" lon="1.08197">
        <ele>251.21707463958</ele>
        <time>2021-07-17T16:04:22.931Z</time>
      </trkpt>
      <trkpt lat="44.97161" lon="1.08188">
        <ele>249.92808757946</ele>
        <time>2021-07-17T16:04:32.992Z</time>
      </trkpt>
      <trkpt lat="44.97131" lon="1.08222">
        <ele>248.35903152202</ele>
        <time>2021-07-17T16:04:43.061Z</time>
      </trkpt>
      <trkpt lat="44.9712" lon="1.08237">
        <ele>246.80049939135</ele>
        <time>2021-07-17T16:04:53.133Z</time>
      </trkpt>
      <trkpt lat="44.97094" lon="1.08283">
        <ele>245.02189024806</ele>
        <time>2021-07-17T16:05:03.213Z</time>
      </trkpt>
      <trkpt lat="44.97071" lon="1.08331">
        <ele>243.24676052186</ele>
        <time>2021-07-17T16:05:13.302Z</time>
      </trkpt>
      <trkpt lat="44.97064" lon="1.0834">
        <ele>241.51117093192</ele>
        <time>2021-07-17T16:05:23.392Z</time>
      </trkpt>
      <trkpt lat="44.97053" lon="1.08353">
        <ele>239.66783757193</ele>
        <time>2021-07-17T16:05:33.485Z</time>
      </trkpt>
      <trkpt lat="44.97035" lon="1.08364">
        <ele>237.75280944435</ele>
        <time>2021-07-17T16:05:43.582Z</time>
      </trkpt>
      <trkpt lat="44.97016" lon="1.08371">
        <ele>235.81879591218</ele>
        <time>2021-07-17T16:05:53.683Z</time>
      </trkpt>
      <trkpt lat="44.96996" lon="1.08377">
        <ele>233.80625520169</ele>
        <time>2021-07-17T16:06:03.788Z</time>
      </trkpt>
      <trkpt lat="44.96905" lon="1.0841">
        <ele>231.75628686343</ele>
        <time>2021-07-17T16:06:13.912Z</time>
      </trkpt>
      <trkpt lat="44.96875" lon="1.08417">
        <ele>229.77275319495</ele>
        <time>2021-07-17T16:06:24.042Z</time>
      </trkpt>
      <trkpt lat="44.96856" lon="1.08418">
        <ele>227.73881975551</ele>
        <time>2021-07-17T16:06:34.176Z</time>
      </trkpt>
      <trkpt lat="44.96831" lon="1.08417">
        <ele>225.65751560013</ele>
        <time>2021-07-17T16:06:44.315Z</time>
      </trkpt>
      <trkpt lat="44.96825" lon="1.08414">
        <ele>223.56073126367</ele>
        <time>2021-07-17T16:06:54.455Z</time>
      </trkpt>
      <trkpt lat="44.9682" lon="1.08409">
        <ele>221.44204978708</ele>
        <time>2021-07-17T16:07:04.597Z</time>
      </trkpt>
      <trkpt lat="44.96817" lon="1.084">
        <ele>219.3019802522</ele>
        <time>2021-07-17T16:07:14.740Z</time>
      </trkpt>
      <trkpt lat="44.96811" lon="1.08361">
        <ele>217.03291184873</ele>
        <time>2021-07-17T16:07:24.889Z</time>
      </trkpt>
      <trkpt lat="44.96806" lon="1.08355">
        <ele>214.83680594589</ele>
        <time>2021-07-17T16:07:35.039Z</time>
      </trkpt>
      <trkpt lat="44.96798" lon="1.08349">
        <ele>212.63460947731</ele>
        <time>2021-07-17T16:07:45.191Z</time>
      </trkpt>
      <trkpt lat="44.96739" lon="1.0834">
        <ele>210.29801587988</ele>
        <time>2021-07-17T16:07:55.354Z</time>
      </trkpt>
      <trkpt lat="44.96701" lon="1.08327">
        <ele>207.94623680368</ele>
        <time>2021-07-17T16:08:05.525Z</time>
      </trkpt>
      <trkpt lat="44.96682" lon="1.08323">
        <ele>205.68271714293</ele>
        <time>2021-07-17T16:08:15.700Z</time>
      </trkpt>
      <trkpt lat="44.96662" lon="1.0832">
        <ele>203.47513110541</ele>
        <time>2021-07-17T16:08:25.879Z</time>
      </trkpt>
      <trkpt lat="44.96637" lon="1.08322">
        <ele>201.29296230815</ele>
        <time>2021-07-17T16:08:36.063Z</time>
      </trkpt>
      <trkpt lat="44.96622" lon="1.08327">
        <ele>199.18116819797</ele>
        <time>2021-07-17T16:08:46.250Z</time>
      </trkpt>
      <trkpt lat="44.96582" lon="1.08344">
        <ele>197.03897064604</ele>
        <time>2021-07-17T16:08:56.446Z</time>
      </trkpt>
      <trkpt lat="44.96553" lon="1.08349">
        <ele>194.9666144758</ele>
        <time>2021-07-17T16:09:06.648Z</time>
      </trkpt>
      <trkpt lat="44.96532" lon="1.0835">
        <ele>192.96690917859</ele>
        <time>2021-07-17T16:09:16.854Z</time>
      </trkpt>
      <trkpt lat="44.9652" lon="1.08355">
        <ele>191.00857073295</ele>
        <time>2021-07-17T16:09:27.062Z</time>
      </trkpt>
      <trkpt lat="44.9649" lon="1.08372">
        <ele>189.0319060236</ele>
        <time>2021-07-17T16:09:37.277Z</time>
      </trkpt>
      <trkpt lat="44.96466" lon="1.08393">
        <ele>187.05700777281</ele>
        <time>2021-07-17T16:09:47.497Z</time>
      </trkpt>
      <trkpt lat="44.96441" lon="1.08442">
        <ele>185.11359777069</ele>
        <time>2021-07-17T16:09:57.726Z</time>
      </trkpt>
      <trkpt lat="44.96433" lon="1.08454">
        <ele>183.41217672961</ele>
        <time>2021-07-17T16:10:07.957Z</time>
      </trkpt>
      <trkpt lat="44.96413" lon="1.08473">
        <ele>181.73917962498</ele>
        <time>2021-07-17T16:10:18.193Z</time>
      </trkpt>
      <trkpt lat="44.9641" lon="1.08471">
        <ele>180.27878071068</ele>
        <time>2021-07-17T16:10:28.430Z</time>
      </trkpt>
      <trkpt lat="44.96406" lon="1.08466">
        <ele>178.91323478893</ele>
        <time>2021-07-17T16:10:38.668Z</time>
      </trkpt>
      <trkpt lat="44.96404" lon="1.08454">
        <ele>177.65451260541</ele>
        <time>2021-07-17T16:10:48.908Z</time>
      </trkpt>
      <trkpt lat="44.96408" lon="1.08396">
        <ele>176.48371943329</ele>
        <time>2021-07-17T16:10:59.156Z</time>
      </trkpt>
      <trkpt lat="44.96408" lon="1.08337">
        <ele>175.36584944184</ele>
        <time>2021-07-17T16:11:09.412Z</time>
      </trkpt>
      <trkpt lat="44.96414" lon="1.0829">
        <ele>174.38201721324</ele>
        <time>2021-07-17T16:11:19.675Z</time>
      </trkpt>
      <trkpt lat="44.96414" lon="1.08276">
        <ele>173.46288352677</ele>
        <time>2021-07-17T16:11:29.940Z</time>
      </trkpt>
      <trkpt lat="44.96411" lon="1.08255">
        <ele>172.6459135258</ele>
        <time>2021-07-17T16:11:40.208Z</time>
      </trkpt>
      <trkpt lat="44.96388" lon="1.08187">
        <ele>171.70654014581</ele>
        <time>2021-07-17T16:11:50.487Z</time>
      </trkpt>
      <trkpt lat="44.96366" lon="1.08151">
        <ele>170.89725573354</ele>
        <time>2021-07-17T16:12:00.773Z</time>
      </trkpt>
      <trkpt lat="44.96358" lon="1.08134">
        <ele>170.35855742436</ele>
        <time>2021-07-17T16:12:11.061Z</time>
      </trkpt>
      <trkpt lat="44.96341" lon="1.08076">
        <ele>169.52034991027</ele>
        <time>2021-07-17T16:12:21.358Z</time>
      </trkpt>
      <trkpt lat="44.96333" lon="1.08036">
        <ele>169.31404248744</ele>
        <time>2021-07-17T16:12:31.661Z</time>
      </trkpt>
      <trkpt lat="44.96327" lon="1.08025">
        <ele>169.24431288257</ele>
        <time>2021-07-17T16:12:41.966Z</time>
      </trkpt>
      <trkpt lat="44.96311" lon="1.08008">
        <ele>169.33317321286</ele>
        <time>2021-07-17T16:12:52.275Z</time>
      </trkpt>
      <trkpt lat="44.9629" lon="1.07993">
        <ele>169.62674505716</ele>
        <time>2021-07-17T16:13:02.589Z</time>
      </trkpt>
      <trkpt lat="44.96272" lon="1.07972">
        <ele>169.97893565702</ele>
        <time>2021-07-17T16:13:12.908Z</time>
      </trkpt>
      <trkpt lat="44.96234" lon="1.07891">
        <ele>170.36652517132</ele>
        <time>2021-07-17T16:13:23.240Z</time>
      </trkpt>
      <trkpt lat="44.96231" lon="1.07889">
        <ele>170.73764269515</ele>
        <time>2021-07-17T16:13:33.573Z</time>
      </trkpt>
      <trkpt lat="44.96222" lon="1.0789">
        <ele>171.19780920844</ele>
        <time>2021-07-17T16:13:43.908Z</time>
      </trkpt>
      <trkpt lat="44.96211" lon="1.07903">
        <ele>171.74438969582</ele>
        <time>2021-07-17T16:13:54.246Z</time>
      </trkpt>
      <trkpt lat="44.96162" lon="1.07999">
        <ele>172.46074403816</ele>
        <time>2021-07-17T16:14:04.601Z</time>
      </trkpt>
      <trkpt lat="44.96152" lon="1.08014">
        <ele>173.02320194398</ele>
        <time>2021-07-17T16:14:14.959Z</time>
      </trkpt>
      <trkpt lat="44.96139" lon="1.08023">
        <ele>173.62391290594</ele>
        <time>2021-07-17T16:14:25.320Z</time>
      </trkpt>
      <trkpt lat="44.96116" lon="1.08031">
        <ele>174.26012467076</ele>
        <time>2021-07-17T16:14:35.685Z</time>
      </trkpt>
      <trkpt lat="44.96102" lon="1.08041">
        <ele>174.91603353029</ele>
        <time>2021-07-17T16:14:46.053Z</time>
      </trkpt>
      <trkpt lat="44.96097" lon="1.08041">
        <ele>175.6284159193</ele>
        <time>2021-07-17T16:14:56.422Z</time>
      </trkpt>
      <trkpt lat="44.96094" lon="1.08039">
        <ele>176.36284406643</ele>
        <time>2021-07-17T16:15:06.792Z</time>
      </trkpt>
      <trkpt lat="44.96085" lon="1.08032">
        <ele>177.12191500964</ele>
        <time>2021-07-17T16:15:17.164Z</time>
      </trkpt>
      <trkpt lat="44.96075" lon="1.0802">
        <ele>177.90468039658</ele>
        <time>2021-07-17T16:15:27.539Z</time>
      </trkpt>
      <trkpt lat="44.96056" lon="1.07983">
        <ele>178.73122393152</ele>
        <time>2021-07-17T16:15:37.920Z</time>
      </trkpt>
      <trkpt lat="44.96052" lon="1.07977">
        <ele>179.51911929839</ele>
        <time>2021-07-17T16:15:48.302Z</time>
      </trkpt>
      <trkpt lat="44.96046" lon="1.07972">
        <ele>180.29069563203</ele>
        <time>2021-07-17T16:15:58.686Z</time>
      </trkpt>
      <trkpt lat="44.96018" lon="1.07966">
        <ele>180.96761353329</ele>
        <time>2021-07-17T16:16:09.075Z</time>
      </trkpt>
      <trkpt lat="44.95951" lon="1.07961">
        <ele>181.64342617093</ele>
        <time>2021-07-17T16:16:19.478Z</time>
      </trkpt>
      <trkpt lat="44.95937" lon="1.07957">
        <ele>182.41963380977</ele>
        <time>2021-07-17T16:16:29.884Z</time>
      </trkpt>
      <trkpt lat="44.95926" lon="1.07945">
        <ele>183.23010875094</ele>
        <time>2021-07-17T16:16:40.292Z</time>
      </trkpt>
      <trkpt lat="44.95909" lon="1.07911">
        <ele>184.13984810812</ele>
        <time>2021-07-17T16:16:50.706Z</time>
      </trkpt>
      <trkpt lat="44.959" lon="1.07896">
        <ele>184.90223683871</ele>
        <time>2021-07-17T16:17:01.123Z</time>
      </trkpt>
      <trkpt lat="44.95889" lon="1.07886">
        <ele>185.57423369435</ele>
        <time>2021-07-17T16:17:11.543Z</time>
      </trkpt>
      <trkpt lat="44.95874" lon="1.07882">
        <ele>186.17081920264</ele>
        <time>2021-07-17T16:17:21.966Z</time>
      </trkpt>
      <trkpt lat="44.95862" lon="1.07875">
        <ele>186.77304384532</ele>
        <time>2021-07-17T16:17:32.391Z</time>
      </trkpt>
      <trkpt lat="44.95856" lon="1.07869">
        <ele>187.37440744886</ele>
        <time>2021-07-17T16:17:42.818Z</time>
      </trkpt>
      <trkpt lat="44.95835" lon="1.07837">
        <ele>188.13215939645</ele>
        <time>2021-07-17T16:17:53.251Z</time>
      </trkpt>
      <trkpt lat="44.95821" lon="1.07821">
        <ele>188.81730444671</ele>
        <time>2021-07-17T16:18:03.688Z</time>
      </trkpt>
      <trkpt lat="44.95803" lon="1.07802">
        <ele>189.42559873177</ele>
        <time>2021-07-17T16:18:14.129Z</time>
      </trkpt>
      <trkpt lat="44.95795" lon="1.07796">
        <ele>189.89090968105</ele>
        <time>2021-07-17T16:18:24.572Z</time>
      </trkpt>
      <trkpt lat="44.95773" lon="1.07791">
        <ele>190.25735194629</ele>
        <time>2021-07-17T16:18:35.019Z</time>
      </trkpt>
      <trkpt lat="44.95763" lon="1.07786">
        <ele>190.61071079238</ele>
        <time>2021-07-17T16:18:45.469Z</time>
      </trkpt>
      <trkpt lat="44.95759" lon="1.07783">
        <ele>190.92337973958</ele>
        <time>2021-07-17T16:18:55.919Z</time>
      </trkpt>
      <trkpt lat="44.9575" lon="1.07768">
        <ele>191.23479230843</ele>
        <time>2021-07-17T16:19:06.372Z</time>
      </trkpt>
      <trkpt lat="44.95732" lon="1.07735">
        <ele>191.42065557313</ele>
        <time>2021-07-17T16:19:16.831Z</time>
      </trkpt>
      <trkpt lat="44.95716" lon="1.0769">
        <ele>191.5010323098</ele>
        <time>2021-07-17T16:19:27.297Z</time>
      </trkpt>
      <trkpt lat="44.95698" lon="1.07657">
        <ele>191.46471439438</ele>
        <time>2021-07-17T16:19:37.769Z</time>
      </trkpt>
      <trkpt lat="44.95694" lon="1.07629">
        <ele>191.53530448929</ele>
        <time>2021-07-17T16:19:48.245Z</time>
      </trkpt>
      <trkpt lat="44.95688" lon="1.07606">
        <ele>191.56903429542</ele>
        <time>2021-07-17T16:19:58.725Z</time>
      </trkpt>
      <trkpt lat="44.95687" lon="1.07522">
        <ele>191.36769749026</ele>
        <time>2021-07-17T16:20:09.217Z</time>
      </trkpt>
      <trkpt lat="44.95685" lon="1.07517">
        <ele>191.46268914317</ele>
        <time>2021-07-17T16:20:19.709Z</time>
      </trkpt>
      <trkpt lat="44.95667" lon="1.07499">
        <ele>191.56412807916</ele>
        <time>2021-07-17T16:20:30.206Z</time>
      </trkpt>
      <trkpt lat="44.95657" lon="1.07485">
        <ele>191.74233827124</ele>
        <time>2021-07-17T16:20:40.706Z</time>
      </trkpt>
      <trkpt lat="44.95655" lon="1.0746">
        <ele>191.99707970502</ele>
        <time>2021-07-17T16:20:51.209Z</time>
      </trkpt>
      <trkpt lat="44.95652" lon="1.07458">
        <ele>192.16923610685</ele>
        <time>2021-07-17T16:21:01.713Z</time>
      </trkpt>
      <trkpt lat="44.95624" lon="1.07462">
        <ele>192.46072975272</ele>
        <time>2021-07-17T16:21:12.222Z</time>
      </trkpt>
      <trkpt lat="44.95611" lon="1.0746">
        <ele>192.6287623449</ele>
        <time>2021-07-17T16:21:22.734Z</time>
      </trkpt>
      <trkpt lat="44.95596" lon="1.07458">
        <ele>192.79129925812</ele>
        <time>2021-07-17T16:21:33.249Z</time>
      </trkpt>
      <trkpt lat="44.95566" lon="1.0745">
        <ele>193.02221832767</ele>
        <time>2021-07-17T16:21:43.770Z</time>
      </trkpt>
      <trkpt lat="44.95552" lon="1.07443">
        <ele>193.10438545308</ele>
        <time>2021-07-17T16:21:54.294Z</time>
      </trkpt>
      <trkpt lat="44.95541" lon="1.07431">
        <ele>193.15580874135</ele>
        <time>2021-07-17T16:22:04.821Z</time>
      </trkpt>
      <trkpt lat="44.95512" lon="1.07414">
        <ele>193.07979315373</ele>
        <time>2021-07-17T16:22:15.354Z</time>
      </trkpt>
      <trkpt lat="44.95506" lon="1.07415">
        <ele>192.96399515694</ele>
        <time>2021-07-17T16:22:25.888Z</time>
      </trkpt>
      <trkpt lat="44.95474" lon="1.07433">
        <ele>192.71032405606</ele>
        <time>2021-07-17T16:22:36.429Z</time>
      </trkpt>
      <trkpt lat="44.95458" lon="1.0744">
        <ele>192.42117664132</ele>
        <time>2021-07-17T16:22:46.974Z</time>
      </trkpt>
      <trkpt lat="44.95443" lon="1.07438">
        <ele>192.11652050279</ele>
        <time>2021-07-17T16:22:57.522Z</time>
      </trkpt>
      <trkpt lat="44.95414" lon="1.07424">
        <ele>191.70413643175</ele>
        <time>2021-07-17T16:23:08.076Z</time>
      </trkpt>
      <trkpt lat="44.95405" lon="1.07413">
        <ele>191.17371949115</ele>
        <time>2021-07-17T16:23:18.632Z</time>
      </trkpt>
      <trkpt lat="44.95409" lon="1.07403">
        <ele>190.57800693735</ele>
        <time>2021-07-17T16:23:29.190Z</time>
      </trkpt>
      <trkpt lat="44.95411" lon="1.07367">
        <ele>189.86583887185</ele>
        <time>2021-07-17T16:23:39.753Z</time>
      </trkpt>
      <trkpt lat="44.95413" lon="1.07352">
        <ele>189.04385111443</ele>
        <time>2021-07-17T16:23:50.318Z</time>
      </trkpt>
      <trkpt lat="44.95426" lon="1.07329">
        <ele>188.1600329842</ele>
        <time>2021-07-17T16:24:00.887Z</time>
      </trkpt>
      <trkpt lat="44.95429" lon="1.07317">
        <ele>187.07841097967</ele>
        <time>2021-07-17T16:24:11.458Z</time>
      </trkpt>
      <trkpt lat="44.95425" lon="1.07313">
        <ele>185.81428231609</ele>
        <time>2021-07-17T16:24:22.030Z</time>
      </trkpt>
      <trkpt lat="44.95415" lon="1.07295">
        <ele>184.36351933829</ele>
        <time>2021-07-17T16:24:32.605Z</time>
      </trkpt>
      <trkpt lat="44.95395" lon="1.07253">
        <ele>182.73128645241</ele>
        <time>2021-07-17T16:24:43.187Z</time>
      </trkpt>
      <trkpt lat="44.95388" lon="1.07242">
        <ele>181.09315239447</ele>
        <time>2021-07-17T16:24:53.772Z</time>
      </trkpt>
      <trkpt lat="44.95379" lon="1.07236">
        <ele>179.30380468133</ele>
        <time>2021-07-17T16:25:04.359Z</time>
      </trkpt>
      <trkpt lat="44.95362" lon="1.07234">
        <ele>177.32380077897</ele>
        <time>2021-07-17T16:25:14.949Z</time>
      </trkpt>
      <trkpt lat="44.95349" lon="1.07237">
        <ele>175.23714913169</ele>
        <time>2021-07-17T16:25:25.542Z</time>
      </trkpt>
      <trkpt lat="44.9531" lon="1.07268">
        <ele>172.87410319311</ele>
        <time>2021-07-17T16:25:36.144Z</time>
      </trkpt>
      <trkpt lat="44.95296" lon="1.07274">
        <ele>170.56533020362</ele>
        <time>2021-07-17T16:25:46.749Z</time>
      </trkpt>
      <trkpt lat="44.95281" lon="1.07274">
        <ele>168.17855873429</ele>
        <time>2021-07-17T16:25:57.356Z</time>
      </trkpt>
      <trkpt lat="44.95269" lon="1.0727">
        <ele>165.70083741463</ele>
        <time>2021-07-17T16:26:07.966Z</time>
      </trkpt>
      <trkpt lat="44.95255" lon="1.07263">
        <ele>163.14680652594</ele>
        <time>2021-07-17T16:26:18.579Z</time>
      </trkpt>
      <trkpt lat="44.95244" lon="1.07252">
        <ele>160.52927064573</ele>
        <time>2021-07-17T16:26:29.195Z</time>
      </trkpt>
      <trkpt lat="44.95233" lon="1.07231">
        <ele>157.7991643657</ele>
        <time>2021-07-17T16:26:39.814Z</time>
      </trkpt>
      <trkpt lat="44.95227" lon="1.07214">
        <ele>155.01730460629</ele>
        <time>2021-07-17T16:26:50.436Z</time>
      </trkpt>
      <trkpt lat="44.95228" lon="1.07195">
        <ele>152.18315007666</ele>
        <time>2021-07-17T16:27:01.061Z</time>
      </trkpt>
      <trkpt lat="44.95239" lon="1.07159">
        <ele>149.24105772769</ele>
        <time>2021-07-17T16:27:11.691Z</time>
      </trkpt>
      <trkpt lat="44.95241" lon="1.07136">
        <ele>146.39691719346</ele>
        <time>2021-07-17T16:27:22.325Z</time>
      </trkpt>
      <trkpt lat="44.95239" lon="1.07123">
        <ele>143.60462310268</ele>
        <time>2021-07-17T16:27:32.961Z</time>
      </trkpt>
      <trkpt lat="44.9523" lon="1.07094">
        <ele>140.74854807385</ele>
        <time>2021-07-17T16:27:43.601Z</time>
      </trkpt>
      <trkpt lat="44.95218" lon="1.07067">
        <ele>137.91387216438</ele>
        <time>2021-07-17T16:27:54.245Z</time>
      </trkpt>
      <trkpt lat="44.95202" lon="1.07037">
        <ele>135.17680968687</ele>
        <time>2021-07-17T16:28:04.895Z</time>
      </trkpt>
      <trkpt lat="44.95193" lon="1.07025">
        <ele>132.53082760155</ele>
        <time>2021-07-17T16:28:15.547Z</time>
      </trkpt>
      <trkpt lat="44.95167" lon="1.07004">
        <ele>129.89135349015</ele>
        <time>2021-07-17T16:28:26.205Z</time>
      </trkpt>
      <trkpt lat="44.95126" lon="1.06979">
        <ele>127.36821411921</ele>
        <time>2021-07-17T16:28:36.872Z</time>
      </trkpt>
      <trkpt lat="44.95112" lon="1.06972">
        <ele>125.02350221715</ele>
        <time>2021-07-17T16:28:47.542Z</time>
      </trkpt>
      <trkpt lat="44.951" lon="1.06967">
        <ele>122.85147837132</ele>
        <time>2021-07-17T16:28:58.215Z</time>
      </trkpt>
      <trkpt lat="44.95065" lon="1.06962">
        <ele>120.74162654481</ele>
        <time>2021-07-17T16:29:08.895Z</time>
      </trkpt>
      <trkpt lat="44.95011" lon="1.06948">
        <ele>118.96020581527</ele>
        <time>2021-07-17T16:29:19.586Z</time>
      </trkpt>
      <trkpt lat="44.94987" lon="1.06931">
        <ele>117.34846216089</ele>
        <time>2021-07-17T16:29:30.282Z</time>
      </trkpt>
      <trkpt lat="44.94965" lon="1.06926">
        <ele>116.01696745399</ele>
        <time>2021-07-17T16:29:40.983Z</time>
      </trkpt>
      <trkpt lat="44.94946" lon="1.06917">
        <ele>114.91612729582</ele>
        <time>2021-07-17T16:29:51.688Z</time>
      </trkpt>
      <trkpt lat="44.94921" lon="1.06901">
        <ele>114.03511747404</ele>
        <time>2021-07-17T16:30:02.398Z</time>
      </trkpt>
      <trkpt lat="44.94899" lon="1.06879">
        <ele>113.44951519112</ele>
        <time>2021-07-17T16:30:13.113Z</time>
      </trkpt>
      <trkpt lat="44.94891" lon="1.06875">
        <ele>113.17276913815</ele>
        <time>2021-07-17T16:30:23.830Z</time>
      </trkpt>
      <trkpt lat="44.9488" lon="1.06871">
        <ele>113.17231975549</ele>
        <time>2021-07-17T16:30:34.550Z</time>
      </trkpt>
      <trkpt lat="44.94822" lon="1.06858">
        <ele>113.17705696734</ele>
        <time>2021-07-17T16:30:45.281Z</time>
      </trkpt>
      <trkpt lat="44.94783" lon="1.06855">
        <ele>113.57663571273</ele>
        <time>2021-07-17T16:30:56.020Z</time>
      </trkpt>
      <trkpt lat="44.94778" lon="1.06857">
        <ele>114.55166382669</ele>
        <time>2021-07-17T16:31:06.760Z</time>
      </trkpt>
      <trkpt lat="44.9475" lon="1.06852">
        <ele>115.62210361936</ele>
        <time>2021-07-17T16:31:17.506Z</time>
      </trkpt>
      <trkpt lat="44.94714" lon="1.06859">
        <ele>117.07370270563</ele>
        <time>2021-07-17T16:31:28.259Z</time>
      </trkpt>
      <trkpt lat="44.94658" lon="1.06872">
        <ele>119.13479487536</ele>
        <time>2021-07-17T16:31:39.023Z</time>
      </trkpt>
      <trkpt lat="44.94617" lon="1.0688">
        <ele>121.42732375</ele>
        <time>2021-07-17T16:31:49.796Z</time>
      </trkpt>
      <trkpt lat="44.94566" lon="1.06895">
        <ele>124.46221104684</ele>
        <time>2021-07-17T16:32:00.579Z</time>
      </trkpt>
      <trkpt lat="44.94555" lon="1.06914">
        <ele>127.5595747477</ele>
        <time>2021-07-17T16:32:11.365Z</time>
      </trkpt>
      <trkpt lat="44.94516" lon="1.0696">
        <ele>131.23636783199</ele>
        <time>2021-07-17T16:32:22.162Z</time>
      </trkpt>
      <trkpt lat="44.94431" lon="1.07056">
        <ele>135.69221596987</ele>
        <time>2021-07-17T16:32:32.980Z</time>
      </trkpt>
      <trkpt lat="44.94417" lon="1.07077">
        <ele>139.27827822107</ele>
        <time>2021-07-17T16:32:43.803Z</time>
      </trkpt>
      <trkpt lat="44.94401" lon="1.07144">
        <ele>143.1201380949</ele>
        <time>2021-07-17T16:32:54.636Z</time>
      </trkpt>
      <trkpt lat="44.94389" lon="1.0718">
        <ele>147.12094821749</ele>
        <time>2021-07-17T16:33:05.474Z</time>
      </trkpt>
      <trkpt lat="44.94371" lon="1.07224">
        <ele>151.18814895589</ele>
        <time>2021-07-17T16:33:16.320Z</time>
      </trkpt>
      <trkpt lat="44.94361" lon="1.07239">
        <ele>155.12594889536</ele>
        <time>2021-07-17T16:33:27.168Z</time>
      </trkpt>
      <trkpt lat="44.94355" lon="1.07261">
        <ele>158.96697591837</ele>
        <time>2021-07-17T16:33:38.020Z</time>
      </trkpt>
      <trkpt lat="44.94346" lon="1.0728">
        <ele>162.91103194003</ele>
        <time>2021-07-17T16:33:48.875Z</time>
      </trkpt>
      <trkpt lat="44.94322" lon="1.07342">
        <ele>166.77748279191</ele>
        <time>2021-07-17T16:33:59.740Z</time>
      </trkpt>
      <trkpt lat="44.94314" lon="1.07355">
        <ele>170.53052092619</ele>
        <time>2021-07-17T16:34:10.608Z</time>
      </trkpt>
      <trkpt lat="44.94256" lon="1.07397">
        <ele>174.3374270212</ele>
        <time>2021-07-17T16:34:21.488Z</time>
      </trkpt>
      <trkpt lat="44.94243" lon="1.07404">
        <ele>177.89745168296</ele>
        <time>2021-07-17T16:34:32.371Z</time>
      </trkpt>
      <trkpt lat="44.94234" lon="1.07407">
        <ele>181.37434829852</ele>
        <time>2021-07-17T16:34:43.256Z</time>
      </trkpt>
      <trkpt lat="44.94222" lon="1.07407">
        <ele>184.78995156325</ele>
        <time>2021-07-17T16:34:54.143Z</time>
      </trkpt>
      <trkpt lat="44.94199" lon="1.07398">
        <ele>188.19465685968</ele>
        <time>2021-07-17T16:35:05.035Z</time>
      </trkpt>
      <trkpt lat="44.94186" lon="1.07396">
        <ele>191.31065547387</ele>
        <time>2021-07-17T16:35:15.930Z</time>
      </trkpt>
      <trkpt lat="44.94151" lon="1.07405">
        <ele>194.30993330686</ele>
        <time>2021-07-17T16:35:26.832Z</time>
      </trkpt>
      <trkpt lat="44.94128" lon="1.07413">
        <ele>196.99823584015</ele>
        <time>2021-07-17T16:35:37.739Z</time>
      </trkpt>
      <trkpt lat="44.94048" lon="1.07443">
        <ele>199.88414642315</ele>
        <time>2021-07-17T16:35:48.662Z</time>
      </trkpt>
      <trkpt lat="44.94034" lon="1.07453">
        <ele>202.26523112126</ele>
        <time>2021-07-17T16:35:59.588Z</time>
      </trkpt>
      <trkpt lat="44.94011" lon="1.07485">
        <ele>204.41574276982</ele>
        <time>2021-07-17T16:36:10.521Z</time>
      </trkpt>
      <trkpt lat="44.94" lon="1.07467">
        <ele>206.33248864881</ele>
        <time>2021-07-17T16:36:21.457Z</time>
      </trkpt>
      <trkpt lat="44.93993" lon="1.07459">
        <ele>208.05274420207</ele>
        <time>2021-07-17T16:36:32.395Z</time>
      </trkpt>
      <trkpt lat="44.93975" lon="1.07452">
        <ele>209.60487597455</ele>
        <time>2021-07-17T16:36:43.337Z</time>
      </trkpt>
      <trkpt lat="44.93967" lon="1.07446">
        <ele>210.95840800585</ele>
        <time>2021-07-17T16:36:54.281Z</time>
      </trkpt>
      <trkpt lat="44.9391" lon="1.0751">
        <ele>212.09310176716</ele>
        <time>2021-07-17T16:37:05.239Z</time>
      </trkpt>
      <trkpt lat="44.93902" lon="1.07532">
        <ele>213.05263091194</ele>
        <time>2021-07-17T16:37:16.201Z</time>
      </trkpt>
      <trkpt lat="44.9387" lon="1.07602">
        <ele>213.78691278096</ele>
        <time>2021-07-17T16:37:27.175Z</time>
      </trkpt>
      <trkpt lat="44.93861" lon="1.07628">
        <ele>214.47672522883</ele>
        <time>2021-07-17T16:37:38.153Z</time>
      </trkpt>
      <trkpt lat="44.93853" lon="1.07656">
        <ele>214.97694964502</ele>
        <time>2021-07-17T16:37:49.135Z</time>
      </trkpt>
      <trkpt lat="44.93847" lon="1.07696">
        <ele>215.25091127546</ele>
        <time>2021-07-17T16:38:00.123Z</time>
      </trkpt>
      <trkpt lat="44.93845" lon="1.07699">
        <ele>215.44143675021</ele>
        <time>2021-07-17T16:38:11.111Z</time>
      </trkpt>
      <trkpt lat="44.93839" lon="1.07703">
        <ele>215.49410338657</ele>
        <time>2021-07-17T16:38:22.101Z</time>
      </trkpt>
      <trkpt lat="44.9381" lon="1.07715">
        <ele>215.41122471118</ele>
        <time>2021-07-17T16:38:33.097Z</time>
      </trkpt>
      <trkpt lat="44.93805" lon="1.0772">
        <ele>215.27371347089</ele>
        <time>2021-07-17T16:38:44.094Z</time>
      </trkpt>
      <trkpt lat="44.93796" lon="1.07738">
        <ele>215.04702755425</ele>
        <time>2021-07-17T16:38:55.094Z</time>
      </trkpt>
      <trkpt lat="44.93795" lon="1.07745">
        <ele>214.7718438965</ele>
        <time>2021-07-17T16:39:06.095Z</time>
      </trkpt>
      <trkpt lat="44.93799" lon="1.07756">
        <ele>214.45570506786</ele>
        <time>2021-07-17T16:39:17.098Z</time>
      </trkpt>
      <trkpt lat="44.93809" lon="1.07776">
        <ele>214.10352613099</ele>
        <time>2021-07-17T16:39:28.104Z</time>
      </trkpt>
      <trkpt lat="44.93814" lon="1.07792">
        <ele>213.71090363979</ele>
        <time>2021-07-17T16:39:39.113Z</time>
      </trkpt>
      <trkpt lat="44.93834" lon="1.07987">
        <ele>212.56343220649</ele>
        <time>2021-07-17T16:39:50.150Z</time>
      </trkpt>
      <trkpt lat="44.93833" lon="1.08009">
        <ele>212.2973230859</ele>
        <time>2021-07-17T16:40:01.190Z</time>
      </trkpt>
      <trkpt lat="44.93825" lon="1.08024">
        <ele>211.95104872881</ele>
        <time>2021-07-17T16:40:12.233Z</time>
      </trkpt>
      <trkpt lat="44.9381" lon="1.08042">
        <ele>211.64762316429</ele>
        <time>2021-07-17T16:40:23.280Z</time>
      </trkpt>
      <trkpt lat="44.93807" lon="1.08051">
        <ele>211.40776846062</ele>
        <time>2021-07-17T16:40:34.328Z</time>
      </trkpt>
      <trkpt lat="44.93784" lon="1.08082">
        <ele>211.23408389176</ele>
        <time>2021-07-17T16:40:45.382Z</time>
      </trkpt>
      <trkpt lat="44.93771" lon="1.08106">
        <ele>211.07849726227</ele>
        <time>2021-07-17T16:40:56.441Z</time>
      </trkpt>
      <trkpt lat="44.93767" lon="1.08143">
        <ele>211.02252261896</ele>
        <time>2021-07-17T16:41:07.505Z</time>
      </trkpt>
      <trkpt lat="44.93754" lon="1.08161">
        <ele>210.90842208636</ele>
        <time>2021-07-17T16:41:18.573Z</time>
      </trkpt>
      <trkpt lat="44.93731" lon="1.08168">
        <ele>210.7077881229</ele>
        <time>2021-07-17T16:41:29.645Z</time>
      </trkpt>
      <trkpt lat="44.93764" lon="1.08267">
        <ele>211.21305404141</ele>
        <time>2021-07-17T16:41:40.733Z</time>
      </trkpt>
      <trkpt lat="44.93749" lon="1.08285">
        <ele>211.09505900138</ele>
        <time>2021-07-17T16:41:51.825Z</time>
      </trkpt>
      <trkpt lat="44.93734" lon="1.08312">
        <ele>210.9985966899</ele>
        <time>2021-07-17T16:42:02.922Z</time>
      </trkpt>
      <trkpt lat="44.93729" lon="1.08326">
        <ele>210.92165878129</ele>
        <time>2021-07-17T16:42:14.021Z</time>
      </trkpt>
      <trkpt lat="44.93711" lon="1.08417">
        <ele>210.90520434951</ele>
        <time>2021-07-17T16:42:25.133Z</time>
      </trkpt>
      <trkpt lat="44.93709" lon="1.08429">
        <ele>210.74409695642</ele>
        <time>2021-07-17T16:42:36.247Z</time>
      </trkpt>
      <trkpt lat="44.9371" lon="1.08445">
        <ele>210.56453029993</ele>
        <time>2021-07-17T16:42:47.363Z</time>
      </trkpt>
      <trkpt lat="44.93724" lon="1.08484">
        <ele>210.35219862831</ele>
        <time>2021-07-17T16:42:58.485Z</time>
      </trkpt>
      <trkpt lat="44.93725" lon="1.08492">
        <ele>210.1442495403</ele>
        <time>2021-07-17T16:43:09.609Z</time>
      </trkpt>
      <trkpt lat="44.93722" lon="1.08502">
        <ele>209.90156646495</ele>
        <time>2021-07-17T16:43:20.734Z</time>
      </trkpt>
      <trkpt lat="44.93716" lon="1.08513">
        <ele>209.64606594749</ele>
        <time>2021-07-17T16:43:31.861Z</time>
      </trkpt>
      <trkpt lat="44.93695" lon="1.08541">
        <ele>209.23904848412</ele>
        <time>2021-07-17T16:43:42.994Z</time>
      </trkpt>
      <trkpt lat="44.93652" lon="1.08575">
        <ele>208.85202626314</ele>
        <time>2021-07-17T16:43:54.137Z</time>
      </trkpt>
      <trkpt lat="44.93635" lon="1.08591">
        <ele>208.43314186166</ele>
        <time>2021-07-17T16:44:05.284Z</time>
      </trkpt>
      <trkpt lat="44.93621" lon="1.08608">
        <ele>207.97029014361</ele>
        <time>2021-07-17T16:44:16.435Z</time>
      </trkpt>
      <trkpt lat="44.93605" lon="1.08628">
        <ele>207.53406255022</ele>
        <time>2021-07-17T16:44:27.590Z</time>
      </trkpt>
      <trkpt lat="44.93589" lon="1.08655">
        <ele>207.04599062203</ele>
        <time>2021-07-17T16:44:38.750Z</time>
      </trkpt>
      <trkpt lat="44.93563" lon="1.087">
        <ele>206.47923640031</ele>
        <time>2021-07-17T16:44:49.918Z</time>
      </trkpt>
      <trkpt lat="44.93548" lon="1.08734">
        <ele>205.90183357713</ele>
        <time>2021-07-17T16:45:01.092Z</time>
      </trkpt>
      <trkpt lat="44.93538" lon="1.08762">
        <ele>205.34271189965</ele>
        <time>2021-07-17T16:45:12.270Z</time>
      </trkpt>
      <trkpt lat="44.93497" lon="1.08922">
        <ele>204.71419149438</ele>
        <time>2021-07-17T16:45:23.472Z</time>
      </trkpt>
      <trkpt lat="44.93492" lon="1.08937">
        <ele>204.18472714453</ele>
        <time>2021-07-17T16:45:34.677Z</time>
      </trkpt>
      <trkpt lat="44.9348" lon="1.08969">
        <ele>203.67181395879</ele>
        <time>2021-07-17T16:45:45.887Z</time>
      </trkpt>
      <trkpt lat="44.93488" lon="1.0899">
        <ele>203.0302253522</ele>
        <time>2021-07-17T16:45:57.100Z</time>
      </trkpt>
      <trkpt lat="44.93488" lon="1.09013">
        <ele>202.29393841637</ele>
        <time>2021-07-17T16:46:08.317Z</time>
      </trkpt>
      <trkpt lat="44.93494" lon="1.09028">
        <ele>201.52104295955</ele>
        <time>2021-07-17T16:46:19.536Z</time>
      </trkpt>
      <trkpt lat="44.93495" lon="1.09043">
        <ele>200.71087619205</ele>
        <time>2021-07-17T16:46:30.757Z</time>
      </trkpt>
      <trkpt lat="44.93501" lon="1.09086">
        <ele>199.82412920009</ele>
        <time>2021-07-17T16:46:41.984Z</time>
      </trkpt>
      <trkpt lat="44.93496" lon="1.09106">
        <ele>198.91110832554</ele>
        <time>2021-07-17T16:46:53.214Z</time>
      </trkpt>
      <trkpt lat="44.93489" lon="1.09122">
        <ele>197.97424644087</ele>
        <time>2021-07-17T16:47:04.447Z</time>
      </trkpt>
      <trkpt lat="44.93482" lon="1.09129">
        <ele>197.00381244877</ele>
        <time>2021-07-17T16:47:15.682Z</time>
      </trkpt>
      <trkpt lat="44.93478" lon="1.09183">
        <ele>196.07086809893</ele>
        <time>2021-07-17T16:47:26.924Z</time>
      </trkpt>
      <trkpt lat="44.93495" lon="1.09215">
        <ele>194.9341319463</ele>
        <time>2021-07-17T16:47:38.172Z</time>
      </trkpt>
      <trkpt lat="44.9351" lon="1.09231">
        <ele>193.68357441976</ele>
        <time>2021-07-17T16:47:49.424Z</time>
      </trkpt>
      <trkpt lat="44.93517" lon="1.09246">
        <ele>192.43632627702</ele>
        <time>2021-07-17T16:48:00.679Z</time>
      </trkpt>
      <trkpt lat="44.93521" lon="1.09272">
        <ele>191.12667523711</ele>
        <time>2021-07-17T16:48:11.937Z</time>
      </trkpt>
      <trkpt lat="44.93516" lon="1.09306">
        <ele>189.96523230969</ele>
        <time>2021-07-17T16:48:23.200Z</time>
      </trkpt>
      <trkpt lat="44.93515" lon="1.09332">
        <ele>188.86314777909</ele>
        <time>2021-07-17T16:48:34.467Z</time>
      </trkpt>
      <trkpt lat="44.93533" lon="1.09397">
        <ele>187.52031025404</ele>
        <time>2021-07-17T16:48:45.744Z</time>
      </trkpt>
      <trkpt lat="44.9355" lon="1.09442">
        <ele>186.4354075572</ele>
        <time>2021-07-17T16:48:57.028Z</time>
      </trkpt>
      <trkpt lat="44.93561" lon="1.09496">
        <ele>185.45246763807</ele>
        <time>2021-07-17T16:49:08.320Z</time>
      </trkpt>
      <trkpt lat="44.93564" lon="1.09525">
        <ele>184.60249943947</ele>
        <time>2021-07-17T16:49:19.616Z</time>
      </trkpt>
      <trkpt lat="44.93574" lon="1.09542">
        <ele>183.75153171028</ele>
        <time>2021-07-17T16:49:30.915Z</time>
      </trkpt>
      <trkpt lat="44.93583" lon="1.09549">
        <ele>182.96805503479</ele>
        <time>2021-07-17T16:49:42.216Z</time>
      </trkpt>
      <trkpt lat="44.93601" lon="1.09556">
        <ele>182.18900008973</ele>
        <time>2021-07-17T16:49:53.521Z</time>
      </trkpt>
      <trkpt lat="44.93615" lon="1.09558">
        <ele>181.55099985714</ele>
        <time>2021-07-17T16:50:04.829Z</time>
      </trkpt>
      <trkpt lat="44.93631" lon="1.09555">
        <ele>181.02703566238</ele>
        <time>2021-07-17T16:50:16.140Z</time>
      </trkpt>
      <trkpt lat="44.93636" lon="1.09556">
        <ele>180.68271638752</ele>
        <time>2021-07-17T16:50:27.452Z</time>
      </trkpt>
      <trkpt lat="44.93637" lon="1.09561">
        <ele>180.44626051458</ele>
        <time>2021-07-17T16:50:38.765Z</time>
      </trkpt>
      <trkpt lat="44.93635" lon="1.0957">
        <ele>180.31932352642</ele>
        <time>2021-07-17T16:50:50.079Z</time>
      </trkpt>
      <trkpt lat="44.93602" lon="1.0959">
        <ele>180.42625704398</ele>
        <time>2021-07-17T16:51:01.400Z</time>
      </trkpt>
      <trkpt lat="44.93588" lon="1.09607">
        <ele>180.48722493386</ele>
        <time>2021-07-17T16:51:12.725Z</time>
      </trkpt>
      <trkpt lat="44.93583" lon="1.0963">
        <ele>180.60123242433</ele>
        <time>2021-07-17T16:51:24.053Z</time>
      </trkpt>
      <trkpt lat="44.93583" lon="1.09663">
        <ele>180.82107925722</ele>
        <time>2021-07-17T16:51:35.386Z</time>
      </trkpt>
      <trkpt lat="44.93589" lon="1.09702">
        <ele>181.24519168749</ele>
        <time>2021-07-17T16:51:46.725Z</time>
      </trkpt>
      <trkpt lat="44.93596" lon="1.09747">
        <ele>181.87665363997</ele>
        <time>2021-07-17T16:51:58.070Z</time>
      </trkpt>
      <trkpt lat="44.93605" lon="1.09786">
        <ele>182.51749743022</ele>
        <time>2021-07-17T16:52:09.421Z</time>
      </trkpt>
      <trkpt lat="44.93641" lon="1.0983">
        <ele>183.00190212413</ele>
        <time>2021-07-17T16:52:20.782Z</time>
      </trkpt>
      <trkpt lat="44.93658" lon="1.09863">
        <ele>183.53506249663</ele>
        <time>2021-07-17T16:52:32.148Z</time>
      </trkpt>
      <trkpt lat="44.93682" lon="1.0992">
        <ele>184.22749787055</ele>
        <time>2021-07-17T16:52:43.524Z</time>
      </trkpt>
      <trkpt lat="44.93698" lon="1.09949">
        <ele>184.7501223918</ele>
        <time>2021-07-17T16:52:54.905Z</time>
      </trkpt>
      <trkpt lat="44.93681" lon="1.09976">
        <ele>185.05577972892</ele>
        <time>2021-07-17T16:53:06.291Z</time>
      </trkpt>
      <trkpt lat="44.93678" lon="1.09979">
        <ele>185.32445961644</ele>
        <time>2021-07-17T16:53:17.678Z</time>
      </trkpt>
      <trkpt lat="44.93663" lon="1.09983">
        <ele>185.51940046604</ele>
        <time>2021-07-17T16:53:29.068Z</time>
      </trkpt>
      <trkpt lat="44.93657" lon="1.09986">
        <ele>185.632551627</ele>
        <time>2021-07-17T16:53:40.459Z</time>
      </trkpt>
      <trkpt lat="44.93635" lon="1.10006">
        <ele>185.68695095816</ele>
        <time>2021-07-17T16:53:51.856Z</time>
      </trkpt>
      <trkpt lat="44.93629" lon="1.10009">
        <ele>185.64504645288</ele>
        <time>2021-07-17T16:54:03.254Z</time>
      </trkpt>
      <trkpt lat="44.93607" lon="1.10008">
        <ele>185.55994080993</ele>
        <time>2021-07-17T16:54:14.656Z</time>
      </trkpt>
      <trkpt lat="44.93609" lon="1.10033">
        <ele>185.26256979258</ele>
        <time>2021-07-17T16:54:26.062Z</time>
      </trkpt>
      <trkpt lat="44.93618" lon="1.10045">
        <ele>184.80389868281</ele>
        <time>2021-07-17T16:54:37.470Z</time>
      </trkpt>
      <trkpt lat="44.93654" lon="1.10067">
        <ele>184.02448921038</ele>
        <time>2021-07-17T16:54:48.886Z</time>
      </trkpt>
      <trkpt lat="44.93701" lon="1.10066">
        <ele>183.34707624358</ele>
        <time>2021-07-17T16:55:00.312Z</time>
      </trkpt>
      <trkpt lat="44.93738" lon="1.10062">
        <ele>182.62978245655</ele>
        <time>2021-07-17T16:55:11.745Z</time>
      </trkpt>
      <trkpt lat="44.9381" lon="1.1004">
        <ele>181.72854404457</ele>
        <time>2021-07-17T16:55:23.193Z</time>
      </trkpt>
      <trkpt lat="44.93844" lon="1.10027">
        <ele>180.59522835356</ele>
        <time>2021-07-17T16:55:34.648Z</time>
      </trkpt>
      <trkpt lat="44.93939" lon="1.1002">
        <ele>179.31104282529</ele>
        <time>2021-07-17T16:55:46.122Z</time>
      </trkpt>
      <trkpt lat="44.93963" lon="1.10032">
        <ele>177.96532111885</ele>
        <time>2021-07-17T16:55:57.601Z</time>
      </trkpt>
      <trkpt lat="44.93986" lon="1.10032">
        <ele>176.6226703736</ele>
        <time>2021-07-17T16:56:09.084Z</time>
      </trkpt>
      <trkpt lat="44.94005" lon="1.10054">
        <ele>175.02084425188</ele>
        <time>2021-07-17T16:56:20.572Z</time>
      </trkpt>
      <trkpt lat="44.94006" lon="1.1008">
        <ele>173.37645128738</ele>
        <time>2021-07-17T16:56:32.064Z</time>
      </trkpt>
      <trkpt lat="44.94004" lon="1.10092">
        <ele>171.76369807698</ele>
        <time>2021-07-17T16:56:43.558Z</time>
      </trkpt>
      <trkpt lat="44.93994" lon="1.10108">
        <ele>170.06653755139</ele>
        <time>2021-07-17T16:56:55.055Z</time>
      </trkpt>
      <trkpt lat="44.93946" lon="1.10151">
        <ele>168.37097480082</ele>
        <time>2021-07-17T16:57:06.563Z</time>
      </trkpt>
      <trkpt lat="44.93933" lon="1.10177">
        <ele>166.68679549017</ele>
        <time>2021-07-17T16:57:18.076Z</time>
      </trkpt>
      <trkpt lat="44.93922" lon="1.10191">
        <ele>164.99791720189</ele>
        <time>2021-07-17T16:57:29.592Z</time>
      </trkpt>
      <trkpt lat="44.93923" lon="1.10207">
        <ele>163.23640268785</ele>
        <time>2021-07-17T16:57:41.110Z</time>
      </trkpt>
      <trkpt lat="44.93917" lon="1.10232">
        <ele>161.4491074895</ele>
        <time>2021-07-17T16:57:52.632Z</time>
      </trkpt>
      <trkpt lat="44.93911" lon="1.10243">
        <ele>159.75174815136</ele>
        <time>2021-07-17T16:58:04.156Z</time>
      </trkpt>
      <trkpt lat="44.93898" lon="1.10257">
        <ele>158.13152580904</ele>
        <time>2021-07-17T16:58:15.683Z</time>
      </trkpt>
      <trkpt lat="44.93896" lon="1.10264">
        <ele>156.47598572317</ele>
        <time>2021-07-17T16:58:27.211Z</time>
      </trkpt>
      <trkpt lat="44.93899" lon="1.10269">
        <ele>154.84889552198</ele>
        <time>2021-07-17T16:58:38.740Z</time>
      </trkpt>
      <trkpt lat="44.93921" lon="1.10279">
        <ele>153.08618948205</ele>
        <time>2021-07-17T16:58:50.274Z</time>
      </trkpt>
      <trkpt lat="44.93945" lon="1.10285">
        <ele>151.38889024962</ele>
        <time>2021-07-17T16:59:01.812Z</time>
      </trkpt>
      <trkpt lat="44.93954" lon="1.10293">
        <ele>149.87976740229</ele>
        <time>2021-07-17T16:59:13.353Z</time>
      </trkpt>
      <trkpt lat="44.93953" lon="1.10309">
        <ele>148.52068510532</ele>
        <time>2021-07-17T16:59:24.896Z</time>
      </trkpt>
      <trkpt lat="44.93947" lon="1.10325">
        <ele>147.28214094444</ele>
        <time>2021-07-17T16:59:36.441Z</time>
      </trkpt>
      <trkpt lat="44.93931" lon="1.10359">
        <ele>146.0028635944</ele>
        <time>2021-07-17T16:59:47.992Z</time>
      </trkpt>
      <trkpt lat="44.93904" lon="1.10388">
        <ele>144.84096680952</ele>
        <time>2021-07-17T16:59:59.550Z</time>
      </trkpt>
      <trkpt lat="44.93871" lon="1.10411">
        <ele>144.01537062901</ele>
        <time>2021-07-17T17:00:11.115Z</time>
      </trkpt>
      <trkpt lat="44.93854" lon="1.10417">
        <ele>143.32493976823</ele>
        <time>2021-07-17T17:00:22.684Z</time>
      </trkpt>
      <trkpt lat="44.93872" lon="1.10421">
        <ele>142.78583150886</ele>
        <time>2021-07-17T17:00:34.257Z</time>
      </trkpt>
      <trkpt lat="44.9393" lon="1.10448">
        <ele>142.20952461921</ele>
        <time>2021-07-17T17:00:45.842Z</time>
      </trkpt>
      <trkpt lat="44.93973" lon="1.10457">
        <ele>141.89449924548</ele>
        <time>2021-07-17T17:00:57.435Z</time>
      </trkpt>
      <trkpt lat="44.93972" lon="1.10494">
        <ele>141.86930811526</ele>
        <time>2021-07-17T17:01:09.034Z</time>
      </trkpt>
      <trkpt lat="44.93966" lon="1.10527">
        <ele>142.02958408993</ele>
        <time>2021-07-17T17:01:20.637Z</time>
      </trkpt>
      <trkpt lat="44.93965" lon="1.10565">
        <ele>142.31404455101</ele>
        <time>2021-07-17T17:01:32.246Z</time>
      </trkpt>
      <trkpt lat="44.93969" lon="1.1061">
        <ele>142.81423970497</ele>
        <time>2021-07-17T17:01:43.861Z</time>
      </trkpt>
      <trkpt lat="44.93961" lon="1.10636">
        <ele>143.43261466106</ele>
        <time>2021-07-17T17:01:55.480Z</time>
      </trkpt>
      <trkpt lat="44.9394" lon="1.10646">
        <ele>144.23381882157</ele>
        <time>2021-07-17T17:02:07.104Z</time>
      </trkpt>
      <trkpt lat="44.93915" lon="1.10661">
        <ele>145.2025003559</ele>
        <time>2021-07-17T17:02:18.733Z</time>
      </trkpt>
      <trkpt lat="44.93909" lon="1.10661">
        <ele>146.17734681082</ele>
        <time>2021-07-17T17:02:30.363Z</time>
      </trkpt>
      <trkpt lat="44.93903" lon="1.10659">
        <ele>147.2606265779</ele>
        <time>2021-07-17T17:02:41.995Z</time>
      </trkpt>
      <trkpt lat="44.93868" lon="1.10629">
        <ele>148.62211630965</ele>
        <time>2021-07-17T17:02:53.635Z</time>
      </trkpt>
      <trkpt lat="44.93854" lon="1.10612">
        <ele>149.93165193341</ele>
        <time>2021-07-17T17:03:05.278Z</time>
      </trkpt>
      <trkpt lat="44.93835" lon="1.106">
        <ele>151.3416959176</ele>
        <time>2021-07-17T17:03:16.926Z</time>
      </trkpt>
      <trkpt lat="44.93827" lon="1.106">
        <ele>152.7393649376</ele>
        <time>2021-07-17T17:03:28.575Z</time>
      </trkpt>
      <trkpt lat="44.93824" lon="1.10602">
        <ele>154.15636613947</ele>
        <time>2021-07-17T17:03:40.225Z</time>
      </trkpt>
      <trkpt lat="44.93818" lon="1.10617">
        <ele>155.67017707933</ele>
        <time>2021-07-17T17:03:51.877Z</time>
      </trkpt>
      <trkpt lat="44.93816" lon="1.1064">
        <ele>157.17455517891</ele>
        <time>2021-07-17T17:04:03.533Z</time>
      </trkpt>
      <trkpt lat="44.93815" lon="1.10645">
        <ele>158.64115469916</ele>
        <time>2021-07-17T17:04:15.189Z</time>
      </trkpt>
      <trkpt lat="44.93812" lon="1.10649">
        <ele>160.10772817296</ele>
        <time>2021-07-17T17:04:26.846Z</time>
      </trkpt>
      <trkpt lat="44.93778" lon="1.10678">
        <ele>161.75109915365</ele>
        <time>2021-07-17T17:04:38.511Z</time>
      </trkpt>
      <trkpt lat="44.93758" lon="1.10701">
        <ele>163.21012640118</ele>
        <time>2021-07-17T17:04:50.181Z</time>
      </trkpt>
      <trkpt lat="44.93751" lon="1.1071">
        <ele>164.59632450704</ele>
        <time>2021-07-17T17:05:01.853Z</time>
      </trkpt>
      <trkpt lat="44.9373" lon="1.10757">
        <ele>165.96595629972</ele>
        <time>2021-07-17T17:05:13.533Z</time>
      </trkpt>
      <trkpt lat="44.93718" lon="1.10771">
        <ele>167.25786035857</ele>
        <time>2021-07-17T17:05:25.216Z</time>
      </trkpt>
      <trkpt lat="44.93694" lon="1.10814">
        <ele>168.49094921441</ele>
        <time>2021-07-17T17:05:36.907Z</time>
      </trkpt>
      <trkpt lat="44.93658" lon="1.10854">
        <ele>169.68123016087</ele>
        <time>2021-07-17T17:05:48.607Z</time>
      </trkpt>
      <trkpt lat="44.9365" lon="1.10858">
        <ele>170.7880681175</ele>
        <time>2021-07-17T17:06:00.309Z</time>
      </trkpt>
      <trkpt lat="44.93611" lon="1.10855">
        <ele>172.01173130214</ele>
        <time>2021-07-17T17:06:12.019Z</time>
      </trkpt>
      <trkpt lat="44.93601" lon="1.10856">
        <ele>172.92376487614</ele>
        <time>2021-07-17T17:06:23.731Z</time>
      </trkpt>
      <trkpt lat="44.93599" lon="1.10861">
        <ele>173.72369267635</ele>
        <time>2021-07-17T17:06:35.443Z</time>
      </trkpt>
      <trkpt lat="44.9357" lon="1.109">
        <ele>174.39341921557</ele>
        <time>2021-07-17T17:06:47.163Z</time>
      </trkpt>
      <trkpt lat="44.93555" lon="1.10912">
        <ele>174.97028130041</ele>
        <time>2021-07-17T17:06:58.887Z</time>
      </trkpt>
      <trkpt lat="44.93539" lon="1.10919">
        <ele>175.46670364869</ele>
        <time>2021-07-17T17:07:10.614Z</time>
      </trkpt>
      <trkpt lat="44.93489" lon="1.10927">
        <ele>175.99000734745</ele>
        <time>2021-07-17T17:07:22.351Z</time>
      </trkpt>
      <trkpt lat="44.93458" lon="1.10936">
        <ele>176.4881567854</ele>
        <time>2021-07-17T17:07:34.095Z</time>
      </trkpt>
      <trkpt lat="44.93422" lon="1.10951">
        <ele>176.82653581492</ele>
        <time>2021-07-17T17:07:45.846Z</time>
      </trkpt>
      <trkpt lat="44.93422" lon="1.10961">
        <ele>176.9751539161</ele>
        <time>2021-07-17T17:07:57.599Z</time>
      </trkpt>
      <trkpt lat="44.9339" lon="1.11013">
        <ele>177.12003333183</ele>
        <time>2021-07-17T17:08:09.361Z</time>
      </trkpt>
      <trkpt lat="44.93384" lon="1.11026">
        <ele>177.20997266844</ele>
        <time>2021-07-17T17:08:21.125Z</time>
      </trkpt>
      <trkpt lat="44.93384" lon="1.11036">
        <ele>177.19129622965</ele>
        <time>2021-07-17T17:08:32.891Z</time>
      </trkpt>
      <trkpt lat="44.93386" lon="1.11044">
        <ele>177.12524274532</ele>
        <time>2021-07-17T17:08:44.658Z</time>
      </trkpt>
      <trkpt lat="44.93389" lon="1.1105">
        <ele>177.06028859083</ele>
        <time>2021-07-17T17:08:56.426Z</time>
      </trkpt>
      <trkpt lat="44.93395" lon="1.11056">
        <ele>176.95327161421</ele>
        <time>2021-07-17T17:09:08.196Z</time>
      </trkpt>
      <trkpt lat="44.93403" lon="1.11057">
        <ele>176.8298752126</ele>
        <time>2021-07-17T17:09:19.967Z</time>
      </trkpt>
      <trkpt lat="44.93449" lon="1.1104">
        <ele>176.61931806161</ele>
        <time>2021-07-17T17:09:31.748Z</time>
      </trkpt>
      <trkpt lat="44.93607" lon="1.11042">
        <ele>175.99461954339</ele>
        <time>2021-07-17T17:09:43.560Z</time>
      </trkpt>
      <trkpt lat="44.93624" lon="1.11044">
        <ele>176.00229037843</ele>
        <time>2021-07-17T17:09:55.376Z</time>
      </trkpt>
      <trkpt lat="44.93631" lon="1.11049">
        <ele>176.03008303947</ele>
        <time>2021-07-17T17:10:07.193Z</time>
      </trkpt>
      <trkpt lat="44.93636" lon="1.11055">
        <ele>176.11869089829</ele>
        <time>2021-07-17T17:10:19.012Z</time>
      </trkpt>
      <trkpt lat="44.93646" lon="1.11086">
        <ele>176.34196746087</ele>
        <time>2021-07-17T17:10:30.835Z</time>
      </trkpt>
      <trkpt lat="44.93651" lon="1.111">
        <ele>176.58237423034</ele>
        <time>2021-07-17T17:10:42.661Z</time>
      </trkpt>
      <trkpt lat="44.93656" lon="1.11104">
        <ele>176.86893610924</ele>
        <time>2021-07-17T17:10:54.488Z</time>
      </trkpt>
      <trkpt lat="44.93661" lon="1.11107">
        <ele>177.22244026608</ele>
        <time>2021-07-17T17:11:06.316Z</time>
      </trkpt>
      <trkpt lat="44.93668" lon="1.11107">
        <ele>177.64414244716</ele>
        <time>2021-07-17T17:11:18.145Z</time>
      </trkpt>
      <trkpt lat="44.93675" lon="1.11103">
        <ele>178.13303309285</ele>
        <time>2021-07-17T17:11:29.976Z</time>
      </trkpt>
      <trkpt lat="44.93686" lon="1.11092">
        <ele>178.69627936745</ele>
        <time>2021-07-17T17:11:41.809Z</time>
      </trkpt>
      <trkpt lat="44.9369" lon="1.11091">
        <ele>179.3660217858</ele>
        <time>2021-07-17T17:11:53.643Z</time>
      </trkpt>
      <trkpt lat="44.93648" lon="1.11187">
        <ele>180.3589885874</ele>
        <time>2021-07-17T17:12:05.493Z</time>
      </trkpt>
      <trkpt lat="44.93611" lon="1.11267">
        <ele>181.44355413376</ele>
        <time>2021-07-17T17:12:17.357Z</time>
      </trkpt>
      <trkpt lat="44.93591" lon="1.11299">
        <ele>182.29546878356</ele>
        <time>2021-07-17T17:12:29.227Z</time>
      </trkpt>
      <trkpt lat="44.93566" lon="1.11332">
        <ele>183.26144634418</ele>
        <time>2021-07-17T17:12:41.104Z</time>
      </trkpt>
      <trkpt lat="44.93544" lon="1.11355">
        <ele>184.43640348613</ele>
        <time>2021-07-17T17:12:52.986Z</time>
      </trkpt>
      <trkpt lat="44.93539" lon="1.11371">
        <ele>185.50707742566</ele>
        <time>2021-07-17T17:13:04.871Z</time>
      </trkpt>
      <trkpt lat="44.93534" lon="1.11393">
        <ele>186.61240825567</ele>
        <time>2021-07-17T17:13:16.759Z</time>
      </trkpt>
      <trkpt lat="44.9352" lon="1.11428">
        <ele>187.81168723687</ele>
        <time>2021-07-17T17:13:28.653Z</time>
      </trkpt>
      <trkpt lat="44.93499" lon="1.11465">
        <ele>189.08150407083</ele>
        <time>2021-07-17T17:13:40.553Z</time>
      </trkpt>
      <trkpt lat="44.93483" lon="1.11487">
        <ele>190.20018373004</ele>
        <time>2021-07-17T17:13:52.458Z</time>
      </trkpt>
      <trkpt lat="44.93462" lon="1.11524">
        <ele>191.32774346866</ele>
        <time>2021-07-17T17:14:04.370Z</time>
      </trkpt>
      <trkpt lat="44.93455" lon="1.11525">
        <ele>192.30728946128</ele>
        <time>2021-07-17T17:14:16.283Z</time>
      </trkpt>
      <trkpt lat="44.93463" lon="1.11539">
        <ele>193.29693670403</ele>
        <time>2021-07-17T17:14:28.199Z</time>
      </trkpt>
      <trkpt lat="44.9347" lon="1.11557">
        <ele>194.23164810663</ele>
        <time>2021-07-17T17:14:40.118Z</time>
      </trkpt>
      <trkpt lat="44.93476" lon="1.11597">
        <ele>195.16507287016</ele>
        <time>2021-07-17T17:14:52.042Z</time>
      </trkpt>
      <trkpt lat="44.93494" lon="1.11634">
        <ele>195.97374805931</ele>
        <time>2021-07-17T17:15:03.973Z</time>
      </trkpt>
      <trkpt lat="44.93545" lon="1.117">
        <ele>196.95466324966</ele>
        <time>2021-07-17T17:15:15.918Z</time>
      </trkpt>
      <trkpt lat="44.93582" lon="1.11827">
        <ele>197.99057562531</ele>
        <time>2021-07-17T17:15:27.882Z</time>
      </trkpt>
      <trkpt lat="44.93568" lon="1.11846">
        <ele>198.592198226</ele>
        <time>2021-07-17T17:15:39.850Z</time>
      </trkpt>
      <trkpt lat="44.93616" lon="1.11877">
        <ele>198.98648788205</ele>
        <time>2021-07-17T17:15:51.828Z</time>
      </trkpt>
      <trkpt lat="44.93687" lon="1.11935">
        <ele>198.88617075564</ele>
        <time>2021-07-17T17:16:03.823Z</time>
      </trkpt>
      <trkpt lat="44.93711" lon="1.11963">
        <ele>199.21367258874</ele>
        <time>2021-07-17T17:16:15.824Z</time>
      </trkpt>
      <trkpt lat="44.93728" lon="1.11997">
        <ele>199.53727632114</ele>
        <time>2021-07-17T17:16:27.831Z</time>
      </trkpt>
      <trkpt lat="44.9373" lon="1.12021">
        <ele>199.95581888732</ele>
        <time>2021-07-17T17:16:39.841Z</time>
      </trkpt>
      <trkpt lat="44.93775" lon="1.12133">
        <ele>200.01666528461</ele>
        <time>2021-07-17T17:16:51.870Z</time>
      </trkpt>
      <trkpt lat="44.93805" lon="1.12223">
        <ele>200.42653863925</ele>
        <time>2021-07-17T17:17:03.913Z</time>
      </trkpt>
      <trkpt lat="44.93816" lon="1.1224">
        <ele>200.78964229517</ele>
        <time>2021-07-17T17:17:15.959Z</time>
      </trkpt>
      <trkpt lat="44.93895" lon="1.1235">
        <ele>201.92314449252</ele>
        <time>2021-07-17T17:17:28.027Z</time>
      </trkpt>
      <trkpt lat="44.9393" lon="1.12382">
        <ele>202.37804734602</ele>
        <time>2021-07-17T17:17:40.104Z</time>
      </trkpt>
      <trkpt lat="44.93927" lon="1.12397">
        <ele>202.70270659549</ele>
        <time>2021-07-17T17:17:52.183Z</time>
      </trkpt>
      <trkpt lat="44.93915" lon="1.12419">
        <ele>203.01766605823</ele>
        <time>2021-07-17T17:18:04.266Z</time>
      </trkpt>
      <trkpt lat="44.9389" lon="1.12441">
        <ele>203.33217222454</ele>
        <time>2021-07-17T17:18:16.355Z</time>
      </trkpt>
      <trkpt lat="44.93914" lon="1.12497">
        <ele>203.59733196227</ele>
        <time>2021-07-17T17:18:28.453Z</time>
      </trkpt>
      <trkpt lat="44.93946" lon="1.12588">
        <ele>203.81876817602</ele>
        <time>2021-07-17T17:18:40.566Z</time>
      </trkpt>
      <trkpt lat="44.93962" lon="1.12677">
        <ele>203.94404250987</ele>
        <time>2021-07-17T17:18:52.692Z</time>
      </trkpt>
      <trkpt lat="44.93989" lon="1.1276">
        <ele>203.92638929787</ele>
        <time>2021-07-17T17:19:04.830Z</time>
      </trkpt>
      <trkpt lat="44.94007" lon="1.12786">
        <ele>204.06214560769</ele>
        <time>2021-07-17T17:19:16.974Z</time>
      </trkpt>
      <trkpt lat="44.94002" lon="1.12802">
        <ele>204.27161784478</ele>
        <time>2021-07-17T17:19:29.120Z</time>
      </trkpt>
      <trkpt lat="44.94033" lon="1.12793">
        <ele>204.47458365204</ele>
        <time>2021-07-17T17:19:41.273Z</time>
      </trkpt>
      <trkpt lat="44.94068" lon="1.12868">
        <ele>204.69456469918</ele>
        <time>2021-07-17T17:19:53.438Z</time>
      </trkpt>
      <trkpt lat="44.94075" lon="1.12895">
        <ele>205.03942273942</ele>
        <time>2021-07-17T17:20:05.607Z</time>
      </trkpt>
      <trkpt lat="44.9409" lon="1.12918">
        <ele>205.41619919246</ele>
        <time>2021-07-17T17:20:17.781Z</time>
      </trkpt>
      <trkpt lat="44.94095" lon="1.1293">
        <ele>205.76249811952</ele>
        <time>2021-07-17T17:20:29.957Z</time>
      </trkpt>
      <trkpt lat="44.94103" lon="1.12961">
        <ele>206.12394955778</ele>
        <time>2021-07-17T17:20:42.138Z</time>
      </trkpt>
      <trkpt lat="44.94103" lon="1.12979">
        <ele>206.49966082677</ele>
        <time>2021-07-17T17:20:54.321Z</time>
      </trkpt>
      <trkpt lat="44.94109" lon="1.13001">
        <ele>206.88530443841</ele>
        <time>2021-07-17T17:21:06.507Z</time>
      </trkpt>
      <trkpt lat="44.94119" lon="1.13027">
        <ele>207.26276674553</ele>
        <time>2021-07-17T17:21:18.698Z</time>
      </trkpt>
      <trkpt lat="44.94114" lon="1.13035">
        <ele>207.67664068216</ele>
        <time>2021-07-17T17:21:30.890Z</time>
      </trkpt>
      <trkpt lat="44.94123" lon="1.13088">
        <ele>208.08991723963</ele>
        <time>2021-07-17T17:21:43.090Z</time>
      </trkpt>
      <trkpt lat="44.9412" lon="1.13103">
        <ele>208.54020034288</ele>
        <time>2021-07-17T17:21:55.292Z</time>
      </trkpt>
      <trkpt lat="44.94128" lon="1.13113">
        <ele>208.94759220631</ele>
        <time>2021-07-17T17:22:07.496Z</time>
      </trkpt>
      <trkpt lat="44.9414" lon="1.1312">
        <ele>209.33806843681</ele>
        <time>2021-07-17T17:22:19.703Z</time>
      </trkpt>
      <trkpt lat="44.94207" lon="1.13142">
        <ele>209.85984755493</ele>
        <time>2021-07-17T17:22:31.924Z</time>
      </trkpt>
      <trkpt lat="44.94229" lon="1.1316">
        <ele>210.47627194992</ele>
        <time>2021-07-17T17:22:44.150Z</time>
      </trkpt>
      <trkpt lat="44.94243" lon="1.13164">
        <ele>211.02511466396</ele>
        <time>2021-07-17T17:22:56.379Z</time>
      </trkpt>
      <trkpt lat="44.94255" lon="1.13166">
        <ele>211.55609509488</ele>
        <time>2021-07-17T17:23:08.610Z</time>
      </trkpt>
      <trkpt lat="44.9426" lon="1.13178">
        <ele>212.1161312153</ele>
        <time>2021-07-17T17:23:20.843Z</time>
      </trkpt>
      <trkpt lat="44.94265" lon="1.13186">
        <ele>212.6528371746</ele>
        <time>2021-07-17T17:23:33.078Z</time>
      </trkpt>
      <trkpt lat="44.94281" lon="1.1318">
        <ele>213.1482556348</ele>
        <time>2021-07-17T17:23:45.316Z</time>
      </trkpt>
      <trkpt lat="44.94299" lon="1.13178">
        <ele>213.64733065891</ele>
        <time>2021-07-17T17:23:57.557Z</time>
      </trkpt>
      <trkpt lat="44.94314" lon="1.13182">
        <ele>214.13453274087</ele>
        <time>2021-07-17T17:24:09.802Z</time>
      </trkpt>
      <trkpt lat="44.94328" lon="1.13193">
        <ele>214.59540096026</ele>
        <time>2021-07-17T17:24:22.050Z</time>
      </trkpt>
      <trkpt lat="44.94347" lon="1.13212">
        <ele>215.04399004163</ele>
        <time>2021-07-17T17:24:34.302Z</time>
      </trkpt>
      <trkpt lat="44.9436" lon="1.13232">
        <ele>215.45514998742</ele>
        <time>2021-07-17T17:24:46.558Z</time>
      </trkpt>
      <trkpt lat="44.94412" lon="1.13326">
        <ele>215.97634984089</ele>
        <time>2021-07-17T17:24:58.831Z</time>
      </trkpt>
      <trkpt lat="44.94419" lon="1.13346">
        <ele>216.41827333746</ele>
        <time>2021-07-17T17:25:11.107Z</time>
      </trkpt>
      <trkpt lat="44.94426" lon="1.13375">
        <ele>216.89811178604</ele>
        <time>2021-07-17T17:25:23.388Z</time>
      </trkpt>
      <trkpt lat="44.94427" lon="1.13411">
        <ele>217.35950280741</ele>
        <time>2021-07-17T17:25:35.674Z</time>
      </trkpt>
      <trkpt lat="44.94425" lon="1.13432">
        <ele>217.77220508674</ele>
        <time>2021-07-17T17:25:47.963Z</time>
      </trkpt>
      <trkpt lat="44.94415" lon="1.13474">
        <ele>218.24955678407</ele>
        <time>2021-07-17T17:26:00.258Z</time>
      </trkpt>
      <trkpt lat="44.94404" lon="1.13495">
        <ele>218.69659661626</ele>
        <time>2021-07-17T17:26:12.557Z</time>
      </trkpt>
      <trkpt lat="44.9439" lon="1.13511">
        <ele>219.12024150303</ele>
        <time>2021-07-17T17:26:24.860Z</time>
      </trkpt>
      <trkpt lat="44.94371" lon="1.13523">
        <ele>219.62350313402</ele>
        <time>2021-07-17T17:26:37.167Z</time>
      </trkpt>
      <trkpt lat="44.94356" lon="1.13526">
        <ele>220.18183679739</ele>
        <time>2021-07-17T17:26:49.477Z</time>
      </trkpt>
      <trkpt lat="44.94227" lon="1.13547">
        <ele>220.82894563821</ele>
        <time>2021-07-17T17:27:01.813Z</time>
      </trkpt>
      <trkpt lat="44.94199" lon="1.13556">
        <ele>221.48801410577</ele>
        <time>2021-07-17T17:27:14.154Z</time>
      </trkpt>
      <trkpt lat="44.94167" lon="1.13575">
        <ele>222.22807262242</ele>
        <time>2021-07-17T17:27:26.502Z</time>
      </trkpt>
      <trkpt lat="44.94158" lon="1.13583">
        <ele>223.08364903779</ele>
        <time>2021-07-17T17:27:38.853Z</time>
      </trkpt>
      <trkpt lat="44.9414" lon="1.13601">
        <ele>224.0789207209</ele>
        <time>2021-07-17T17:27:51.208Z</time>
      </trkpt>
      <trkpt lat="44.94128" lon="1.13621">
        <ele>225.11794300884</ele>
        <time>2021-07-17T17:28:03.567Z</time>
      </trkpt>
      <trkpt lat="44.94108" lon="1.13666">
        <ele>226.1758097378</ele>
        <time>2021-07-17T17:28:15.933Z</time>
      </trkpt>
      <trkpt lat="44.94093" lon="1.13694">
        <ele>227.32634235078</ele>
        <time>2021-07-17T17:28:28.304Z</time>
      </trkpt>
      <trkpt lat="44.94029" lon="1.138">
        <ele>228.57421784106</ele>
        <time>2021-07-17T17:28:40.695Z</time>
      </trkpt>
      <trkpt lat="44.94029" lon="1.13844">
        <ele>229.85148583602</ele>
        <time>2021-07-17T17:28:53.092Z</time>
      </trkpt>
      <trkpt lat="44.94048" lon="1.13969">
        <ele>231.60237278652</ele>
        <time>2021-07-17T17:29:05.507Z</time>
      </trkpt>
      <trkpt lat="44.94052" lon="1.14027">
        <ele>233.34642080501</ele>
        <time>2021-07-17T17:29:17.930Z</time>
      </trkpt>
      <trkpt lat="44.94052" lon="1.14056">
        <ele>235.1328785633</ele>
        <time>2021-07-17T17:29:30.358Z</time>
      </trkpt>
      <trkpt lat="44.94042" lon="1.14137">
        <ele>236.96044406013</ele>
        <time>2021-07-17T17:29:42.797Z</time>
      </trkpt>
      <trkpt lat="44.94042" lon="1.14257">
        <ele>239.13220860357</ele>
        <time>2021-07-17T17:29:55.253Z</time>
      </trkpt>
      <trkpt lat="44.94037" lon="1.14307">
        <ele>241.35526331043</ele>
        <time>2021-07-17T17:30:07.717Z</time>
      </trkpt>
      <trkpt lat="44.94027" lon="1.14347">
        <ele>243.64276823292</ele>
        <time>2021-07-17T17:30:20.186Z</time>
      </trkpt>
      <trkpt lat="44.94015" lon="1.1438">
        <ele>246.00891027141</ele>
        <time>2021-07-17T17:30:32.661Z</time>
      </trkpt>
      <trkpt lat="44.94013" lon="1.14407">
        <ele>248.4087168803</ele>
        <time>2021-07-17T17:30:45.140Z</time>
      </trkpt>
      <trkpt lat="44.93998" lon="1.14438">
        <ele>250.84862916078</ele>
        <time>2021-07-17T17:30:57.624Z</time>
      </trkpt>
      <trkpt lat="44.93937" lon="1.14532">
        <ele>253.69414646574</ele>
        <time>2021-07-17T17:31:10.126Z</time>
      </trkpt>
      <trkpt lat="44.93919" lon="1.14549">
        <ele>256.11196132262</ele>
        <time>2021-07-17T17:31:22.632Z</time>
      </trkpt>
      <trkpt lat="44.93903" lon="1.1458">
        <ele>258.48465226517</ele>
        <time>2021-07-17T17:31:35.144Z</time>
      </trkpt>
      <trkpt lat="44.93892" lon="1.14578">
        <ele>260.77085327376</ele>
        <time>2021-07-17T17:31:47.658Z</time>
      </trkpt>
      <trkpt lat="44.93879" lon="1.14631">
        <ele>263.12352394091</ele>
        <time>2021-07-17T17:32:00.180Z</time>
      </trkpt>
      <trkpt lat="44.93844" lon="1.14694">
        <ele>265.4625923384</ele>
        <time>2021-07-17T17:32:12.713Z</time>
      </trkpt>
      <trkpt lat="44.93816" lon="1.14854">
        <ele>267.32783750714</ele>
        <time>2021-07-17T17:32:25.270Z</time>
      </trkpt>
      <trkpt lat="44.93818" lon="1.14899">
        <ele>269.45970837332</ele>
        <time>2021-07-17T17:32:37.833Z</time>
      </trkpt>
      <trkpt lat="44.93825" lon="1.14937">
        <ele>271.6210907136</ele>
        <time>2021-07-17T17:32:50.402Z</time>
      </trkpt>
      <trkpt lat="44.93818" lon="1.14973">
        <ele>273.68962942577</ele>
        <time>2021-07-17T17:33:02.976Z</time>
      </trkpt>
      <trkpt lat="44.93819" lon="1.15091">
        <ele>275.75127277077</ele>
        <time>2021-07-17T17:33:15.567Z</time>
      </trkpt>
      <trkpt lat="44.93813" lon="1.15118">
        <ele>277.45406831591</ele>
        <time>2021-07-17T17:33:28.162Z</time>
      </trkpt>
      <trkpt lat="44.93817" lon="1.15216">
        <ele>278.78214052054</ele>
        <time>2021-07-17T17:33:40.771Z</time>
      </trkpt>
      <trkpt lat="44.93829" lon="1.15268">
        <ele>280.24101944471</ele>
        <time>2021-07-17T17:33:53.388Z</time>
      </trkpt>
      <trkpt lat="44.93845" lon="1.15376">
        <ele>281.78497362186</ele>
        <time>2021-07-17T17:34:06.020Z</time>
      </trkpt>
      <trkpt lat="44.93857" lon="1.15445">
        <ele>283.35311350972</ele>
        <time>2021-07-17T17:34:18.662Z</time>
      </trkpt>
      <trkpt lat="44.93863" lon="1.15504">
        <ele>284.67028037482</ele>
        <time>2021-07-17T17:34:31.313Z</time>
      </trkpt>
      <trkpt lat="44.93862" lon="1.15545">
        <ele>285.8952553521</ele>
        <time>2021-07-17T17:34:43.970Z</time>
      </trkpt>
      <trkpt lat="44.93858" lon="1.15596">
        <ele>287.02505270315</ele>
        <time>2021-07-17T17:34:56.634Z</time>
      </trkpt>
      <trkpt lat="44.93838" lon="1.15667">
        <ele>287.9333938471</ele>
        <time>2021-07-17T17:35:09.309Z</time>
      </trkpt>
      <trkpt lat="44.93806" lon="1.15723">
        <ele>288.72764406962</ele>
        <time>2021-07-17T17:35:21.994Z</time>
      </trkpt>
      <trkpt lat="44.93784" lon="1.15766">
        <ele>289.40344938374</ele>
        <time>2021-07-17T17:35:34.687Z</time>
      </trkpt>
      <trkpt lat="44.93771" lon="1.15805">
        <ele>290.02841948115</ele>
        <time>2021-07-17T17:35:47.386Z</time>
      </trkpt>
      <trkpt lat="44.93761" lon="1.15841">
        <ele>290.60343526352</ele>
        <time>2021-07-17T17:36:00.090Z</time>
      </trkpt>
      <trkpt lat="44.93742" lon="1.15891">
        <ele>291.11651349444</ele>
        <time>2021-07-17T17:36:12.802Z</time>
      </trkpt>
      <trkpt lat="44.93723" lon="1.15929">
        <ele>291.49605306233</ele>
        <time>2021-07-17T17:36:25.521Z</time>
      </trkpt>
      <trkpt lat="44.93714" lon="1.15965">
        <ele>291.85427802559</ele>
        <time>2021-07-17T17:36:38.245Z</time>
      </trkpt>
      <trkpt lat="44.937" lon="1.16053">
        <ele>292.05768986792</ele>
        <time>2021-07-17T17:36:50.982Z</time>
      </trkpt>
      <trkpt lat="44.93716" lon="1.16073">
        <ele>291.92356857655</ele>
        <time>2021-07-17T17:37:03.723Z</time>
      </trkpt>
      <trkpt lat="44.93742" lon="1.16114">
        <ele>291.53840085362</ele>
        <time>2021-07-17T17:37:16.472Z</time>
      </trkpt>
      <trkpt lat="44.93753" lon="1.1614">
        <ele>291.24296418035</ele>
        <time>2021-07-17T17:37:29.225Z</time>
      </trkpt>
      <trkpt lat="44.93751" lon="1.16167">
        <ele>290.93753749779</ele>
        <time>2021-07-17T17:37:41.982Z</time>
      </trkpt>
      <trkpt lat="44.93752" lon="1.16177">
        <ele>290.59610521165</ele>
        <time>2021-07-17T17:37:54.741Z</time>
      </trkpt>
      <trkpt lat="44.93775" lon="1.16195">
        <ele>290.01822057855</ele>
        <time>2021-07-17T17:38:07.505Z</time>
      </trkpt>
      <trkpt lat="44.93771" lon="1.16219">
        <ele>289.54369963391</ele>
        <time>2021-07-17T17:38:20.272Z</time>
      </trkpt>
      <trkpt lat="44.93764" lon="1.16236">
        <ele>288.98173346298</ele>
        <time>2021-07-17T17:38:33.042Z</time>
      </trkpt>
      <trkpt lat="44.9376" lon="1.16251">
        <ele>288.35017860588</ele>
        <time>2021-07-17T17:38:45.814Z</time>
      </trkpt>
      <trkpt lat="44.93752" lon="1.16266">
        <ele>287.67819603844</ele>
        <time>2021-07-17T17:38:58.589Z</time>
      </trkpt>
      <trkpt lat="44.9374" lon="1.16303">
        <ele>286.91705162451</ele>
        <time>2021-07-17T17:39:11.370Z</time>
      </trkpt>
      <trkpt lat="44.93737" lon="1.16338">
        <ele>285.99524490315</ele>
        <time>2021-07-17T17:39:24.156Z</time>
      </trkpt>
      <trkpt lat="44.93737" lon="1.16359">
        <ele>285.03224439777</ele>
        <time>2021-07-17T17:39:36.945Z</time>
      </trkpt>
      <trkpt lat="44.93747" lon="1.16415">
        <ele>283.92558879889</ele>
        <time>2021-07-17T17:39:49.742Z</time>
      </trkpt>
      <trkpt lat="44.93748" lon="1.16446">
        <ele>282.84119722825</ele>
        <time>2021-07-17T17:40:02.543Z</time>
      </trkpt>
      <trkpt lat="44.93747" lon="1.16479">
        <ele>281.74038506479</ele>
        <time>2021-07-17T17:40:15.349Z</time>
      </trkpt>
      <trkpt lat="44.93753" lon="1.16538">
        <ele>280.5809369977</ele>
        <time>2021-07-17T17:40:28.164Z</time>
      </trkpt>
      <trkpt lat="44.93751" lon="1.16562">
        <ele>279.27649497829</ele>
        <time>2021-07-17T17:40:40.982Z</time>
      </trkpt>
      <trkpt lat="44.93737" lon="1.16593">
        <ele>277.86952836571</ele>
        <time>2021-07-17T17:40:53.805Z</time>
      </trkpt>
      <trkpt lat="44.93741" lon="1.16626">
        <ele>276.26057576855</ele>
        <time>2021-07-17T17:41:06.633Z</time>
      </trkpt>
      <trkpt lat="44.9374" lon="1.1665">
        <ele>274.50391846094</ele>
        <time>2021-07-17T17:41:19.464Z</time>
      </trkpt>
      <trkpt lat="44.9373" lon="1.16656">
        <ele>272.59098820677</ele>
        <time>2021-07-17T17:41:32.297Z</time>
      </trkpt>
      <trkpt lat="44.93707" lon="1.16661">
        <ele>270.4661345787</ele>
        <time>2021-07-17T17:41:45.135Z</time>
      </trkpt>
      <trkpt lat="44.93686" lon="1.16658">
        <ele>268.12355559765</ele>
        <time>2021-07-17T17:41:57.977Z</time>
      </trkpt>
      <trkpt lat="44.93672" lon="1.16639">
        <ele>265.81301552734</ele>
        <time>2021-07-17T17:42:10.823Z</time>
      </trkpt>
      <trkpt lat="44.93635" lon="1.16596">
        <ele>263.29447937829</ele>
        <time>2021-07-17T17:42:23.679Z</time>
      </trkpt>
      <trkpt lat="44.93625" lon="1.16577">
        <ele>260.8172662176</ele>
        <time>2021-07-17T17:42:36.538Z</time>
      </trkpt>
      <trkpt lat="44.93623" lon="1.16595">
        <ele>258.10373779052</ele>
        <time>2021-07-17T17:42:49.400Z</time>
      </trkpt>
      <trkpt lat="44.93626" lon="1.16622">
        <ele>255.2561724111</ele>
        <time>2021-07-17T17:43:02.265Z</time>
      </trkpt>
      <trkpt lat="44.93637" lon="1.16673">
        <ele>252.30063606821</ele>
        <time>2021-07-17T17:43:15.138Z</time>
      </trkpt>
      <trkpt lat="44.93638" lon="1.16714">
        <ele>249.45468252433</ele>
        <time>2021-07-17T17:43:28.017Z</time>
      </trkpt>
      <trkpt lat="44.93632" lon="1.1673">
        <ele>246.54421064756</ele>
        <time>2021-07-17T17:43:40.898Z</time>
      </trkpt>
      <trkpt lat="44.9362" lon="1.16745">
        <ele>243.53086288998</ele>
        <time>2021-07-17T17:43:53.783Z</time>
      </trkpt>
      <trkpt lat="44.93611" lon="1.16752">
        <ele>240.4786122071</ele>
        <time>2021-07-17T17:44:06.670Z</time>
      </trkpt>
      <trkpt lat="44.93602" lon="1.16754">
        <ele>237.35753325807</ele>
        <time>2021-07-17T17:44:19.558Z</time>
      </trkpt>
      <trkpt lat="44.93584" lon="1.16763">
        <ele>234.16091224497</ele>
        <time>2021-07-17T17:44:32.450Z</time>
      </trkpt>
      <trkpt lat="44.93522" lon="1.16796">
        <ele>231.00016913595</ele>
        <time>2021-07-17T17:44:45.356Z</time>
      </trkpt>
      <trkpt lat="44.93461" lon="1.16842">
        <ele>227.42682478484</ele>
        <time>2021-07-17T17:44:58.275Z</time>
      </trkpt>
      <trkpt lat="44.93435" lon="1.16886">
        <ele>224.32871014447</ele>
        <time>2021-07-17T17:45:11.203Z</time>
      </trkpt>
      <trkpt lat="44.93421" lon="1.16914">
        <ele>221.22263739206</ele>
        <time>2021-07-17T17:45:24.135Z</time>
      </trkpt>
      <trkpt lat="44.9342" lon="1.16949">
        <ele>218.24323705606</ele>
        <time>2021-07-17T17:45:37.072Z</time>
      </trkpt>
      <trkpt lat="44.93421" lon="1.16963">
        <ele>215.49173029587</ele>
        <time>2021-07-17T17:45:50.011Z</time>
      </trkpt>
      <trkpt lat="44.93433" lon="1.17009">
        <ele>212.8343667141</ele>
        <time>2021-07-17T17:46:02.957Z</time>
      </trkpt>
      <trkpt lat="44.93435" lon="1.17038">
        <ele>210.31070013041</ele>
        <time>2021-07-17T17:46:15.907Z</time>
      </trkpt>
      <trkpt lat="44.93433" lon="1.17066">
        <ele>207.85460466856</ele>
        <time>2021-07-17T17:46:28.861Z</time>
      </trkpt>
      <trkpt lat="44.93437" lon="1.17088">
        <ele>205.67566462628</ele>
        <time>2021-07-17T17:46:41.819Z</time>
      </trkpt>
      <trkpt lat="44.93435" lon="1.17116">
        <ele>203.59714310905</ele>
        <time>2021-07-17T17:46:54.781Z</time>
      </trkpt>
      <trkpt lat="44.93432" lon="1.17127">
        <ele>201.82243869516</ele>
        <time>2021-07-17T17:47:07.744Z</time>
      </trkpt>
      <trkpt lat="44.93413" lon="1.17112">
        <ele>200.26442204888</ele>
        <time>2021-07-17T17:47:20.712Z</time>
      </trkpt>
      <trkpt lat="44.93414" lon="1.17134">
        <ele>198.90163699171</ele>
        <time>2021-07-17T17:47:33.683Z</time>
      </trkpt>
      <trkpt lat="44.93406" lon="1.17145">
        <ele>197.77856780249</ele>
        <time>2021-07-17T17:47:46.656Z</time>
      </trkpt>
      <trkpt lat="44.9337" lon="1.17206">
        <ele>197.26443600858</ele>
        <time>2021-07-17T17:47:59.640Z</time>
      </trkpt>
      <trkpt lat="44.93369" lon="1.1722">
        <ele>196.67383606936</ele>
        <time>2021-07-17T17:48:12.627Z</time>
      </trkpt>
      <trkpt lat="44.93393" lon="1.17237">
        <ele>196.16982677773</ele>
        <time>2021-07-17T17:48:25.619Z</time>
      </trkpt>
      <trkpt lat="44.93395" lon="1.1725">
        <ele>195.90333550369</ele>
        <time>2021-07-17T17:48:38.613Z</time>
      </trkpt>
      <trkpt lat="44.93384" lon="1.17254">
        <ele>195.82308593962</ele>
        <time>2021-07-17T17:48:51.609Z</time>
      </trkpt>
      <trkpt lat="44.93367" lon="1.1725">
        <ele>195.89343204975</ele>
        <time>2021-07-17T17:49:04.609Z</time>
      </trkpt>
      <trkpt lat="44.93333" lon="1.1723">
        <ele>196.04183275714</ele>
        <time>2021-07-17T17:49:17.616Z</time>
      </trkpt>
      <trkpt lat="44.93324" lon="1.17227">
        <ele>196.34416117696</ele>
        <time>2021-07-17T17:49:30.625Z</time>
      </trkpt>
      <trkpt lat="44.93293" lon="1.17225">
        <ele>196.86501588517</ele>
        <time>2021-07-17T17:49:43.640Z</time>
      </trkpt>
      <trkpt lat="44.93279" lon="1.17215">
        <ele>197.56358338023</ele>
        <time>2021-07-17T17:49:56.658Z</time>
      </trkpt>
      <trkpt lat="44.93273" lon="1.17216">
        <ele>198.35138288116</ele>
        <time>2021-07-17T17:50:09.677Z</time>
      </trkpt>
      <trkpt lat="44.93251" lon="1.17237">
        <ele>199.37055023387</ele>
        <time>2021-07-17T17:50:22.702Z</time>
      </trkpt>
      <trkpt lat="44.93238" lon="1.17245">
        <ele>200.39273482567</ele>
        <time>2021-07-17T17:50:35.730Z</time>
      </trkpt>
      <trkpt lat="44.9322" lon="1.17251">
        <ele>201.55448080081</ele>
        <time>2021-07-17T17:50:48.761Z</time>
      </trkpt>
      <trkpt lat="44.93215" lon="1.17259">
        <ele>202.69809554153</ele>
        <time>2021-07-17T17:51:01.794Z</time>
      </trkpt>
      <trkpt lat="44.93216" lon="1.17272">
        <ele>203.88135102044</ele>
        <time>2021-07-17T17:51:14.829Z</time>
      </trkpt>
      <trkpt lat="44.93226" lon="1.17288">
        <ele>205.08392762073</ele>
        <time>2021-07-17T17:51:27.867Z</time>
      </trkpt>
      <trkpt lat="44.93229" lon="1.17296">
        <ele>206.38729612204</ele>
        <time>2021-07-17T17:51:40.906Z</time>
      </trkpt>
      <trkpt lat="44.93228" lon="1.17305">
        <ele>207.75037642427</ele>
        <time>2021-07-17T17:51:53.946Z</time>
      </trkpt>
      <trkpt lat="44.93226" lon="1.1731">
        <ele>209.16854540795</ele>
        <time>2021-07-17T17:52:06.987Z</time>
      </trkpt>
      <trkpt lat="44.9321" lon="1.17328">
        <ele>210.70132448955</ele>
        <time>2021-07-17T17:52:20.032Z</time>
      </trkpt>
      <trkpt lat="44.93194" lon="1.17343">
        <ele>212.21263860649</ele>
        <time>2021-07-17T17:52:33.081Z</time>
      </trkpt>
      <trkpt lat="44.9316" lon="1.17366">
        <ele>213.84293310425</ele>
        <time>2021-07-17T17:52:46.138Z</time>
      </trkpt>
      <trkpt lat="44.93143" lon="1.17387">
        <ele>215.39885685634</ele>
        <time>2021-07-17T17:52:59.199Z</time>
      </trkpt>
      <trkpt lat="44.93135" lon="1.17395">
        <ele>216.94355034531</ele>
        <time>2021-07-17T17:53:12.262Z</time>
      </trkpt>
      <trkpt lat="44.93128" lon="1.17397">
        <ele>218.52949001288</ele>
        <time>2021-07-17T17:53:25.327Z</time>
      </trkpt>
      <trkpt lat="44.93102" lon="1.17394">
        <ele>220.17976453263</ele>
        <time>2021-07-17T17:53:38.397Z</time>
      </trkpt>
      <trkpt lat="44.93066" lon="1.1741">
        <ele>221.81666664849</ele>
        <time>2021-07-17T17:53:51.474Z</time>
      </trkpt>
      <trkpt lat="44.93058" lon="1.17416">
        <ele>223.41534326986</ele>
        <time>2021-07-17T17:54:04.553Z</time>
      </trkpt>
      <trkpt lat="44.93051" lon="1.17426">
        <ele>225.0176845555</ele>
        <time>2021-07-17T17:54:17.634Z</time>
      </trkpt>
      <trkpt lat="44.93043" lon="1.17444">
        <ele>226.66559644163</ele>
        <time>2021-07-17T17:54:30.718Z</time>
      </trkpt>
      <trkpt lat="44.93025" lon="1.175">
        <ele>228.31326516873</ele>
        <time>2021-07-17T17:54:43.811Z</time>
      </trkpt>
      <trkpt lat="44.9301" lon="1.17536">
        <ele>229.93066950534</ele>
        <time>2021-07-17T17:54:56.910Z</time>
      </trkpt>
      <trkpt lat="44.93" lon="1.17568">
        <ele>231.59293245365</ele>
        <time>2021-07-17T17:55:10.014Z</time>
      </trkpt>
      <trkpt lat="44.92995" lon="1.17597">
        <ele>233.21470047215</ele>
        <time>2021-07-17T17:55:23.122Z</time>
      </trkpt>
      <trkpt lat="44.93013" lon="1.17651">
        <ele>234.69708766999</ele>
        <time>2021-07-17T17:55:36.238Z</time>
      </trkpt>
      <trkpt lat="44.93019" lon="1.17673">
        <ele>236.27392592955</ele>
        <time>2021-07-17T17:55:49.358Z</time>
      </trkpt>
      <trkpt lat="44.93026" lon="1.17687">
        <ele>237.82312758009</ele>
        <time>2021-07-17T17:56:02.480Z</time>
      </trkpt>
      <trkpt lat="44.93023" lon="1.17695">
        <ele>239.38916996404</ele>
        <time>2021-07-17T17:56:15.604Z</time>
      </trkpt>
      <trkpt lat="44.93015" lon="1.17697">
        <ele>240.97636933404</ele>
        <time>2021-07-17T17:56:28.729Z</time>
      </trkpt>
      <trkpt lat="44.92973" lon="1.17678">
        <ele>242.68255547953</ele>
        <time>2021-07-17T17:56:41.863Z</time>
      </trkpt>
      <trkpt lat="44.92901" lon="1.17622">
        <ele>244.58346383424</ele>
        <time>2021-07-17T17:56:55.013Z</time>
      </trkpt>
      <trkpt lat="44.92892" lon="1.17613">
        <ele>246.20540400377</ele>
        <time>2021-07-17T17:57:08.166Z</time>
      </trkpt>
      <trkpt lat="44.92889" lon="1.17599">
        <ele>247.82625318884</ele>
        <time>2021-07-17T17:57:21.321Z</time>
      </trkpt>
      <trkpt lat="44.92896" lon="1.17581">
        <ele>249.42993374077</ele>
        <time>2021-07-17T17:57:34.479Z</time>
      </trkpt>
      <trkpt lat="44.92896" lon="1.17571">
        <ele>251.07284878981</ele>
        <time>2021-07-17T17:57:47.638Z</time>
      </trkpt>
      <trkpt lat="44.92895" lon="1.17562">
        <ele>252.74488522209</ele>
        <time>2021-07-17T17:58:00.798Z</time>
      </trkpt>
      <trkpt lat="44.92889" lon="1.17546">
        <ele>254.46730566632</ele>
        <time>2021-07-17T17:58:13.961Z</time>
      </trkpt>
      <trkpt lat="44.92882" lon="1.17532">
        <ele>256.19720366897</ele>
        <time>2021-07-17T17:58:27.126Z</time>
      </trkpt>
      <trkpt lat="44.92874" lon="1.17525">
        <ele>257.9736298599</ele>
        <time>2021-07-17T17:58:40.293Z</time>
      </trkpt>
      <trkpt lat="44.92853" lon="1.17513">
        <ele>259.75420486634</ele>
        <time>2021-07-17T17:58:53.465Z</time>
      </trkpt>
      <trkpt lat="44.92794" lon="1.17571">
        <ele>261.66606969798</ele>
        <time>2021-07-17T17:59:06.651Z</time>
      </trkpt>
      <trkpt lat="44.92771" lon="1.17585">
        <ele>263.4991652909</ele>
        <time>2021-07-17T17:59:19.842Z</time>
      </trkpt>
      <trkpt lat="44.92733" lon="1.17603">
        <ele>265.39901150544</ele>
        <time>2021-07-17T17:59:33.041Z</time>
      </trkpt>
      <trkpt lat="44.92687" lon="1.17638">
        <ele>267.42758881259</ele>
        <time>2021-07-17T17:59:46.251Z</time>
      </trkpt>
      <trkpt lat="44.92679" lon="1.17635">
        <ele>269.29530397173</ele>
        <time>2021-07-17T17:59:59.462Z</time>
      </trkpt>
      <trkpt lat="44.92646" lon="1.17633">
        <ele>271.30686804875</ele>
        <time>2021-07-17T18:00:12.680Z</time>
      </trkpt>
      <trkpt lat="44.92607" lon="1.17639">
        <ele>273.39283029027</ele>
        <time>2021-07-17T18:00:25.906Z</time>
      </trkpt>
      <trkpt lat="44.92555" lon="1.17636">
        <ele>275.50290336437</ele>
        <time>2021-07-17T18:00:39.142Z</time>
      </trkpt>
      <trkpt lat="44.92455" lon="1.17637">
        <ele>277.84135834281</ele>
        <time>2021-07-17T18:00:52.398Z</time>
      </trkpt>
      <trkpt lat="44.92446" lon="1.1764">
        <ele>279.8172523364</ele>
        <time>2021-07-17T18:01:05.656Z</time>
      </trkpt>
      <trkpt lat="44.92442" lon="1.17646">
        <ele>281.76777400474</ele>
        <time>2021-07-17T18:01:18.915Z</time>
      </trkpt>
      <trkpt lat="44.92443" lon="1.17658">
        <ele>283.67921187457</ele>
        <time>2021-07-17T18:01:32.176Z</time>
      </trkpt>
      <trkpt lat="44.92435" lon="1.17684">
        <ele>285.55677037809</ele>
        <time>2021-07-17T18:01:45.441Z</time>
      </trkpt>
      <trkpt lat="44.92432" lon="1.17726">
        <ele>287.45240394249</ele>
        <time>2021-07-17T18:01:58.712Z</time>
      </trkpt>
      <trkpt lat="44.92433" lon="1.17739">
        <ele>289.27097179487</ele>
        <time>2021-07-17T18:02:11.985Z</time>
      </trkpt>
      <trkpt lat="44.92437" lon="1.17762">
        <ele>291.1429327854</ele>
        <time>2021-07-17T18:02:25.261Z</time>
      </trkpt>
      <trkpt lat="44.92438" lon="1.17811">
        <ele>293.19695049395</ele>
        <time>2021-07-17T18:02:38.544Z</time>
      </trkpt>
      <trkpt lat="44.92434" lon="1.17873">
        <ele>295.33187001945</ele>
        <time>2021-07-17T18:02:51.836Z</time>
      </trkpt>
      <trkpt lat="44.92437" lon="1.17915">
        <ele>297.15959598504</ele>
        <time>2021-07-17T18:03:05.134Z</time>
      </trkpt>
      <trkpt lat="44.92437" lon="1.17956">
        <ele>298.73106392744</ele>
        <time>2021-07-17T18:03:18.438Z</time>
      </trkpt>
      <trkpt lat="44.92439" lon="1.17986">
        <ele>300.17837801755</ele>
        <time>2021-07-17T18:03:31.746Z</time>
      </trkpt>
      <trkpt lat="44.92449" lon="1.18055">
        <ele>301.50733003817</ele>
        <time>2021-07-17T18:03:45.064Z</time>
      </trkpt>
      <trkpt lat="44.92455" lon="1.18073">
        <ele>302.70421394824</ele>
        <time>2021-07-17T18:03:58.385Z</time>
      </trkpt>
      <trkpt lat="44.92463" lon="1.18088">
        <ele>303.77284577488</ele>
        <time>2021-07-17T18:04:11.708Z</time>
      </trkpt>
      <trkpt lat="44.92469" lon="1.18095">
        <ele>304.76826549696</ele>
        <time>2021-07-17T18:04:25.033Z</time>
      </trkpt>
      <trkpt lat="44.9248" lon="1.18103">
        <ele>305.68173544918</ele>
        <time>2021-07-17T18:04:38.361Z</time>
      </trkpt>
      <trkpt lat="44.92503" lon="1.18128">
        <ele>306.44941604584</ele>
        <time>2021-07-17T18:04:51.694Z</time>
      </trkpt>
      <trkpt lat="44.92519" lon="1.18138">
        <ele>307.14403213483</ele>
        <time>2021-07-17T18:05:05.031Z</time>
      </trkpt>
      <trkpt lat="44.92521" lon="1.18148">
        <ele>307.73477507222</ele>
        <time>2021-07-17T18:05:18.369Z</time>
      </trkpt>
      <trkpt lat="44.92517" lon="1.182">
        <ele>308.15743676347</ele>
        <time>2021-07-17T18:05:31.715Z</time>
      </trkpt>
      <trkpt lat="44.92511" lon="1.18254">
        <ele>308.59843151624</ele>
        <time>2021-07-17T18:05:45.069Z</time>
      </trkpt>
      <trkpt lat="44.92503" lon="1.18302">
        <ele>308.91699540631</ele>
        <time>2021-07-17T18:05:58.430Z</time>
      </trkpt>
      <trkpt lat="44.92501" lon="1.18334">
        <ele>309.23059424431</ele>
        <time>2021-07-17T18:06:11.795Z</time>
      </trkpt>
      <trkpt lat="44.92473" lon="1.18474">
        <ele>309.64459448288</ele>
        <time>2021-07-17T18:06:25.181Z</time>
      </trkpt>
      <trkpt lat="44.92468" lon="1.18503">
        <ele>309.92650321976</ele>
        <time>2021-07-17T18:06:38.571Z</time>
      </trkpt>
      <trkpt lat="44.92466" lon="1.18547">
        <ele>310.24345083927</ele>
        <time>2021-07-17T18:06:51.967Z</time>
      </trkpt>
      <trkpt lat="44.92455" lon="1.18588">
        <ele>310.44847405266</ele>
        <time>2021-07-17T18:07:05.370Z</time>
      </trkpt>
      <trkpt lat="44.9245" lon="1.18616">
        <ele>310.53056960316</ele>
        <time>2021-07-17T18:07:18.777Z</time>
      </trkpt>
      <trkpt lat="44.92449" lon="1.18628">
        <ele>310.61797879657</ele>
        <time>2021-07-17T18:07:32.185Z</time>
      </trkpt>
      <trkpt lat="44.92452" lon="1.18664">
        <ele>310.59475996069</ele>
        <time>2021-07-17T18:07:45.598Z</time>
      </trkpt>
      <trkpt lat="44.92447" lon="1.18696">
        <ele>310.6390601611</ele>
        <time>2021-07-17T18:07:59.016Z</time>
      </trkpt>
      <trkpt lat="44.92446" lon="1.18735">
        <ele>310.61090568561</ele>
        <time>2021-07-17T18:08:12.440Z</time>
      </trkpt>
      <trkpt lat="44.92436" lon="1.18767">
        <ele>310.56427836564</ele>
        <time>2021-07-17T18:08:25.869Z</time>
      </trkpt>
      <trkpt lat="44.92431" lon="1.18787">
        <ele>310.51362626999</ele>
        <time>2021-07-17T18:08:39.301Z</time>
      </trkpt>
      <trkpt lat="44.9243" lon="1.18794">
        <ele>310.53217882598</ele>
        <time>2021-07-17T18:08:52.734Z</time>
      </trkpt>
      <trkpt lat="44.92431" lon="1.18787">
        <ele>310.65078438285</ele>
        <time>2021-07-17T18:09:06.168Z</time>
      </trkpt>
      <trkpt lat="44.92436" lon="1.18785">
        <ele>310.73380033668</ele>
        <time>2021-07-17T18:09:19.603Z</time>
      </trkpt>
      <trkpt lat="44.92437" lon="1.18811">
        <ele>310.67728684284</ele>
        <time>2021-07-17T18:09:33.041Z</time>
      </trkpt>
      <trkpt lat="44.92427" lon="1.18855">
        <ele>310.67143956797</ele>
        <time>2021-07-17T18:09:46.486Z</time>
      </trkpt>
      <trkpt lat="44.9242" lon="1.18886">
        <ele>310.7681018433</ele>
        <time>2021-07-17T18:09:59.936Z</time>
      </trkpt>
      <trkpt lat="44.92418" lon="1.18908">
        <ele>310.95720905783</ele>
        <time>2021-07-17T18:10:13.389Z</time>
      </trkpt>
      <trkpt lat="44.92418" lon="1.18978">
        <ele>311.2061065226</ele>
        <time>2021-07-17T18:10:26.852Z</time>
      </trkpt>
      <trkpt lat="44.92415" lon="1.18994">
        <ele>311.37954561305</ele>
        <time>2021-07-17T18:10:40.317Z</time>
      </trkpt>
      <trkpt lat="44.92404" lon="1.1903">
        <ele>311.56153964827</ele>
        <time>2021-07-17T18:10:53.788Z</time>
      </trkpt>
      <trkpt lat="44.9239" lon="1.19042">
        <ele>311.78415157864</ele>
        <time>2021-07-17T18:11:07.262Z</time>
      </trkpt>
      <trkpt lat="44.92378" lon="1.19048">
        <ele>312.0136388527</ele>
        <time>2021-07-17T18:11:20.738Z</time>
      </trkpt>
      <trkpt lat="44.9239" lon="1.19206">
        <ele>312.62969267555</ele>
        <time>2021-07-17T18:11:34.237Z</time>
      </trkpt>
      <trkpt lat="44.92392" lon="1.19237">
        <ele>312.8222867046</ele>
        <time>2021-07-17T18:11:47.740Z</time>
      </trkpt>
      <trkpt lat="44.92396" lon="1.19297">
        <ele>313.0126142175</ele>
        <time>2021-07-17T18:12:01.252Z</time>
      </trkpt>
      <trkpt lat="44.92405" lon="1.19396">
        <ele>313.19038190789</ele>
        <time>2021-07-17T18:12:14.778Z</time>
      </trkpt>
      <trkpt lat="44.92419" lon="1.19467">
        <ele>313.05173903714</ele>
        <time>2021-07-17T18:12:28.315Z</time>
      </trkpt>
      <trkpt lat="44.92428" lon="1.19498">
        <ele>312.88179415287</ele>
        <time>2021-07-17T18:12:41.856Z</time>
      </trkpt>
      <trkpt lat="44.92436" lon="1.19511">
        <ele>312.62193653703</ele>
        <time>2021-07-17T18:12:55.400Z</time>
      </trkpt>
      <trkpt lat="44.92444" lon="1.19516">
        <ele>312.23897020785</ele>
        <time>2021-07-17T18:13:08.946Z</time>
      </trkpt>
      <trkpt lat="44.92463" lon="1.19553">
        <ele>311.83918714146</ele>
        <time>2021-07-17T18:13:22.498Z</time>
      </trkpt>
      <trkpt lat="44.92469" lon="1.19581">
        <ele>311.23704495408</ele>
        <time>2021-07-17T18:13:36.054Z</time>
      </trkpt>
      <trkpt lat="44.92472" lon="1.196">
        <ele>310.42884741078</ele>
        <time>2021-07-17T18:13:49.613Z</time>
      </trkpt>
      <trkpt lat="44.92461" lon="1.19731">
        <ele>309.17944113738</ele>
        <time>2021-07-17T18:14:03.191Z</time>
      </trkpt>
      <trkpt lat="44.92449" lon="1.19844">
        <ele>308.122863326</ele>
        <time>2021-07-17T18:14:16.785Z</time>
      </trkpt>
      <trkpt lat="44.92447" lon="1.19881">
        <ele>306.77973155648</ele>
        <time>2021-07-17T18:14:30.384Z</time>
      </trkpt>
      <trkpt lat="44.92433" lon="1.1989">
        <ele>305.22631744096</ele>
        <time>2021-07-17T18:14:43.986Z</time>
      </trkpt>
      <trkpt lat="44.9243" lon="1.19922">
        <ele>303.41838615441</ele>
        <time>2021-07-17T18:14:57.593Z</time>
      </trkpt>
      <trkpt lat="44.92417" lon="1.1994">
        <ele>301.44267507959</ele>
        <time>2021-07-17T18:15:11.204Z</time>
      </trkpt>
      <trkpt lat="44.92377" lon="1.19993">
        <ele>299.14022621569</ele>
        <time>2021-07-17T18:15:24.826Z</time>
      </trkpt>
      <trkpt lat="44.9238" lon="1.19998">
        <ele>297.01678336225</ele>
        <time>2021-07-17T18:15:38.449Z</time>
      </trkpt>
      <trkpt lat="44.92414" lon="1.20045">
        <ele>294.94588372412</ele>
        <time>2021-07-17T18:15:52.081Z</time>
      </trkpt>
      <trkpt lat="44.92452" lon="1.20088">
        <ele>292.64562385743</ele>
        <time>2021-07-17T18:16:05.723Z</time>
      </trkpt>
      <trkpt lat="44.9249" lon="1.20145">
        <ele>289.98617003523</ele>
        <time>2021-07-17T18:16:19.376Z</time>
      </trkpt>
      <trkpt lat="44.92503" lon="1.20168">
        <ele>287.28687486375</ele>
        <time>2021-07-17T18:16:33.033Z</time>
      </trkpt>
      <trkpt lat="44.92417" lon="1.2038">
        <ele>283.59526524347</ele>
        <time>2021-07-17T18:16:46.725Z</time>
      </trkpt>
      <trkpt lat="44.92412" lon="1.20396">
        <ele>280.69052963519</ele>
        <time>2021-07-17T18:17:00.419Z</time>
      </trkpt>
      <trkpt lat="44.92399" lon="1.20416">
        <ele>277.68604801741</ele>
        <time>2021-07-17T18:17:14.117Z</time>
      </trkpt>
      <trkpt lat="44.92387" lon="1.20429">
        <ele>274.72072751096</ele>
        <time>2021-07-17T18:17:27.818Z</time>
      </trkpt>
      <trkpt lat="44.92376" lon="1.20436">
        <ele>271.77524077251</ele>
        <time>2021-07-17T18:17:41.522Z</time>
      </trkpt>
      <trkpt lat="44.92356" lon="1.2045">
        <ele>268.75336679056</ele>
        <time>2021-07-17T18:17:55.230Z</time>
      </trkpt>
      <trkpt lat="44.9234" lon="1.20472">
        <ele>265.77672982849</ele>
        <time>2021-07-17T18:18:08.943Z</time>
      </trkpt>
      <trkpt lat="44.92322" lon="1.20514">
        <ele>262.83598298167</ele>
        <time>2021-07-17T18:18:22.663Z</time>
      </trkpt>
      <trkpt lat="44.92298" lon="1.20588">
        <ele>257.41854348673</ele>
        <time>2021-07-17T18:18:36.394Z</time>
      </trkpt>
      <trkpt lat="44.92281" lon="1.20626">
        <ele>254.88617124876</ele>
        <time>2021-07-17T18:18:50.131Z</time>
      </trkpt>
      <trkpt lat="44.9228" lon="1.20636">
        <ele>252.58540408036</ele>
        <time>2021-07-17T18:19:03.870Z</time>
      </trkpt>
      <trkpt lat="44.92271" lon="1.2064">
        <ele>250.40821182583</ele>
        <time>2021-07-17T18:19:17.611Z</time>
      </trkpt>
      <trkpt lat="44.92257" lon="1.20647">
        <ele>248.32846857245</ele>
        <time>2021-07-17T18:19:31.355Z</time>
      </trkpt>
      <trkpt lat="44.92231" lon="1.2066">
        <ele>246.37833383238</ele>
        <time>2021-07-17T18:19:45.104Z</time>
      </trkpt>
      <trkpt lat="44.9222" lon="1.20666">
        <ele>244.66220252394</ele>
        <time>2021-07-17T18:19:58.856Z</time>
      </trkpt>
      <trkpt lat="44.92211" lon="1.20671">
        <ele>243.12978729301</ele>
        <time>2021-07-17T18:20:12.610Z</time>
      </trkpt>
      <trkpt lat="44.92194" lon="1.20675">
        <ele>241.81686856749</ele>
        <time>2021-07-17T18:20:26.367Z</time>
      </trkpt>
      <trkpt lat="44.92184" lon="1.20675">
        <ele>240.66531099173</ele>
        <time>2021-07-17T18:20:40.126Z</time>
      </trkpt>
      <trkpt lat="44.92172" lon="1.20692">
        <ele>239.71374225377</ele>
        <time>2021-07-17T18:20:53.888Z</time>
      </trkpt>
      <trkpt lat="44.92146" lon="1.20711">
        <ele>238.9201108829</ele>
        <time>2021-07-17T18:21:07.656Z</time>
      </trkpt>
      <trkpt lat="44.92142" lon="1.20713">
        <ele>238.27538864215</ele>
        <time>2021-07-17T18:21:21.425Z</time>
      </trkpt>
      <trkpt lat="44.92134" lon="1.20717">
        <ele>237.8119667424</ele>
        <time>2021-07-17T18:21:35.196Z</time>
      </trkpt>
      <trkpt lat="44.92061" lon="1.20718">
        <ele>237.44708102053</ele>
        <time>2021-07-17T18:21:48.981Z</time>
      </trkpt>
      <trkpt lat="44.92059" lon="1.20719">
        <ele>237.30131266209</ele>
        <time>2021-07-17T18:22:02.767Z</time>
      </trkpt>
      <trkpt lat="44.92033" lon="1.20721">
        <ele>237.31628056302</ele>
        <time>2021-07-17T18:22:16.558Z</time>
      </trkpt>
      <trkpt lat="44.92007" lon="1.20729">
        <ele>237.54297694021</ele>
        <time>2021-07-17T18:22:30.354Z</time>
      </trkpt>
      <trkpt lat="44.91994" lon="1.20737">
        <ele>237.89709336135</ele>
        <time>2021-07-17T18:22:44.153Z</time>
      </trkpt>
      <trkpt lat="44.91982" lon="1.20749">
        <ele>238.3650434727</ele>
        <time>2021-07-17T18:22:57.955Z</time>
      </trkpt>
      <trkpt lat="44.91978" lon="1.20753">
        <ele>238.98698121184</ele>
        <time>2021-07-17T18:23:11.758Z</time>
      </trkpt>
      <trkpt lat="44.9191" lon="1.20821">
        <ele>239.89493915757</ele>
        <time>2021-07-17T18:23:25.578Z</time>
      </trkpt>
      <trkpt lat="44.91844" lon="1.20897">
        <ele>240.79279273487</ele>
        <time>2021-07-17T18:23:39.415Z</time>
      </trkpt>
      <trkpt lat="44.91825" lon="1.20914">
        <ele>241.84442390734</ele>
        <time>2021-07-17T18:23:53.256Z</time>
      </trkpt>
      <trkpt lat="44.91803" lon="1.20928">
        <ele>243.05865177636</ele>
        <time>2021-07-17T18:24:07.102Z</time>
      </trkpt>
      <trkpt lat="44.91788" lon="1.20934">
        <ele>244.38641448894</ele>
        <time>2021-07-17T18:24:20.951Z</time>
      </trkpt>
      <trkpt lat="44.91785" lon="1.20934">
        <ele>245.76977621719</ele>
        <time>2021-07-17T18:24:34.801Z</time>
      </trkpt>
      <trkpt lat="44.91782" lon="1.20935">
        <ele>247.25821534016</ele>
        <time>2021-07-17T18:24:48.652Z</time>
      </trkpt>
      <trkpt lat="44.91778" lon="1.20935">
        <ele>248.82903029656</ele>
        <time>2021-07-17T18:25:02.503Z</time>
      </trkpt>
      <trkpt lat="44.91761" lon="1.20938">
        <ele>250.49721074591</ele>
        <time>2021-07-17T18:25:16.358Z</time>
      </trkpt>
      <trkpt lat="44.91696" lon="1.20942">
        <ele>252.38682630343</ele>
        <time>2021-07-17T18:25:30.226Z</time>
      </trkpt>
      <trkpt lat="44.91675" lon="1.20949">
        <ele>254.20773200069</ele>
        <time>2021-07-17T18:25:44.098Z</time>
      </trkpt>
      <trkpt lat="44.91655" lon="1.20961">
        <ele>256.0695321338</ele>
        <time>2021-07-17T18:25:57.974Z</time>
      </trkpt>
      <trkpt lat="44.91604" lon="1.21013">
        <ele>258.18636307164</ele>
        <time>2021-07-17T18:26:11.863Z</time>
      </trkpt>
      <trkpt lat="44.91577" lon="1.21056">
        <ele>260.08554049499</ele>
        <time>2021-07-17T18:26:25.760Z</time>
      </trkpt>
      <trkpt lat="44.91543" lon="1.21092">
        <ele>261.87366714833</ele>
        <time>2021-07-17T18:26:39.666Z</time>
      </trkpt>
      <trkpt lat="44.91506" lon="1.2114">
        <ele>263.6496905364</ele>
        <time>2021-07-17T18:26:53.582Z</time>
      </trkpt>
      <trkpt lat="44.91491" lon="1.2115">
        <ele>265.51135596517</ele>
        <time>2021-07-17T18:27:07.501Z</time>
      </trkpt>
      <trkpt lat="44.91441" lon="1.21173">
        <ele>267.40151328447</ele>
        <time>2021-07-17T18:27:21.431Z</time>
      </trkpt>
      <trkpt lat="44.91418" lon="1.21181">
        <ele>269.29175794339</ele>
        <time>2021-07-17T18:27:35.365Z</time>
      </trkpt>
      <trkpt lat="44.9137" lon="1.2119">
        <ele>271.39392738318</ele>
        <time>2021-07-17T18:27:49.309Z</time>
      </trkpt>
      <trkpt lat="44.91327" lon="1.21206">
        <ele>273.41670162568</ele>
        <time>2021-07-17T18:28:03.262Z</time>
      </trkpt>
      <trkpt lat="44.91321" lon="1.21209">
        <ele>275.1847965471</ele>
        <time>2021-07-17T18:28:17.216Z</time>
      </trkpt>
      <trkpt lat="44.91315" lon="1.21211">
        <ele>276.85837410031</ele>
        <time>2021-07-17T18:28:31.171Z</time>
      </trkpt>
      <trkpt lat="44.91224" lon="1.21247">
        <ele>278.5713016544</ele>
        <time>2021-07-17T18:28:45.145Z</time>
      </trkpt>
      <trkpt lat="44.91206" lon="1.21258">
        <ele>280.03310929644</ele>
        <time>2021-07-17T18:28:59.123Z</time>
      </trkpt>
      <trkpt lat="44.9117" lon="1.21281">
        <ele>281.54831852573</ele>
        <time>2021-07-17T18:29:13.109Z</time>
      </trkpt>
      <trkpt lat="44.91143" lon="1.21301">
        <ele>282.82970028091</ele>
        <time>2021-07-17T18:29:27.101Z</time>
      </trkpt>
      <trkpt lat="44.91132" lon="1.21315">
        <ele>283.87953432875</ele>
        <time>2021-07-17T18:29:41.096Z</time>
      </trkpt>
      <trkpt lat="44.91135" lon="1.21343">
        <ele>284.73900154128</ele>
        <time>2021-07-17T18:29:55.095Z</time>
      </trkpt>
      <trkpt lat="44.91146" lon="1.21411">
        <ele>285.35971374569</ele>
        <time>2021-07-17T18:30:09.104Z</time>
      </trkpt>
      <trkpt lat="44.9115" lon="1.2142">
        <ele>285.79854128567</ele>
        <time>2021-07-17T18:30:23.115Z</time>
      </trkpt>
      <trkpt lat="44.9114" lon="1.21427">
        <ele>286.09716588858</ele>
        <time>2021-07-17T18:30:37.128Z</time>
      </trkpt>
      <trkpt lat="44.91133" lon="1.21429">
        <ele>286.19310974944</ele>
        <time>2021-07-17T18:30:51.142Z</time>
      </trkpt>
      <trkpt lat="44.91119" lon="1.21436">
        <ele>286.06401012314</ele>
        <time>2021-07-17T18:31:05.159Z</time>
      </trkpt>
      <trkpt lat="44.91088" lon="1.21447">
        <ele>285.62339764984</ele>
        <time>2021-07-17T18:31:19.183Z</time>
      </trkpt>
      <trkpt lat="44.91084" lon="1.21444">
        <ele>285.11149047789</ele>
        <time>2021-07-17T18:31:33.208Z</time>
      </trkpt>
      <trkpt lat="44.9107" lon="1.21425">
        <ele>284.44270467129</ele>
        <time>2021-07-17T18:31:47.237Z</time>
      </trkpt>
      <trkpt lat="44.91065" lon="1.21417">
        <ele>283.52229822164</ele>
        <time>2021-07-17T18:32:01.267Z</time>
      </trkpt>
      <trkpt lat="44.9106" lon="1.21416">
        <ele>282.34950838559</ele>
        <time>2021-07-17T18:32:15.298Z</time>
      </trkpt>
      <trkpt lat="44.91053" lon="1.21421">
        <ele>280.92802840532</ele>
        <time>2021-07-17T18:32:29.331Z</time>
      </trkpt>
      <trkpt lat="44.91028" lon="1.21445">
        <ele>279.14223475792</ele>
        <time>2021-07-17T18:32:43.370Z</time>
      </trkpt>
      <trkpt lat="44.91009" lon="1.21472">
        <ele>277.19189602803</ele>
        <time>2021-07-17T18:32:57.414Z</time>
      </trkpt>
      <trkpt lat="44.91004" lon="1.2148">
        <ele>275.17087031469</ele>
        <time>2021-07-17T18:33:11.460Z</time>
      </trkpt>
      <trkpt lat="44.90997" lon="1.2149">
        <ele>273.01573152744</ele>
        <time>2021-07-17T18:33:25.508Z</time>
      </trkpt>
      <trkpt lat="44.90986" lon="1.21503">
        <ele>270.63923973987</ele>
        <time>2021-07-17T18:33:39.559Z</time>
      </trkpt>
      <trkpt lat="44.90978" lon="1.21512">
        <ele>268.09064540165</ele>
        <time>2021-07-17T18:33:53.612Z</time>
      </trkpt>
      <trkpt lat="44.90974" lon="1.21511">
        <ele>265.41254046958</ele>
        <time>2021-07-17T18:34:07.665Z</time>
      </trkpt>
      <trkpt lat="44.90961" lon="1.21509">
        <ele>262.55159917743</ele>
        <time>2021-07-17T18:34:21.721Z</time>
      </trkpt>
      <trkpt lat="44.90952" lon="1.2151">
        <ele>259.56984309268</ele>
        <time>2021-07-17T18:34:35.779Z</time>
      </trkpt>
      <trkpt lat="44.90917" lon="1.21529">
        <ele>256.38972206516</ele>
        <time>2021-07-17T18:34:49.844Z</time>
      </trkpt>
      <trkpt lat="44.90905" lon="1.21532">
        <ele>253.15904575635</ele>
        <time>2021-07-17T18:35:03.912Z</time>
      </trkpt>
      <trkpt lat="44.90855" lon="1.21523">
        <ele>249.37922586425</ele>
        <time>2021-07-17T18:35:17.990Z</time>
      </trkpt>
      <trkpt lat="44.90837" lon="1.21532">
        <ele>245.84345034489</ele>
        <time>2021-07-17T18:35:32.072Z</time>
      </trkpt>
      <trkpt lat="44.90818" lon="1.21553">
        <ele>242.34809842112</ele>
        <time>2021-07-17T18:35:46.158Z</time>
      </trkpt>
      <trkpt lat="44.90794" lon="1.2157">
        <ele>238.82435456065</ele>
        <time>2021-07-17T18:36:00.250Z</time>
      </trkpt>
      <trkpt lat="44.90781" lon="1.21574">
        <ele>235.26944134779</ele>
        <time>2021-07-17T18:36:14.345Z</time>
      </trkpt>
      <trkpt lat="44.90767" lon="1.21569">
        <ele>231.59648047961</ele>
        <time>2021-07-17T18:36:28.442Z</time>
      </trkpt>
      <trkpt lat="44.90739" lon="1.21554">
        <ele>227.62795558664</ele>
        <time>2021-07-17T18:36:42.545Z</time>
      </trkpt>
      <trkpt lat="44.90735" lon="1.21551">
        <ele>223.99742112014</ele>
        <time>2021-07-17T18:36:56.649Z</time>
      </trkpt>
      <trkpt lat="44.90687" lon="1.21522">
        <ele>220.03338209998</ele>
        <time>2021-07-17T18:37:10.764Z</time>
      </trkpt>
      <trkpt lat="44.90639" lon="1.21489">
        <ele>216.32328372133</ele>
        <time>2021-07-17T18:37:24.889Z</time>
      </trkpt>
      <trkpt lat="44.9062" lon="1.21478">
        <ele>212.74488393293</ele>
        <time>2021-07-17T18:37:39.019Z</time>
      </trkpt>
      <trkpt lat="44.90597" lon="1.21473">
        <ele>209.20673126406</ele>
        <time>2021-07-17T18:37:53.153Z</time>
      </trkpt>
      <trkpt lat="44.90591" lon="1.21473">
        <ele>205.84014617092</ele>
        <time>2021-07-17T18:38:07.288Z</time>
      </trkpt>
      <trkpt lat="44.90585" lon="1.21473">
        <ele>202.55202542892</ele>
        <time>2021-07-17T18:38:21.425Z</time>
      </trkpt>
      <trkpt lat="44.90552" lon="1.2147">
        <ele>199.1563630309</ele>
        <time>2021-07-17T18:38:35.568Z</time>
      </trkpt>
      <trkpt lat="44.90528" lon="1.21472">
        <ele>195.9654567938</ele>
        <time>2021-07-17T18:38:49.716Z</time>
      </trkpt>
      <trkpt lat="44.90476" lon="1.21502">
        <ele>192.84136588216</ele>
        <time>2021-07-17T18:39:03.875Z</time>
      </trkpt>
      <trkpt lat="44.90467" lon="1.21505">
        <ele>189.93597197935</ele>
        <time>2021-07-17T18:39:18.036Z</time>
      </trkpt>
      <trkpt lat="44.90459" lon="1.21505">
        <ele>187.14303622218</ele>
        <time>2021-07-17T18:39:32.199Z</time>
      </trkpt>
      <trkpt lat="44.90457" lon="1.21504">
        <ele>184.49271601945</ele>
        <time>2021-07-17T18:39:46.362Z</time>
      </trkpt>
      <trkpt lat="44.90449" lon="1.21501">
        <ele>181.9496023656</ele>
        <time>2021-07-17T18:40:00.527Z</time>
      </trkpt>
      <trkpt lat="44.90423" lon="1.2149">
        <ele>179.47763590012</ele>
        <time>2021-07-17T18:40:14.697Z</time>
      </trkpt>
      <trkpt lat="44.90381" lon="1.21476">
        <ele>177.04877659568</ele>
        <time>2021-07-17T18:40:28.876Z</time>
      </trkpt>
      <trkpt lat="44.90352" lon="1.21468">
        <ele>174.81834887043</ele>
        <time>2021-07-17T18:40:43.061Z</time>
      </trkpt>
      <trkpt lat="44.90343" lon="1.21473">
        <ele>172.78383584576</ele>
        <time>2021-07-17T18:40:57.248Z</time>
      </trkpt>
      <trkpt lat="44.9033" lon="1.21459">
        <ele>170.80494067667</ele>
        <time>2021-07-17T18:41:11.438Z</time>
      </trkpt>
      <trkpt lat="44.90299" lon="1.21427">
        <ele>168.80386983319</ele>
        <time>2021-07-17T18:41:25.636Z</time>
      </trkpt>
      <trkpt lat="44.90286" lon="1.21421">
        <ele>167.05038109221</ele>
        <time>2021-07-17T18:41:39.836Z</time>
      </trkpt>
      <trkpt lat="44.90268" lon="1.21417">
        <ele>165.39135986041</ele>
        <time>2021-07-17T18:41:54.040Z</time>
      </trkpt>
      <trkpt lat="44.90228" lon="1.21421">
        <ele>163.73503753014</ele>
        <time>2021-07-17T18:42:08.252Z</time>
      </trkpt>
      <trkpt lat="44.90213" lon="1.2142">
        <ele>162.34445710893</ele>
        <time>2021-07-17T18:42:22.467Z</time>
      </trkpt>
      <trkpt lat="44.90201" lon="1.21421">
        <ele>161.10170695195</ele>
        <time>2021-07-17T18:42:36.684Z</time>
      </trkpt>
      <trkpt lat="44.90182" lon="1.21432">
        <ele>160.05763460299</ele>
        <time>2021-07-17T18:42:50.906Z</time>
      </trkpt>
      <trkpt lat="44.90173" lon="1.21439">
        <ele>159.11486680861</ele>
        <time>2021-07-17T18:43:05.130Z</time>
      </trkpt>
      <trkpt lat="44.90168" lon="1.21439">
        <ele>158.24359005969</ele>
        <time>2021-07-17T18:43:19.355Z</time>
      </trkpt>
      <trkpt lat="44.90154" lon="1.21436">
        <ele>157.45734567446</ele>
        <time>2021-07-17T18:43:33.582Z</time>
      </trkpt>
      <trkpt lat="44.90135" lon="1.21423">
        <ele>156.74878909948</ele>
        <time>2021-07-17T18:43:47.814Z</time>
      </trkpt>
      <trkpt lat="44.90127" lon="1.2142">
        <ele>156.13655789948</ele>
        <time>2021-07-17T18:44:02.047Z</time>
      </trkpt>
      <trkpt lat="44.9011" lon="1.21421">
        <ele>155.60492985209</ele>
        <time>2021-07-17T18:44:16.284Z</time>
      </trkpt>
      <trkpt lat="44.90067" lon="1.21432">
        <ele>155.14963371632</ele>
        <time>2021-07-17T18:44:30.530Z</time>
      </trkpt>
      <trkpt lat="44.90057" lon="1.21433">
        <ele>154.71539878903</ele>
        <time>2021-07-17T18:44:44.778Z</time>
      </trkpt>
      <trkpt lat="44.90045" lon="1.21431">
        <ele>154.31799847852</ele>
        <time>2021-07-17T18:44:59.028Z</time>
      </trkpt>
      <trkpt lat="44.90032" lon="1.21424">
        <ele>153.97025095835</ele>
        <time>2021-07-17T18:45:13.281Z</time>
      </trkpt>
      <trkpt lat="44.90021" lon="1.21419">
        <ele>153.68877864132</ele>
        <time>2021-07-17T18:45:27.536Z</time>
      </trkpt>
      <trkpt lat="44.90017" lon="1.21418">
        <ele>153.45425873377</ele>
        <time>2021-07-17T18:45:41.792Z</time>
      </trkpt>
      <trkpt lat="44.90011" lon="1.21417">
        <ele>153.24780472824</ele>
        <time>2021-07-17T18:45:56.049Z</time>
      </trkpt>
      <trkpt lat="44.90004" lon="1.21417">
        <ele>153.06668097447</ele>
        <time>2021-07-17T18:46:10.307Z</time>
      </trkpt>
      <trkpt lat="44.89984" lon="1.21418">
        <ele>152.90528388018</ele>
        <time>2021-07-17T18:46:24.569Z</time>
      </trkpt>
      <trkpt lat="44.8997" lon="1.21422">
        <ele>152.74357149496</ele>
        <time>2021-07-17T18:46:38.834Z</time>
      </trkpt>
      <trkpt lat="44.89948" lon="1.21433">
        <ele>152.64742903021</ele>
        <time>2021-07-17T18:46:53.104Z</time>
      </trkpt>
      <trkpt lat="44.89921" lon="1.21454">
        <ele>152.64117958592</ele>
        <time>2021-07-17T18:47:07.380Z</time>
      </trkpt>
      <trkpt lat="44.89911" lon="1.21458">
        <ele>152.51819713042</ele>
        <time>2021-07-17T18:47:21.658Z</time>
      </trkpt>
      <trkpt lat="44.89908" lon="1.21457">
        <ele>152.35988462913</ele>
        <time>2021-07-17T18:47:35.937Z</time>
      </trkpt>
      <trkpt lat="44.89897" lon="1.21452">
        <ele>152.17017315006</ele>
        <time>2021-07-17T18:47:50.218Z</time>
      </trkpt>
      <trkpt lat="44.89838" lon="1.21414">
        <ele>151.71604426403</ele>
        <time>2021-07-17T18:48:04.512Z</time>
      </trkpt>
      <trkpt lat="44.89826" lon="1.21411">
        <ele>151.48869762624</ele>
        <time>2021-07-17T18:48:18.809Z</time>
      </trkpt>
      <trkpt lat="44.89819" lon="1.21412">
        <ele>151.28895901998</ele>
        <time>2021-07-17T18:48:33.107Z</time>
      </trkpt>
      <trkpt lat="44.89813" lon="1.21415">
        <ele>151.07859778869</ele>
        <time>2021-07-17T18:48:47.406Z</time>
      </trkpt>
      <trkpt lat="44.89791" lon="1.21431">
        <ele>150.81479934444</ele>
        <time>2021-07-17T18:49:01.710Z</time>
      </trkpt>
      <trkpt lat="44.89789" lon="1.21436">
        <ele>150.62947909236</ele>
        <time>2021-07-17T18:49:16.015Z</time>
      </trkpt>
      <trkpt lat="44.89778" lon="1.2145">
        <ele>150.43535756852</ele>
        <time>2021-07-17T18:49:30.323Z</time>
      </trkpt>
      <trkpt lat="44.89755" lon="1.21477">
        <ele>150.20385970701</ele>
        <time>2021-07-17T18:49:44.637Z</time>
      </trkpt>
      <trkpt lat="44.89749" lon="1.21469">
        <ele>150.0221283018</ele>
        <time>2021-07-17T18:49:58.953Z</time>
      </trkpt>
      <trkpt lat="44.89733" lon="1.21458">
        <ele>149.86574967698</ele>
        <time>2021-07-17T18:50:13.272Z</time>
      </trkpt>
      <trkpt lat="44.89723" lon="1.21456">
        <ele>149.73741070392</ele>
        <time>2021-07-17T18:50:27.593Z</time>
      </trkpt>
      <trkpt lat="44.8972" lon="1.21456">
        <ele>149.60881684309</ele>
        <time>2021-07-17T18:50:41.915Z</time>
      </trkpt>
      <trkpt lat="44.89713" lon="1.21456">
        <ele>149.50286736599</ele>
        <time>2021-07-17T18:50:56.238Z</time>
      </trkpt>
      <trkpt lat="44.89688" lon="1.21463">
        <ele>149.37746813211</ele>
        <time>2021-07-17T18:51:10.566Z</time>
      </trkpt>
      <trkpt lat="44.89661" lon="1.21474">
        <ele>149.21334891939</ele>
        <time>2021-07-17T18:51:24.900Z</time>
      </trkpt>
      <trkpt lat="44.89605" lon="1.21486">
        <ele>149.1157361423</ele>
        <time>2021-07-17T18:51:39.245Z</time>
      </trkpt>
      <trkpt lat="44.89591" lon="1.21488">
        <ele>149.08864229668</ele>
        <time>2021-07-17T18:51:53.593Z</time>
      </trkpt>
      <trkpt lat="44.89583" lon="1.2149">
        <ele>149.11258608087</ele>
        <time>2021-07-17T18:52:07.943Z</time>
      </trkpt>
      <trkpt lat="44.89584" lon="1.21495">
        <ele>149.13949982607</ele>
        <time>2021-07-17T18:52:22.293Z</time>
      </trkpt>
      <trkpt lat="44.89595" lon="1.21544">
        <ele>149.21146469495</ele>
        <time>2021-07-17T18:52:36.651Z</time>
      </trkpt>
      <trkpt lat="44.89595" lon="1.21559">
        <ele>149.35178388161</ele>
        <time>2021-07-17T18:52:51.011Z</time>
      </trkpt>
      <trkpt lat="44.89594" lon="1.21567">
        <ele>149.50880267876</ele>
        <time>2021-07-17T18:53:05.372Z</time>
      </trkpt>
      <trkpt lat="44.8959" lon="1.21574">
        <ele>149.68992326171</ele>
        <time>2021-07-17T18:53:19.734Z</time>
      </trkpt>
      <trkpt lat="44.89588" lon="1.21577">
        <ele>149.88458075289</ele>
        <time>2021-07-17T18:53:34.097Z</time>
      </trkpt>
      <trkpt lat="44.89561" lon="1.21606">
        <ele>150.08058933331</ele>
        <time>2021-07-17T18:53:48.467Z</time>
      </trkpt>
      <trkpt lat="44.89538" lon="1.21642">
        <ele>150.29402504108</ele>
        <time>2021-07-17T18:54:02.844Z</time>
      </trkpt>
      <trkpt lat="44.89532" lon="1.21644">
        <ele>150.60381408772</ele>
        <time>2021-07-17T18:54:17.222Z</time>
      </trkpt>
      <trkpt lat="44.89513" lon="1.2164">
        <ele>150.92799259608</ele>
        <time>2021-07-17T18:54:31.604Z</time>
      </trkpt>
      <trkpt lat="44.89491" lon="1.2166">
        <ele>151.30231755909</ele>
        <time>2021-07-17T18:54:45.991Z</time>
      </trkpt>
      <trkpt lat="44.8946" lon="1.21687">
        <ele>151.70922988704</ele>
        <time>2021-07-17T18:55:00.385Z</time>
      </trkpt>
      <trkpt lat="44.89451" lon="1.21692">
        <ele>152.14022892697</ele>
        <time>2021-07-17T18:55:14.781Z</time>
      </trkpt>
      <trkpt lat="44.89431" lon="1.2169">
        <ele>152.5751127984</ele>
        <time>2021-07-17T18:55:29.181Z</time>
      </trkpt>
      <trkpt lat="44.89372" lon="1.21684">
        <ele>153.05746671843</ele>
        <time>2021-07-17T18:55:43.593Z</time>
      </trkpt>
      <trkpt lat="44.8936" lon="1.21683">
        <ele>153.60156404173</ele>
        <time>2021-07-17T18:55:58.007Z</time>
      </trkpt>
      <trkpt lat="44.89289" lon="1.21675">
        <ele>154.1997388193</ele>
        <time>2021-07-17T18:56:12.436Z</time>
      </trkpt>
      <trkpt lat="44.89281" lon="1.21669">
        <ele>154.74679176972</ele>
        <time>2021-07-17T18:56:26.866Z</time>
      </trkpt>
      <trkpt lat="44.8928" lon="1.2168">
        <ele>155.33175352552</ele>
        <time>2021-07-17T18:56:41.298Z</time>
      </trkpt>
      <trkpt lat="44.89277" lon="1.21738">
        <ele>156.09720092644</ele>
        <time>2021-07-17T18:56:55.738Z</time>
      </trkpt>
      <trkpt lat="44.89273" lon="1.21749">
        <ele>156.68673921029</ele>
        <time>2021-07-17T18:57:10.180Z</time>
      </trkpt>
      <trkpt lat="44.89268" lon="1.21752">
        <ele>157.23069489874</ele>
        <time>2021-07-17T18:57:24.623Z</time>
      </trkpt>
      <trkpt lat="44.89259" lon="1.21751">
        <ele>157.7458468904</ele>
        <time>2021-07-17T18:57:39.068Z</time>
      </trkpt>
      <trkpt lat="44.89252" lon="1.21751">
        <ele>158.25033512706</ele>
        <time>2021-07-17T18:57:53.514Z</time>
      </trkpt>
      <trkpt lat="44.89233" lon="1.21748">
        <ele>158.75407156752</ele>
        <time>2021-07-17T18:58:07.964Z</time>
      </trkpt>
      <trkpt lat="44.89228" lon="1.21748">
        <ele>159.18919563781</ele>
        <time>2021-07-17T18:58:22.415Z</time>
      </trkpt>
      <trkpt lat="44.89222" lon="1.21747">
        <ele>159.5823545035</ele>
        <time>2021-07-17T18:58:36.867Z</time>
      </trkpt>
      <trkpt lat="44.89219" lon="1.21751">
        <ele>159.91554467813</ele>
        <time>2021-07-17T18:58:51.320Z</time>
      </trkpt>
      <trkpt lat="44.89218" lon="1.21755">
        <ele>160.17584468655</ele>
        <time>2021-07-17T18:59:05.774Z</time>
      </trkpt>
      <trkpt lat="44.89221" lon="1.21761">
        <ele>160.34558628809</ele>
        <time>2021-07-17T18:59:20.229Z</time>
      </trkpt>
      <trkpt lat="44.89232" lon="1.21777">
        <ele>160.43910202917</ele>
        <time>2021-07-17T18:59:34.687Z</time>
      </trkpt>
      <trkpt lat="44.89235" lon="1.21791">
        <ele>160.54223448076</ele>
        <time>2021-07-17T18:59:49.147Z</time>
      </trkpt>
      <trkpt lat="44.89231" lon="1.21804">
        <ele>160.59806793742</ele>
        <time>2021-07-17T19:00:03.609Z</time>
      </trkpt>
      <trkpt lat="44.89227" lon="1.21807">
        <ele>160.53622667246</ele>
        <time>2021-07-17T19:00:18.072Z</time>
      </trkpt>
      <trkpt lat="44.8922" lon="1.21815">
        <ele>160.43718549701</ele>
        <time>2021-07-17T19:00:32.537Z</time>
      </trkpt>
      <trkpt lat="44.89204" lon="1.21828">
        <ele>160.30563812901</ele>
        <time>2021-07-17T19:00:47.006Z</time>
      </trkpt>
      <trkpt lat="44.89197" lon="1.21834">
        <ele>159.9921565417</ele>
        <time>2021-07-17T19:01:01.476Z</time>
      </trkpt>
      <trkpt lat="44.89189" lon="1.21841">
        <ele>159.59786306603</ele>
        <time>2021-07-17T19:01:15.948Z</time>
      </trkpt>
      <trkpt lat="44.89179" lon="1.2185">
        <ele>159.09086891434</ele>
        <time>2021-07-17T19:01:30.422Z</time>
      </trkpt>
      <trkpt lat="44.89176" lon="1.21858">
        <ele>158.58336245878</ele>
        <time>2021-07-17T19:01:44.898Z</time>
      </trkpt>
      <trkpt lat="44.89173" lon="1.21871">
        <ele>158.02627285826</ele>
        <time>2021-07-17T19:01:59.376Z</time>
      </trkpt>
      <trkpt lat="44.89173" lon="1.21875">
        <ele>157.45083620653</ele>
        <time>2021-07-17T19:02:13.854Z</time>
      </trkpt>
      <trkpt lat="44.89142" lon="1.21869">
        <ele>156.54546960023</ele>
        <time>2021-07-17T19:02:28.338Z</time>
      </trkpt>
      <trkpt lat="44.89134" lon="1.21867">
        <ele>155.85629937751</ele>
        <time>2021-07-17T19:02:42.824Z</time>
      </trkpt>
      <trkpt lat="44.89122" lon="1.21868">
        <ele>155.11310514434</ele>
        <time>2021-07-17T19:02:57.313Z</time>
      </trkpt>
      <trkpt lat="44.89119" lon="1.21873">
        <ele>154.43095702858</ele>
        <time>2021-07-17T19:03:11.802Z</time>
      </trkpt>
      <trkpt lat="44.89113" lon="1.21863">
        <ele>153.78482743014</ele>
        <time>2021-07-17T19:03:26.293Z</time>
      </trkpt>
      <trkpt lat="44.89107" lon="1.21853">
        <ele>153.1556017963</ele>
        <time>2021-07-17T19:03:40.786Z</time>
      </trkpt>
      <trkpt lat="44.89102" lon="1.2186">
        <ele>152.50504341803</ele>
        <time>2021-07-17T19:03:55.281Z</time>
      </trkpt>
      <trkpt lat="44.89074" lon="1.21895">
        <ele>151.87408026819</ele>
        <time>2021-07-17T19:04:09.783Z</time>
      </trkpt>
      <trkpt lat="44.89074" lon="1.21902">
        <ele>151.36997328117</ele>
        <time>2021-07-17T19:04:24.286Z</time>
      </trkpt>
      <trkpt lat="44.89066" lon="1.21892">
        <ele>150.86926966285</ele>
        <time>2021-07-17T19:04:38.791Z</time>
      </trkpt>
      <trkpt lat="44.89055" lon="1.21877">
        <ele>150.46384459534</ele>
        <time>2021-07-17T19:04:53.299Z</time>
      </trkpt>
      <trkpt lat="44.89057" lon="1.21874">
        <ele>150.12674720546</ele>
        <time>2021-07-17T19:05:07.808Z</time>
      </trkpt>
      <trkpt lat="44.89058" lon="1.21872">
        <ele>149.87090780055</ele>
        <time>2021-07-17T19:05:22.317Z</time>
      </trkpt>
      <trkpt lat="44.89058" lon="1.21869">
        <ele>149.70223623409</ele>
        <time>2021-07-17T19:05:36.827Z</time>
      </trkpt>
      <trkpt lat="44.89057" lon="1.21866">
        <ele>149.62285204615</ele>
        <time>2021-07-17T19:05:51.337Z</time>
      </trkpt>
      <trkpt lat="44.89056" lon="1.21864">
        <ele>149.63790519676</ele>
        <time>2021-07-17T19:06:05.847Z</time>
      </trkpt>
      <trkpt lat="44.89054" lon="1.21862">
        <ele>149.75185376894</ele>
        <time>2021-07-17T19:06:20.358Z</time>
      </trkpt>
      <trkpt lat="44.89051" lon="1.21864">
        <ele>149.96842870555</ele>
        <time>2021-07-17T19:06:34.870Z</time>
      </trkpt>
      <trkpt lat="44.89049" lon="1.21865">
        <ele>150.29269795917</ele>
        <time>2021-07-17T19:06:49.382Z</time>
      </trkpt>
      <trkpt lat="44.89047" lon="1.21868">
        <ele>150.73053848382</ele>
        <time>2021-07-17T19:07:03.895Z</time>
      </trkpt>
      <trkpt lat="44.89044" lon="1.21869">
        <ele>151.27578059397</ele>
        <time>2021-07-17T19:07:18.408Z</time>
      </trkpt>
      <trkpt lat="44.8904" lon="1.2187">
        <ele>151.93199050359</ele>
        <time>2021-07-17T19:07:32.922Z</time>
      </trkpt>
      <trkpt lat="44.89038" lon="1.21869">
        <ele>152.69168591761</ele>
        <time>2021-07-17T19:07:47.436Z</time>
      </trkpt>
      <trkpt lat="44.89036" lon="1.21871">
        <ele>153.56576394848</ele>
        <time>2021-07-17T19:08:01.951Z</time>
      </trkpt>
      <trkpt lat="44.89031" lon="1.21874">
        <ele>154.55591183322</ele>
        <time>2021-07-17T19:08:16.467Z</time>
      </trkpt>
      <trkpt lat="44.89013" lon="1.21867">
        <ele>155.67283389772</ele>
        <time>2021-07-17T19:08:30.987Z</time>
      </trkpt>
      <trkpt lat="44.88996" lon="1.21863">
        <ele>156.88788961257</ele>
        <time>2021-07-17T19:08:45.510Z</time>
      </trkpt>
      <trkpt lat="44.8899" lon="1.21899">
        <ele>158.23962724627</ele>
        <time>2021-07-17T19:09:00.038Z</time>
      </trkpt>
      <trkpt lat="44.88977" lon="1.21947">
        <ele>159.7955485785</ele>
        <time>2021-07-17T19:09:14.574Z</time>
      </trkpt>
      <trkpt lat="44.88975" lon="1.2197">
        <ele>161.29414729354</ele>
        <time>2021-07-17T19:09:29.113Z</time>
      </trkpt>
      <trkpt lat="44.88962" lon="1.22023">
        <ele>163.05040924293</ele>
        <time>2021-07-17T19:09:43.660Z</time>
      </trkpt>
      <trkpt lat="44.88928" lon="1.22096">
        <ele>164.89492177936</ele>
        <time>2021-07-17T19:09:58.219Z</time>
      </trkpt>
      <trkpt lat="44.88923" lon="1.22118">
        <ele>166.51727326366</ele>
        <time>2021-07-17T19:10:12.782Z</time>
      </trkpt>
      <trkpt lat="44.88922" lon="1.22135">
        <ele>168.1908556656</ele>
        <time>2021-07-17T19:10:27.347Z</time>
      </trkpt>
      <trkpt lat="44.88922" lon="1.22147">
        <ele>169.89545884016</ele>
        <time>2021-07-17T19:10:41.914Z</time>
      </trkpt>
      <trkpt lat="44.88919" lon="1.22167">
        <ele>171.67743935636</ele>
        <time>2021-07-17T19:10:56.484Z</time>
      </trkpt>
      <trkpt lat="44.88916" lon="1.22179">
        <ele>173.43027581034</ele>
        <time>2021-07-17T19:11:11.056Z</time>
      </trkpt>
      <trkpt lat="44.88917" lon="1.22194">
        <ele>175.19497270129</ele>
        <time>2021-07-17T19:11:25.630Z</time>
      </trkpt>
      <trkpt lat="44.88935" lon="1.2224">
        <ele>177.14682445152</ele>
        <time>2021-07-17T19:11:40.211Z</time>
      </trkpt>
      <trkpt lat="44.88935" lon="1.22254">
        <ele>178.88609427483</ele>
        <time>2021-07-17T19:11:54.794Z</time>
      </trkpt>
      <trkpt lat="44.88924" lon="1.22302">
        <ele>180.52626690011</ele>
        <time>2021-07-17T19:12:09.384Z</time>
      </trkpt>
      <trkpt lat="44.88922" lon="1.22307">
        <ele>182.19176635474</ele>
        <time>2021-07-17T19:12:23.975Z</time>
      </trkpt>
      <trkpt lat="44.88917" lon="1.22327">
        <ele>183.8336139893</ele>
        <time>2021-07-17T19:12:38.569Z</time>
      </trkpt>
      <trkpt lat="44.88913" lon="1.22347">
        <ele>185.50644519207</ele>
        <time>2021-07-17T19:12:53.166Z</time>
      </trkpt>
      <trkpt lat="44.88913" lon="1.22374">
        <ele>187.16733999022</ele>
        <time>2021-07-17T19:13:07.767Z</time>
      </trkpt>
      <trkpt lat="44.88916" lon="1.22386">
        <ele>188.83677697449</ele>
        <time>2021-07-17T19:13:22.370Z</time>
      </trkpt>
      <trkpt lat="44.8892" lon="1.22405">
        <ele>190.51701363237</ele>
        <time>2021-07-17T19:13:36.976Z</time>
      </trkpt>
      <trkpt lat="44.88924" lon="1.22435">
        <ele>192.19827769537</ele>
        <time>2021-07-17T19:13:51.586Z</time>
      </trkpt>
      <trkpt lat="44.88926" lon="1.22456">
        <ele>193.90891879128</ele>
        <time>2021-07-17T19:14:06.199Z</time>
      </trkpt>
      <trkpt lat="44.88927" lon="1.22478">
        <ele>195.62838415085</ele>
        <time>2021-07-17T19:14:20.815Z</time>
      </trkpt>
      <trkpt lat="44.88928" lon="1.22505">
        <ele>197.37755807285</ele>
        <time>2021-07-17T19:14:35.435Z</time>
      </trkpt>
      <trkpt lat="44.88927" lon="1.22518">
        <ele>199.03716007586</ele>
        <time>2021-07-17T19:14:50.057Z</time>
      </trkpt>
      <trkpt lat="44.88925" lon="1.22523">
        <ele>200.65075906687</ele>
        <time>2021-07-17T19:15:04.680Z</time>
      </trkpt>
      <trkpt lat="44.88923" lon="1.2253">
        <ele>202.26453414877</ele>
        <time>2021-07-17T19:15:19.304Z</time>
      </trkpt>
      <trkpt lat="44.8892" lon="1.22534">
        <ele>203.86492464589</ele>
        <time>2021-07-17T19:15:33.929Z</time>
      </trkpt>
      <trkpt lat="44.88908" lon="1.22544">
        <ele>205.494017024</ele>
        <time>2021-07-17T19:15:48.556Z</time>
      </trkpt>
      <trkpt lat="44.88902" lon="1.22547">
        <ele>207.11373679613</ele>
        <time>2021-07-17T19:16:03.185Z</time>
      </trkpt>
      <trkpt lat="44.88899" lon="1.22549">
        <ele>208.74586152376</ele>
        <time>2021-07-17T19:16:17.814Z</time>
      </trkpt>
      <trkpt lat="44.88858" lon="1.22565">
        <ele>210.61582865802</ele>
        <time>2021-07-17T19:16:32.452Z</time>
      </trkpt>
      <trkpt lat="44.8885" lon="1.22571">
        <ele>212.27656667321</ele>
        <time>2021-07-17T19:16:47.092Z</time>
      </trkpt>
      <trkpt lat="44.88839" lon="1.22584">
        <ele>213.93252933629</ele>
        <time>2021-07-17T19:17:01.734Z</time>
      </trkpt>
      <trkpt lat="44.88831" lon="1.22599">
        <ele>215.57696899298</ele>
        <time>2021-07-17T19:17:16.379Z</time>
      </trkpt>
      <trkpt lat="44.88823" lon="1.22623">
        <ele>217.23764197604</ele>
        <time>2021-07-17T19:17:31.028Z</time>
      </trkpt>
      <trkpt lat="44.88821" lon="1.22643">
        <ele>218.93532214309</ele>
        <time>2021-07-17T19:17:45.680Z</time>
      </trkpt>
      <trkpt lat="44.8882" lon="1.22668">
        <ele>220.66202709839</ele>
        <time>2021-07-17T19:18:00.335Z</time>
      </trkpt>
      <trkpt lat="44.88821" lon="1.22684">
        <ele>222.36879227766</ele>
        <time>2021-07-17T19:18:14.993Z</time>
      </trkpt>
      <trkpt lat="44.88824" lon="1.22705">
        <ele>224.07180545349</ele>
        <time>2021-07-17T19:18:29.654Z</time>
      </trkpt>
      <trkpt lat="44.88827" lon="1.22715">
        <ele>225.76915437943</ele>
        <time>2021-07-17T19:18:44.316Z</time>
      </trkpt>
      <trkpt lat="44.88832" lon="1.2273">
        <ele>227.52233095231</ele>
        <time>2021-07-17T19:18:58.981Z</time>
      </trkpt>
      <trkpt lat="44.88839" lon="1.22757">
        <ele>229.34036350812</ele>
        <time>2021-07-17T19:19:13.650Z</time>
      </trkpt>
      <trkpt lat="44.88838" lon="1.2279">
        <ele>231.14547997257</ele>
        <time>2021-07-17T19:19:28.323Z</time>
      </trkpt>
      <trkpt lat="44.88828" lon="1.22821">
        <ele>232.8355095591</ele>
        <time>2021-07-17T19:19:43.001Z</time>
      </trkpt>
      <trkpt lat="44.88813" lon="1.22858">
        <ele>234.59058405782</ele>
        <time>2021-07-17T19:19:57.685Z</time>
      </trkpt>
      <trkpt lat="44.88802" lon="1.22875">
        <ele>236.20667623359</ele>
        <time>2021-07-17T19:20:12.372Z</time>
      </trkpt>
      <trkpt lat="44.88775" lon="1.22906">
        <ele>237.88245110094</ele>
        <time>2021-07-17T19:20:27.066Z</time>
      </trkpt>
      <trkpt lat="44.88721" lon="1.22941">
        <ele>239.47487201542</ele>
        <time>2021-07-17T19:20:41.772Z</time>
      </trkpt>
      <trkpt lat="44.88711" lon="1.22951">
        <ele>240.85525638334</ele>
        <time>2021-07-17T19:20:56.481Z</time>
      </trkpt>
      <trkpt lat="44.88704" lon="1.22961">
        <ele>242.167198271</ele>
        <time>2021-07-17T19:21:11.192Z</time>
      </trkpt>
      <trkpt lat="44.887" lon="1.22976">
        <ele>243.4131100831</ele>
        <time>2021-07-17T19:21:25.905Z</time>
      </trkpt>
      <trkpt lat="44.88697" lon="1.23003">
        <ele>244.63780985692</ele>
        <time>2021-07-17T19:21:40.622Z</time>
      </trkpt>
      <trkpt lat="44.88695" lon="1.23011">
        <ele>245.69909275054</ele>
        <time>2021-07-17T19:21:55.340Z</time>
      </trkpt>
      <trkpt lat="44.88713" lon="1.23021">
        <ele>246.70604054829</ele>
        <time>2021-07-17T19:22:10.062Z</time>
      </trkpt>
      <trkpt lat="44.88722" lon="1.23031">
        <ele>247.59900086899</ele>
        <time>2021-07-17T19:22:24.786Z</time>
      </trkpt>
      <trkpt lat="44.88702" lon="1.23098">
        <ele>248.3256706893</ele>
        <time>2021-07-17T19:22:39.521Z</time>
      </trkpt>
      <trkpt lat="44.88696" lon="1.23111">
        <ele>248.90998936826</ele>
        <time>2021-07-17T19:22:54.258Z</time>
      </trkpt>
      <trkpt lat="44.88684" lon="1.2316">
        <ele>249.2978030219</ele>
        <time>2021-07-17T19:23:09.002Z</time>
      </trkpt>
      <trkpt lat="44.88683" lon="1.23171">
        <ele>249.64648199599</ele>
        <time>2021-07-17T19:23:23.748Z</time>
      </trkpt>
      <trkpt lat="44.88684" lon="1.23182">
        <ele>249.90149605047</ele>
        <time>2021-07-17T19:23:38.495Z</time>
      </trkpt>
      <trkpt lat="44.88714" lon="1.2324">
        <ele>250.02714210314</ele>
        <time>2021-07-17T19:23:53.253Z</time>
      </trkpt>
      <trkpt lat="44.8872" lon="1.23254">
        <ele>250.16583465103</ele>
        <time>2021-07-17T19:24:08.013Z</time>
      </trkpt>
      <trkpt lat="44.88721" lon="1.2326">
        <ele>250.18023037207</ele>
        <time>2021-07-17T19:24:22.774Z</time>
      </trkpt>
      <trkpt lat="44.88724" lon="1.23283">
        <ele>250.09892412604</ele>
        <time>2021-07-17T19:24:37.538Z</time>
      </trkpt>
      <trkpt lat="44.88723" lon="1.23322">
        <ele>249.91643025391</ele>
        <time>2021-07-17T19:24:52.308Z</time>
      </trkpt>
      <trkpt lat="44.88723" lon="1.23334">
        <ele>249.66995519993</ele>
        <time>2021-07-17T19:25:07.079Z</time>
      </trkpt>
      <trkpt lat="44.88722" lon="1.2336">
        <ele>249.39258163259</ele>
        <time>2021-07-17T19:25:21.854Z</time>
      </trkpt>
      <trkpt lat="44.88716" lon="1.23384">
        <ele>248.96580865809</ele>
        <time>2021-07-17T19:25:36.633Z</time>
      </trkpt>
      <trkpt lat="44.88727" lon="1.23414">
        <ele>248.59714968156</ele>
        <time>2021-07-17T19:25:51.417Z</time>
      </trkpt>
      <trkpt lat="44.88739" lon="1.23471">
        <ele>247.98302448945</ele>
        <time>2021-07-17T19:26:06.209Z</time>
      </trkpt>
      <trkpt lat="44.88746" lon="1.23485">
        <ele>247.33861444316</ele>
        <time>2021-07-17T19:26:21.003Z</time>
      </trkpt>
      <trkpt lat="44.88753" lon="1.23491">
        <ele>246.65642281814</ele>
        <time>2021-07-17T19:26:35.799Z</time>
      </trkpt>
      <trkpt lat="44.88761" lon="1.23492">
        <ele>245.9304245716</ele>
        <time>2021-07-17T19:26:50.597Z</time>
      </trkpt>
      <trkpt lat="44.88797" lon="1.23477">
        <ele>245.08774151562</ele>
        <time>2021-07-17T19:27:05.402Z</time>
      </trkpt>
      <trkpt lat="44.88815" lon="1.23472">
        <ele>244.24840176901</ele>
        <time>2021-07-17T19:27:20.211Z</time>
      </trkpt>
      <trkpt lat="44.88829" lon="1.23472">
        <ele>243.32153266946</ele>
        <time>2021-07-17T19:27:35.023Z</time>
      </trkpt>
      <trkpt lat="44.88858" lon="1.23452">
        <ele>242.46115497114</ele>
        <time>2021-07-17T19:27:49.841Z</time>
      </trkpt>
      <trkpt lat="44.88874" lon="1.23456">
        <ele>241.37733945863</ele>
        <time>2021-07-17T19:28:04.662Z</time>
      </trkpt>
      <trkpt lat="44.88924" lon="1.23458">
        <ele>240.36644135683</ele>
        <time>2021-07-17T19:28:19.493Z</time>
      </trkpt>
      <trkpt lat="44.88932" lon="1.23467">
        <ele>239.31056692347</ele>
        <time>2021-07-17T19:28:34.326Z</time>
      </trkpt>
      <trkpt lat="44.88962" lon="1.23526">
        <ele>238.22803125722</ele>
        <time>2021-07-17T19:28:49.170Z</time>
      </trkpt>
      <trkpt lat="44.88968" lon="1.23548">
        <ele>237.1975161537</ele>
        <time>2021-07-17T19:29:04.017Z</time>
      </trkpt>
      <trkpt lat="44.88976" lon="1.23604">
        <ele>236.14546795945</ele>
        <time>2021-07-17T19:29:18.872Z</time>
      </trkpt>
      <trkpt lat="44.88982" lon="1.23631">
        <ele>235.11668386369</ele>
        <time>2021-07-17T19:29:33.731Z</time>
      </trkpt>
      <trkpt lat="44.88998" lon="1.2368">
        <ele>234.09760851313</ele>
        <time>2021-07-17T19:29:48.598Z</time>
      </trkpt>
      <trkpt lat="44.89003" lon="1.23688">
        <ele>233.04907836764</ele>
        <time>2021-07-17T19:30:03.466Z</time>
      </trkpt>
      <trkpt lat="44.89011" lon="1.23714">
        <ele>231.95837747685</ele>
        <time>2021-07-17T19:30:18.338Z</time>
      </trkpt>
      <trkpt lat="44.89013" lon="1.2373">
        <ele>230.85808720534</ele>
        <time>2021-07-17T19:30:33.213Z</time>
      </trkpt>
      <trkpt lat="44.89018" lon="1.23741">
        <ele>229.80778724002</ele>
        <time>2021-07-17T19:30:48.090Z</time>
      </trkpt>
      <trkpt lat="44.89023" lon="1.23747">
        <ele>228.80999380043</ele>
        <time>2021-07-17T19:31:02.968Z</time>
      </trkpt>
      <trkpt lat="44.8905" lon="1.2376">
        <ele>227.7904421215</ele>
        <time>2021-07-17T19:31:17.852Z</time>
      </trkpt>
      <trkpt lat="44.89059" lon="1.23761">
        <ele>226.90301570895</ele>
        <time>2021-07-17T19:31:32.737Z</time>
      </trkpt>
      <trkpt lat="44.89077" lon="1.23764">
        <ele>226.08243791124</ele>
        <time>2021-07-17T19:31:47.626Z</time>
      </trkpt>
      <trkpt lat="44.891" lon="1.23772">
        <ele>225.32972707241</ele>
        <time>2021-07-17T19:32:02.520Z</time>
      </trkpt>
      <trkpt lat="44.89138" lon="1.23775">
        <ele>224.63953936948</ele>
        <time>2021-07-17T19:32:17.421Z</time>
      </trkpt>
      <trkpt lat="44.8919" lon="1.23767">
        <ele>223.67433353388</ele>
        <time>2021-07-17T19:32:32.333Z</time>
      </trkpt>
      <trkpt lat="44.89201" lon="1.23763">
        <ele>223.14546607693</ele>
        <time>2021-07-17T19:32:47.247Z</time>
      </trkpt>
      <trkpt lat="44.89219" lon="1.23734">
        <ele>222.89266909467</ele>
        <time>2021-07-17T19:33:02.167Z</time>
      </trkpt>
      <trkpt lat="44.89249" lon="1.2373">
        <ele>222.62956092617</ele>
        <time>2021-07-17T19:33:17.093Z</time>
      </trkpt>
      <trkpt lat="44.89281" lon="1.23728">
        <ele>222.32674854895</ele>
        <time>2021-07-17T19:33:32.025Z</time>
      </trkpt>
      <trkpt lat="44.89329" lon="1.23738">
        <ele>221.79114548267</ele>
        <time>2021-07-17T19:33:46.967Z</time>
      </trkpt>
      <trkpt lat="44.89347" lon="1.23746">
        <ele>221.6618581804</ele>
        <time>2021-07-17T19:34:01.913Z</time>
      </trkpt>
      <trkpt lat="44.89366" lon="1.23758">
        <ele>221.79853562548</ele>
        <time>2021-07-17T19:34:16.863Z</time>
      </trkpt>
      <trkpt lat="44.89467" lon="1.23836">
        <ele>222.17980561025</ele>
        <time>2021-07-17T19:34:31.836Z</time>
      </trkpt>
      <trkpt lat="44.8947" lon="1.23887">
        <ele>222.66673622329</ele>
        <time>2021-07-17T19:34:46.816Z</time>
      </trkpt>
      <trkpt lat="44.89514" lon="1.24007">
        <ele>223.61546055161</ele>
        <time>2021-07-17T19:35:01.815Z</time>
      </trkpt>
      <trkpt lat="44.89522" lon="1.24127">
        <ele>224.56675384847</ele>
        <time>2021-07-17T19:35:16.831Z</time>
      </trkpt>
      <trkpt lat="44.89485" lon="1.24192">
        <ele>225.60209677035</ele>
        <time>2021-07-17T19:35:31.859Z</time>
      </trkpt>
      <trkpt lat="44.89442" lon="1.24314">
        <ele>226.86061186733</ele>
        <time>2021-07-17T19:35:46.907Z</time>
      </trkpt>
      <trkpt lat="44.8944" lon="1.24369">
        <ele>227.69364955859</ele>
        <time>2021-07-17T19:36:01.962Z</time>
      </trkpt>
      <trkpt lat="44.89442" lon="1.244">
        <ele>228.67892725602</ele>
        <time>2021-07-17T19:36:17.022Z</time>
      </trkpt>
      <trkpt lat="44.89441" lon="1.24428">
        <ele>229.73994180015</ele>
        <time>2021-07-17T19:36:32.086Z</time>
      </trkpt>
      <trkpt lat="44.89452" lon="1.24497">
        <ele>231.04163876701</ele>
        <time>2021-07-17T19:36:47.160Z</time>
      </trkpt>
      <trkpt lat="44.89457" lon="1.24556">
        <ele>232.30817868449</ele>
        <time>2021-07-17T19:37:02.242Z</time>
      </trkpt>
      <trkpt lat="44.89463" lon="1.24568">
        <ele>233.45726988897</ele>
        <time>2021-07-17T19:37:17.326Z</time>
      </trkpt>
      <trkpt lat="44.89471" lon="1.24577">
        <ele>234.61102743654</ele>
        <time>2021-07-17T19:37:32.412Z</time>
      </trkpt>
      <trkpt lat="44.89492" lon="1.24589">
        <ele>235.86468481817</ele>
        <time>2021-07-17T19:37:47.503Z</time>
      </trkpt>
      <trkpt lat="44.89504" lon="1.246">
        <ele>237.09635377939</ele>
        <time>2021-07-17T19:38:02.597Z</time>
      </trkpt>
      <trkpt lat="44.89513" lon="1.24604">
        <ele>238.25504485918</ele>
        <time>2021-07-17T19:38:17.693Z</time>
      </trkpt>
      <trkpt lat="44.89504" lon="1.24641">
        <ele>239.26921480779</ele>
        <time>2021-07-17T19:38:32.794Z</time>
      </trkpt>
      <trkpt lat="44.89494" lon="1.24678">
        <ele>240.16269056886</ele>
        <time>2021-07-17T19:38:47.901Z</time>
      </trkpt>
      <trkpt lat="44.89485" lon="1.24725">
        <ele>240.97111695746</ele>
        <time>2021-07-17T19:39:03.015Z</time>
      </trkpt>
      <trkpt lat="44.89482" lon="1.24755">
        <ele>241.73656109836</ele>
        <time>2021-07-17T19:39:18.133Z</time>
      </trkpt>
      <trkpt lat="44.89477" lon="1.24773">
        <ele>242.45425917936</ele>
        <time>2021-07-17T19:39:33.254Z</time>
      </trkpt>
      <trkpt lat="44.8941" lon="1.25043">
        <ele>243.15711168727</ele>
        <time>2021-07-17T19:39:48.416Z</time>
      </trkpt>
      <trkpt lat="44.89292" lon="1.24996">
        <ele>243.58838382147</ele>
        <time>2021-07-17T19:40:03.602Z</time>
      </trkpt>
      <trkpt lat="44.89198" lon="1.24959">
        <ele>244.06660065947</ele>
        <time>2021-07-17T19:40:18.808Z</time>
      </trkpt>
      <trkpt lat="44.8909" lon="1.24913">
        <ele>244.40524095633</ele>
        <time>2021-07-17T19:40:34.036Z</time>
      </trkpt>
      <trkpt lat="44.88995" lon="1.24863">
        <ele>244.40193442289</ele>
        <time>2021-07-17T19:40:49.284Z</time>
      </trkpt>
      <trkpt lat="44.88967" lon="1.24851">
        <ele>244.57844627632</ele>
        <time>2021-07-17T19:41:04.538Z</time>
      </trkpt>
      <trkpt lat="44.88923" lon="1.24835">
        <ele>244.70311579691</ele>
        <time>2021-07-17T19:41:19.801Z</time>
      </trkpt>
      <trkpt lat="44.88863" lon="1.24815">
        <ele>244.6594937786</ele>
        <time>2021-07-17T19:41:35.077Z</time>
      </trkpt>
      <trkpt lat="44.88832" lon="1.24809">
        <ele>244.48087299287</ele>
        <time>2021-07-17T19:41:50.359Z</time>
      </trkpt>
      <trkpt lat="44.88804" lon="1.24804">
        <ele>244.20172491652</ele>
        <time>2021-07-17T19:42:05.647Z</time>
      </trkpt>
      <trkpt lat="44.88791" lon="1.24806">
        <ele>243.80410231709</ele>
        <time>2021-07-17T19:42:20.937Z</time>
      </trkpt>
      <trkpt lat="44.88786" lon="1.24806">
        <ele>243.25063450113</ele>
        <time>2021-07-17T19:42:36.228Z</time>
      </trkpt>
      <trkpt lat="44.88768" lon="1.2481">
        <ele>242.58693523595</ele>
        <time>2021-07-17T19:42:51.523Z</time>
      </trkpt>
      <trkpt lat="44.8871" lon="1.24832">
        <ele>241.88069485466</ele>
        <time>2021-07-17T19:43:06.830Z</time>
      </trkpt>
      <trkpt lat="44.88659" lon="1.24855">
        <ele>240.95400638497</ele>
        <time>2021-07-17T19:43:22.148Z</time>
      </trkpt>
      <trkpt lat="44.88548" lon="1.24895">
        <ele>239.87165833393</ele>
        <time>2021-07-17T19:43:37.489Z</time>
      </trkpt>
      <trkpt lat="44.88477" lon="1.24928">
        <ele>238.74867781674</ele>
        <time>2021-07-17T19:43:52.845Z</time>
      </trkpt>
      <trkpt lat="44.88417" lon="1.2495">
        <ele>237.25082324883</ele>
        <time>2021-07-17T19:44:08.213Z</time>
      </trkpt>
      <trkpt lat="44.88381" lon="1.24961">
        <ele>235.63453988986</ele>
        <time>2021-07-17T19:44:23.588Z</time>
      </trkpt>
      <trkpt lat="44.88426" lon="1.25088">
        <ele>233.39010268451</ele>
        <time>2021-07-17T19:44:38.983Z</time>
      </trkpt>
      <trkpt lat="44.88464" lon="1.25195">
        <ele>230.96987144016</ele>
        <time>2021-07-17T19:44:54.395Z</time>
      </trkpt>
      <trkpt lat="44.88541" lon="1.25255">
        <ele>228.61083599307</ele>
        <time>2021-07-17T19:45:09.825Z</time>
      </trkpt>
      <trkpt lat="44.8859" lon="1.2536">
        <ele>225.86915597516</ele>
        <time>2021-07-17T19:45:25.273Z</time>
      </trkpt>
      <trkpt lat="44.88585" lon="1.25412">
        <ele>223.20104750958</ele>
        <time>2021-07-17T19:45:40.728Z</time>
      </trkpt>
      <trkpt lat="44.88537" lon="1.2547">
        <ele>220.24603470147</ele>
        <time>2021-07-17T19:45:56.196Z</time>
      </trkpt>
      <trkpt lat="44.88523" lon="1.25534">
        <ele>217.02931465437</ele>
        <time>2021-07-17T19:46:11.674Z</time>
      </trkpt>
      <trkpt lat="44.88496" lon="1.25579">
        <ele>213.71300583969</ele>
        <time>2021-07-17T19:46:27.160Z</time>
      </trkpt>
      <trkpt lat="44.88465" lon="1.25667">
        <ele>210.20212956536</ele>
        <time>2021-07-17T19:46:42.660Z</time>
      </trkpt>
      <trkpt lat="44.88476" lon="1.25699">
        <ele>206.82989519461</ele>
        <time>2021-07-17T19:46:58.165Z</time>
      </trkpt>
      <trkpt lat="44.88477" lon="1.25843">
        <ele>203.43642958465</ele>
        <time>2021-07-17T19:47:13.690Z</time>
      </trkpt>
      <trkpt lat="44.88499" lon="1.25933">
        <ele>199.87835249205</ele>
        <time>2021-07-17T19:47:29.229Z</time>
      </trkpt>
      <trkpt lat="44.88467" lon="1.25972">
        <ele>196.43819344748</ele>
        <time>2021-07-17T19:47:44.776Z</time>
      </trkpt>
      <trkpt lat="44.88417" lon="1.26048">
        <ele>192.70733261838</ele>
        <time>2021-07-17T19:48:00.338Z</time>
      </trkpt>
      <trkpt lat="44.88412" lon="1.26056">
        <ele>189.15967632294</ele>
        <time>2021-07-17T19:48:15.902Z</time>
      </trkpt>
      <trkpt lat="44.88295" lon="1.26152">
        <ele>185.46406831929</ele>
        <time>2021-07-17T19:48:31.493Z</time>
      </trkpt>
      <trkpt lat="44.88257" lon="1.26116">
        <ele>181.98581831767</ele>
        <time>2021-07-17T19:48:47.093Z</time>
      </trkpt>
      <trkpt lat="44.88217" lon="1.26139">
        <ele>178.46673961105</ele>
        <time>2021-07-17T19:49:02.702Z</time>
      </trkpt>
      <trkpt lat="44.88071" lon="1.26146">
        <ele>174.76394231441</ele>
        <time>2021-07-17T19:49:18.340Z</time>
      </trkpt>
      <trkpt lat="44.87991" lon="1.26206">
        <ele>171.20834590111</ele>
        <time>2021-07-17T19:49:33.996Z</time>
      </trkpt>
      <trkpt lat="44.87953" lon="1.2627">
        <ele>167.39600530852</ele>
        <time>2021-07-17T19:49:49.664Z</time>
      </trkpt>
      <trkpt lat="44.87913" lon="1.26405">
        <ele>163.44546983246</ele>
        <time>2021-07-17T19:50:05.353Z</time>
      </trkpt>
      <trkpt lat="44.87798" lon="1.26553">
        <ele>159.42275498062</ele>
        <time>2021-07-17T19:50:21.073Z</time>
      </trkpt>
      <trkpt lat="44.87696" lon="1.26607">
        <ele>155.68973976194</ele>
        <time>2021-07-17T19:50:36.815Z</time>
      </trkpt>
      <trkpt lat="44.87702" lon="1.2671">
        <ele>151.72862572487</ele>
        <time>2021-07-17T19:50:52.571Z</time>
      </trkpt>
      <trkpt lat="44.87661" lon="1.26783">
        <ele>148.30306113237</ele>
        <time>2021-07-17T19:51:08.341Z</time>
      </trkpt>
      <trkpt lat="44.87565" lon="1.26927">
        <ele>144.34703987006</ele>
        <time>2021-07-17T19:51:24.139Z</time>
      </trkpt>
      <trkpt lat="44.87442" lon="1.26925">
        <ele>140.81268577233</ele>
        <time>2021-07-17T19:51:39.961Z</time>
      </trkpt>
      <trkpt lat="44.87361" lon="1.26938">
        <ele>137.43460157277</ele>
        <time>2021-07-17T19:51:55.800Z</time>
      </trkpt>
      <trkpt lat="44.8729" lon="1.26976">
        <ele>134.40335993967</ele>
        <time>2021-07-17T19:52:11.654Z</time>
      </trkpt>
      <trkpt lat="44.87247" lon="1.27107">
        <ele>131.5505328012</ele>
        <time>2021-07-17T19:52:27.528Z</time>
      </trkpt>
      <trkpt lat="44.87291" lon="1.27268">
        <ele>128.23888611331</ele>
        <time>2021-07-17T19:52:43.427Z</time>
      </trkpt>
      <trkpt lat="44.87383" lon="1.27377">
        <ele>124.93598525359</ele>
        <time>2021-07-17T19:52:59.350Z</time>
      </trkpt>
      <trkpt lat="44.87415" lon="1.27474">
        <ele>122.27266254533</ele>
        <time>2021-07-17T19:53:15.288Z</time>
      </trkpt>
      <trkpt lat="44.87421" lon="1.27539">
        <ele>119.42325518844</ele>
        <time>2021-07-17T19:53:31.235Z</time>
      </trkpt>
      <trkpt lat="44.87428" lon="1.27607">
        <ele>116.63160240783</ele>
        <time>2021-07-17T19:53:47.192Z</time>
      </trkpt>
      <trkpt lat="44.87437" lon="1.27665">
        <ele>114.02765942732</ele>
        <time>2021-07-17T19:54:03.158Z</time>
      </trkpt>
      <trkpt lat="44.8743" lon="1.27734">
        <ele>111.51248902721</ele>
        <time>2021-07-17T19:54:19.133Z</time>
      </trkpt>
      <trkpt lat="44.87402" lon="1.27769">
        <ele>109.2623951561</ele>
        <time>2021-07-17T19:54:35.116Z</time>
      </trkpt>
      <trkpt lat="44.87355" lon="1.27819">
        <ele>107.23287244178</ele>
        <time>2021-07-17T19:54:51.111Z</time>
      </trkpt>
      <trkpt lat="44.87311" lon="1.27926">
        <ele>104.7564046448</ele>
        <time>2021-07-17T19:55:07.123Z</time>
      </trkpt>
      <trkpt lat="44.87306" lon="1.27964">
        <ele>102.61070261643</ele>
        <time>2021-07-17T19:55:23.141Z</time>
      </trkpt>
      <trkpt lat="44.87297" lon="1.27981">
        <ele>100.73671616875</ele>
        <time>2021-07-17T19:55:39.162Z</time>
      </trkpt>
      <trkpt lat="44.87274" lon="1.28001">
        <ele>99.005321205416</ele>
        <time>2021-07-17T19:55:55.188Z</time>
      </trkpt>
      <trkpt lat="44.87245" lon="1.28047">
        <ele>97.275236105839</ele>
        <time>2021-07-17T19:56:11.223Z</time>
      </trkpt>
      <trkpt lat="44.87222" lon="1.28106">
        <ele>95.717364520734</ele>
        <time>2021-07-17T19:56:27.268Z</time>
      </trkpt>
      <trkpt lat="44.87219" lon="1.28114">
        <ele>94.299902809465</ele>
        <time>2021-07-17T19:56:43.314Z</time>
      </trkpt>
      <trkpt lat="44.87202" lon="1.2816">
        <ele>92.99256752621</ele>
        <time>2021-07-17T19:56:59.367Z</time>
      </trkpt>
      <trkpt lat="44.87196" lon="1.2819">
        <ele>91.762871128152</ele>
        <time>2021-07-17T19:57:15.425Z</time>
      </trkpt>
      <trkpt lat="44.87209" lon="1.2826">
        <ele>90.423107297888</ele>
        <time>2021-07-17T19:57:31.493Z</time>
      </trkpt>
      <trkpt lat="44.87209" lon="1.28278">
        <ele>89.356664055744</ele>
        <time>2021-07-17T19:57:47.564Z</time>
      </trkpt>
      <trkpt lat="44.87206" lon="1.2829">
        <ele>88.414021068959</ele>
        <time>2021-07-17T19:58:03.636Z</time>
      </trkpt>
      <trkpt lat="44.87192" lon="1.283">
        <ele>87.615324522853</ele>
        <time>2021-07-17T19:58:19.711Z</time>
      </trkpt>
      <trkpt lat="44.87174" lon="1.28303">
        <ele>86.942766723774</ele>
        <time>2021-07-17T19:58:35.790Z</time>
      </trkpt>
      <trkpt lat="44.87097" lon="1.28278">
        <ele>86.298425844973</ele>
        <time>2021-07-17T19:58:51.885Z</time>
      </trkpt>
      <trkpt lat="44.87076" lon="1.28271">
        <ele>85.744070803237</ele>
        <time>2021-07-17T19:59:07.984Z</time>
      </trkpt>
      <trkpt lat="44.87071" lon="1.28291">
        <ele>85.211692310472</ele>
        <time>2021-07-17T19:59:24.086Z</time>
      </trkpt>
      <trkpt lat="44.8707" lon="1.28295">
        <ele>84.851189604103</ele>
        <time>2021-07-17T19:59:40.189Z</time>
      </trkpt>
      <trkpt lat="44.87061" lon="1.28309">
        <ele>84.554965440186</ele>
        <time>2021-07-17T19:59:56.295Z</time>
      </trkpt>
      <trkpt lat="44.87053" lon="1.28313">
        <ele>84.364420353986</ele>
        <time>2021-07-17T20:00:12.402Z</time>
      </trkpt>
      <trkpt lat="44.87047" lon="1.28319">
        <ele>84.277029145433</ele>
        <time>2021-07-17T20:00:28.511Z</time>
      </trkpt>
      <trkpt lat="44.87042" lon="1.28329">
        <ele>84.274424904431</ele>
        <time>2021-07-17T20:00:44.621Z</time>
      </trkpt>
      <trkpt lat="44.87041" lon="1.28335">
        <ele>84.356387336405</ele>
        <time>2021-07-17T20:01:00.732Z</time>
      </trkpt>
      <trkpt lat="44.87035" lon="1.28347">
        <ele>84.527659540612</ele>
        <time>2021-07-17T20:01:16.845Z</time>
      </trkpt>
      <trkpt lat="44.8697" lon="1.28435">
        <ele>84.798937235557</ele>
        <time>2021-07-17T20:01:32.976Z</time>
      </trkpt>
      <trkpt lat="44.86961" lon="1.28457">
        <ele>85.119140880613</ele>
        <time>2021-07-17T20:01:49.111Z</time>
      </trkpt>
      <trkpt lat="44.8695" lon="1.2853">
        <ele>85.496142672827</ele>
        <time>2021-07-17T20:02:05.257Z</time>
      </trkpt>
      <trkpt lat="44.86947" lon="1.28543">
        <ele>85.97220307449</ele>
        <time>2021-07-17T20:02:21.405Z</time>
      </trkpt>
      <trkpt lat="44.8696" lon="1.28559">
        <ele>86.553109163768</ele>
        <time>2021-07-17T20:02:37.556Z</time>
      </trkpt>
      <trkpt lat="44.8696" lon="1.28567">
        <ele>87.179472218186</ele>
        <time>2021-07-17T20:02:53.708Z</time>
      </trkpt>
      <trkpt lat="44.86938" lon="1.28589">
        <ele>87.887086621076</ele>
        <time>2021-07-17T20:03:09.866Z</time>
      </trkpt>
      <trkpt lat="44.86912" lon="1.28583">
        <ele>88.689008930784</ele>
        <time>2021-07-17T20:03:26.029Z</time>
      </trkpt>
      <trkpt lat="44.8685" lon="1.28554">
        <ele>89.689380284184</ele>
        <time>2021-07-17T20:03:42.205Z</time>
      </trkpt>
      <trkpt lat="44.86843" lon="1.28553">
        <ele>90.620538762909</ele>
        <time>2021-07-17T20:03:58.382Z</time>
      </trkpt>
      <trkpt lat="44.86834" lon="1.28557">
        <ele>91.602280367698</ele>
        <time>2021-07-17T20:04:14.561Z</time>
      </trkpt>
      <trkpt lat="44.86814" lon="1.28571">
        <ele>92.674415369416</ele>
        <time>2021-07-17T20:04:30.745Z</time>
      </trkpt>
      <trkpt lat="44.86805" lon="1.28574">
        <ele>93.820677418835</ele>
        <time>2021-07-17T20:04:46.931Z</time>
      </trkpt>
      <trkpt lat="44.86752" lon="1.28582">
        <ele>95.121274038553</ele>
        <time>2021-07-17T20:05:03.127Z</time>
      </trkpt>
      <trkpt lat="44.86719" lon="1.28587">
        <ele>96.406455334694</ele>
        <time>2021-07-17T20:05:19.330Z</time>
      </trkpt>
      <trkpt lat="44.8671" lon="1.28584">
        <ele>97.729711125948</ele>
        <time>2021-07-17T20:05:35.535Z</time>
      </trkpt>
      <trkpt lat="44.86702" lon="1.28571">
        <ele>99.115606231328</ele>
        <time>2021-07-17T20:05:51.742Z</time>
      </trkpt>
      <trkpt lat="44.86683" lon="1.28487">
        <ele>100.5187196219</ele>
        <time>2021-07-17T20:06:07.962Z</time>
      </trkpt>
      <trkpt lat="44.86681" lon="1.28459">
        <ele>101.90048848199</ele>
        <time>2021-07-17T20:06:24.186Z</time>
      </trkpt>
      <trkpt lat="44.86676" lon="1.28433">
        <ele>103.36712059349</ele>
        <time>2021-07-17T20:06:40.414Z</time>
      </trkpt>
      <trkpt lat="44.86665" lon="1.28415">
        <ele>104.94498695965</ele>
        <time>2021-07-17T20:06:56.645Z</time>
      </trkpt>
      <trkpt lat="44.8663" lon="1.28423">
        <ele>106.79390062184</ele>
        <time>2021-07-17T20:07:12.883Z</time>
      </trkpt>
      <trkpt lat="44.86611" lon="1.2842">
        <ele>108.54213842929</ele>
        <time>2021-07-17T20:07:29.125Z</time>
      </trkpt>
      <trkpt lat="44.86591" lon="1.2841">
        <ele>110.25142063312</ele>
        <time>2021-07-17T20:07:45.371Z</time>
      </trkpt>
      <trkpt lat="44.86503" lon="1.28311">
        <ele>112.08577213957</ele>
        <time>2021-07-17T20:08:01.640Z</time>
      </trkpt>
      <trkpt lat="44.86452" lon="1.28283">
        <ele>113.56210993684</ele>
        <time>2021-07-17T20:08:17.920Z</time>
      </trkpt>
      <trkpt lat="44.86438" lon="1.2827">
        <ele>115.05945304182</ele>
        <time>2021-07-17T20:08:34.203Z</time>
      </trkpt>
      <trkpt lat="44.86401" lon="1.28303">
        <ele>116.81259548847</ele>
        <time>2021-07-17T20:08:50.495Z</time>
      </trkpt>
      <trkpt lat="44.86396" lon="1.28307">
        <ele>118.4152080741</ele>
        <time>2021-07-17T20:09:06.788Z</time>
      </trkpt>
      <trkpt lat="44.86367" lon="1.28453">
        <ele>120.44949426364</ele>
        <time>2021-07-17T20:09:23.102Z</time>
      </trkpt>
      <trkpt lat="44.86311" lon="1.28505">
        <ele>122.31544579619</ele>
        <time>2021-07-17T20:09:39.430Z</time>
      </trkpt>
      <trkpt lat="44.86249" lon="1.28552">
        <ele>124.20253279384</ele>
        <time>2021-07-17T20:09:55.772Z</time>
      </trkpt>
      <trkpt lat="44.86244" lon="1.28556">
        <ele>125.76882915238</ele>
        <time>2021-07-17T20:10:12.115Z</time>
      </trkpt>
      <trkpt lat="44.86171" lon="1.28584">
        <ele>127.41338895897</ele>
        <time>2021-07-17T20:10:28.473Z</time>
      </trkpt>
      <trkpt lat="44.8606" lon="1.28619">
        <ele>128.88486668667</ele>
        <time>2021-07-17T20:10:44.854Z</time>
      </trkpt>
      <trkpt lat="44.86042" lon="1.28627">
        <ele>130.32541036652</ele>
        <time>2021-07-17T20:11:01.239Z</time>
      </trkpt>
      <trkpt lat="44.86024" lon="1.28628">
        <ele>131.71796644025</ele>
        <time>2021-07-17T20:11:17.627Z</time>
      </trkpt>
      <trkpt lat="44.85992" lon="1.2862">
        <ele>132.99549788587</ele>
        <time>2021-07-17T20:11:34.022Z</time>
      </trkpt>
      <trkpt lat="44.85974" lon="1.28609">
        <ele>134.2787104732</ele>
        <time>2021-07-17T20:11:50.421Z</time>
      </trkpt>
      <trkpt lat="44.85962" lon="1.28596">
        <ele>135.58636108796</ele>
        <time>2021-07-17T20:12:06.823Z</time>
      </trkpt>
      <trkpt lat="44.85935" lon="1.28551">
        <ele>136.84113311779</ele>
        <time>2021-07-17T20:12:23.233Z</time>
      </trkpt>
      <trkpt lat="44.85901" lon="1.28492">
        <ele>138.29060096039</ele>
        <time>2021-07-17T20:12:39.654Z</time>
      </trkpt>
      <trkpt lat="44.85897" lon="1.28483">
        <ele>139.70872695753</ele>
        <time>2021-07-17T20:12:56.077Z</time>
      </trkpt>
      <trkpt lat="44.8586" lon="1.28458">
        <ele>141.30954799108</ele>
        <time>2021-07-17T20:13:12.508Z</time>
      </trkpt>
      <trkpt lat="44.85831" lon="1.28428">
        <ele>142.81204305161</ele>
        <time>2021-07-17T20:13:28.946Z</time>
      </trkpt>
      <trkpt lat="44.85816" lon="1.28412">
        <ele>144.2510186558</ele>
        <time>2021-07-17T20:13:45.388Z</time>
      </trkpt>
      <trkpt lat="44.85789" lon="1.28438">
        <ele>145.91352305099</ele>
        <time>2021-07-17T20:14:01.836Z</time>
      </trkpt>
      <trkpt lat="44.85778" lon="1.28452">
        <ele>147.5497987176</ele>
        <time>2021-07-17T20:14:18.287Z</time>
      </trkpt>
      <trkpt lat="44.85771" lon="1.28427">
        <ele>149.05572991561</ele>
        <time>2021-07-17T20:14:34.742Z</time>
      </trkpt>
      <trkpt lat="44.85767" lon="1.28414">
        <ele>150.62007429158</ele>
        <time>2021-07-17T20:14:51.199Z</time>
      </trkpt>
      <trkpt lat="44.85761" lon="1.28408">
        <ele>152.25396162359</ele>
        <time>2021-07-17T20:15:07.658Z</time>
      </trkpt>
      <trkpt lat="44.85754" lon="1.28386">
        <ele>153.79107699834</ele>
        <time>2021-07-17T20:15:24.120Z</time>
      </trkpt>
      <trkpt lat="44.85745" lon="1.28402">
        <ele>155.62418796868</ele>
        <time>2021-07-17T20:15:40.585Z</time>
      </trkpt>
      <trkpt lat="44.85729" lon="1.28413">
        <ele>157.49285438211</ele>
        <time>2021-07-17T20:15:57.053Z</time>
      </trkpt>
      <trkpt lat="44.8572" lon="1.28429">
        <ele>159.32196297316</ele>
        <time>2021-07-17T20:16:13.524Z</time>
      </trkpt>
      <trkpt lat="44.85681" lon="1.28481">
        <ele>161.42092095069</ele>
        <time>2021-07-17T20:16:30.006Z</time>
      </trkpt>
      <trkpt lat="44.85679" lon="1.28492">
        <ele>163.32696504363</ele>
        <time>2021-07-17T20:16:46.490Z</time>
      </trkpt>
      <trkpt lat="44.85656" lon="1.28625">
        <ele>165.54789636457</ele>
        <time>2021-07-17T20:17:02.993Z</time>
      </trkpt>
      <trkpt lat="44.85622" lon="1.28711">
        <ele>167.28418452257</ele>
        <time>2021-07-17T20:17:19.510Z</time>
      </trkpt>
      <trkpt lat="44.85607" lon="1.28701">
        <ele>169.10217693049</ele>
        <time>2021-07-17T20:17:36.030Z</time>
      </trkpt>
      <trkpt lat="44.85529" lon="1.28655">
        <ele>171.04719192228</ele>
        <time>2021-07-17T20:17:52.567Z</time>
      </trkpt>
      <trkpt lat="44.85437" lon="1.28683">
        <ele>173.26258568689</ele>
        <time>2021-07-17T20:18:09.123Z</time>
      </trkpt>
      <trkpt lat="44.85339" lon="1.28694">
        <ele>174.86731680648</ele>
        <time>2021-07-17T20:18:25.699Z</time>
      </trkpt>
      <trkpt lat="44.85289" lon="1.28717">
        <ele>176.3354943776</ele>
        <time>2021-07-17T20:18:42.285Z</time>
      </trkpt>
      <trkpt lat="44.85274" lon="1.28762">
        <ele>178.17503544558</ele>
        <time>2021-07-17T20:18:58.878Z</time>
      </trkpt>
      <trkpt lat="44.85288" lon="1.28844">
        <ele>180.2939758457</ele>
        <time>2021-07-17T20:19:15.483Z</time>
      </trkpt>
      <trkpt lat="44.85286" lon="1.28847">
        <ele>181.90438603888</ele>
        <time>2021-07-17T20:19:32.089Z</time>
      </trkpt>
      <trkpt lat="44.85278" lon="1.28872">
        <ele>183.53445089336</ele>
        <time>2021-07-17T20:19:48.699Z</time>
      </trkpt>
      <trkpt lat="44.85259" lon="1.28895">
        <ele>185.00496112217</ele>
        <time>2021-07-17T20:20:05.314Z</time>
      </trkpt>
      <trkpt lat="44.85201" lon="1.28915">
        <ele>186.57376336589</ele>
        <time>2021-07-17T20:20:21.941Z</time>
      </trkpt>
      <trkpt lat="44.85111" lon="1.2891">
        <ele>187.98482430672</ele>
        <time>2021-07-17T20:20:38.586Z</time>
      </trkpt>
      <trkpt lat="44.85011" lon="1.289">
        <ele>189.66774093668</ele>
        <time>2021-07-17T20:20:55.251Z</time>
      </trkpt>
      <trkpt lat="44.84973" lon="1.28884">
        <ele>190.68204933637</ele>
        <time>2021-07-17T20:21:11.924Z</time>
      </trkpt>
      <trkpt lat="44.84952" lon="1.28903">
        <ele>191.47774421065</ele>
        <time>2021-07-17T20:21:28.602Z</time>
      </trkpt>
      <trkpt lat="44.84944" lon="1.28961">
        <ele>192.11489245383</ele>
        <time>2021-07-17T20:21:45.288Z</time>
      </trkpt>
      <trkpt lat="44.84938" lon="1.28973">
        <ele>192.57493397095</ele>
        <time>2021-07-17T20:22:01.976Z</time>
      </trkpt>
      <trkpt lat="44.84928" lon="1.28996">
        <ele>192.94541253668</ele>
        <time>2021-07-17T20:22:18.668Z</time>
      </trkpt>
      <trkpt lat="44.84915" lon="1.29012">
        <ele>193.06062852067</ele>
        <time>2021-07-17T20:22:35.364Z</time>
      </trkpt>
      <trkpt lat="44.84909" lon="1.29016">
        <ele>193.0075639078</ele>
        <time>2021-07-17T20:22:52.061Z</time>
      </trkpt>
      <trkpt lat="44.84904" lon="1.29015">
        <ele>192.77757751687</ele>
        <time>2021-07-17T20:23:08.759Z</time>
      </trkpt>
      <trkpt lat="44.849" lon="1.29008">
        <ele>192.37129946478</ele>
        <time>2021-07-17T20:23:25.458Z</time>
      </trkpt>
      <trkpt lat="44.84901" lon="1.28983">
        <ele>191.76382754536</ele>
        <time>2021-07-17T20:23:42.161Z</time>
      </trkpt>
      <trkpt lat="44.84898" lon="1.28973">
        <ele>191.02975144256</ele>
        <time>2021-07-17T20:23:58.865Z</time>
      </trkpt>
      <trkpt lat="44.8489" lon="1.28965">
        <ele>190.1334997636</ele>
        <time>2021-07-17T20:24:15.571Z</time>
      </trkpt>
      <trkpt lat="44.84857" lon="1.28952">
        <ele>188.83143791543</ele>
        <time>2021-07-17T20:24:32.284Z</time>
      </trkpt>
      <trkpt lat="44.84839" lon="1.28953">
        <ele>187.61078171087</ele>
        <time>2021-07-17T20:24:49.001Z</time>
      </trkpt>
      <trkpt lat="44.84796" lon="1.28973">
        <ele>186.19977361926</ele>
        <time>2021-07-17T20:25:05.727Z</time>
      </trkpt>
      <trkpt lat="44.84789" lon="1.28975">
        <ele>184.91246448558</ele>
        <time>2021-07-17T20:25:22.454Z</time>
      </trkpt>
      <trkpt lat="44.84782" lon="1.28977">
        <ele>183.53862470165</ele>
        <time>2021-07-17T20:25:39.183Z</time>
      </trkpt>
      <trkpt lat="44.84768" lon="1.28976">
        <ele>182.02347208189</ele>
        <time>2021-07-17T20:25:55.915Z</time>
      </trkpt>
      <trkpt lat="44.8476" lon="1.28962">
        <ele>180.38775419636</ele>
        <time>2021-07-17T20:26:12.649Z</time>
      </trkpt>
      <trkpt lat="44.84751" lon="1.28937">
        <ele>178.66570372317</ele>
        <time>2021-07-17T20:26:29.387Z</time>
      </trkpt>
      <trkpt lat="44.84741" lon="1.28904">
        <ele>177.08179586924</ele>
        <time>2021-07-17T20:26:46.130Z</time>
      </trkpt>
      <trkpt lat="44.84724" lon="1.28884">
        <ele>175.46399189683</ele>
        <time>2021-07-17T20:27:02.878Z</time>
      </trkpt>
      <trkpt lat="44.84661" lon="1.28829">
        <ele>173.66885660128</ele>
        <time>2021-07-17T20:27:19.640Z</time>
      </trkpt>
      <trkpt lat="44.84643" lon="1.28815">
        <ele>172.01994403241</ele>
        <time>2021-07-17T20:27:36.407Z</time>
      </trkpt>
      <trkpt lat="44.84604" lon="1.28785">
        <ele>170.45133604149</ele>
        <time>2021-07-17T20:27:53.182Z</time>
      </trkpt>
      <trkpt lat="44.84582" lon="1.28773">
        <ele>168.80958360721</ele>
        <time>2021-07-17T20:28:09.962Z</time>
      </trkpt>
      <trkpt lat="44.84546" lon="1.28758">
        <ele>167.12446683934</ele>
        <time>2021-07-17T20:28:26.750Z</time>
      </trkpt>
      <trkpt lat="44.84508" lon="1.28749">
        <ele>165.40494933522</ele>
        <time>2021-07-17T20:28:43.545Z</time>
      </trkpt>
      <trkpt lat="44.84487" lon="1.28734">
        <ele>163.69632963858</ele>
        <time>2021-07-17T20:29:00.345Z</time>
      </trkpt>
      <trkpt lat="44.84447" lon="1.28721">
        <ele>161.9464592499</ele>
        <time>2021-07-17T20:29:17.153Z</time>
      </trkpt>
      <trkpt lat="44.84419" lon="1.28715">
        <ele>160.14953962563</ele>
        <time>2021-07-17T20:29:33.967Z</time>
      </trkpt>
      <trkpt lat="44.84402" lon="1.28708">
        <ele>158.34929529688</ele>
        <time>2021-07-17T20:29:50.785Z</time>
      </trkpt>
      <trkpt lat="44.84377" lon="1.28689">
        <ele>156.5292740805</ele>
        <time>2021-07-17T20:30:07.608Z</time>
      </trkpt>
      <trkpt lat="44.84357" lon="1.28665">
        <ele>154.80299751576</ele>
        <time>2021-07-17T20:30:24.437Z</time>
      </trkpt>
      <trkpt lat="44.84346" lon="1.28647">
        <ele>153.08204892273</ele>
        <time>2021-07-17T20:30:41.269Z</time>
      </trkpt>
      <trkpt lat="44.84332" lon="1.2863">
        <ele>151.30524888004</ele>
        <time>2021-07-17T20:30:58.105Z</time>
      </trkpt>
      <trkpt lat="44.84302" lon="1.28609">
        <ele>149.4655784834</ele>
        <time>2021-07-17T20:31:14.947Z</time>
      </trkpt>
      <trkpt lat="44.84247" lon="1.28587">
        <ele>147.64132749254</ele>
        <time>2021-07-17T20:31:31.801Z</time>
      </trkpt>
      <trkpt lat="44.84219" lon="1.28583">
        <ele>145.91536915313</ele>
        <time>2021-07-17T20:31:48.660Z</time>
      </trkpt>
      <trkpt lat="44.84189" lon="1.28579">
        <ele>144.19365382263</ele>
        <time>2021-07-17T20:32:05.525Z</time>
      </trkpt>
      <trkpt lat="44.84153" lon="1.28572">
        <ele>142.55488582715</ele>
        <time>2021-07-17T20:32:22.398Z</time>
      </trkpt>
      <trkpt lat="44.8407" lon="1.28533">
        <ele>140.95400407539</ele>
        <time>2021-07-17T20:32:39.288Z</time>
      </trkpt>
      <trkpt lat="44.84032" lon="1.28505">
        <ele>139.32804007472</ele>
        <time>2021-07-17T20:32:56.187Z</time>
      </trkpt>
      <trkpt lat="44.84025" lon="1.28494">
        <ele>137.72079676516</ele>
        <time>2021-07-17T20:33:13.088Z</time>
      </trkpt>
      <trkpt lat="44.84018" lon="1.28482">
        <ele>136.10152175894</ele>
        <time>2021-07-17T20:33:29.991Z</time>
      </trkpt>
      <trkpt lat="44.84018" lon="1.28472">
        <ele>134.51263310937</ele>
        <time>2021-07-17T20:33:46.895Z</time>
      </trkpt>
      <trkpt lat="44.84009" lon="1.28457">
        <ele>132.87362753175</ele>
        <time>2021-07-17T20:34:03.802Z</time>
      </trkpt>
      <trkpt lat="44.83996" lon="1.28469">
        <ele>131.25675432852</ele>
        <time>2021-07-17T20:34:20.712Z</time>
      </trkpt>
      <trkpt lat="44.8398" lon="1.28475">
        <ele>129.62723623738</ele>
        <time>2021-07-17T20:34:37.626Z</time>
      </trkpt>
      <trkpt lat="44.83968" lon="1.2847">
        <ele>127.97224296292</ele>
        <time>2021-07-17T20:34:54.542Z</time>
      </trkpt>
      <trkpt lat="44.83958" lon="1.2846">
        <ele>126.31944514487</ele>
        <time>2021-07-17T20:35:11.461Z</time>
      </trkpt>
      <trkpt lat="44.83894" lon="1.28424">
        <ele>124.36238423318</ele>
        <time>2021-07-17T20:35:28.393Z</time>
      </trkpt>
      <trkpt lat="44.83883" lon="1.28406">
        <ele>122.7630749705</ele>
        <time>2021-07-17T20:35:45.329Z</time>
      </trkpt>
      <trkpt lat="44.83873" lon="1.28358">
        <ele>121.21578263995</ele>
        <time>2021-07-17T20:36:02.272Z</time>
      </trkpt>
      <trkpt lat="44.83866" lon="1.28341">
        <ele>119.63833501183</ele>
        <time>2021-07-17T20:36:19.218Z</time>
      </trkpt>
      <trkpt lat="44.83771" lon="1.28344">
        <ele>117.7975413686</ele>
        <time>2021-07-17T20:36:36.183Z</time>
      </trkpt>
      <trkpt lat="44.83716" lon="1.28336">
        <ele>116.23480167707</ele>
        <time>2021-07-17T20:36:53.159Z</time>
      </trkpt>
      <trkpt lat="44.83694" lon="1.28337">
        <ele>114.65940563558</ele>
        <time>2021-07-17T20:37:10.139Z</time>
      </trkpt>
      <trkpt lat="44.83645" lon="1.28339">
        <ele>113.17218489917</ele>
        <time>2021-07-17T20:37:27.129Z</time>
      </trkpt>
      <trkpt lat="44.83628" lon="1.28349">
        <ele>111.72832841363</ele>
        <time>2021-07-17T20:37:44.123Z</time>
      </trkpt>
      <trkpt lat="44.83589" lon="1.28382">
        <ele>110.33789043303</ele>
        <time>2021-07-17T20:38:01.126Z</time>
      </trkpt>
      <trkpt lat="44.83524" lon="1.28445">
        <ele>109.07545522819</ele>
        <time>2021-07-17T20:38:18.145Z</time>
      </trkpt>
      <trkpt lat="44.83465" lon="1.28499">
        <ele>107.16510593568</ele>
        <time>2021-07-17T20:38:35.178Z</time>
      </trkpt>
      <trkpt lat="44.83436" lon="1.28515">
        <ele>105.6927119987</ele>
        <time>2021-07-17T20:38:52.217Z</time>
      </trkpt>
      <trkpt lat="44.83384" lon="1.28541">
        <ele>104.13989969579</ele>
        <time>2021-07-17T20:39:09.267Z</time>
      </trkpt>
      <trkpt lat="44.83342" lon="1.28564">
        <ele>102.72057311426</ele>
        <time>2021-07-17T20:39:26.326Z</time>
      </trkpt>
      <trkpt lat="44.83278" lon="1.28596">
        <ele>101.22622228011</ele>
        <time>2021-07-17T20:39:43.399Z</time>
      </trkpt>
      <trkpt lat="44.83222" lon="1.28605">
        <ele>99.907291243922</ele>
        <time>2021-07-17T20:40:00.483Z</time>
      </trkpt>
      <trkpt lat="44.83193" lon="1.28604">
        <ele>98.765152059383</ele>
        <time>2021-07-17T20:40:17.573Z</time>
      </trkpt>
      <trkpt lat="44.83132" lon="1.28582">
        <ele>97.746345638925</ele>
        <time>2021-07-17T20:40:34.675Z</time>
      </trkpt>
      <trkpt lat="44.83102" lon="1.28578">
        <ele>96.655336803879</ele>
        <time>2021-07-17T20:40:51.783Z</time>
      </trkpt>
      <trkpt lat="44.83058" lon="1.28573">
        <ele>95.501334468939</ele>
        <time>2021-07-17T20:41:08.900Z</time>
      </trkpt>
      <trkpt lat="44.83047" lon="1.28575">
        <ele>94.551844112703</ele>
        <time>2021-07-17T20:41:26.019Z</time>
      </trkpt>
      <trkpt lat="44.83024" lon="1.28584">
        <ele>93.637691811908</ele>
        <time>2021-07-17T20:41:43.143Z</time>
      </trkpt>
      <trkpt lat="44.82955" lon="1.28602">
        <ele>92.711011409957</ele>
        <time>2021-07-17T20:42:00.281Z</time>
      </trkpt>
      <trkpt lat="44.82939" lon="1.28611">
        <ele>92.062579322987</ele>
        <time>2021-07-17T20:42:17.423Z</time>
      </trkpt>
      <trkpt lat="44.8291" lon="1.28637">
        <ele>91.486404583132</ele>
        <time>2021-07-17T20:42:34.571Z</time>
      </trkpt>
      <trkpt lat="44.82942" lon="1.28694">
        <ele>90.996069893114</ele>
        <time>2021-07-17T20:42:51.730Z</time>
      </trkpt>
      <trkpt lat="44.82994" lon="1.28791">
        <ele>90.106511529746</ele>
        <time>2021-07-17T20:43:08.906Z</time>
      </trkpt>
      <trkpt lat="44.83009" lon="1.28917">
        <ele>89.877191177093</ele>
        <time>2021-07-17T20:43:26.100Z</time>
      </trkpt>
      <trkpt lat="44.83134" lon="1.29078">
        <ele>89.694553346806</ele>
        <time>2021-07-17T20:43:43.328Z</time>
      </trkpt>
      <trkpt lat="44.83182" lon="1.2913">
        <ele>89.582744403741</ele>
        <time>2021-07-17T20:44:00.568Z</time>
      </trkpt>
      <trkpt lat="44.83193" lon="1.29126">
        <ele>89.441922893484</ele>
        <time>2021-07-17T20:44:17.811Z</time>
      </trkpt>
      <trkpt lat="44.83204" lon="1.29118">
        <ele>89.339274716078</ele>
        <time>2021-07-17T20:44:35.056Z</time>
      </trkpt>
      <trkpt lat="44.8323" lon="1.29094">
        <ele>89.25288839666</ele>
        <time>2021-07-17T20:44:52.307Z</time>
      </trkpt>
      <trkpt lat="44.83226" lon="1.29088">
        <ele>89.186785908404</ele>
        <time>2021-07-17T20:45:09.559Z</time>
      </trkpt>
      <trkpt lat="44.83222" lon="1.29081">
        <ele>89.145812920803</ele>
        <time>2021-07-17T20:45:26.813Z</time>
      </trkpt>
      <trkpt lat="44.83011" lon="1.28761">
        <ele>88.808997168141</ele>
        <time>2021-07-17T20:45:44.129Z</time>
      </trkpt>
      <trkpt lat="44.82929" lon="1.28626">
        <ele>88.701963403644</ele>
        <time>2021-07-17T20:46:01.470Z</time>
      </trkpt>
      <trkpt lat="44.82924" lon="1.28617">
        <ele>88.707684419001</ele>
        <time>2021-07-17T20:46:18.813Z</time>
      </trkpt>
      <trkpt lat="44.82862" lon="1.28499">
        <ele>88.641483211638</ele>
        <time>2021-07-17T20:46:36.177Z</time>
      </trkpt>
      <trkpt lat="44.82844" lon="1.28442">
        <ele>88.774800028944</ele>
        <time>2021-07-17T20:46:53.549Z</time>
      </trkpt>
      <trkpt lat="44.82836" lon="1.28418">
        <ele>88.840296410973</ele>
        <time>2021-07-17T20:47:10.925Z</time>
      </trkpt>
      <trkpt lat="44.82824" lon="1.28351">
        <ele>89.016630426393</ele>
        <time>2021-07-17T20:47:28.311Z</time>
      </trkpt>
      <trkpt lat="44.82816" lon="1.28307">
        <ele>89.12944305786</ele>
        <time>2021-07-17T20:47:45.704Z</time>
      </trkpt>
      <trkpt lat="44.8281" lon="1.28277">
        <ele>89.074576863927</ele>
        <time>2021-07-17T20:48:03.101Z</time>
      </trkpt>
      <trkpt lat="44.82805" lon="1.28209">
        <ele>89.120480405068</ele>
        <time>2021-07-17T20:48:20.508Z</time>
      </trkpt>
      <trkpt lat="44.82805" lon="1.28142">
        <ele>89.256755475908</ele>
        <time>2021-07-17T20:48:37.924Z</time>
      </trkpt>
      <trkpt lat="44.82805" lon="1.28114">
        <ele>89.218493469922</ele>
        <time>2021-07-17T20:48:55.344Z</time>
      </trkpt>
      <trkpt lat="44.82807" lon="1.28103">
        <ele>89.155577763299</ele>
        <time>2021-07-17T20:49:12.766Z</time>
      </trkpt>
      <trkpt lat="44.82808" lon="1.28094">
        <ele>89.080984085018</ele>
        <time>2021-07-17T20:49:30.189Z</time>
      </trkpt>
      <trkpt lat="44.82805" lon="1.28091">
        <ele>88.934463154718</ele>
        <time>2021-07-17T20:49:47.613Z</time>
      </trkpt>
      <trkpt lat="44.82797" lon="1.28082">
        <ele>88.728285638966</ele>
        <time>2021-07-17T20:50:05.039Z</time>
      </trkpt>
      <trkpt lat="44.82783" lon="1.28068">
        <ele>88.445886322345</ele>
        <time>2021-07-17T20:50:22.468Z</time>
      </trkpt>
      <trkpt lat="44.82763" lon="1.28047">
        <ele>88.057456847868</ele>
        <time>2021-07-17T20:50:39.902Z</time>
      </trkpt>
      <trkpt lat="44.82738" lon="1.28096">
        <ele>87.668104295116</ele>
        <time>2021-07-17T20:50:57.345Z</time>
      </trkpt>
      <trkpt lat="44.82712" lon="1.28139">
        <ele>87.287005804215</ele>
        <time>2021-07-17T20:51:14.796Z</time>
      </trkpt>
      <trkpt lat="44.82649" lon="1.28217">
        <ele>87.059201944234</ele>
        <time>2021-07-17T20:51:32.264Z</time>
      </trkpt>
      <trkpt lat="44.82563" lon="1.28274">
        <ele>86.823781789017</ele>
        <time>2021-07-17T20:51:49.751Z</time>
      </trkpt>
      <trkpt lat="44.82512" lon="1.28296">
        <ele>86.77368952524</ele>
        <time>2021-07-17T20:52:07.248Z</time>
      </trkpt>
      <trkpt lat="44.82483" lon="1.28305">
        <ele>86.623812280594</ele>
        <time>2021-07-17T20:52:24.751Z</time>
      </trkpt>
      <trkpt lat="44.8248" lon="1.28306">
        <ele>86.532441364682</ele>
        <time>2021-07-17T20:52:42.255Z</time>
      </trkpt>
      <trkpt lat="44.82421" lon="1.28325">
        <ele>86.341139989777</ele>
        <time>2021-07-17T20:52:59.771Z</time>
      </trkpt>
      <trkpt lat="44.82387" lon="1.28336">
        <ele>86.325165381678</ele>
        <time>2021-07-17T20:53:17.294Z</time>
      </trkpt>
      <trkpt lat="44.82343" lon="1.2835">
        <ele>86.596532290114</ele>
        <time>2021-07-17T20:53:34.826Z</time>
      </trkpt>
      <trkpt lat="44.82335" lon="1.28353">
        <ele>86.659077875747</ele>
        <time>2021-07-17T20:53:52.360Z</time>
      </trkpt>
      <trkpt lat="44.82328" lon="1.28355">
        <ele>86.733714336483</ele>
        <time>2021-07-17T20:54:09.895Z</time>
      </trkpt>
      <trkpt lat="44.82309" lon="1.28365">
        <ele>86.834952558226</ele>
        <time>2021-07-17T20:54:27.434Z</time>
      </trkpt>
      <trkpt lat="44.82269" lon="1.28385">
        <ele>86.952346329878</ele>
        <time>2021-07-17T20:54:44.982Z</time>
      </trkpt>
      <trkpt lat="44.82205" lon="1.28417">
        <ele>87.220139865006</ele>
        <time>2021-07-17T20:55:02.543Z</time>
      </trkpt>
      <trkpt lat="44.82164" lon="1.28454">
        <ele>87.417620262733</ele>
        <time>2021-07-17T20:55:20.114Z</time>
      </trkpt>
      <trkpt lat="44.82133" lon="1.28481">
        <ele>87.648467761022</ele>
        <time>2021-07-17T20:55:37.692Z</time>
      </trkpt>
      <trkpt lat="44.82125" lon="1.28489">
        <ele>87.75609715592</ele>
        <time>2021-07-17T20:55:55.272Z</time>
      </trkpt>
      <trkpt lat="44.82094" lon="1.2852">
        <ele>87.853190136711</ele>
        <time>2021-07-17T20:56:12.860Z</time>
      </trkpt>
      <trkpt lat="44.82077" lon="1.28541">
        <ele>87.84191958442</ele>
        <time>2021-07-17T20:56:30.453Z</time>
      </trkpt>
      <trkpt lat="44.82063" lon="1.28566">
        <ele>87.789067507985</ele>
        <time>2021-07-17T20:56:48.050Z</time>
      </trkpt>
      <trkpt lat="44.82059" lon="1.28587">
        <ele>87.808355874358</ele>
        <time>2021-07-17T20:57:05.650Z</time>
      </trkpt>
      <trkpt lat="44.82058" lon="1.28604">
        <ele>87.877113948926</ele>
        <time>2021-07-17T20:57:23.253Z</time>
      </trkpt>
      <trkpt lat="44.8206" lon="1.28622">
        <ele>87.960075875466</ele>
        <time>2021-07-17T20:57:40.858Z</time>
      </trkpt>
      <trkpt lat="44.82045" lon="1.28695">
        <ele>87.972499922735</ele>
        <time>2021-07-17T20:57:58.474Z</time>
      </trkpt>
      <trkpt lat="44.82039" lon="1.28728">
        <ele>88.114661884469</ele>
        <time>2021-07-17T20:58:16.095Z</time>
      </trkpt>
      <trkpt lat="44.82027" lon="1.28764">
        <ele>88.20407394817</ele>
        <time>2021-07-17T20:58:33.721Z</time>
      </trkpt>
      <trkpt lat="44.82012" lon="1.28793">
        <ele>88.465498567523</ele>
        <time>2021-07-17T20:58:51.353Z</time>
      </trkpt>
      <trkpt lat="44.81992" lon="1.28826">
        <ele>88.764435447906</ele>
        <time>2021-07-17T20:59:08.991Z</time>
      </trkpt>
      <trkpt lat="44.81971" lon="1.28856">
        <ele>88.915686645832</ele>
        <time>2021-07-17T20:59:26.635Z</time>
      </trkpt>
      <trkpt lat="44.81948" lon="1.28881">
        <ele>89.119435331939</ele>
        <time>2021-07-17T20:59:44.285Z</time>
      </trkpt>
      <trkpt lat="44.81896" lon="1.28927">
        <ele>89.267072345969</ele>
        <time>2021-07-17T21:00:01.947Z</time>
      </trkpt>
      <trkpt lat="44.81878" lon="1.28946">
        <ele>89.597694582287</ele>
        <time>2021-07-17T21:00:19.613Z</time>
      </trkpt>
      <trkpt lat="44.81869" lon="1.28961">
        <ele>89.900431151142</ele>
        <time>2021-07-17T21:00:37.282Z</time>
      </trkpt>
      <trkpt lat="44.81847" lon="1.29003">
        <ele>90.25485011853</ele>
        <time>2021-07-17T21:00:54.959Z</time>
      </trkpt>
      <trkpt lat="44.81825" lon="1.29041">
        <ele>90.58438123093</ele>
        <time>2021-07-17T21:01:12.643Z</time>
      </trkpt>
      <trkpt lat="44.81816" lon="1.2905">
        <ele>91.004124142949</ele>
        <time>2021-07-17T21:01:30.329Z</time>
      </trkpt>
      <trkpt lat="44.81803" lon="1.29057">
        <ele>91.57504925925</ele>
        <time>2021-07-17T21:01:48.018Z</time>
      </trkpt>
      <trkpt lat="44.81792" lon="1.29062">
        <ele>92.17963645496</ele>
        <time>2021-07-17T21:02:05.709Z</time>
      </trkpt>
      <trkpt lat="44.81767" lon="1.29066">
        <ele>92.891182551733</ele>
        <time>2021-07-17T21:02:23.405Z</time>
      </trkpt>
      <trkpt lat="44.81759" lon="1.29076">
        <ele>93.533326436854</ele>
        <time>2021-07-17T21:02:41.103Z</time>
      </trkpt>
      <trkpt lat="44.81753" lon="1.29068">
        <ele>94.252441554504</ele>
        <time>2021-07-17T21:02:58.803Z</time>
      </trkpt>
      <trkpt lat="44.81746" lon="1.29054">
        <ele>95.037513932873</ele>
        <time>2021-07-17T21:03:16.505Z</time>
      </trkpt>
      <trkpt lat="44.81731" lon="1.2903">
        <ele>95.842950386136</ele>
        <time>2021-07-17T21:03:34.212Z</time>
      </trkpt>
      <trkpt lat="44.81688" lon="1.29082">
        <ele>96.621865303018</ele>
        <time>2021-07-17T21:03:51.930Z</time>
      </trkpt>
      <trkpt lat="44.81661" lon="1.2911">
        <ele>97.567866071029</ele>
        <time>2021-07-17T21:04:09.655Z</time>
      </trkpt>
      <trkpt lat="44.81652" lon="1.29115">
        <ele>98.421305218794</ele>
        <time>2021-07-17T21:04:27.382Z</time>
      </trkpt>
      <trkpt lat="44.8164" lon="1.29116">
        <ele>99.299796863012</ele>
        <time>2021-07-17T21:04:45.111Z</time>
      </trkpt>
      <trkpt lat="44.81619" lon="1.2911">
        <ele>100.19841512907</ele>
        <time>2021-07-17T21:05:02.844Z</time>
      </trkpt>
      <trkpt lat="44.81597" lon="1.29102">
        <ele>101.06346673637</ele>
        <time>2021-07-17T21:05:20.582Z</time>
      </trkpt>
      <trkpt lat="44.81565" lon="1.2909">
        <ele>101.96950580803</ele>
        <time>2021-07-17T21:05:38.327Z</time>
      </trkpt>
      <trkpt lat="44.81515" lon="1.29073">
        <ele>102.86420295316</ele>
        <time>2021-07-17T21:05:56.082Z</time>
      </trkpt>
      <trkpt lat="44.81499" lon="1.29066">
        <ele>103.80821014412</ele>
        <time>2021-07-17T21:06:13.840Z</time>
      </trkpt>
      <trkpt lat="44.81486" lon="1.29057">
        <ele>104.76244961737</ele>
        <time>2021-07-17T21:06:31.601Z</time>
      </trkpt>
      <trkpt lat="44.81472" lon="1.29053">
        <ele>105.69266871907</ele>
        <time>2021-07-17T21:06:49.365Z</time>
      </trkpt>
      <trkpt lat="44.81434" lon="1.29049">
        <ele>106.6166374319</ele>
        <time>2021-07-17T21:07:07.137Z</time>
      </trkpt>
      <trkpt lat="44.81365" lon="1.29057">
        <ele>107.52176381544</ele>
        <time>2021-07-17T21:07:24.922Z</time>
      </trkpt>
      <trkpt lat="44.81322" lon="1.29059">
        <ele>108.44676395761</ele>
        <time>2021-07-17T21:07:42.716Z</time>
      </trkpt>
      <trkpt lat="44.81299" lon="1.29082">
        <ele>109.21642746269</ele>
        <time>2021-07-17T21:08:00.516Z</time>
      </trkpt>
      <trkpt lat="44.81276" lon="1.29095">
        <ele>109.91252966391</ele>
        <time>2021-07-17T21:08:18.321Z</time>
      </trkpt>
      <trkpt lat="44.81254" lon="1.29099">
        <ele>110.5342446907</ele>
        <time>2021-07-17T21:08:36.130Z</time>
      </trkpt>
      <trkpt lat="44.81206" lon="1.29105">
        <ele>111.12551556075</ele>
        <time>2021-07-17T21:08:53.949Z</time>
      </trkpt>
      <trkpt lat="44.81167" lon="1.29117">
        <ele>111.65447260922</ele>
        <time>2021-07-17T21:09:11.776Z</time>
      </trkpt>
      <trkpt lat="44.81125" lon="1.2914">
        <ele>112.23828099702</ele>
        <time>2021-07-17T21:09:29.612Z</time>
      </trkpt>
      <trkpt lat="44.81086" lon="1.29165">
        <ele>112.76961754039</ele>
        <time>2021-07-17T21:09:47.456Z</time>
      </trkpt>
      <trkpt lat="44.81056" lon="1.29181">
        <ele>113.0657410691</ele>
        <time>2021-07-17T21:10:05.307Z</time>
      </trkpt>
      <trkpt lat="44.81037" lon="1.29197">
        <ele>113.28961425546</ele>
        <time>2021-07-17T21:10:23.162Z</time>
      </trkpt>
      <trkpt lat="44.8101" lon="1.29226">
        <ele>113.57473385216</ele>
        <time>2021-07-17T21:10:41.024Z</time>
      </trkpt>
      <trkpt lat="44.81007" lon="1.2923">
        <ele>113.68422267731</ele>
        <time>2021-07-17T21:10:58.887Z</time>
      </trkpt>
      <trkpt lat="44.80996" lon="1.29246">
        <ele>113.74094643009</ele>
        <time>2021-07-17T21:11:16.753Z</time>
      </trkpt>
      <trkpt lat="44.8098" lon="1.29259">
        <ele>113.72995077551</ele>
        <time>2021-07-17T21:11:34.623Z</time>
      </trkpt>
      <trkpt lat="44.80943" lon="1.29277">
        <ele>113.63386891421</ele>
        <time>2021-07-17T21:11:52.500Z</time>
      </trkpt>
      <trkpt lat="44.80872" lon="1.29307">
        <ele>113.25320797233</ele>
        <time>2021-07-17T21:12:10.392Z</time>
      </trkpt>
      <trkpt lat="44.80853" lon="1.29319">
        <ele>112.77866328738</ele>
        <time>2021-07-17T21:12:28.288Z</time>
      </trkpt>
      <trkpt lat="44.80851" lon="1.29326">
        <ele>112.33778066783</ele>
        <time>2021-07-17T21:12:46.186Z</time>
      </trkpt>
      <trkpt lat="44.80847" lon="1.29335">
        <ele>111.81593889668</ele>
        <time>2021-07-17T21:13:04.085Z</time>
      </trkpt>
      <trkpt lat="44.80844" lon="1.29345">
        <ele>111.25302144546</ele>
        <time>2021-07-17T21:13:21.986Z</time>
      </trkpt>
      <trkpt lat="44.80833" lon="1.29406">
        <ele>110.48321539634</ele>
        <time>2021-07-17T21:13:39.896Z</time>
      </trkpt>
      <trkpt lat="44.8083" lon="1.29408">
        <ele>109.77853905861</ele>
        <time>2021-07-17T21:13:57.806Z</time>
      </trkpt>
      <trkpt lat="44.80827" lon="1.29407">
        <ele>109.02039974162</ele>
        <time>2021-07-17T21:14:15.717Z</time>
      </trkpt>
      <trkpt lat="44.80824" lon="1.29406">
        <ele>108.20850485234</ele>
        <time>2021-07-17T21:14:33.628Z</time>
      </trkpt>
      <trkpt lat="44.80825" lon="1.29375">
        <ele>107.4463475526</ele>
        <time>2021-07-17T21:14:51.544Z</time>
      </trkpt>
      <trkpt lat="44.8082" lon="1.29364">
        <ele>106.57797171349</ele>
        <time>2021-07-17T21:15:09.462Z</time>
      </trkpt>
      <trkpt lat="44.80813" lon="1.29356">
        <ele>105.64006306731</ele>
        <time>2021-07-17T21:15:27.381Z</time>
      </trkpt>
      <trkpt lat="44.80808" lon="1.29355">
        <ele>104.63974743253</ele>
        <time>2021-07-17T21:15:45.302Z</time>
      </trkpt>
      <trkpt lat="44.80802" lon="1.29358">
        <ele>103.5826118582</ele>
        <time>2021-07-17T21:16:03.224Z</time>
      </trkpt>
      <trkpt lat="44.80798" lon="1.29363">
        <ele>102.50831513439</ele>
        <time>2021-07-17T21:16:21.147Z</time>
      </trkpt>
      <trkpt lat="44.80794" lon="1.29372">
        <ele>101.41219130122</ele>
        <time>2021-07-17T21:16:39.071Z</time>
      </trkpt>
      <trkpt lat="44.80785" lon="1.29429">
        <ele>100.20090077856</ele>
        <time>2021-07-17T21:16:57.004Z</time>
      </trkpt>
      <trkpt lat="44.80783" lon="1.29445">
        <ele>99.119676199383</ele>
        <time>2021-07-17T21:17:14.939Z</time>
      </trkpt>
      <trkpt lat="44.8078" lon="1.29453">
        <ele>98.048316109856</ele>
        <time>2021-07-17T21:17:32.875Z</time>
      </trkpt>
      <trkpt lat="44.8077" lon="1.29465">
        <ele>96.971095310567</ele>
        <time>2021-07-17T21:17:50.814Z</time>
      </trkpt>
      <trkpt lat="44.8076" lon="1.29467">
        <ele>95.921092905767</ele>
        <time>2021-07-17T21:18:08.755Z</time>
      </trkpt>
      <trkpt lat="44.80742" lon="1.29461">
        <ele>94.930990204005</ele>
        <time>2021-07-17T21:18:26.700Z</time>
      </trkpt>
      <trkpt lat="44.80733" lon="1.29455">
        <ele>93.973394732374</ele>
        <time>2021-07-17T21:18:44.647Z</time>
      </trkpt>
      <trkpt lat="44.80729" lon="1.29474">
        <ele>93.017508019713</ele>
        <time>2021-07-17T21:19:02.596Z</time>
      </trkpt>
      <trkpt lat="44.80713" lon="1.29509">
        <ele>92.09085010666</ele>
        <time>2021-07-17T21:19:20.551Z</time>
      </trkpt>
      <trkpt lat="44.80709" lon="1.29525">
        <ele>91.200490247275</ele>
        <time>2021-07-17T21:19:38.509Z</time>
      </trkpt>
      <trkpt lat="44.8071" lon="1.29575">
        <ele>90.241882593097</ele>
        <time>2021-07-17T21:19:56.474Z</time>
      </trkpt>
      <trkpt lat="44.80712" lon="1.29588">
        <ele>89.466892540875</ele>
        <time>2021-07-17T21:20:14.441Z</time>
      </trkpt>
      <trkpt lat="44.8072" lon="1.29679">
        <ele>88.650148469408</ele>
        <time>2021-07-17T21:20:32.421Z</time>
      </trkpt>
      <trkpt lat="44.80722" lon="1.29699">
        <ele>88.052750289219</ele>
        <time>2021-07-17T21:20:50.404Z</time>
      </trkpt>
      <trkpt lat="44.80723" lon="1.29712">
        <ele>87.537247311233</ele>
        <time>2021-07-17T21:21:08.389Z</time>
      </trkpt>
      <trkpt lat="44.80724" lon="1.29716">
        <ele>87.06132783169</ele>
        <time>2021-07-17T21:21:26.374Z</time>
      </trkpt>
      <trkpt lat="44.80726" lon="1.29726">
        <ele>86.725840421488</ele>
        <time>2021-07-17T21:21:44.361Z</time>
      </trkpt>
      <trkpt lat="44.80728" lon="1.29735">
        <ele>86.454636469922</ele>
        <time>2021-07-17T21:22:02.349Z</time>
      </trkpt>
      <trkpt lat="44.80725" lon="1.29744">
        <ele>86.262347753464</ele>
        <time>2021-07-17T21:22:20.338Z</time>
      </trkpt>
      <trkpt lat="44.80698" lon="1.29733">
        <ele>86.003038569561</ele>
        <time>2021-07-17T21:22:38.333Z</time>
      </trkpt>
      <trkpt lat="44.80682" lon="1.29727">
        <ele>85.827847107736</ele>
        <time>2021-07-17T21:22:56.331Z</time>
      </trkpt>
      <trkpt lat="44.80676" lon="1.29725">
        <ele>85.76031414293</ele>
        <time>2021-07-17T21:23:14.331Z</time>
      </trkpt>
      <trkpt lat="44.80649" lon="1.29721">
        <ele>85.737527706817</ele>
        <time>2021-07-17T21:23:32.336Z</time>
      </trkpt>
      <trkpt lat="44.80623" lon="1.29722">
        <ele>85.794106535581</ele>
        <time>2021-07-17T21:23:50.346Z</time>
      </trkpt>
      <trkpt lat="44.80613" lon="1.29724">
        <ele>85.952386477819</ele>
        <time>2021-07-17T21:24:08.358Z</time>
      </trkpt>
      <trkpt lat="44.80591" lon="1.29736">
        <ele>86.168110575965</ele>
        <time>2021-07-17T21:24:26.375Z</time>
      </trkpt>
      <trkpt lat="44.80575" lon="1.29751">
        <ele>86.522995284586</ele>
        <time>2021-07-17T21:24:44.396Z</time>
      </trkpt>
      <trkpt lat="44.80569" lon="1.2976">
        <ele>86.937875459768</ele>
        <time>2021-07-17T21:25:02.419Z</time>
      </trkpt>
      <trkpt lat="44.80557" lon="1.29777">
        <ele>87.429070469998</ele>
        <time>2021-07-17T21:25:20.445Z</time>
      </trkpt>
      <trkpt lat="44.80547" lon="1.29793">
        <ele>88.03070656307</ele>
        <time>2021-07-17T21:25:38.474Z</time>
      </trkpt>
      <trkpt lat="44.80521" lon="1.29833">
        <ele>88.736239629188</ele>
        <time>2021-07-17T21:25:56.511Z</time>
      </trkpt>
      <trkpt lat="44.80509" lon="1.29853">
        <ele>89.419936380419</ele>
        <time>2021-07-17T21:26:14.551Z</time>
      </trkpt>
      <trkpt lat="44.80502" lon="1.29867">
        <ele>90.242322744384</ele>
        <time>2021-07-17T21:26:32.594Z</time>
      </trkpt>
      <trkpt lat="44.80491" lon="1.2989">
        <ele>91.167618281594</ele>
        <time>2021-07-17T21:26:50.641Z</time>
      </trkpt>
      <trkpt lat="44.80481" lon="1.29911">
        <ele>92.146508173563</ele>
        <time>2021-07-17T21:27:08.691Z</time>
      </trkpt>
      <trkpt lat="44.80409" lon="1.30073">
        <ele>92.787986319116</ele>
        <time>2021-07-17T21:27:26.769Z</time>
      </trkpt>
      <trkpt lat="44.80418" lon="1.30088">
        <ele>93.939003359927</ele>
        <time>2021-07-17T21:27:44.849Z</time>
      </trkpt>
      <trkpt lat="44.80422" lon="1.30099">
        <ele>95.116219406709</ele>
        <time>2021-07-17T21:28:02.931Z</time>
      </trkpt>
      <trkpt lat="44.80421" lon="1.30114">
        <ele>96.342519344248</ele>
        <time>2021-07-17T21:28:21.015Z</time>
      </trkpt>
      <trkpt lat="44.80384" lon="1.30274">
        <ele>97.826892196477</ele>
        <time>2021-07-17T21:28:39.123Z</time>
      </trkpt>
      <trkpt lat="44.8037" lon="1.30335">
        <ele>99.077132134833</ele>
        <time>2021-07-17T21:28:57.240Z</time>
      </trkpt>
      <trkpt lat="44.80367" lon="1.30346">
        <ele>100.34156334063</ele>
        <time>2021-07-17T21:29:15.359Z</time>
      </trkpt>
      <trkpt lat="44.80359" lon="1.30375">
        <ele>101.62436311919</ele>
        <time>2021-07-17T21:29:33.483Z</time>
      </trkpt>
      <trkpt lat="44.80354" lon="1.30401">
        <ele>102.91468417311</ele>
        <time>2021-07-17T21:29:51.610Z</time>
      </trkpt>
      <trkpt lat="44.8034" lon="1.30459">
        <ele>104.22303762575</ele>
        <time>2021-07-17T21:30:09.746Z</time>
      </trkpt>
      <trkpt lat="44.80328" lon="1.30496">
        <ele>105.49250819637</ele>
        <time>2021-07-17T21:30:27.888Z</time>
      </trkpt>
      <trkpt lat="44.80316" lon="1.30538">
        <ele>106.79556126779</ele>
        <time>2021-07-17T21:30:46.036Z</time>
      </trkpt>
      <trkpt lat="44.80313" lon="1.30551">
        <ele>108.02151877117</ele>
        <time>2021-07-17T21:31:04.186Z</time>
      </trkpt>
      <trkpt lat="44.80304" lon="1.30586">
        <ele>109.2449128643</ele>
        <time>2021-07-17T21:31:22.342Z</time>
      </trkpt>
      <trkpt lat="44.80278" lon="1.30666">
        <ele>110.53669088092</ele>
        <time>2021-07-17T21:31:40.510Z</time>
      </trkpt>
      <trkpt lat="44.80273" lon="1.30676">
        <ele>111.64018885636</ele>
        <time>2021-07-17T21:31:58.680Z</time>
      </trkpt>
      <trkpt lat="44.80266" lon="1.30682">
        <ele>112.66971103642</ele>
        <time>2021-07-17T21:32:16.851Z</time>
      </trkpt>
      <trkpt lat="44.80262" lon="1.30685">
        <ele>113.57442475768</ele>
        <time>2021-07-17T21:32:35.023Z</time>
      </trkpt>
      <trkpt lat="44.80259" lon="1.30687">
        <ele>114.37581947373</ele>
        <time>2021-07-17T21:32:53.196Z</time>
      </trkpt>
      <trkpt lat="44.80253" lon="1.30687">
        <ele>115.07866100248</ele>
        <time>2021-07-17T21:33:11.370Z</time>
      </trkpt>
      <trkpt lat="44.8019" lon="1.30674">
        <ele>115.5076055919</ele>
        <time>2021-07-17T21:33:29.557Z</time>
      </trkpt>
      <trkpt lat="44.80152" lon="1.30682">
        <ele>116.05678016539</ele>
        <time>2021-07-17T21:33:47.752Z</time>
      </trkpt>
      <trkpt lat="44.80138" lon="1.30686">
        <ele>116.43213035744</ele>
        <time>2021-07-17T21:34:05.950Z</time>
      </trkpt>
      <trkpt lat="44.80067" lon="1.30721">
        <ele>116.79505535441</ele>
        <time>2021-07-17T21:34:24.163Z</time>
      </trkpt>
      <trkpt lat="44.80055" lon="1.30725">
        <ele>117.00009015484</ele>
        <time>2021-07-17T21:34:42.378Z</time>
      </trkpt>
      <trkpt lat="44.8001" lon="1.30729">
        <ele>117.05394004952</ele>
        <time>2021-07-17T21:35:00.602Z</time>
      </trkpt>
      <trkpt lat="44.79991" lon="1.30735">
        <ele>116.90825743673</ele>
        <time>2021-07-17T21:35:18.830Z</time>
      </trkpt>
      <trkpt lat="44.79983" lon="1.30739">
        <ele>116.71018637535</ele>
        <time>2021-07-17T21:35:37.060Z</time>
      </trkpt>
      <trkpt lat="44.79953" lon="1.30759">
        <ele>116.41110796825</ele>
        <time>2021-07-17T21:35:55.296Z</time>
      </trkpt>
      <trkpt lat="44.7991" lon="1.30799">
        <ele>116.2519729609</ele>
        <time>2021-07-17T21:36:13.543Z</time>
      </trkpt>
      <trkpt lat="44.79875" lon="1.3086">
        <ele>115.85106440269</ele>
        <time>2021-07-17T21:36:31.801Z</time>
      </trkpt>
      <trkpt lat="44.79854" lon="1.3089">
        <ele>115.31458809904</ele>
        <time>2021-07-17T21:36:50.065Z</time>
      </trkpt>
      <trkpt lat="44.79821" lon="1.30948">
        <ele>114.44874057731</ele>
        <time>2021-07-17T21:37:08.339Z</time>
      </trkpt>
      <trkpt lat="44.79805" lon="1.30968">
        <ele>113.55325627664</ele>
        <time>2021-07-17T21:37:26.618Z</time>
      </trkpt>
      <trkpt lat="44.79771" lon="1.30995">
        <ele>112.6033269899</ele>
        <time>2021-07-17T21:37:44.904Z</time>
      </trkpt>
      <trkpt lat="44.79676" lon="1.31024">
        <ele>111.19911073389</ele>
        <time>2021-07-17T21:38:03.210Z</time>
      </trkpt>
      <trkpt lat="44.79626" lon="1.31038">
        <ele>110.218214215</ele>
        <time>2021-07-17T21:38:21.526Z</time>
      </trkpt>
      <trkpt lat="44.79623" lon="1.31038">
        <ele>109.29188778225</ele>
        <time>2021-07-17T21:38:39.843Z</time>
      </trkpt>
      <trkpt lat="44.7956" lon="1.31069">
        <ele>108.22231524408</ele>
        <time>2021-07-17T21:38:58.173Z</time>
      </trkpt>
      <trkpt lat="44.79538" lon="1.31087">
        <ele>107.18060749017</ele>
        <time>2021-07-17T21:39:16.508Z</time>
      </trkpt>
      <trkpt lat="44.79531" lon="1.31097">
        <ele>106.23416631301</ele>
        <time>2021-07-17T21:39:34.845Z</time>
      </trkpt>
      <trkpt lat="44.79513" lon="1.31121">
        <ele>105.28638696867</ele>
        <time>2021-07-17T21:39:53.187Z</time>
      </trkpt>
      <trkpt lat="44.79504" lon="1.31141">
        <ele>104.43479615881</ele>
        <time>2021-07-17T21:40:11.532Z</time>
      </trkpt>
      <trkpt lat="44.7948" lon="1.31206">
        <ele>103.6556507601</ele>
        <time>2021-07-17T21:40:29.888Z</time>
      </trkpt>
      <trkpt lat="44.79466" lon="1.31235">
        <ele>102.90324257993</ele>
        <time>2021-07-17T21:40:48.249Z</time>
      </trkpt>
      <trkpt lat="44.79459" lon="1.31244">
        <ele>102.14590881798</ele>
        <time>2021-07-17T21:41:06.612Z</time>
      </trkpt>
      <trkpt lat="44.79443" lon="1.31277">
        <ele>101.41138621194</ele>
        <time>2021-07-17T21:41:24.980Z</time>
      </trkpt>
      <trkpt lat="44.79437" lon="1.31295">
        <ele>100.77559595957</ele>
        <time>2021-07-17T21:41:43.351Z</time>
      </trkpt>
      <trkpt lat="44.79428" lon="1.31409">
        <ele>100.15674458156</ele>
        <time>2021-07-17T21:42:01.739Z</time>
      </trkpt>
      <trkpt lat="44.79428" lon="1.31423">
        <ele>99.662379521766</ele>
        <time>2021-07-17T21:42:20.129Z</time>
      </trkpt>
      <trkpt lat="44.79418" lon="1.31477">
        <ele>99.297980556784</ele>
        <time>2021-07-17T21:42:38.527Z</time>
      </trkpt>
      <trkpt lat="44.79401" lon="1.31559">
        <ele>99.188801207188</ele>
        <time>2021-07-17T21:42:56.937Z</time>
      </trkpt>
      <trkpt lat="44.79361" lon="1.31651">
        <ele>98.942913301536</ele>
        <time>2021-07-17T21:43:15.362Z</time>
      </trkpt>
      <trkpt lat="44.79309" lon="1.31776">
        <ele>98.589852891506</ele>
        <time>2021-07-17T21:43:33.808Z</time>
      </trkpt>
      <trkpt lat="44.7928" lon="1.3184">
        <ele>98.403621183872</ele>
        <time>2021-07-17T21:43:52.265Z</time>
      </trkpt>
      <trkpt lat="44.79262" lon="1.319">
        <ele>98.217216100748</ele>
        <time>2021-07-17T21:44:10.731Z</time>
      </trkpt>
      <trkpt lat="44.79259" lon="1.31962">
        <ele>98.125227107024</ele>
        <time>2021-07-17T21:44:29.206Z</time>
      </trkpt>
      <trkpt lat="44.79262" lon="1.31982">
        <ele>98.104848138151</ele>
        <time>2021-07-17T21:44:47.684Z</time>
      </trkpt>
      <trkpt lat="44.79269" lon="1.32038">
        <ele>98.151945714204</ele>
        <time>2021-07-17T21:45:06.170Z</time>
      </trkpt>
      <trkpt lat="44.79287" lon="1.32102">
        <ele>98.289218160981</ele>
        <time>2021-07-17T21:45:24.665Z</time>
      </trkpt>
      <trkpt lat="44.79314" lon="1.32149">
        <ele>98.539462538167</ele>
        <time>2021-07-17T21:45:43.169Z</time>
      </trkpt>
      <trkpt lat="44.79323" lon="1.32168">
        <ele>98.723053771553</ele>
        <time>2021-07-17T21:46:01.676Z</time>
      </trkpt>
      <trkpt lat="44.79314" lon="1.32214">
        <ele>98.678311176502</ele>
        <time>2021-07-17T21:46:20.190Z</time>
      </trkpt>
      <trkpt lat="44.79306" lon="1.32246">
        <ele>98.954489747696</ele>
        <time>2021-07-17T21:46:38.709Z</time>
      </trkpt>
      <trkpt lat="44.79285" lon="1.32279">
        <ele>99.127662421763</ele>
        <time>2021-07-17T21:46:57.234Z</time>
      </trkpt>
      <trkpt lat="44.79251" lon="1.32353">
        <ele>99.37419358422</ele>
        <time>2021-07-17T21:47:15.772Z</time>
      </trkpt>
      <trkpt lat="44.79215" lon="1.32438">
        <ele>99.647904541023</ele>
        <time>2021-07-17T21:47:34.324Z</time>
      </trkpt>
      <trkpt lat="44.79209" lon="1.32439">
        <ele>99.903878340167</ele>
        <time>2021-07-17T21:47:52.877Z</time>
      </trkpt>
      <trkpt lat="44.79211" lon="1.32425">
        <ele>100.2553461563</ele>
        <time>2021-07-17T21:48:11.432Z</time>
      </trkpt>
      <trkpt lat="44.79229" lon="1.32374">
        <ele>100.54008202725</ele>
        <time>2021-07-17T21:48:29.995Z</time>
      </trkpt>
      <trkpt lat="44.79233" lon="1.32346">
        <ele>100.85018040336</ele>
        <time>2021-07-17T21:48:48.562Z</time>
      </trkpt>
      <trkpt lat="44.79233" lon="1.32315">
        <ele>101.2054875394</ele>
        <time>2021-07-17T21:49:07.134Z</time>
      </trkpt>
      <trkpt lat="44.79225" lon="1.32288">
        <ele>101.60926549716</ele>
        <time>2021-07-17T21:49:25.710Z</time>
      </trkpt>
      <trkpt lat="44.79218" lon="1.3223">
        <ele>102.14584855476</ele>
        <time>2021-07-17T21:49:44.294Z</time>
      </trkpt>
      <trkpt lat="44.79209" lon="1.32191">
        <ele>102.60356401768</ele>
        <time>2021-07-17T21:50:02.884Z</time>
      </trkpt>
      <trkpt lat="44.79181" lon="1.32125">
        <ele>103.23106331164</ele>
        <time>2021-07-17T21:50:21.485Z</time>
      </trkpt>
      <trkpt lat="44.79165" lon="1.32091">
        <ele>103.94622475597</ele>
        <time>2021-07-17T21:50:40.092Z</time>
      </trkpt>
      <trkpt lat="44.79156" lon="1.32108">
        <ele>104.6626174381</ele>
        <time>2021-07-17T21:50:58.702Z</time>
      </trkpt>
      <trkpt lat="44.79137" lon="1.32134">
        <ele>105.56696129492</ele>
        <time>2021-07-17T21:51:17.317Z</time>
      </trkpt>
      <trkpt lat="44.79108" lon="1.32167">
        <ele>106.39063576409</ele>
        <time>2021-07-17T21:51:35.940Z</time>
      </trkpt>
      <trkpt lat="44.79089" lon="1.32207">
        <ele>106.91538495273</ele>
        <time>2021-07-17T21:51:54.569Z</time>
      </trkpt>
      <trkpt lat="44.79054" lon="1.32255">
        <ele>107.42079490549</ele>
        <time>2021-07-17T21:52:13.208Z</time>
      </trkpt>
      <trkpt lat="44.79041" lon="1.32267">
        <ele>107.92221826092</ele>
        <time>2021-07-17T21:52:31.850Z</time>
      </trkpt>
      <trkpt lat="44.79038" lon="1.3231">
        <ele>108.17527727964</ele>
        <time>2021-07-17T21:52:50.499Z</time>
      </trkpt>
      <trkpt lat="44.79035" lon="1.32371">
        <ele>108.47991524673</ele>
        <time>2021-07-17T21:53:09.156Z</time>
      </trkpt>
      <trkpt lat="44.7903" lon="1.32394">
        <ele>108.9782013556</ele>
        <time>2021-07-17T21:53:27.817Z</time>
      </trkpt>
      <trkpt lat="44.79027" lon="1.32423">
        <ele>109.46378679432</ele>
        <time>2021-07-17T21:53:46.482Z</time>
      </trkpt>
      <trkpt lat="44.79026" lon="1.32453">
        <ele>109.88975218603</ele>
        <time>2021-07-17T21:54:05.151Z</time>
      </trkpt>
      <trkpt lat="44.79028" lon="1.32476">
        <ele>110.22300174931</ele>
        <time>2021-07-17T21:54:23.823Z</time>
      </trkpt>
      <trkpt lat="44.79033" lon="1.32504">
        <ele>110.44610090108</ele>
        <time>2021-07-17T21:54:42.500Z</time>
      </trkpt>
      <trkpt lat="44.79044" lon="1.32529">
        <ele>110.67019780209</ele>
        <time>2021-07-17T21:55:01.181Z</time>
      </trkpt>
      <trkpt lat="44.79058" lon="1.32553">
        <ele>110.92379503869</ele>
        <time>2021-07-17T21:55:19.866Z</time>
      </trkpt>
      <trkpt lat="44.79096" lon="1.32575">
        <ele>111.16408513414</ele>
        <time>2021-07-17T21:55:38.559Z</time>
      </trkpt>
      <trkpt lat="44.79104" lon="1.32609">
        <ele>111.57699810744</ele>
        <time>2021-07-17T21:55:57.257Z</time>
      </trkpt>
      <trkpt lat="44.79125" lon="1.32686">
        <ele>112.07675138558</ele>
        <time>2021-07-17T21:56:15.967Z</time>
      </trkpt>
      <trkpt lat="44.79124" lon="1.32731">
        <ele>112.40886303923</ele>
        <time>2021-07-17T21:56:34.684Z</time>
      </trkpt>
      <trkpt lat="44.79127" lon="1.3275">
        <ele>112.463974597</ele>
        <time>2021-07-17T21:56:53.403Z</time>
      </trkpt>
      <trkpt lat="44.79158" lon="1.32842">
        <ele>112.20237179587</ele>
        <time>2021-07-17T21:57:12.137Z</time>
      </trkpt>
      <trkpt lat="44.79169" lon="1.3288">
        <ele>112.09047490576</ele>
        <time>2021-07-17T21:57:30.877Z</time>
      </trkpt>
      <trkpt lat="44.79173" lon="1.32879">
        <ele>111.89479356745</ele>
        <time>2021-07-17T21:57:49.618Z</time>
      </trkpt>
      <trkpt lat="44.79182" lon="1.32928">
        <ele>111.58143011204</ele>
        <time>2021-07-17T21:58:08.366Z</time>
      </trkpt>
      <trkpt lat="44.79187" lon="1.32953">
        <ele>111.27861624092</ele>
        <time>2021-07-17T21:58:27.117Z</time>
      </trkpt>
      <trkpt lat="44.79188" lon="1.32964">
        <ele>110.97339613356</ele>
        <time>2021-07-17T21:58:45.870Z</time>
      </trkpt>
      <trkpt lat="44.79189" lon="1.32988">
        <ele>110.61746320714</ele>
        <time>2021-07-17T21:59:04.627Z</time>
      </trkpt>
      <trkpt lat="44.7919" lon="1.33002">
        <ele>110.21155192068</ele>
        <time>2021-07-17T21:59:23.386Z</time>
      </trkpt>
      <trkpt lat="44.79192" lon="1.33004">
        <ele>109.73889823059</ele>
        <time>2021-07-17T21:59:42.145Z</time>
      </trkpt>
      <trkpt lat="44.79197" lon="1.3301">
        <ele>109.20072199608</ele>
        <time>2021-07-17T22:00:00.905Z</time>
      </trkpt>
      <trkpt lat="44.79205" lon="1.33012">
        <ele>108.58778444781</ele>
        <time>2021-07-17T22:00:19.667Z</time>
      </trkpt>
      <trkpt lat="44.79216" lon="1.33014">
        <ele>107.88437614068</ele>
        <time>2021-07-17T22:00:38.431Z</time>
      </trkpt>
      <trkpt lat="44.79223" lon="1.33016">
        <ele>107.21052531803</ele>
        <time>2021-07-17T22:00:57.196Z</time>
      </trkpt>
      <trkpt lat="44.79228" lon="1.3302">
        <ele>106.52871892407</ele>
        <time>2021-07-17T22:01:15.963Z</time>
      </trkpt>
      <trkpt lat="44.79231" lon="1.33025">
        <ele>105.85535791558</ele>
        <time>2021-07-17T22:01:34.731Z</time>
      </trkpt>
      <trkpt lat="44.79234" lon="1.33035">
        <ele>105.21043574425</ele>
        <time>2021-07-17T22:01:53.500Z</time>
      </trkpt>
      <trkpt lat="44.79236" lon="1.33046">
        <ele>104.56382732086</ele>
        <time>2021-07-17T22:02:12.271Z</time>
      </trkpt>
      <trkpt lat="44.79239" lon="1.33062">
        <ele>103.92877716113</ele>
        <time>2021-07-17T22:02:31.044Z</time>
      </trkpt>
      <trkpt lat="44.79245" lon="1.33072">
        <ele>103.27022853022</ele>
        <time>2021-07-17T22:02:49.819Z</time>
      </trkpt>
      <trkpt lat="44.79258" lon="1.33086">
        <ele>102.57855081545</ele>
        <time>2021-07-17T22:03:08.597Z</time>
      </trkpt>
      <trkpt lat="44.79266" lon="1.33099">
        <ele>101.87815874696</ele>
        <time>2021-07-17T22:03:27.378Z</time>
      </trkpt>
      <trkpt lat="44.79276" lon="1.33119">
        <ele>101.16706317423</ele>
        <time>2021-07-17T22:03:46.162Z</time>
      </trkpt>
      <trkpt lat="44.7928" lon="1.33135">
        <ele>100.48250467035</ele>
        <time>2021-07-17T22:04:04.949Z</time>
      </trkpt>
      <trkpt lat="44.79284" lon="1.33153">
        <ele>99.806596612467</ele>
        <time>2021-07-17T22:04:23.738Z</time>
      </trkpt>
      <trkpt lat="44.79285" lon="1.33171">
        <ele>99.186029885078</ele>
        <time>2021-07-17T22:04:42.530Z</time>
      </trkpt>
      <trkpt lat="44.79285" lon="1.33198">
        <ele>98.641448465445</ele>
        <time>2021-07-17T22:05:01.326Z</time>
      </trkpt>
      <trkpt lat="44.79284" lon="1.33258">
        <ele>98.161799413791</ele>
        <time>2021-07-17T22:05:20.130Z</time>
      </trkpt>
      <trkpt lat="44.79282" lon="1.3331">
        <ele>97.585106096501</ele>
        <time>2021-07-17T22:05:38.942Z</time>
      </trkpt>
      <trkpt lat="44.79281" lon="1.33345">
        <ele>97.071656377787</ele>
        <time>2021-07-17T22:05:57.759Z</time>
      </trkpt>
      <trkpt lat="44.79281" lon="1.3336">
        <ele>96.679201460521</ele>
        <time>2021-07-17T22:06:16.578Z</time>
      </trkpt>
      <trkpt lat="44.79282" lon="1.33368">
        <ele>96.35229813633</ele>
        <time>2021-07-17T22:06:35.398Z</time>
      </trkpt>
      <trkpt lat="44.79284" lon="1.3337">
        <ele>96.089954722608</ele>
        <time>2021-07-17T22:06:54.218Z</time>
      </trkpt>
      <trkpt lat="44.7929" lon="1.33372">
        <ele>95.888158992043</ele>
        <time>2021-07-17T22:07:13.040Z</time>
      </trkpt>
      <trkpt lat="44.79316" lon="1.33377">
        <ele>95.770680391059</ele>
        <time>2021-07-17T22:07:31.867Z</time>
      </trkpt>
      <trkpt lat="44.79343" lon="1.3338">
        <ele>95.723017041006</ele>
        <time>2021-07-17T22:07:50.699Z</time>
      </trkpt>
      <trkpt lat="44.79357" lon="1.33382">
        <ele>95.731193057321</ele>
        <time>2021-07-17T22:08:09.534Z</time>
      </trkpt>
      <trkpt lat="44.79364" lon="1.33385">
        <ele>95.826754107011</ele>
        <time>2021-07-17T22:08:28.370Z</time>
      </trkpt>
      <trkpt lat="44.79367" lon="1.33388">
        <ele>96.010832511799</ele>
        <time>2021-07-17T22:08:47.207Z</time>
      </trkpt>
      <trkpt lat="44.79369" lon="1.33393">
        <ele>96.279899633375</ele>
        <time>2021-07-17T22:09:06.045Z</time>
      </trkpt>
      <trkpt lat="44.79369" lon="1.33401">
        <ele>96.633506128214</ele>
        <time>2021-07-17T22:09:24.884Z</time>
      </trkpt>
      <trkpt lat="44.79369" lon="1.33422">
        <ele>97.056089770802</ele>
        <time>2021-07-17T22:09:43.726Z</time>
      </trkpt>
      <trkpt lat="44.7937" lon="1.33424">
        <ele>97.549049678052</ele>
        <time>2021-07-17T22:10:02.569Z</time>
      </trkpt>
      <trkpt lat="44.79366" lon="1.33439">
        <ele>98.100242202224</ele>
        <time>2021-07-17T22:10:21.414Z</time>
      </trkpt>
      <trkpt lat="44.79361" lon="1.33457">
        <ele>98.717522141733</ele>
        <time>2021-07-17T22:10:40.262Z</time>
      </trkpt>
      <trkpt lat="44.79356" lon="1.33465">
        <ele>99.456490816571</ele>
        <time>2021-07-17T22:10:59.111Z</time>
      </trkpt>
      <trkpt lat="44.79351" lon="1.33468">
        <ele>100.26123123986</ele>
        <time>2021-07-17T22:11:17.961Z</time>
      </trkpt>
      <trkpt lat="44.79339" lon="1.33471">
        <ele>101.1446555076</ele>
        <time>2021-07-17T22:11:36.814Z</time>
      </trkpt>
      <trkpt lat="44.7932" lon="1.3347">
        <ele>102.07472210811</ele>
        <time>2021-07-17T22:11:55.670Z</time>
      </trkpt>
      <trkpt lat="44.79295" lon="1.33472">
        <ele>103.09015027557</ele>
        <time>2021-07-17T22:12:14.531Z</time>
      </trkpt>
      <trkpt lat="44.79257" lon="1.33478">
        <ele>104.45989597177</ele>
        <time>2021-07-17T22:12:33.400Z</time>
      </trkpt>
      <trkpt lat="44.79244" lon="1.3348">
        <ele>105.57406407181</ele>
        <time>2021-07-17T22:12:52.272Z</time>
      </trkpt>
      <trkpt lat="44.7923" lon="1.33478">
        <ele>106.73723442217</ele>
        <time>2021-07-17T22:13:11.147Z</time>
      </trkpt>
      <trkpt lat="44.79216" lon="1.33467">
        <ele>107.74846892139</ele>
        <time>2021-07-17T22:13:30.025Z</time>
      </trkpt>
      <trkpt lat="44.79207" lon="1.33467">
        <ele>108.83203488043</ele>
        <time>2021-07-17T22:13:48.905Z</time>
      </trkpt>
      <trkpt lat="44.79208" lon="1.33487">
        <ele>110.00493947641</ele>
        <time>2021-07-17T22:14:07.787Z</time>
      </trkpt>
      <trkpt lat="44.7921" lon="1.33503">
        <ele>111.11049396386</ele>
        <time>2021-07-17T22:14:26.672Z</time>
      </trkpt>
      <trkpt lat="44.79209" lon="1.3352">
        <ele>112.22026993216</ele>
        <time>2021-07-17T22:14:45.559Z</time>
      </trkpt>
      <trkpt lat="44.79202" lon="1.3353">
        <ele>113.28355879461</ele>
        <time>2021-07-17T22:15:04.448Z</time>
      </trkpt>
      <trkpt lat="44.79189" lon="1.33582">
        <ele>114.37861727459</ele>
        <time>2021-07-17T22:15:23.345Z</time>
      </trkpt>
      <trkpt lat="44.79178" lon="1.33609">
        <ele>115.39335887623</ele>
        <time>2021-07-17T22:15:42.247Z</time>
      </trkpt>
      <trkpt lat="44.79176" lon="1.33618">
        <ele>116.32614897779</ele>
        <time>2021-07-17T22:16:01.150Z</time>
      </trkpt>
      <trkpt lat="44.79175" lon="1.33628">
        <ele>117.21928030648</ele>
        <time>2021-07-17T22:16:20.054Z</time>
      </trkpt>
      <trkpt lat="44.79177" lon="1.33638">
        <ele>118.06034174767</ele>
        <time>2021-07-17T22:16:38.960Z</time>
      </trkpt>
      <trkpt lat="44.79191" lon="1.33663">
        <ele>118.77766824232</ele>
        <time>2021-07-17T22:16:57.870Z</time>
      </trkpt>
      <trkpt lat="44.79194" lon="1.3367">
        <ele>119.51524781123</ele>
        <time>2021-07-17T22:17:16.782Z</time>
      </trkpt>
      <trkpt lat="44.79197" lon="1.3368">
        <ele>120.19752363403</ele>
        <time>2021-07-17T22:17:35.695Z</time>
      </trkpt>
      <trkpt lat="44.79197" lon="1.33728">
        <ele>120.72439657099</ele>
        <time>2021-07-17T22:17:54.615Z</time>
      </trkpt>
      <trkpt lat="44.79197" lon="1.33739">
        <ele>121.37723874293</ele>
        <time>2021-07-17T22:18:13.536Z</time>
      </trkpt>
      <trkpt lat="44.79197" lon="1.33791">
        <ele>122.14248309645</ele>
        <time>2021-07-17T22:18:32.465Z</time>
      </trkpt>
      <trkpt lat="44.79198" lon="1.33816">
        <ele>122.84421781736</ele>
        <time>2021-07-17T22:18:51.397Z</time>
      </trkpt>
      <trkpt lat="44.792" lon="1.3384">
        <ele>123.46762754495</ele>
        <time>2021-07-17T22:19:10.333Z</time>
      </trkpt>
      <trkpt lat="44.79203" lon="1.33882">
        <ele>124.11789101082</ele>
        <time>2021-07-17T22:19:29.275Z</time>
      </trkpt>
      <trkpt lat="44.79204" lon="1.33911">
        <ele>124.54288235301</ele>
        <time>2021-07-17T22:19:48.221Z</time>
      </trkpt>
      <trkpt lat="44.79202" lon="1.33947">
        <ele>124.8710740623</ele>
        <time>2021-07-17T22:20:07.172Z</time>
      </trkpt>
      <trkpt lat="44.79202" lon="1.33952">
        <ele>125.057301337</ele>
        <time>2021-07-17T22:20:26.124Z</time>
      </trkpt>
      <trkpt lat="44.79202" lon="1.33968">
        <ele>125.1697763707</ele>
        <time>2021-07-17T22:20:45.078Z</time>
      </trkpt>
      <trkpt lat="44.79204" lon="1.33977">
        <ele>125.20473367135</ele>
        <time>2021-07-17T22:21:04.033Z</time>
      </trkpt>
      <trkpt lat="44.79206" lon="1.33982">
        <ele>125.17142651809</ele>
        <time>2021-07-17T22:21:22.989Z</time>
      </trkpt>
      <trkpt lat="44.79212" lon="1.33986">
        <ele>125.05414355801</ele>
        <time>2021-07-17T22:21:41.947Z</time>
      </trkpt>
      <trkpt lat="44.79232" lon="1.33991">
        <ele>124.76206050104</ele>
        <time>2021-07-17T22:22:00.909Z</time>
      </trkpt>
      <trkpt lat="44.79239" lon="1.33994">
        <ele>124.50413653172</ele>
        <time>2021-07-17T22:22:19.872Z</time>
      </trkpt>
      <trkpt lat="44.7925" lon="1.34006">
        <ele>124.2326816379</ele>
        <time>2021-07-17T22:22:38.838Z</time>
      </trkpt>
      <trkpt lat="44.79261" lon="1.34022">
        <ele>123.99344132148</ele>
        <time>2021-07-17T22:22:57.807Z</time>
      </trkpt>
      <trkpt lat="44.79268" lon="1.3403">
        <ele>123.62371105188</ele>
        <time>2021-07-17T22:23:16.778Z</time>
      </trkpt>
      <trkpt lat="44.79275" lon="1.34033">
        <ele>123.20690167159</ele>
        <time>2021-07-17T22:23:35.750Z</time>
      </trkpt>
      <trkpt lat="44.79299" lon="1.34046">
        <ele>122.59983039478</ele>
        <time>2021-07-17T22:23:54.728Z</time>
      </trkpt>
      <trkpt lat="44.79318" lon="1.34066">
        <ele>122.12306785809</ele>
        <time>2021-07-17T22:24:13.710Z</time>
      </trkpt>
      <trkpt lat="44.79331" lon="1.34097">
        <ele>121.76913932003</ele>
        <time>2021-07-17T22:24:32.697Z</time>
      </trkpt>
      <trkpt lat="44.79342" lon="1.34122">
        <ele>121.36894518586</ele>
        <time>2021-07-17T22:24:51.689Z</time>
      </trkpt>
      <trkpt lat="44.79354" lon="1.34149">
        <ele>120.98698819093</ele>
        <time>2021-07-17T22:25:10.685Z</time>
      </trkpt>
      <trkpt lat="44.79362" lon="1.34168">
        <ele>120.70434045015</ele>
        <time>2021-07-17T22:25:29.684Z</time>
      </trkpt>
      <trkpt lat="44.79364" lon="1.34176">
        <ele>120.47551929326</ele>
        <time>2021-07-17T22:25:48.684Z</time>
      </trkpt>
      <trkpt lat="44.79364" lon="1.34185">
        <ele>120.30001701123</ele>
        <time>2021-07-17T22:26:07.686Z</time>
      </trkpt>
      <trkpt lat="44.79362" lon="1.34198">
        <ele>120.14928184502</ele>
        <time>2021-07-17T22:26:26.690Z</time>
      </trkpt>
      <trkpt lat="44.79357" lon="1.3421">
        <ele>120.05548681699</ele>
        <time>2021-07-17T22:26:45.696Z</time>
      </trkpt>
      <trkpt lat="44.7935" lon="1.34231">
        <ele>119.94495627945</ele>
        <time>2021-07-17T22:27:04.705Z</time>
      </trkpt>
      <trkpt lat="44.79317" lon="1.34274">
        <ele>120.00530726967</ele>
        <time>2021-07-17T22:27:23.723Z</time>
      </trkpt>
      <trkpt lat="44.79294" lon="1.34319">
        <ele>120.07201985855</ele>
        <time>2021-07-17T22:27:42.749Z</time>
      </trkpt>
      <trkpt lat="44.7928" lon="1.34342">
        <ele>120.16270361895</ele>
        <time>2021-07-17T22:28:01.779Z</time>
      </trkpt>
      <trkpt lat="44.79265" lon="1.34378">
        <ele>120.24585520294</ele>
        <time>2021-07-17T22:28:20.815Z</time>
      </trkpt>
      <trkpt lat="44.79246" lon="1.34425">
        <ele>120.26198476808</ele>
        <time>2021-07-17T22:28:39.859Z</time>
      </trkpt>
      <trkpt lat="44.79228" lon="1.34475">
        <ele>120.32733604292</ele>
        <time>2021-07-17T22:28:58.911Z</time>
      </trkpt>
      <trkpt lat="44.79216" lon="1.34511">
        <ele>120.48150216858</ele>
        <time>2021-07-17T22:29:17.968Z</time>
      </trkpt>
      <trkpt lat="44.79204" lon="1.34535">
        <ele>120.64244824781</ele>
        <time>2021-07-17T22:29:37.030Z</time>
      </trkpt>
      <trkpt lat="44.79182" lon="1.3456">
        <ele>120.83467730097</ele>
        <time>2021-07-17T22:29:56.097Z</time>
      </trkpt>
      <trkpt lat="44.79151" lon="1.34572">
        <ele>121.13630778055</ele>
        <time>2021-07-17T22:30:15.171Z</time>
      </trkpt>
      <trkpt lat="44.79132" lon="1.34563">
        <ele>121.61568339817</ele>
        <time>2021-07-17T22:30:34.249Z</time>
      </trkpt>
      <trkpt lat="44.79113" lon="1.34562">
        <ele>122.0277586276</ele>
        <time>2021-07-17T22:30:53.330Z</time>
      </trkpt>
      <trkpt lat="44.79095" lon="1.34573">
        <ele>122.40680645104</ele>
        <time>2021-07-17T22:31:12.415Z</time>
      </trkpt>
      <trkpt lat="44.79078" lon="1.34596">
        <ele>122.78901107114</ele>
        <time>2021-07-17T22:31:31.505Z</time>
      </trkpt>
      <trkpt lat="44.79067" lon="1.34621">
        <ele>123.17021212087</ele>
        <time>2021-07-17T22:31:50.599Z</time>
      </trkpt>
      <trkpt lat="44.79023" lon="1.34654">
        <ele>123.62479729908</ele>
        <time>2021-07-17T22:32:09.703Z</time>
      </trkpt>
      <trkpt lat="44.79014" lon="1.34667">
        <ele>124.00804951961</ele>
        <time>2021-07-17T22:32:28.810Z</time>
      </trkpt>
      <trkpt lat="44.79018" lon="1.34684">
        <ele>124.30129323496</ele>
        <time>2021-07-17T22:32:47.919Z</time>
      </trkpt>
      <trkpt lat="44.79009" lon="1.34696">
        <ele>124.79669936518</ele>
        <time>2021-07-17T22:33:07.031Z</time>
      </trkpt>
      <trkpt lat="44.78996" lon="1.34727">
        <ele>125.43247979475</ele>
        <time>2021-07-17T22:33:26.148Z</time>
      </trkpt>
      <trkpt lat="44.78986" lon="1.34742">
        <ele>126.10137331724</ele>
        <time>2021-07-17T22:33:45.268Z</time>
      </trkpt>
      <trkpt lat="44.78986" lon="1.34765">
        <ele>126.51577671346</ele>
        <time>2021-07-17T22:34:04.391Z</time>
      </trkpt>
      <trkpt lat="44.78976" lon="1.34789">
        <ele>126.97521263144</ele>
        <time>2021-07-17T22:34:23.518Z</time>
      </trkpt>
      <trkpt lat="44.78942" lon="1.34833">
        <ele>127.44830033173</ele>
        <time>2021-07-17T22:34:42.654Z</time>
      </trkpt>
      <trkpt lat="44.78885" lon="1.34878">
        <ele>128.1876095891</ele>
        <time>2021-07-17T22:35:01.803Z</time>
      </trkpt>
      <trkpt lat="44.78849" lon="1.3491">
        <ele>128.83907168911</ele>
        <time>2021-07-17T22:35:20.961Z</time>
      </trkpt>
      <trkpt lat="44.78836" lon="1.3493">
        <ele>129.32739606013</ele>
        <time>2021-07-17T22:35:40.123Z</time>
      </trkpt>
      <trkpt lat="44.78814" lon="1.34945">
        <ele>129.91867489125</ele>
        <time>2021-07-17T22:35:59.290Z</time>
      </trkpt>
      <trkpt lat="44.78798" lon="1.34958">
        <ele>130.53230700667</ele>
        <time>2021-07-17T22:36:18.460Z</time>
      </trkpt>
      <trkpt lat="44.7878" lon="1.34969">
        <ele>131.1148201707</ele>
        <time>2021-07-17T22:36:37.634Z</time>
      </trkpt>
      <trkpt lat="44.78766" lon="1.34981">
        <ele>131.69312201279</ele>
        <time>2021-07-17T22:36:56.812Z</time>
      </trkpt>
      <trkpt lat="44.78763" lon="1.34983">
        <ele>132.15103893965</ele>
        <time>2021-07-17T22:37:15.990Z</time>
      </trkpt>
      <trkpt lat="44.78764" lon="1.34998">
        <ele>132.45127379102</ele>
        <time>2021-07-17T22:37:35.170Z</time>
      </trkpt>
      <trkpt lat="44.78763" lon="1.3502">
        <ele>132.78911934488</ele>
        <time>2021-07-17T22:37:54.354Z</time>
      </trkpt>
      <trkpt lat="44.78748" lon="1.35045">
        <ele>133.19975616935</ele>
        <time>2021-07-17T22:38:13.542Z</time>
      </trkpt>
      <trkpt lat="44.78732" lon="1.35066">
        <ele>133.67543329782</ele>
        <time>2021-07-17T22:38:32.735Z</time>
      </trkpt>
      <trkpt lat="44.78719" lon="1.35145">
        <ele>134.13181583041</ele>
        <time>2021-07-17T22:38:51.939Z</time>
      </trkpt>
      <trkpt lat="44.78719" lon="1.35178">
        <ele>134.42687124604</ele>
        <time>2021-07-17T22:39:11.148Z</time>
      </trkpt>
      <trkpt lat="44.78727" lon="1.35218">
        <ele>134.4674526496</ele>
        <time>2021-07-17T22:39:30.363Z</time>
      </trkpt>
      <trkpt lat="44.78739" lon="1.35245">
        <ele>134.37905486216</ele>
        <time>2021-07-17T22:39:49.582Z</time>
      </trkpt>
      <trkpt lat="44.78745" lon="1.35265">
        <ele>134.3639926252</ele>
        <time>2021-07-17T22:40:08.804Z</time>
      </trkpt>
      <trkpt lat="44.78743" lon="1.35287">
        <ele>134.39749550577</ele>
        <time>2021-07-17T22:40:28.030Z</time>
      </trkpt>
      <trkpt lat="44.78738" lon="1.35314">
        <ele>134.4235201868</ele>
        <time>2021-07-17T22:40:47.260Z</time>
      </trkpt>
      <trkpt lat="44.7873" lon="1.35342">
        <ele>134.36677877534</ele>
        <time>2021-07-17T22:41:06.494Z</time>
      </trkpt>
      <trkpt lat="44.78722" lon="1.35392">
        <ele>134.36258889939</ele>
        <time>2021-07-17T22:41:25.735Z</time>
      </trkpt>
      <trkpt lat="44.78716" lon="1.35411">
        <ele>134.45340776433</ele>
        <time>2021-07-17T22:41:44.979Z</time>
      </trkpt>
      <trkpt lat="44.78707" lon="1.35428">
        <ele>134.53131341763</ele>
        <time>2021-07-17T22:42:04.226Z</time>
      </trkpt>
      <trkpt lat="44.78686" lon="1.35454">
        <ele>134.67592078459</ele>
        <time>2021-07-17T22:42:23.479Z</time>
      </trkpt>
      <trkpt lat="44.78671" lon="1.35477">
        <ele>134.75321348169</ele>
        <time>2021-07-17T22:42:42.736Z</time>
      </trkpt>
      <trkpt lat="44.7866" lon="1.35498">
        <ele>134.69875289066</ele>
        <time>2021-07-17T22:43:01.997Z</time>
      </trkpt>
      <trkpt lat="44.78643" lon="1.35515">
        <ele>134.68139452521</ele>
        <time>2021-07-17T22:43:21.262Z</time>
      </trkpt>
      <trkpt lat="44.78629" lon="1.35523">
        <ele>134.70285044375</ele>
        <time>2021-07-17T22:43:40.530Z</time>
      </trkpt>
      <trkpt lat="44.78613" lon="1.35545">
        <ele>134.50391124465</ele>
        <time>2021-07-17T22:43:59.803Z</time>
      </trkpt>
      <trkpt lat="44.78602" lon="1.3557">
        <ele>134.46147794802</ele>
        <time>2021-07-17T22:44:19.080Z</time>
      </trkpt>
      <trkpt lat="44.78582" lon="1.35666">
        <ele>134.42313074645</ele>
        <time>2021-07-17T22:44:38.371Z</time>
      </trkpt>
      <trkpt lat="44.78578" lon="1.35692">
        <ele>134.36071198753</ele>
        <time>2021-07-17T22:44:57.666Z</time>
      </trkpt>
      <trkpt lat="44.78566" lon="1.35717">
        <ele>134.39557021286</ele>
        <time>2021-07-17T22:45:16.965Z</time>
      </trkpt>
      <trkpt lat="44.78555" lon="1.3575">
        <ele>134.38130554688</ele>
        <time>2021-07-17T22:45:36.269Z</time>
      </trkpt>
      <trkpt lat="44.78541" lon="1.35779">
        <ele>134.26791773906</ele>
        <time>2021-07-17T22:45:55.578Z</time>
      </trkpt>
      <trkpt lat="44.78526" lon="1.35804">
        <ele>134.15840351727</ele>
        <time>2021-07-17T22:46:14.892Z</time>
      </trkpt>
      <trkpt lat="44.785" lon="1.35833">
        <ele>134.21993834287</ele>
        <time>2021-07-17T22:46:34.213Z</time>
      </trkpt>
      <trkpt lat="44.78483" lon="1.35857">
        <ele>134.23048814412</ele>
        <time>2021-07-17T22:46:53.538Z</time>
      </trkpt>
      <trkpt lat="44.78453" lon="1.35913">
        <ele>133.90655650026</ele>
        <time>2021-07-17T22:47:12.873Z</time>
      </trkpt>
      <trkpt lat="44.7838" lon="1.36076">
        <ele>133.89953853003</ele>
        <time>2021-07-17T22:47:32.236Z</time>
      </trkpt>
      <trkpt lat="44.78367" lon="1.36109">
        <ele>133.73573313889</ele>
        <time>2021-07-17T22:47:51.604Z</time>
      </trkpt>
      <trkpt lat="44.78364" lon="1.3614">
        <ele>133.52034113548</ele>
        <time>2021-07-17T22:48:10.977Z</time>
      </trkpt>
      <trkpt lat="44.78354" lon="1.36159">
        <ele>133.62529066682</ele>
        <time>2021-07-17T22:48:30.353Z</time>
      </trkpt>
      <trkpt lat="44.78346" lon="1.36195">
        <ele>133.62972431695</ele>
        <time>2021-07-17T22:48:49.734Z</time>
      </trkpt>
      <trkpt lat="44.78338" lon="1.36212">
        <ele>133.65322932881</ele>
        <time>2021-07-17T22:49:09.118Z</time>
      </trkpt>
      <trkpt lat="44.78331" lon="1.3624">
        <ele>133.57571600005</ele>
        <time>2021-07-17T22:49:28.507Z</time>
      </trkpt>
      <trkpt lat="44.78322" lon="1.36262">
        <ele>133.54462067927</ele>
        <time>2021-07-17T22:49:47.899Z</time>
      </trkpt>
      <trkpt lat="44.78312" lon="1.36278">
        <ele>133.5663252374</ele>
        <time>2021-07-17T22:50:07.294Z</time>
      </trkpt>
      <trkpt lat="44.78299" lon="1.36292">
        <ele>133.77022172161</ele>
        <time>2021-07-17T22:50:26.692Z</time>
      </trkpt>
      <trkpt lat="44.78284" lon="1.36318">
        <ele>133.91291145189</ele>
        <time>2021-07-17T22:50:46.095Z</time>
      </trkpt>
      <trkpt lat="44.78272" lon="1.36335">
        <ele>134.06919213465</ele>
        <time>2021-07-17T22:51:05.502Z</time>
      </trkpt>
      <trkpt lat="44.78264" lon="1.36359">
        <ele>134.26103395591</ele>
        <time>2021-07-17T22:51:24.912Z</time>
      </trkpt>
      <trkpt lat="44.78256" lon="1.36363">
        <ele>134.63923497349</ele>
        <time>2021-07-17T22:51:44.324Z</time>
      </trkpt>
      <trkpt lat="44.78238" lon="1.36376">
        <ele>135.04636482482</ele>
        <time>2021-07-17T22:52:03.740Z</time>
      </trkpt>
      <trkpt lat="44.78221" lon="1.36395">
        <ele>135.50223002272</ele>
        <time>2021-07-17T22:52:23.160Z</time>
      </trkpt>
      <trkpt lat="44.7822" lon="1.36396">
        <ele>136.05053926199</ele>
        <time>2021-07-17T22:52:42.581Z</time>
      </trkpt>
      <trkpt lat="44.78199" lon="1.36424">
        <ele>136.69218254863</ele>
        <time>2021-07-17T22:53:02.008Z</time>
      </trkpt>
      <trkpt lat="44.78171" lon="1.36463">
        <ele>137.4110361753</ele>
        <time>2021-07-17T22:53:21.442Z</time>
      </trkpt>
      <trkpt lat="44.78151" lon="1.36483">
        <ele>138.16898550595</ele>
        <time>2021-07-17T22:53:40.881Z</time>
      </trkpt>
      <trkpt lat="44.78133" lon="1.36495">
        <ele>138.95139039103</ele>
        <time>2021-07-17T22:54:00.324Z</time>
      </trkpt>
      <trkpt lat="44.78108" lon="1.36505">
        <ele>139.81282150715</ele>
        <time>2021-07-17T22:54:19.773Z</time>
      </trkpt>
      <trkpt lat="44.7799" lon="1.36529">
        <ele>140.92747453018</ele>
        <time>2021-07-17T22:54:39.245Z</time>
      </trkpt>
      <trkpt lat="44.77976" lon="1.36531">
        <ele>141.7613617786</ele>
        <time>2021-07-17T22:54:58.720Z</time>
      </trkpt>
      <trkpt lat="44.77936" lon="1.36533">
        <ele>142.58766369426</ele>
        <time>2021-07-17T22:55:18.203Z</time>
      </trkpt>
      <trkpt lat="44.77738" lon="1.36524">
        <ele>143.37261569527</ele>
        <time>2021-07-17T22:55:37.726Z</time>
      </trkpt>
      <trkpt lat="44.77708" lon="1.36531">
        <ele>144.21215756814</ele>
        <time>2021-07-17T22:55:57.255Z</time>
      </trkpt>
      <trkpt lat="44.77687" lon="1.3654">
        <ele>144.96071902805</ele>
        <time>2021-07-17T22:56:16.788Z</time>
      </trkpt>
      <trkpt lat="44.777" lon="1.36561">
        <ele>145.61610836452</ele>
        <time>2021-07-17T22:56:36.325Z</time>
      </trkpt>
      <trkpt lat="44.77725" lon="1.36607">
        <ele>146.30973730972</ele>
        <time>2021-07-17T22:56:55.870Z</time>
      </trkpt>
      <trkpt lat="44.77742" lon="1.36633">
        <ele>146.86226715852</ele>
        <time>2021-07-17T22:57:15.421Z</time>
      </trkpt>
      <trkpt lat="44.77771" lon="1.36707">
        <ele>147.53773133203</ele>
        <time>2021-07-17T22:57:34.984Z</time>
      </trkpt>
      <trkpt lat="44.77794" lon="1.36753">
        <ele>148.03892884917</ele>
        <time>2021-07-17T22:57:54.555Z</time>
      </trkpt>
      <trkpt lat="44.77813" lon="1.36792">
        <ele>148.41053454291</ele>
        <time>2021-07-17T22:58:14.132Z</time>
      </trkpt>
      <trkpt lat="44.77822" lon="1.36803">
        <ele>148.60295319662</ele>
        <time>2021-07-17T22:58:33.712Z</time>
      </trkpt>
      <trkpt lat="44.77823" lon="1.3694">
        <ele>149.00579658933</ele>
        <time>2021-07-17T22:58:53.311Z</time>
      </trkpt>
      <trkpt lat="44.77818" lon="1.3699">
        <ele>148.96995365082</ele>
        <time>2021-07-17T22:59:12.917Z</time>
      </trkpt>
      <trkpt lat="44.77817" lon="1.3703">
        <ele>148.78234659716</ele>
        <time>2021-07-17T22:59:32.529Z</time>
      </trkpt>
      <trkpt lat="44.77817" lon="1.37065">
        <ele>148.5212815581</ele>
        <time>2021-07-17T22:59:52.146Z</time>
      </trkpt>
      <trkpt lat="44.7782" lon="1.37095">
        <ele>148.16566861063</ele>
        <time>2021-07-17T23:00:11.767Z</time>
      </trkpt>
      <trkpt lat="44.77852" lon="1.37182">
        <ele>147.56703649839</ele>
        <time>2021-07-17T23:00:31.402Z</time>
      </trkpt>
      <trkpt lat="44.77869" lon="1.37214">
        <ele>147.14939463176</ele>
        <time>2021-07-17T23:00:51.043Z</time>
      </trkpt>
      <trkpt lat="44.77876" lon="1.37217">
        <ele>146.73514043431</ele>
        <time>2021-07-17T23:01:10.686Z</time>
      </trkpt>
      <trkpt lat="44.77883" lon="1.37235">
        <ele>146.21015613522</ele>
        <time>2021-07-17T23:01:30.331Z</time>
      </trkpt>
      <trkpt lat="44.77875" lon="1.3725">
        <ele>145.78791425556</ele>
        <time>2021-07-17T23:01:49.979Z</time>
      </trkpt>
      <trkpt lat="44.77861" lon="1.37273">
        <ele>145.35214088949</ele>
        <time>2021-07-17T23:02:09.631Z</time>
      </trkpt>
      <trkpt lat="44.77821" lon="1.37325">
        <ele>144.89199443246</ele>
        <time>2021-07-17T23:02:29.294Z</time>
      </trkpt>
      <trkpt lat="44.77777" lon="1.37354">
        <ele>144.53733817365</ele>
        <time>2021-07-17T23:02:48.967Z</time>
      </trkpt>
      <trkpt lat="44.77754" lon="1.37364">
        <ele>144.19720463299</ele>
        <time>2021-07-17T23:03:08.645Z</time>
      </trkpt>
      <trkpt lat="44.77734" lon="1.37378">
        <ele>143.68361114043</ele>
        <time>2021-07-17T23:03:28.327Z</time>
      </trkpt>
      <trkpt lat="44.7766" lon="1.37513">
        <ele>142.89856254232</ele>
        <time>2021-07-17T23:03:48.034Z</time>
      </trkpt>
      <trkpt lat="44.77648" lon="1.37541">
        <ele>142.40629803942</ele>
        <time>2021-07-17T23:04:07.745Z</time>
      </trkpt>
      <trkpt lat="44.7763" lon="1.37563">
        <ele>141.88714855184</ele>
        <time>2021-07-17T23:04:27.461Z</time>
      </trkpt>
      <trkpt lat="44.77609" lon="1.37566">
        <ele>141.46275473956</ele>
        <time>2021-07-17T23:04:47.181Z</time>
      </trkpt>
      <trkpt lat="44.77603" lon="1.37565">
        <ele>141.07706246161</ele>
        <time>2021-07-17T23:05:06.902Z</time>
      </trkpt>
      <trkpt lat="44.77603" lon="1.37567">
        <ele>140.73372226701</ele>
        <time>2021-07-17T23:05:26.624Z</time>
      </trkpt>
      <trkpt lat="44.77591" lon="1.37562">
        <ele>140.46612409692</ele>
        <time>2021-07-17T23:05:46.348Z</time>
      </trkpt>
      <trkpt lat="44.77586" lon="1.37564">
        <ele>140.25555916956</ele>
        <time>2021-07-17T23:06:06.073Z</time>
      </trkpt>
      <trkpt lat="44.77583" lon="1.37571">
        <ele>140.08405723807</ele>
        <time>2021-07-17T23:06:25.799Z</time>
      </trkpt>
      <trkpt lat="44.77579" lon="1.37598">
        <ele>139.88999080578</ele>
        <time>2021-07-17T23:06:45.529Z</time>
      </trkpt>
      <trkpt lat="44.77575" lon="1.37616">
        <ele>139.92150296277</ele>
        <time>2021-07-17T23:07:05.262Z</time>
      </trkpt>
      <trkpt lat="44.77573" lon="1.37628">
        <ele>140.08929749246</ele>
        <time>2021-07-17T23:07:24.997Z</time>
      </trkpt>
      <trkpt lat="44.77571" lon="1.3764">
        <ele>140.37208680792</ele>
        <time>2021-07-17T23:07:44.733Z</time>
      </trkpt>
      <trkpt lat="44.77572" lon="1.37647">
        <ele>140.76398926718</ele>
        <time>2021-07-17T23:08:04.471Z</time>
      </trkpt>
      <trkpt lat="44.77579" lon="1.3766">
        <ele>141.24402557697</ele>
        <time>2021-07-17T23:08:24.211Z</time>
      </trkpt>
      <trkpt lat="44.77569" lon="1.37653">
        <ele>141.88876906738</ele>
        <time>2021-07-17T23:08:43.953Z</time>
      </trkpt>
      <trkpt lat="44.7756" lon="1.37647">
        <ele>142.6438880976</ele>
        <time>2021-07-17T23:09:03.697Z</time>
      </trkpt>
      <trkpt lat="44.77552" lon="1.37645">
        <ele>143.50481503856</ele>
        <time>2021-07-17T23:09:23.442Z</time>
      </trkpt>
      <trkpt lat="44.77544" lon="1.37645">
        <ele>144.47307219552</ele>
        <time>2021-07-17T23:09:43.189Z</time>
      </trkpt>
      <trkpt lat="44.77533" lon="1.3765">
        <ele>145.55704718623</ele>
        <time>2021-07-17T23:10:02.939Z</time>
      </trkpt>
      <trkpt lat="44.77526" lon="1.37656">
        <ele>146.72660787955</ele>
        <time>2021-07-17T23:10:22.690Z</time>
      </trkpt>
      <trkpt lat="44.77505" lon="1.37674">
        <ele>148.08666821693</ele>
        <time>2021-07-17T23:10:42.446Z</time>
      </trkpt>
      <trkpt lat="44.77456" lon="1.37725">
        <ele>149.78917921907</ele>
        <time>2021-07-17T23:11:02.214Z</time>
      </trkpt>
      <trkpt lat="44.77368" lon="1.37811">
        <ele>151.48058926336</ele>
        <time>2021-07-17T23:11:22.004Z</time>
      </trkpt>
      <trkpt lat="44.77334" lon="1.37843">
        <ele>152.96301176466</ele>
        <time>2021-07-17T23:11:41.802Z</time>
      </trkpt>
      <trkpt lat="44.77301" lon="1.37882">
        <ele>154.41851669065</ele>
        <time>2021-07-17T23:12:01.608Z</time>
      </trkpt>
      <trkpt lat="44.77267" lon="1.37919">
        <ele>155.97371931519</ele>
        <time>2021-07-17T23:12:21.423Z</time>
      </trkpt>
      <trkpt lat="44.77244" lon="1.37952">
        <ele>157.53127752123</ele>
        <time>2021-07-17T23:12:41.245Z</time>
      </trkpt>
      <trkpt lat="44.77232" lon="1.37971">
        <ele>159.13204030293</ele>
        <time>2021-07-17T23:13:01.070Z</time>
      </trkpt>
      <trkpt lat="44.77228" lon="1.37978">
        <ele>160.71987898414</ele>
        <time>2021-07-17T23:13:20.897Z</time>
      </trkpt>
      <trkpt lat="44.7722" lon="1.38003">
        <ele>162.33280085402</ele>
        <time>2021-07-17T23:13:40.727Z</time>
      </trkpt>
      <trkpt lat="44.77215" lon="1.38023">
        <ele>163.92768825943</ele>
        <time>2021-07-17T23:14:00.561Z</time>
      </trkpt>
      <trkpt lat="44.77202" lon="1.38075">
        <ele>165.56177930932</ele>
        <time>2021-07-17T23:14:20.402Z</time>
      </trkpt>
      <trkpt lat="44.77193" lon="1.38106">
        <ele>167.13846499108</ele>
        <time>2021-07-17T23:14:40.248Z</time>
      </trkpt>
      <trkpt lat="44.7719" lon="1.38123">
        <ele>168.68353795968</ele>
        <time>2021-07-17T23:15:00.097Z</time>
      </trkpt>
      <trkpt lat="44.77189" lon="1.3813">
        <ele>170.16464032258</ele>
        <time>2021-07-17T23:15:19.947Z</time>
      </trkpt>
      <trkpt lat="44.77171" lon="1.38144">
        <ele>171.69009973545</ele>
        <time>2021-07-17T23:15:39.801Z</time>
      </trkpt>
      <trkpt lat="44.77141" lon="1.3817">
        <ele>173.17281564063</ele>
        <time>2021-07-17T23:15:59.662Z</time>
      </trkpt>
      <trkpt lat="44.7711" lon="1.38193">
        <ele>174.54440888714</ele>
        <time>2021-07-17T23:16:19.530Z</time>
      </trkpt>
      <trkpt lat="44.77086" lon="1.38211">
        <ele>175.76650364978</ele>
        <time>2021-07-17T23:16:39.403Z</time>
      </trkpt>
      <trkpt lat="44.77054" lon="1.38226">
        <ele>176.77476591044</ele>
        <time>2021-07-17T23:16:59.283Z</time>
      </trkpt>
      <trkpt lat="44.77035" lon="1.38235">
        <ele>177.79849339489</ele>
        <time>2021-07-17T23:17:19.167Z</time>
      </trkpt>
      <trkpt lat="44.77021" lon="1.38239">
        <ele>178.74601501866</ele>
        <time>2021-07-17T23:17:39.054Z</time>
      </trkpt>
      <trkpt lat="44.77004" lon="1.38239">
        <ele>179.56513701607</ele>
        <time>2021-07-17T23:17:58.944Z</time>
      </trkpt>
      <trkpt lat="44.76991" lon="1.38241">
        <ele>180.34116466927</ele>
        <time>2021-07-17T23:18:18.837Z</time>
      </trkpt>
      <trkpt lat="44.76976" lon="1.38245">
        <ele>181.02650403597</ele>
        <time>2021-07-17T23:18:38.733Z</time>
      </trkpt>
      <trkpt lat="44.76974" lon="1.38246">
        <ele>181.60776644191</ele>
        <time>2021-07-17T23:18:58.629Z</time>
      </trkpt>
      <trkpt lat="44.76959" lon="1.38254">
        <ele>182.07153463306</ele>
        <time>2021-07-17T23:19:18.529Z</time>
      </trkpt>
      <trkpt lat="44.76936" lon="1.38269">
        <ele>182.43919326736</ele>
        <time>2021-07-17T23:19:38.434Z</time>
      </trkpt>
      <trkpt lat="44.7692" lon="1.3828">
        <ele>182.7094109286</ele>
        <time>2021-07-17T23:19:58.342Z</time>
      </trkpt>
      <trkpt lat="44.76909" lon="1.38293">
        <ele>182.89879356789</ele>
        <time>2021-07-17T23:20:18.253Z</time>
      </trkpt>
      <trkpt lat="44.76902" lon="1.38305">
        <ele>182.99517547872</ele>
        <time>2021-07-17T23:20:38.166Z</time>
      </trkpt>
      <trkpt lat="44.76896" lon="1.38322">
        <ele>182.99804557502</ele>
        <time>2021-07-17T23:20:58.082Z</time>
      </trkpt>
      <trkpt lat="44.76891" lon="1.38344">
        <ele>182.91500166532</ele>
        <time>2021-07-17T23:21:18.001Z</time>
      </trkpt>
      <trkpt lat="44.76887" lon="1.38371">
        <ele>182.78541652849</ele>
        <time>2021-07-17T23:21:37.924Z</time>
      </trkpt>
      <trkpt lat="44.76871" lon="1.38471">
        <ele>182.81785784455</ele>
        <time>2021-07-17T23:21:57.862Z</time>
      </trkpt>
      <trkpt lat="44.76866" lon="1.38474">
        <ele>182.29218621709</ele>
        <time>2021-07-17T23:22:17.801Z</time>
      </trkpt>
      <trkpt lat="44.76861" lon="1.38474">
        <ele>181.6364214563</ele>
        <time>2021-07-17T23:22:37.741Z</time>
      </trkpt>
      <trkpt lat="44.76838" lon="1.38463">
        <ele>180.78411504573</ele>
        <time>2021-07-17T23:22:57.686Z</time>
      </trkpt>
      <trkpt lat="44.76805" lon="1.38444">
        <ele>179.71894059531</ele>
        <time>2021-07-17T23:23:17.638Z</time>
      </trkpt>
      <trkpt lat="44.76853" lon="1.38489">
        <ele>179.04243844357</ele>
        <time>2021-07-17T23:23:37.601Z</time>
      </trkpt>
      <trkpt lat="44.76906" lon="1.38541">
        <ele>178.06429205041</ele>
        <time>2021-07-17T23:23:57.577Z</time>
      </trkpt>
      <trkpt lat="44.76949" lon="1.38583">
        <ele>176.44238609064</ele>
        <time>2021-07-17T23:24:17.564Z</time>
      </trkpt>
      <trkpt lat="44.76957" lon="1.38595">
        <ele>175.0416887661</ele>
        <time>2021-07-17T23:24:37.553Z</time>
      </trkpt>
      <trkpt lat="44.76963" lon="1.38607">
        <ele>173.58702543071</ele>
        <time>2021-07-17T23:24:57.544Z</time>
      </trkpt>
      <trkpt lat="44.76964" lon="1.38628">
        <ele>172.02893450414</ele>
        <time>2021-07-17T23:25:17.538Z</time>
      </trkpt>
      <trkpt lat="44.76972" lon="1.38638">
        <ele>170.48681828007</ele>
        <time>2021-07-17T23:25:37.534Z</time>
      </trkpt>
      <trkpt lat="44.76976" lon="1.38642">
        <ele>168.99089654497</ele>
        <time>2021-07-17T23:25:57.531Z</time>
      </trkpt>
      <trkpt lat="44.76981" lon="1.3865">
        <ele>167.44530788061</ele>
        <time>2021-07-17T23:26:17.530Z</time>
      </trkpt>
      <trkpt lat="44.76989" lon="1.38672">
        <ele>165.78672418989</ele>
        <time>2021-07-17T23:26:37.532Z</time>
      </trkpt>
      <trkpt lat="44.76992" lon="1.38675">
        <ele>164.29825729677</ele>
        <time>2021-07-17T23:26:57.535Z</time>
      </trkpt>
      <trkpt lat="44.77019" lon="1.3869">
        <ele>162.65722300972</ele>
        <time>2021-07-17T23:27:17.544Z</time>
      </trkpt>
      <trkpt lat="44.77034" lon="1.38714">
        <ele>161.05471808317</ele>
        <time>2021-07-17T23:27:37.557Z</time>
      </trkpt>
      <trkpt lat="44.77047" lon="1.38762">
        <ele>159.63801936416</ele>
        <time>2021-07-17T23:27:57.578Z</time>
      </trkpt>
      <trkpt lat="44.77053" lon="1.38763">
        <ele>158.31898627242</ele>
        <time>2021-07-17T23:28:17.600Z</time>
      </trkpt>
      <trkpt lat="44.77059" lon="1.38764">
        <ele>157.05177101304</ele>
        <time>2021-07-17T23:28:37.623Z</time>
      </trkpt>
      <trkpt lat="44.77084" lon="1.38783">
        <ele>155.88684085436</ele>
        <time>2021-07-17T23:28:57.652Z</time>
      </trkpt>
      <trkpt lat="44.77082" lon="1.38792">
        <ele>154.72503313425</ele>
        <time>2021-07-17T23:29:17.682Z</time>
      </trkpt>
      <trkpt lat="44.77076" lon="1.38816">
        <ele>153.64130409654</ele>
        <time>2021-07-17T23:29:37.716Z</time>
      </trkpt>
      <trkpt lat="44.7707" lon="1.38839">
        <ele>152.62332642874</ele>
        <time>2021-07-17T23:29:57.753Z</time>
      </trkpt>
      <trkpt lat="44.77061" lon="1.3886">
        <ele>151.67991378499</ele>
        <time>2021-07-17T23:30:17.794Z</time>
      </trkpt>
      <trkpt lat="44.77048" lon="1.38903">
        <ele>150.74702176196</ele>
        <time>2021-07-17T23:30:37.842Z</time>
      </trkpt>
      <trkpt lat="44.77036" lon="1.38941">
        <ele>149.89901322847</ele>
        <time>2021-07-17T23:30:57.895Z</time>
      </trkpt>
      <trkpt lat="44.77028" lon="1.38972">
        <ele>149.18478922103</ele>
        <time>2021-07-17T23:31:17.953Z</time>
      </trkpt>
      <trkpt lat="44.77041" lon="1.38985">
        <ele>148.50041920287</ele>
        <time>2021-07-17T23:31:38.014Z</time>
      </trkpt>
      <trkpt lat="44.77084" lon="1.39019">
        <ele>147.94130050315</ele>
        <time>2021-07-17T23:31:58.085Z</time>
      </trkpt>
      <trkpt lat="44.77104" lon="1.39039">
        <ele>147.26128002286</ele>
        <time>2021-07-17T23:32:18.161Z</time>
      </trkpt>
      <trkpt lat="44.77112" lon="1.39046">
        <ele>146.68773590187</ele>
        <time>2021-07-17T23:32:38.239Z</time>
      </trkpt>
      <trkpt lat="44.77116" lon="1.39054">
        <ele>146.19243196134</ele>
        <time>2021-07-17T23:32:58.318Z</time>
      </trkpt>
      <trkpt lat="44.77118" lon="1.3906">
        <ele>145.77929242794</ele>
        <time>2021-07-17T23:33:18.398Z</time>
      </trkpt>
      <trkpt lat="44.77118" lon="1.39063">
        <ele>145.4350759151</ele>
        <time>2021-07-17T23:33:38.479Z</time>
      </trkpt>
      <trkpt lat="44.77117" lon="1.3907">
        <ele>145.15048346512</ele>
        <time>2021-07-17T23:33:58.561Z</time>
      </trkpt>
      <trkpt lat="44.77115" lon="1.39076">
        <ele>144.92372589621</ele>
        <time>2021-07-17T23:34:18.644Z</time>
      </trkpt>
      <trkpt lat="44.77113" lon="1.39083">
        <ele>144.75109266221</ele>
        <time>2021-07-17T23:34:38.728Z</time>
      </trkpt>
      <trkpt lat="44.77111" lon="1.39089">
        <ele>144.63095578472</ele>
        <time>2021-07-17T23:34:58.813Z</time>
      </trkpt>
      <trkpt lat="44.7711" lon="1.39095">
        <ele>144.55750783633</ele>
        <time>2021-07-17T23:35:18.899Z</time>
      </trkpt>
      <trkpt lat="44.77108" lon="1.39099">
        <ele>144.52788187199</ele>
        <time>2021-07-17T23:35:38.985Z</time>
      </trkpt>
      <trkpt lat="44.77108" lon="1.39106">
        <ele>144.53287831623</ele>
        <time>2021-07-17T23:35:59.072Z</time>
      </trkpt>
      <trkpt lat="44.77109" lon="1.39114">
        <ele>144.58003279994</ele>
        <time>2021-07-17T23:36:19.160Z</time>
      </trkpt>
      <trkpt lat="44.77111" lon="1.39125">
        <ele>144.66878991648</ele>
        <time>2021-07-17T23:36:39.250Z</time>
      </trkpt>
      <trkpt lat="44.77112" lon="1.39131">
        <ele>144.81647723207</ele>
        <time>2021-07-17T23:36:59.341Z</time>
      </trkpt>
      <trkpt lat="44.77116" lon="1.39146">
        <ele>145.02032756195</ele>
        <time>2021-07-17T23:37:19.434Z</time>
      </trkpt>
      <trkpt lat="44.77121" lon="1.39145">
        <ele>145.25266540849</ele>
        <time>2021-07-17T23:37:39.528Z</time>
      </trkpt>
      <trkpt lat="44.77124" lon="1.39153">
        <ele>145.55783115641</ele>
        <time>2021-07-17T23:37:59.623Z</time>
      </trkpt>
      <trkpt lat="44.77124" lon="1.39156">
        <ele>145.9070851288</ele>
        <time>2021-07-17T23:38:19.719Z</time>
      </trkpt>
      <trkpt lat="44.77125" lon="1.39158">
        <ele>146.30187136267</ele>
        <time>2021-07-17T23:38:39.815Z</time>
      </trkpt>
      <trkpt lat="44.77132" lon="1.39189">
        <ele>146.77937095745</ele>
        <time>2021-07-17T23:38:59.916Z</time>
      </trkpt>
      <trkpt lat="44.77133" lon="1.39197">
        <ele>147.26725972244</ele>
        <time>2021-07-17T23:39:20.018Z</time>
      </trkpt>
      <trkpt lat="44.77134" lon="1.39203">
        <ele>147.79768210102</ele>
        <time>2021-07-17T23:39:40.121Z</time>
      </trkpt>
      <trkpt lat="44.77133" lon="1.39208">
        <ele>148.36833613127</ele>
        <time>2021-07-17T23:40:00.225Z</time>
      </trkpt>
      <trkpt lat="44.77132" lon="1.39217">
        <ele>148.97517706439</ele>
        <time>2021-07-17T23:40:20.330Z</time>
      </trkpt>
      <trkpt lat="44.77127" lon="1.3924">
        <ele>149.6620633584</ele>
        <time>2021-07-17T23:40:40.438Z</time>
      </trkpt>
      <trkpt lat="44.77125" lon="1.39246">
        <ele>150.35479817414</ele>
        <time>2021-07-17T23:41:00.547Z</time>
      </trkpt>
      <trkpt lat="44.77121" lon="1.39267">
        <ele>151.14082132072</ele>
        <time>2021-07-17T23:41:20.659Z</time>
      </trkpt>
      <trkpt lat="44.7712" lon="1.39274">
        <ele>151.90914056866</ele>
        <time>2021-07-17T23:41:40.772Z</time>
      </trkpt>
      <trkpt lat="44.77119" lon="1.3928">
        <ele>152.71066149722</ele>
        <time>2021-07-17T23:42:00.886Z</time>
      </trkpt>
      <trkpt lat="44.77119" lon="1.39286">
        <ele>153.53809394651</ele>
        <time>2021-07-17T23:42:21.001Z</time>
      </trkpt>
      <trkpt lat="44.77119" lon="1.3929">
        <ele>154.38586263615</ele>
        <time>2021-07-17T23:42:41.117Z</time>
      </trkpt>
      <trkpt lat="44.7712" lon="1.39295">
        <ele>155.25833267412</ele>
        <time>2021-07-17T23:43:01.233Z</time>
      </trkpt>
      <trkpt lat="44.77121" lon="1.39298">
        <ele>156.14007878915</ele>
        <time>2021-07-17T23:43:21.350Z</time>
      </trkpt>
      <trkpt lat="44.77123" lon="1.39301">
        <ele>157.0420886078</ele>
        <time>2021-07-17T23:43:41.467Z</time>
      </trkpt>
      <trkpt lat="44.77126" lon="1.39304">
        <ele>157.95542295236</ele>
        <time>2021-07-17T23:44:01.585Z</time>
      </trkpt>
      <trkpt lat="44.77128" lon="1.39307">
        <ele>158.88127878124</ele>
        <time>2021-07-17T23:44:21.704Z</time>
      </trkpt>
      <trkpt lat="44.77129" lon="1.39313">
        <ele>159.82637951954</ele>
        <time>2021-07-17T23:44:41.824Z</time>
      </trkpt>
      <trkpt lat="44.77129" lon="1.39318">
        <ele>160.79043395795</ele>
        <time>2021-07-17T23:45:01.944Z</time>
      </trkpt>
      <trkpt lat="44.77129" lon="1.39325">
        <ele>161.76570159717</ele>
        <time>2021-07-17T23:45:22.065Z</time>
      </trkpt>
      <trkpt lat="44.77128" lon="1.39338">
        <ele>162.75281285174</ele>
        <time>2021-07-17T23:45:42.188Z</time>
      </trkpt>
      <trkpt lat="44.77116" lon="1.39385">
        <ele>163.85846720603</ele>
        <time>2021-07-17T23:46:02.318Z</time>
      </trkpt>
      <trkpt lat="44.77098" lon="1.39462">
        <ele>164.96073752098</ele>
        <time>2021-07-17T23:46:22.460Z</time>
      </trkpt>
      <trkpt lat="44.77066" lon="1.39604">
        <ele>166.05933416339</ele>
        <time>2021-07-17T23:46:42.623Z</time>
      </trkpt>
      <trkpt lat="44.77055" lon="1.39645">
        <ele>166.88067095107</ele>
        <time>2021-07-17T23:47:02.792Z</time>
      </trkpt>
      <trkpt lat="44.77049" lon="1.3967">
        <ele>167.65818223832</ele>
        <time>2021-07-17T23:47:22.965Z</time>
      </trkpt>
      <trkpt lat="44.77039" lon="1.39713">
        <ele>168.40903765008</ele>
        <time>2021-07-17T23:47:43.145Z</time>
      </trkpt>
      <trkpt lat="44.77034" lon="1.3974">
        <ele>169.09118249689</ele>
        <time>2021-07-17T23:48:03.329Z</time>
      </trkpt>
      <trkpt lat="44.77032" lon="1.39764">
        <ele>169.78448358493</ele>
        <time>2021-07-17T23:48:23.516Z</time>
      </trkpt>
      <trkpt lat="44.77029" lon="1.39805">
        <ele>170.46939579528</ele>
        <time>2021-07-17T23:48:43.709Z</time>
      </trkpt>
      <trkpt lat="44.77024" lon="1.39852">
        <ele>171.11382527821</ele>
        <time>2021-07-17T23:49:03.909Z</time>
      </trkpt>
      <trkpt lat="44.77024" lon="1.3987">
        <ele>171.63883937131</ele>
        <time>2021-07-17T23:49:24.111Z</time>
      </trkpt>
      <trkpt lat="44.77023" lon="1.3991">
        <ele>172.19501014306</ele>
        <time>2021-07-17T23:49:44.319Z</time>
      </trkpt>
      <trkpt lat="44.77026" lon="1.39946">
        <ele>172.61465222489</ele>
        <time>2021-07-17T23:50:04.532Z</time>
      </trkpt>
      <trkpt lat="44.77041" lon="1.39945">
        <ele>172.90864965476</ele>
        <time>2021-07-17T23:50:24.748Z</time>
      </trkpt>
      <trkpt lat="44.77053" lon="1.39942">
        <ele>173.21069458059</ele>
        <time>2021-07-17T23:50:44.966Z</time>
      </trkpt>
      <trkpt lat="44.77082" lon="1.39922">
        <ele>173.40869399711</ele>
        <time>2021-07-17T23:51:05.191Z</time>
      </trkpt>
      <trkpt lat="44.77137" lon="1.39886">
        <ele>173.63214581796</ele>
        <time>2021-07-17T23:51:25.428Z</time>
      </trkpt>
      <trkpt lat="44.77144" lon="1.39881">
        <ele>174.02019711615</ele>
        <time>2021-07-17T23:51:45.666Z</time>
      </trkpt>
      <trkpt lat="44.77158" lon="1.39869">
        <ele>174.41347726465</ele>
        <time>2021-07-17T23:52:05.908Z</time>
      </trkpt>
      <trkpt lat="44.77162" lon="1.39866">
        <ele>174.84445667777</ele>
        <time>2021-07-17T23:52:26.151Z</time>
      </trkpt>
      <trkpt lat="44.77165" lon="1.39864">
        <ele>175.30581574361</ele>
        <time>2021-07-17T23:52:46.394Z</time>
      </trkpt>
      <trkpt lat="44.77169" lon="1.39864">
        <ele>175.79887824527</ele>
        <time>2021-07-17T23:53:06.638Z</time>
      </trkpt>
      <trkpt lat="44.77172" lon="1.39865">
        <ele>176.33281534132</ele>
        <time>2021-07-17T23:53:26.883Z</time>
      </trkpt>
      <trkpt lat="44.77174" lon="1.39868">
        <ele>176.90877211459</ele>
        <time>2021-07-17T23:53:47.128Z</time>
      </trkpt>
      <trkpt lat="44.77178" lon="1.39884">
        <ele>177.52548580341</ele>
        <time>2021-07-17T23:54:07.376Z</time>
      </trkpt>
      <trkpt lat="44.77182" lon="1.39895">
        <ele>178.18005065537</ele>
        <time>2021-07-17T23:54:27.625Z</time>
      </trkpt>
      <trkpt lat="44.77183" lon="1.39898">
        <ele>178.8957986939</ele>
        <time>2021-07-17T23:54:47.875Z</time>
      </trkpt>
      <trkpt lat="44.77186" lon="1.39903">
        <ele>179.65461535371</ele>
        <time>2021-07-17T23:55:08.126Z</time>
      </trkpt>
      <trkpt lat="44.77129" lon="1.3993">
        <ele>180.59063116543</ele>
        <time>2021-07-17T23:55:28.389Z</time>
      </trkpt>
      <trkpt lat="44.77043" lon="1.39973">
        <ele>181.76141155814</ele>
        <time>2021-07-17T23:55:48.670Z</time>
      </trkpt>
      <trkpt lat="44.77034" lon="1.40007">
        <ele>182.61409081016</ele>
        <time>2021-07-17T23:56:08.956Z</time>
      </trkpt>
      <trkpt lat="44.77014" lon="1.40083">
        <ele>183.6341786305</ele>
        <time>2021-07-17T23:56:29.254Z</time>
      </trkpt>
      <trkpt lat="44.7703" lon="1.40159">
        <ele>184.46573052373</ele>
        <time>2021-07-17T23:56:49.563Z</time>
      </trkpt>
      <trkpt lat="44.77037" lon="1.40202">
        <ele>185.1763523729</ele>
        <time>2021-07-17T23:57:09.878Z</time>
      </trkpt>
      <trkpt lat="44.77005" lon="1.40297">
        <ele>185.89106570199</ele>
        <time>2021-07-17T23:57:30.208Z</time>
      </trkpt>
      <trkpt lat="44.76997" lon="1.40307">
        <ele>186.59885916867</ele>
        <time>2021-07-17T23:57:50.540Z</time>
      </trkpt>
      <trkpt lat="44.76963" lon="1.40346">
        <ele>187.31149796199</ele>
        <time>2021-07-17T23:58:10.881Z</time>
      </trkpt>
      <trkpt lat="44.76964" lon="1.40335">
        <ele>188.00862569995</ele>
        <time>2021-07-17T23:58:31.224Z</time>
      </trkpt>
      <trkpt lat="44.76965" lon="1.40327">
        <ele>188.68595964815</ele>
        <time>2021-07-17T23:58:51.568Z</time>
      </trkpt>
      <trkpt lat="44.76964" lon="1.40318">
        <ele>189.34962825333</ele>
        <time>2021-07-17T23:59:11.913Z</time>
      </trkpt>
      <trkpt lat="44.76962" lon="1.40309">
        <ele>190.01282803069</ele>
        <time>2021-07-17T23:59:32.260Z</time>
      </trkpt>
      <trkpt lat="44.76958" lon="1.40299">
        <ele>190.66756903201</ele>
        <time>2021-07-17T23:59:52.608Z</time>
      </trkpt>
      <trkpt lat="44.7695" lon="1.40288">
        <ele>191.30315986882</ele>
        <time>2021-07-18T00:00:12.959Z</time>
      </trkpt>
      <trkpt lat="44.76941" lon="1.40277">
        <ele>191.92589214762</ele>
        <time>2021-07-18T00:00:33.312Z</time>
      </trkpt>
      <trkpt lat="44.76936" lon="1.4028">
        <ele>192.52817568594</ele>
        <time>2021-07-18T00:00:53.666Z</time>
      </trkpt>
      <trkpt lat="44.7693" lon="1.4028">
        <ele>193.11870726241</ele>
        <time>2021-07-18T00:01:14.021Z</time>
      </trkpt>
      <trkpt lat="44.76916" lon="1.4028">
        <ele>193.75279479168</ele>
        <time>2021-07-18T00:01:34.379Z</time>
      </trkpt>
      <trkpt lat="44.76902" lon="1.40283">
        <ele>194.36317715384</ele>
        <time>2021-07-18T00:01:54.740Z</time>
      </trkpt>
      <trkpt lat="44.76893" lon="1.40286">
        <ele>194.89760833073</ele>
        <time>2021-07-18T00:02:15.103Z</time>
      </trkpt>
      <trkpt lat="44.76887" lon="1.40291">
        <ele>195.40185459557</ele>
        <time>2021-07-18T00:02:35.467Z</time>
      </trkpt>
      <trkpt lat="44.76881" lon="1.40299">
        <ele>195.8975916981</ele>
        <time>2021-07-18T00:02:55.833Z</time>
      </trkpt>
      <trkpt lat="44.76872" lon="1.40311">
        <ele>196.37763804191</ele>
        <time>2021-07-18T00:03:16.201Z</time>
      </trkpt>
      <trkpt lat="44.76855" lon="1.40333">
        <ele>196.83200365443</ele>
        <time>2021-07-18T00:03:36.574Z</time>
      </trkpt>
      <trkpt lat="44.76828" lon="1.40367">
        <ele>197.29331258428</ele>
        <time>2021-07-18T00:03:56.954Z</time>
      </trkpt>
      <trkpt lat="44.76809" lon="1.40389">
        <ele>197.76889035226</ele>
        <time>2021-07-18T00:04:17.339Z</time>
      </trkpt>
      <trkpt lat="44.76807" lon="1.40391">
        <ele>198.21437411475</ele>
        <time>2021-07-18T00:04:37.724Z</time>
      </trkpt>
      <trkpt lat="44.76795" lon="1.40406">
        <ele>198.67439344265</ele>
        <time>2021-07-18T00:04:58.113Z</time>
      </trkpt>
      <trkpt lat="44.76778" lon="1.40422">
        <ele>199.14486001071</ele>
        <time>2021-07-18T00:05:18.506Z</time>
      </trkpt>
      <trkpt lat="44.76759" lon="1.40439">
        <ele>199.63529766457</ele>
        <time>2021-07-18T00:05:38.903Z</time>
      </trkpt>
      <trkpt lat="44.76734" lon="1.4046">
        <ele>200.17117900692</ele>
        <time>2021-07-18T00:05:59.306Z</time>
      </trkpt>
      <trkpt lat="44.76702" lon="1.40484">
        <ele>200.74934834324</ele>
        <time>2021-07-18T00:06:19.716Z</time>
      </trkpt>
      <trkpt lat="44.76682" lon="1.405">
        <ele>201.33326542235</ele>
        <time>2021-07-18T00:06:40.131Z</time>
      </trkpt>
      <trkpt lat="44.76659" lon="1.40517">
        <ele>201.90275444204</ele>
        <time>2021-07-18T00:07:00.551Z</time>
      </trkpt>
      <trkpt lat="44.76637" lon="1.40532">
        <ele>202.5556522895</ele>
        <time>2021-07-18T00:07:20.976Z</time>
      </trkpt>
      <trkpt lat="44.76624" lon="1.40544">
        <ele>203.24459852958</ele>
        <time>2021-07-18T00:07:41.404Z</time>
      </trkpt>
      <trkpt lat="44.76613" lon="1.40555">
        <ele>203.98825495661</ele>
        <time>2021-07-18T00:08:01.835Z</time>
      </trkpt>
      <trkpt lat="44.766" lon="1.40567">
        <ele>204.77643561197</ele>
        <time>2021-07-18T00:08:22.269Z</time>
      </trkpt>
      <trkpt lat="44.76588" lon="1.40581">
        <ele>205.58470141549</ele>
        <time>2021-07-18T00:08:42.706Z</time>
      </trkpt>
      <trkpt lat="44.76571" lon="1.40598">
        <ele>206.5475637203</ele>
        <time>2021-07-18T00:09:03.147Z</time>
      </trkpt>
      <trkpt lat="44.76573" lon="1.40613">
        <ele>207.41521752461</ele>
        <time>2021-07-18T00:09:23.590Z</time>
      </trkpt>
      <trkpt lat="44.76573" lon="1.4062">
        <ele>208.30211981284</ele>
        <time>2021-07-18T00:09:44.034Z</time>
      </trkpt>
      <trkpt lat="44.76571" lon="1.40623">
        <ele>209.1932356478</ele>
        <time>2021-07-18T00:10:04.479Z</time>
      </trkpt>
      <trkpt lat="44.76559" lon="1.40632">
        <ele>210.18319909182</ele>
        <time>2021-07-18T00:10:24.927Z</time>
      </trkpt>
      <trkpt lat="44.76534" lon="1.40649">
        <ele>211.27849829265</ele>
        <time>2021-07-18T00:10:45.380Z</time>
      </trkpt>
      <trkpt lat="44.76512" lon="1.4067">
        <ele>212.04602252277</ele>
        <time>2021-07-18T00:11:05.839Z</time>
      </trkpt>
      <trkpt lat="44.76491" lon="1.40688">
        <ele>212.58487732495</ele>
        <time>2021-07-18T00:11:26.303Z</time>
      </trkpt>
      <trkpt lat="44.76473" lon="1.40702">
        <ele>213.13667356453</ele>
        <time>2021-07-18T00:11:46.770Z</time>
      </trkpt>
      <trkpt lat="44.7647" lon="1.40705">
        <ele>213.63584640204</ele>
        <time>2021-07-18T00:12:07.238Z</time>
      </trkpt>
      <trkpt lat="44.7647" lon="1.40705">
        <ele>214.07833556469</ele>
        <time>2021-07-18T00:12:27.706Z</time>
      </trkpt>
      <trkpt lat="44.76467" lon="1.40707">
        <ele>214.47261024923</ele>
        <time>2021-07-18T00:12:48.175Z</time>
      </trkpt>
      <trkpt lat="44.76461" lon="1.40711">
        <ele>214.81345806282</ele>
        <time>2021-07-18T00:13:08.645Z</time>
      </trkpt>
      <trkpt lat="44.76459" lon="1.40717">
        <ele>215.08162377421</ele>
        <time>2021-07-18T00:13:29.116Z</time>
      </trkpt>
      <trkpt lat="44.76454" lon="1.40732">
        <ele>215.26713218302</ele>
        <time>2021-07-18T00:13:49.590Z</time>
      </trkpt>
      <trkpt lat="44.76452" lon="1.40747">
        <ele>215.38726598508</ele>
        <time>2021-07-18T00:14:10.066Z</time>
      </trkpt>
      <trkpt lat="44.76452" lon="1.40757">
        <ele>215.45948017776</ele>
        <time>2021-07-18T00:14:30.543Z</time>
      </trkpt>
      <trkpt lat="44.76452" lon="1.40765">
        <ele>215.47297686091</ele>
        <time>2021-07-18T00:14:51.021Z</time>
      </trkpt>
      <trkpt lat="44.76451" lon="1.40773">
        <ele>215.43050279462</ele>
        <time>2021-07-18T00:15:11.500Z</time>
      </trkpt>
      <trkpt lat="44.76448" lon="1.40777">
        <ele>215.33585634118</ele>
        <time>2021-07-18T00:15:31.980Z</time>
      </trkpt>
      <trkpt lat="44.76432" lon="1.40794">
        <ele>215.18384466516</ele>
        <time>2021-07-18T00:15:52.464Z</time>
      </trkpt>
      <trkpt lat="44.76422" lon="1.40808">
        <ele>214.9386517208</ele>
        <time>2021-07-18T00:16:12.951Z</time>
      </trkpt>
      <trkpt lat="44.76412" lon="1.40824">
        <ele>214.56520134502</ele>
        <time>2021-07-18T00:16:33.441Z</time>
      </trkpt>
      <trkpt lat="44.764" lon="1.40838">
        <ele>214.17657016756</ele>
        <time>2021-07-18T00:16:53.934Z</time>
      </trkpt>
      <trkpt lat="44.76391" lon="1.40846">
        <ele>213.78687128894</ele>
        <time>2021-07-18T00:17:14.429Z</time>
      </trkpt>
      <trkpt lat="44.76379" lon="1.40852">
        <ele>213.3703408517</ele>
        <time>2021-07-18T00:17:34.927Z</time>
      </trkpt>
      <trkpt lat="44.76371" lon="1.40856">
        <ele>212.93638234523</ele>
        <time>2021-07-18T00:17:55.427Z</time>
      </trkpt>
      <trkpt lat="44.76363" lon="1.40862">
        <ele>212.49477476185</ele>
        <time>2021-07-18T00:18:15.929Z</time>
      </trkpt>
      <trkpt lat="44.76357" lon="1.40868">
        <ele>212.01910428868</ele>
        <time>2021-07-18T00:18:36.432Z</time>
      </trkpt>
      <trkpt lat="44.76353" lon="1.40876">
        <ele>211.49519992844</ele>
        <time>2021-07-18T00:18:56.936Z</time>
      </trkpt>
      <trkpt lat="44.7635" lon="1.40885">
        <ele>210.95078739674</ele>
        <time>2021-07-18T00:19:17.442Z</time>
      </trkpt>
      <trkpt lat="44.76349" lon="1.40897">
        <ele>210.37304645737</ele>
        <time>2021-07-18T00:19:37.950Z</time>
      </trkpt>
      <trkpt lat="44.76348" lon="1.40909">
        <ele>209.81065333983</ele>
        <time>2021-07-18T00:19:58.459Z</time>
      </trkpt>
      <trkpt lat="44.76346" lon="1.40934">
        <ele>209.28324738681</ele>
        <time>2021-07-18T00:20:18.972Z</time>
      </trkpt>
      <trkpt lat="44.76342" lon="1.40955">
        <ele>208.82412195347</ele>
        <time>2021-07-18T00:20:39.488Z</time>
      </trkpt>
      <trkpt lat="44.76337" lon="1.40968">
        <ele>208.44671680561</ele>
        <time>2021-07-18T00:21:00.006Z</time>
      </trkpt>
      <trkpt lat="44.76328" lon="1.40986">
        <ele>208.16585374398</ele>
        <time>2021-07-18T00:21:20.527Z</time>
      </trkpt>
      <trkpt lat="44.76318" lon="1.41002">
        <ele>207.9327833467</ele>
        <time>2021-07-18T00:21:41.051Z</time>
      </trkpt>
      <trkpt lat="44.76312" lon="1.41016">
        <ele>207.80178355838</ele>
        <time>2021-07-18T00:22:01.578Z</time>
      </trkpt>
      <trkpt lat="44.76287" lon="1.41032">
        <ele>207.85074337818</ele>
        <time>2021-07-18T00:22:22.110Z</time>
      </trkpt>
      <trkpt lat="44.76258" lon="1.41048">
        <ele>207.98315849466</ele>
        <time>2021-07-18T00:22:42.648Z</time>
      </trkpt>
      <trkpt lat="44.76229" lon="1.41064">
        <ele>207.90449422653</ele>
        <time>2021-07-18T00:23:03.192Z</time>
      </trkpt>
      <trkpt lat="44.76207" lon="1.4108">
        <ele>207.83425411213</ele>
        <time>2021-07-18T00:23:23.741Z</time>
      </trkpt>
      <trkpt lat="44.76183" lon="1.4109">
        <ele>208.03565189584</ele>
        <time>2021-07-18T00:23:44.295Z</time>
      </trkpt>
      <trkpt lat="44.76164" lon="1.41093">
        <ele>208.16690247808</ele>
        <time>2021-07-18T00:24:04.853Z</time>
      </trkpt>
      <trkpt lat="44.76117" lon="1.41094">
        <ele>208.31049414252</ele>
        <time>2021-07-18T00:24:25.421Z</time>
      </trkpt>
      <trkpt lat="44.76082" lon="1.41094">
        <ele>208.34059384106</ele>
        <time>2021-07-18T00:24:45.996Z</time>
      </trkpt>
      <trkpt lat="44.76081" lon="1.4109">
        <ele>208.36000327391</ele>
        <time>2021-07-18T00:25:06.571Z</time>
      </trkpt>
    </trkseg>
  </trk>
</gpx>